<?xml version='1.0' encoding='UTF-8'?><gpx version="1.1" creator="JPX - https://github.com/jenetics/jpx" xmlns="http://www.topografix.com/GPX/1/1"><trk><trkseg><trkpt lat="42.414197958663195" lon="12.768861866946676"><ele>423.0</ele><time>2026-04-12T09:22:51.001Z</time></trkpt><trkpt lat="42.414352559975235" lon="12.768793042146287"><ele>423.0</ele><time>2026-04-12T09:22:52.001Z</time></trkpt><trkpt lat="42.41450579864464" lon="12.768726933983151"><ele>423.0</ele><time>2026-04-12T09:22:53.001Z</time></trkpt><trkpt lat="42.41465932066466" lon="12.768669305786775"><ele>421.66666666666663</ele><time>2026-04-12T09:22:54.001Z</time></trkpt><trkpt lat="42.41482001327606" lon="12.768602547452671"><ele>420.3333333333333</ele><time>2026-04-12T09:22:55.001Z</time></trkpt><trkpt lat="42.41498201935554" lon="12.76854386485534"><ele>419.0</ele><time>2026-04-12T09:22:56.001Z</time></trkpt><trkpt lat="42.41514782676609" lon="12.76848083835193"><ele>424.66666666666663</ele><time>2026-04-12T09:22:57.001Z</time></trkpt><trkpt lat="42.41530716961323" lon="12.768420983934611"><ele>430.33333333333337</ele><time>2026-04-12T09:22:58.001Z</time></trkpt><trkpt lat="42.41547416741968" lon="12.76834562295611"><ele>436.0</ele><time>2026-04-12T09:22:59.001Z</time></trkpt><trkpt lat="42.41564081430883" lon="12.768264244733908"><ele>436.0</ele><time>2026-04-12T09:23:00.001Z</time></trkpt><trkpt lat="42.41580972663263" lon="12.768178372495646"><ele>436.0</ele><time>2026-04-12T09:23:01.001Z</time></trkpt><trkpt lat="42.415963081980635" lon="12.768076310782742"><ele>436.0</ele><time>2026-04-12T09:23:02.001Z</time></trkpt><trkpt lat="42.416120056352504" lon="12.767959296078219"><ele>436.0</ele><time>2026-04-12T09:23:03.001Z</time></trkpt><trkpt lat="42.416288275676564" lon="12.767811039219344"><ele>436.0</ele><time>2026-04-12T09:23:04.001Z</time></trkpt><trkpt lat="42.416437098708144" lon="12.767674959067609"><ele>436.0</ele><time>2026-04-12T09:23:05.001Z</time></trkpt><trkpt lat="42.41659156869588" lon="12.767539559734116"><ele>441.6666666666667</ele><time>2026-04-12T09:23:06.001Z</time></trkpt><trkpt lat="42.41673804127659" lon="12.767369353137209"><ele>447.33333333333337</ele><time>2026-04-12T09:23:07.001Z</time></trkpt><trkpt lat="42.41688408167747" lon="12.767180751691583"><ele>453.0</ele><time>2026-04-12T09:23:08.001Z</time></trkpt><trkpt lat="42.41701704915276" lon="12.766975926139876"><ele>448.33333333333337</ele><time>2026-04-12T09:23:09.001Z</time></trkpt><trkpt lat="42.41714056708608" lon="12.766768191649074"><ele>443.6666666666667</ele><time>2026-04-12T09:23:10Z</time></trkpt><trkpt lat="42.417257290491804" lon="12.766547199525228"><ele>439.0</ele><time>2026-04-12T09:23:11Z</time></trkpt><trkpt lat="42.41737872315469" lon="12.766344892089577"><ele>439.0</ele><time>2026-04-12T09:23:12Z</time></trkpt><trkpt lat="42.417493654631855" lon="12.766148198265384"><ele>439.0</ele><time>2026-04-12T09:23:13Z</time></trkpt><trkpt lat="42.41760942644789" lon="12.765963192059738"><ele>439.0</ele><time>2026-04-12T09:23:14Z</time></trkpt><trkpt lat="42.41772074821652" lon="12.765781165041119"><ele>449.0</ele><time>2026-04-12T09:23:15Z</time></trkpt><trkpt lat="42.41781735307343" lon="12.7655915026961"><ele>459.0</ele><time>2026-04-12T09:23:16Z</time></trkpt><trkpt lat="42.41787632174921" lon="12.765379871551907"><ele>469.0</ele><time>2026-04-12T09:23:17Z</time></trkpt><trkpt lat="42.41792852376713" lon="12.765132311987065"><ele>477.33333333333337</ele><time>2026-04-12T09:23:18Z</time></trkpt><trkpt lat="42.41797327169194" lon="12.76487291905177"><ele>485.66666666666663</ele><time>2026-04-12T09:23:19Z</time></trkpt><trkpt lat="42.41800139117028" lon="12.76461855837492"><ele>494.0</ele><time>2026-04-12T09:23:20Z</time></trkpt><trkpt lat="42.418046248258754" lon="12.76438050284184"><ele>481.3333333333333</ele><time>2026-04-12T09:23:21Z</time></trkpt><trkpt lat="42.41813423143925" lon="12.76416189232825"><ele>468.66666666666663</ele><time>2026-04-12T09:23:22Z</time></trkpt><trkpt lat="42.41823425471524" lon="12.763997562689765"><ele>456.0</ele><time>2026-04-12T09:23:23Z</time></trkpt><trkpt lat="42.41834918191757" lon="12.763818422665361"><ele>456.0</ele><time>2026-04-12T09:23:24Z</time></trkpt><trkpt lat="42.41843223842247" lon="12.763657930358628"><ele>456.0</ele><time>2026-04-12T09:23:25Z</time></trkpt><trkpt lat="42.41846802600808" lon="12.763476236854622"><ele>456.0</ele><time>2026-04-12T09:23:26Z</time></trkpt><trkpt lat="42.41843994631771" lon="12.763308548306158"><ele>456.0</ele><time>2026-04-12T09:23:27Z</time></trkpt><trkpt lat="42.418406184459855" lon="12.76318010526315"><ele>459.0</ele><time>2026-04-12T09:23:28Z</time></trkpt><trkpt lat="42.41831875156099" lon="12.763038726146368"><ele>462.0</ele><time>2026-04-12T09:23:29Z</time></trkpt><trkpt lat="42.41820184947886" lon="12.762917908397727"><ele>465.0</ele><time>2026-04-12T09:23:30Z</time></trkpt><trkpt lat="42.41809396539602" lon="12.762797519243462"><ele>468.0</ele><time>2026-04-12T09:23:31Z</time></trkpt><trkpt lat="42.41802070832546" lon="12.762682140636157"><ele>468.0</ele><time>2026-04-12T09:23:32Z</time></trkpt><trkpt lat="42.41799265418052" lon="12.762521184749241"><ele>468.0</ele><time>2026-04-12T09:23:33Z</time></trkpt><trkpt lat="42.41804205977732" lon="12.76240555335271"><ele>468.0</ele><time>2026-04-12T09:23:34Z</time></trkpt><trkpt lat="42.418122614015104" lon="12.762328489118314"><ele>468.0</ele><time>2026-04-12T09:23:35Z</time></trkpt><trkpt lat="42.418216749630474" lon="12.762196266761492"><ele>468.0</ele><time>2026-04-12T09:23:36Z</time></trkpt><trkpt lat="42.41832050777457" lon="12.762047419646944"><ele>468.0</ele><time>2026-04-12T09:23:37Z</time></trkpt><trkpt lat="42.418429912138464" lon="12.76189406411562"><ele>468.0</ele><time>2026-04-12T09:23:38Z</time></trkpt><trkpt lat="42.41852927152216" lon="12.761733527003498"><ele>472.75</ele><time>2026-04-12T09:23:39Z</time></trkpt><trkpt lat="42.41858998316862" lon="12.761563618861924"><ele>477.5</ele><time>2026-04-12T09:23:40Z</time></trkpt><trkpt lat="42.41863370922532" lon="12.761410218268216"><ele>482.25</ele><time>2026-04-12T09:23:41Z</time></trkpt><trkpt lat="42.41865259267774" lon="12.761177837698774"><ele>487.0</ele><time>2026-04-12T09:23:42Z</time></trkpt><trkpt lat="42.41865483455566" lon="12.760967002369329"><ele>492.75</ele><time>2026-04-12T09:23:43Z</time></trkpt><trkpt lat="42.41865981449552" lon="12.760776368106661"><ele>498.5</ele><time>2026-04-12T09:23:44Z</time></trkpt><trkpt lat="42.41868025535888" lon="12.760592728481932"><ele>504.25</ele><time>2026-04-12T09:23:45Z</time></trkpt><trkpt lat="42.41868859307013" lon="12.760421663311467"><ele>510.0</ele><time>2026-04-12T09:23:46Z</time></trkpt><trkpt lat="42.418713597311715" lon="12.760262310193573"><ele>511.2</ele><time>2026-04-12T09:23:47Z</time></trkpt><trkpt lat="42.418769136495186" lon="12.760131081974103"><ele>512.4</ele><time>2026-04-12T09:23:48Z</time></trkpt><trkpt lat="42.41886244505923" lon="12.760052718593776"><ele>513.6</ele><time>2026-04-12T09:23:49Z</time></trkpt><trkpt lat="42.418963577054434" lon="12.760048722348314"><ele>514.8</ele><time>2026-04-12T09:23:50Z</time></trkpt><trkpt lat="42.41904530155781" lon="12.76011026567308"><ele>516.0</ele><time>2026-04-12T09:23:51Z</time></trkpt><trkpt lat="42.41910216544946" lon="12.760248409087525"><ele>507.8</ele><time>2026-04-12T09:23:52Z</time></trkpt><trkpt lat="42.41920141401389" lon="12.76032510360099"><ele>499.6</ele><time>2026-04-12T09:23:53Z</time></trkpt><trkpt lat="42.419304133090456" lon="12.760406449760321"><ele>491.4</ele><time>2026-04-12T09:23:54Z</time></trkpt><trkpt lat="42.419396697604924" lon="12.760415717900349"><ele>483.2</ele><time>2026-04-12T09:23:55Z</time></trkpt><trkpt lat="42.41948604878858" lon="12.76035827971731"><ele>475.0</ele><time>2026-04-12T09:23:56Z</time></trkpt><trkpt lat="42.41955732060565" lon="12.760265678107885"><ele>479.75</ele><time>2026-04-12T09:23:57Z</time></trkpt><trkpt lat="42.419596055580655" lon="12.760111220449891"><ele>484.5</ele><time>2026-04-12T09:23:58Z</time></trkpt><trkpt lat="42.41959438385592" lon="12.759950668810687"><ele>489.25</ele><time>2026-04-12T09:23:59Z</time></trkpt><trkpt lat="42.41955540408227" lon="12.75978894580853"><ele>494.0</ele><time>2026-04-12T09:24:00Z</time></trkpt><trkpt lat="42.419533392466256" lon="12.75958352239166"><ele>494.0</ele><time>2026-04-12T09:24:01Z</time></trkpt><trkpt lat="42.41955563961001" lon="12.759394678608349"><ele>494.0</ele><time>2026-04-12T09:24:02Z</time></trkpt><trkpt lat="42.41959974445445" lon="12.759218321275855"><ele>494.0</ele><time>2026-04-12T09:24:03Z</time></trkpt><trkpt lat="42.41967272476418" lon="12.758998504912757"><ele>491.0</ele><time>2026-04-12T09:24:04Z</time></trkpt><trkpt lat="42.41972278045954" lon="12.758811366154164"><ele>488.0</ele><time>2026-04-12T09:24:05Z</time></trkpt><trkpt lat="42.41976586426372" lon="12.758630171599396"><ele>485.0</ele><time>2026-04-12T09:24:06Z</time></trkpt><trkpt lat="42.41974586791907" lon="12.758357203839822"><ele>485.0</ele><time>2026-04-12T09:24:07Z</time></trkpt><trkpt lat="42.41972078410405" lon="12.758101788375596"><ele>485.0</ele><time>2026-04-12T09:24:08Z</time></trkpt><trkpt lat="42.4197053829095" lon="12.757861361326249"><ele>485.0</ele><time>2026-04-12T09:24:09Z</time></trkpt><trkpt lat="42.41968711788674" lon="12.757617647176618"><ele>486.0</ele><time>2026-04-12T09:24:10Z</time></trkpt><trkpt lat="42.41967736786746" lon="12.757379804465835"><ele>487.0</ele><time>2026-04-12T09:24:11Z</time></trkpt><trkpt lat="42.41966500287356" lon="12.757129063034274"><ele>488.0</ele><time>2026-04-12T09:24:12Z</time></trkpt><trkpt lat="42.41964873745465" lon="12.756915972379382"><ele>504.66666666666663</ele><time>2026-04-12T09:24:13Z</time></trkpt><trkpt lat="42.41961437720086" lon="12.75671556066885"><ele>521.3333333333334</ele><time>2026-04-12T09:24:14Z</time></trkpt><trkpt lat="42.41958838894557" lon="12.756506037537468"><ele>538.0</ele><time>2026-04-12T09:24:15Z</time></trkpt><trkpt lat="42.41957297339267" lon="12.756298065333116"><ele>538.0</ele><time>2026-04-12T09:24:16Z</time></trkpt><trkpt lat="42.419553033389924" lon="12.756132151017216"><ele>538.0</ele><time>2026-04-12T09:24:17Z</time></trkpt><trkpt lat="42.419523757551026" lon="12.756001584343174"><ele>538.0</ele><time>2026-04-12T09:24:18Z</time></trkpt><trkpt lat="42.419494416378775" lon="12.755900222847838"><ele>538.0</ele><time>2026-04-12T09:24:19Z</time></trkpt><trkpt lat="42.41943144389102" lon="12.755855787271921"><ele>538.0</ele><time>2026-04-12T09:24:20Z</time></trkpt><trkpt lat="42.41935368276813" lon="12.755859232166634"><ele>538.0</ele><time>2026-04-12T09:24:21Z</time></trkpt><trkpt lat="42.4192832461403" lon="12.755925929112067"><ele>538.0</ele><time>2026-04-12T09:24:22Z</time></trkpt><trkpt lat="42.41924513955172" lon="12.756022527886802"><ele>538.0</ele><time>2026-04-12T09:24:23Z</time></trkpt><trkpt lat="42.419264758923426" lon="12.756150519635675"><ele>538.0</ele><time>2026-04-12T09:24:24Z</time></trkpt><trkpt lat="42.419319202731586" lon="12.756315440282426"><ele>538.0</ele><time>2026-04-12T09:24:25Z</time></trkpt><trkpt lat="42.419361404045794" lon="12.756539579023022"><ele>538.0</ele><time>2026-04-12T09:24:26Z</time></trkpt><trkpt lat="42.41940270584141" lon="12.75677713563206"><ele>538.0</ele><time>2026-04-12T09:24:27Z</time></trkpt><trkpt lat="42.419434193939054" lon="12.75706387015767"><ele>538.0</ele><time>2026-04-12T09:24:28Z</time></trkpt><trkpt lat="42.419446585195665" lon="12.757364044671258"><ele>538.5</ele><time>2026-04-12T09:24:29Z</time></trkpt><trkpt lat="42.41945039611812" lon="12.757686397509"><ele>539.0</ele><time>2026-04-12T09:24:30Z</time></trkpt><trkpt lat="42.41944230585975" lon="12.757976757169113"><ele>539.0</ele><time>2026-04-12T09:24:31Z</time></trkpt><trkpt lat="42.41942603153086" lon="12.758232398226538"><ele>539.0</ele><time>2026-04-12T09:24:32Z</time></trkpt><trkpt lat="42.41941116117388" lon="12.758455093731813"><ele>539.0</ele><time>2026-04-12T09:24:33Z</time></trkpt><trkpt lat="42.41937420105713" lon="12.75864683116591"><ele>534.25</ele><time>2026-04-12T09:24:34Z</time></trkpt><trkpt lat="42.41928412784986" lon="12.758799682243502"><ele>529.5</ele><time>2026-04-12T09:24:35Z</time></trkpt><trkpt lat="42.41920347370857" lon="12.758961053303867"><ele>524.75</ele><time>2026-04-12T09:24:36Z</time></trkpt><trkpt lat="42.4191297446986" lon="12.759089306215005"><ele>520.0</ele><time>2026-04-12T09:24:37Z</time></trkpt><trkpt lat="42.41904761975847" lon="12.75915201496899"><ele>520.0</ele><time>2026-04-12T09:24:38Z</time></trkpt><trkpt lat="42.41896714625739" lon="12.759122365619474"><ele>520.0</ele><time>2026-04-12T09:24:39Z</time></trkpt><trkpt lat="42.41888901743751" lon="12.759046548883664"><ele>520.0</ele><time>2026-04-12T09:24:40Z</time></trkpt><trkpt lat="42.41878671704105" lon="12.758932692128209"><ele>520.0</ele><time>2026-04-12T09:24:41Z</time></trkpt><trkpt lat="42.41865530550123" lon="12.7588013450073"><ele>522.6666666666667</ele><time>2026-04-12T09:24:42Z</time></trkpt><trkpt lat="42.418503940176166" lon="12.758652859340678"><ele>525.3333333333334</ele><time>2026-04-12T09:24:43Z</time></trkpt><trkpt lat="42.41835367691409" lon="12.758521484655576"><ele>528.0</ele><time>2026-04-12T09:24:44Z</time></trkpt><trkpt lat="42.41822100033619" lon="12.758398570282814"><ele>530.8</ele><time>2026-04-12T09:24:45Z</time></trkpt><trkpt lat="42.41811488378726" lon="12.75830304360155"><ele>533.5999999999999</ele><time>2026-04-12T09:24:46Z</time></trkpt><trkpt lat="42.41801399308527" lon="12.758243069098667"><ele>536.4000000000001</ele><time>2026-04-12T09:24:47Z</time></trkpt><trkpt lat="42.417920934114356" lon="12.758243122515312"><ele>539.2</ele><time>2026-04-12T09:24:48Z</time></trkpt><trkpt lat="42.417841016025214" lon="12.758312896994882"><ele>542.0</ele><time>2026-04-12T09:24:49Z</time></trkpt><trkpt lat="42.417773841129495" lon="12.758410845653904"><ele>550.6666666666666</ele><time>2026-04-12T09:24:50Z</time></trkpt><trkpt lat="42.41771917111716" lon="12.75855360430839"><ele>559.3333333333334</ele><time>2026-04-12T09:24:51Z</time></trkpt><trkpt lat="42.417706632877824" lon="12.758785045955005"><ele>568.0</ele><time>2026-04-12T09:24:52Z</time></trkpt><trkpt lat="42.41770141746104" lon="12.759032987969928"><ele>568.0</ele><time>2026-04-12T09:24:53Z</time></trkpt><trkpt lat="42.4177442218774" lon="12.759260643874601"><ele>568.0</ele><time>2026-04-12T09:24:54Z</time></trkpt><trkpt lat="42.41780696394999" lon="12.759536775204438"><ele>568.0</ele><time>2026-04-12T09:24:55Z</time></trkpt><trkpt lat="42.417850453679904" lon="12.759847586399879"><ele>568.0</ele><time>2026-04-12T09:24:56Z</time></trkpt><trkpt lat="42.417886551026015" lon="12.760112431537435"><ele>568.0</ele><time>2026-04-12T09:24:57Z</time></trkpt><trkpt lat="42.41791704717222" lon="12.760346396224751"><ele>568.0</ele><time>2026-04-12T09:24:58Z</time></trkpt><trkpt lat="42.41792860862529" lon="12.760534795704963"><ele>563.8</ele><time>2026-04-12T09:24:59Z</time></trkpt><trkpt lat="42.417915160823874" lon="12.760673704720157"><ele>559.5999999999999</ele><time>2026-04-12T09:25:00Z</time></trkpt><trkpt lat="42.41786221051669" lon="12.760740915486105"><ele>555.4000000000001</ele><time>2026-04-12T09:25:01Z</time></trkpt><trkpt lat="42.417800597946346" lon="12.760810699745948"><ele>551.2</ele><time>2026-04-12T09:25:02Z</time></trkpt><trkpt lat="42.41771379185654" lon="12.760857796345478"><ele>547.0</ele><time>2026-04-12T09:25:03Z</time></trkpt><trkpt lat="42.41760849413798" lon="12.760847497447132"><ele>547.0</ele><time>2026-04-12T09:25:04Z</time></trkpt><trkpt lat="42.41748013332766" lon="12.760792947898905"><ele>547.0</ele><time>2026-04-12T09:25:05Z</time></trkpt><trkpt lat="42.41732797498118" lon="12.760731481897489"><ele>547.0</ele><time>2026-04-12T09:25:06Z</time></trkpt><trkpt lat="42.41719769230323" lon="12.760726048064438"><ele>547.0</ele><time>2026-04-12T09:25:07Z</time></trkpt><trkpt lat="42.41708919961283" lon="12.760735632410386"><ele>542.6666666666667</ele><time>2026-04-12T09:25:08Z</time></trkpt><trkpt lat="42.416969735152854" lon="12.760820113128997"><ele>538.3333333333334</ele><time>2026-04-12T09:25:09Z</time></trkpt><trkpt lat="42.41682827588961" lon="12.760951238699333"><ele>534.0</ele><time>2026-04-12T09:25:10Z</time></trkpt><trkpt lat="42.41667827577759" lon="12.76104289244899"><ele>534.0</ele><time>2026-04-12T09:25:11Z</time></trkpt><trkpt lat="42.416520281332744" lon="12.76115683244141"><ele>534.0</ele><time>2026-04-12T09:25:12Z</time></trkpt><trkpt lat="42.41633721889067" lon="12.761287119400112"><ele>534.0</ele><time>2026-04-12T09:25:13Z</time></trkpt><trkpt lat="42.41615724952916" lon="12.761431704880566"><ele>545.6666666666666</ele><time>2026-04-12T09:25:14Z</time></trkpt><trkpt lat="42.415994391638485" lon="12.761551439251571"><ele>557.3333333333333</ele><time>2026-04-12T09:25:15Z</time></trkpt><trkpt lat="42.41584722636519" lon="12.761657026799375"><ele>569.0</ele><time>2026-04-12T09:25:16Z</time></trkpt><trkpt lat="42.415706650671915" lon="12.761751852434925"><ele>569.0</ele><time>2026-04-12T09:25:17Z</time></trkpt><trkpt lat="42.415596559622" lon="12.761810726450326"><ele>569.0</ele><time>2026-04-12T09:25:18Z</time></trkpt><trkpt lat="42.41550842935542" lon="12.761879483091915"><ele>569.0</ele><time>2026-04-12T09:25:19Z</time></trkpt><trkpt lat="42.415475685312146" lon="12.761976540406772"><ele>569.0</ele><time>2026-04-12T09:25:20Z</time></trkpt><trkpt lat="42.41548662059642" lon="12.762087764933028"><ele>569.0</ele><time>2026-04-12T09:25:21Z</time></trkpt><trkpt lat="42.41551951689156" lon="12.762198210194823"><ele>568.6666666666666</ele><time>2026-04-12T09:25:22Z</time></trkpt><trkpt lat="42.41562959221452" lon="12.762357829597693"><ele>568.3333333333334</ele><time>2026-04-12T09:25:23Z</time></trkpt><trkpt lat="42.41574603941224" lon="12.762486355500242"><ele>568.0</ele><time>2026-04-12T09:25:24Z</time></trkpt><trkpt lat="42.41588418044352" lon="12.762649394762123"><ele>574.3333333333334</ele><time>2026-04-12T09:25:25Z</time></trkpt><trkpt lat="42.41601471463232" lon="12.762811892983153"><ele>580.6666666666666</ele><time>2026-04-12T09:25:26Z</time></trkpt><trkpt lat="42.41616284583924" lon="12.762993349940512"><ele>587.0</ele><time>2026-04-12T09:25:27Z</time></trkpt><trkpt lat="42.41628998523834" lon="12.763147366172293"><ele>579.25</ele><time>2026-04-12T09:25:28Z</time></trkpt><trkpt lat="42.416403025244634" lon="12.763295073529665"><ele>571.5</ele><time>2026-04-12T09:25:29Z</time></trkpt><trkpt lat="42.416474980233666" lon="12.763448877659973"><ele>563.75</ele><time>2026-04-12T09:25:30Z</time></trkpt><trkpt lat="42.41649901413559" lon="12.763601414078247"><ele>556.0</ele><time>2026-04-12T09:25:31Z</time></trkpt><trkpt lat="42.41647683487375" lon="12.763735978383504"><ele>556.0</ele><time>2026-04-12T09:25:32Z</time></trkpt><trkpt lat="42.416404133807895" lon="12.763864843127818"><ele>556.0</ele><time>2026-04-12T09:25:33Z</time></trkpt><trkpt lat="42.41632101241127" lon="12.764045159852705"><ele>556.0</ele><time>2026-04-12T09:25:34Z</time></trkpt><trkpt lat="42.416223326369746" lon="12.764184011709382"><ele>556.0</ele><time>2026-04-12T09:25:35Z</time></trkpt><trkpt lat="42.41611035220035" lon="12.764275337055393"><ele>562.25</ele><time>2026-04-12T09:25:36Z</time></trkpt><trkpt lat="42.415998112658485" lon="12.764309466806807"><ele>568.5</ele><time>2026-04-12T09:25:37Z</time></trkpt><trkpt lat="42.41585847382401" lon="12.764269293498533"><ele>574.75</ele><time>2026-04-12T09:25:38Z</time></trkpt><trkpt lat="42.41569799384348" lon="12.764220908261873"><ele>581.0</ele><time>2026-04-12T09:25:39Z</time></trkpt><trkpt lat="42.415510499902815" lon="12.764167012939005"><ele>581.6666666666666</ele><time>2026-04-12T09:25:40Z</time></trkpt><trkpt lat="42.41531692127638" lon="12.764112933911816"><ele>582.3333333333334</ele><time>2026-04-12T09:25:41Z</time></trkpt><trkpt lat="42.415114435710315" lon="12.764054733334943"><ele>583.0</ele><time>2026-04-12T09:25:42Z</time></trkpt><trkpt lat="42.41493035434941" lon="12.763997963908997"><ele>583.0</ele><time>2026-04-12T09:25:43Z</time></trkpt><trkpt lat="42.414771977371366" lon="12.763934317145372"><ele>583.0</ele><time>2026-04-12T09:25:44Z</time></trkpt><trkpt lat="42.41465105780034" lon="12.763841526625741"><ele>583.0</ele><time>2026-04-12T09:25:45Z</time></trkpt><trkpt lat="42.414538560775995" lon="12.76370062842368"><ele>583.0</ele><time>2026-04-12T09:25:46Z</time></trkpt><trkpt lat="42.41443815863669" lon="12.76353435550771"><ele>583.0</ele><time>2026-04-12T09:25:47Z</time></trkpt><trkpt lat="42.414351641721005" lon="12.763327593865752"><ele>583.0</ele><time>2026-04-12T09:25:48Z</time></trkpt><trkpt lat="42.414248879089975" lon="12.763073322330909"><ele>583.0</ele><time>2026-04-12T09:25:49Z</time></trkpt><trkpt lat="42.414141667966966" lon="12.762811633378796"><ele>583.0</ele><time>2026-04-12T09:25:50Z</time></trkpt><trkpt lat="42.414022619467886" lon="12.7625280319556"><ele>576.0</ele><time>2026-04-12T09:25:51Z</time></trkpt><trkpt lat="42.41389949245088" lon="12.762251295842235"><ele>569.0</ele><time>2026-04-12T09:25:52Z</time></trkpt><trkpt lat="42.41378030898086" lon="12.76201003623341"><ele>579.0</ele><time>2026-04-12T09:25:53Z</time></trkpt><trkpt lat="42.41364651996982" lon="12.76178607686456"><ele>589.0</ele><time>2026-04-12T09:25:54Z</time></trkpt><trkpt lat="42.41350148495281" lon="12.76161152051331"><ele>599.0</ele><time>2026-04-12T09:25:55Z</time></trkpt><trkpt lat="42.41333698751204" lon="12.761458016649442"><ele>599.0</ele><time>2026-04-12T09:25:56Z</time></trkpt><trkpt lat="42.41316133407045" lon="12.761305734491364"><ele>599.0</ele><time>2026-04-12T09:25:57Z</time></trkpt><trkpt lat="42.412962264932005" lon="12.761171172333412"><ele>599.0</ele><time>2026-04-12T09:25:58Z</time></trkpt><trkpt lat="42.41276259255501" lon="12.76107205461389"><ele>600.0</ele><time>2026-04-12T09:25:59Z</time></trkpt><trkpt lat="42.41259914103975" lon="12.760995752439431"><ele>601.0</ele><time>2026-04-12T09:26:00Z</time></trkpt><trkpt lat="42.412466628507204" lon="12.760910207570836"><ele>602.0</ele><time>2026-04-12T09:26:01Z</time></trkpt><trkpt lat="42.412382944573324" lon="12.7608172219642"><ele>603.0</ele><time>2026-04-12T09:26:02Z</time></trkpt><trkpt lat="42.41232797856443" lon="12.760691305647287"><ele>603.0</ele><time>2026-04-12T09:26:03Z</time></trkpt><trkpt lat="42.41229246694485" lon="12.760546062801156"><ele>603.0</ele><time>2026-04-12T09:26:04Z</time></trkpt><trkpt lat="42.412293116001514" lon="12.76038103697078"><ele>603.0</ele><time>2026-04-12T09:26:05Z</time></trkpt><trkpt lat="42.41230056144188" lon="12.760183288356602"><ele>603.0</ele><time>2026-04-12T09:26:06Z</time></trkpt><trkpt lat="42.412341457967365" lon="12.75993658990236"><ele>604.0</ele><time>2026-04-12T09:26:07Z</time></trkpt><trkpt lat="42.41240475006373" lon="12.759676985349733"><ele>605.0</ele><time>2026-04-12T09:26:08Z</time></trkpt><trkpt lat="42.41248243032203" lon="12.759410687654553"><ele>606.0</ele><time>2026-04-12T09:26:09Z</time></trkpt><trkpt lat="42.41257331490247" lon="12.759125264585785"><ele>606.0</ele><time>2026-04-12T09:26:10Z</time></trkpt><trkpt lat="42.41267028064253" lon="12.75887469034924"><ele>606.0</ele><time>2026-04-12T09:26:11Z</time></trkpt><trkpt lat="42.41275895922333" lon="12.758664127762248"><ele>606.0</ele><time>2026-04-12T09:26:12Z</time></trkpt><trkpt lat="42.412845537829845" lon="12.75844771724686"><ele>606.75</ele><time>2026-04-12T09:26:13Z</time></trkpt><trkpt lat="42.41290408248533" lon="12.758227913763132"><ele>607.5</ele><time>2026-04-12T09:26:14Z</time></trkpt><trkpt lat="42.41292949823154" lon="12.758070713172566"><ele>608.25</ele><time>2026-04-12T09:26:15Z</time></trkpt><trkpt lat="42.41293190498608" lon="12.757859308604885"><ele>609.0</ele><time>2026-04-12T09:26:16Z</time></trkpt><trkpt lat="42.4129012616285" lon="12.757643329856261"><ele>609.0</ele><time>2026-04-12T09:26:17Z</time></trkpt><trkpt lat="42.41283237210471" lon="12.757419538763205"><ele>609.0</ele><time>2026-04-12T09:26:18Z</time></trkpt><trkpt lat="42.41273375864547" lon="12.75721034338262"><ele>609.0</ele><time>2026-04-12T09:26:19Z</time></trkpt><trkpt lat="42.41264227246309" lon="12.757034090606469"><ele>609.0</ele><time>2026-04-12T09:26:20Z</time></trkpt><trkpt lat="42.41254383697672" lon="12.75690527791046"><ele>609.0</ele><time>2026-04-12T09:26:21Z</time></trkpt><trkpt lat="42.41242395101134" lon="12.756808317305142"><ele>609.0</ele><time>2026-04-12T09:26:22Z</time></trkpt><trkpt lat="42.41228684479055" lon="12.756714972732427"><ele>609.0</ele><time>2026-04-12T09:26:23Z</time></trkpt><trkpt lat="42.412193012054416" lon="12.756575189539292"><ele>605.75</ele><time>2026-04-12T09:26:24Z</time></trkpt><trkpt lat="42.41213075673837" lon="12.756423047262604"><ele>602.5</ele><time>2026-04-12T09:26:25Z</time></trkpt><trkpt lat="42.412107141644476" lon="12.756259811094486"><ele>599.25</ele><time>2026-04-12T09:26:26Z</time></trkpt><trkpt lat="42.41210944084102" lon="12.756084738916153"><ele>596.0</ele><time>2026-04-12T09:26:27Z</time></trkpt><trkpt lat="42.41214804431559" lon="12.75591248205575"><ele>605.75</ele><time>2026-04-12T09:26:28Z</time></trkpt><trkpt lat="42.41222483626571" lon="12.755750821024744"><ele>615.5</ele><time>2026-04-12T09:26:29Z</time></trkpt><trkpt lat="42.41231927001226" lon="12.755647520876735"><ele>625.25</ele><time>2026-04-12T09:26:30Z</time></trkpt><trkpt lat="42.41244284938817" lon="12.755537741097402"><ele>635.0</ele><time>2026-04-12T09:26:31Z</time></trkpt><trkpt lat="42.41256979530946" lon="12.755411797751645"><ele>635.0</ele><time>2026-04-12T09:26:32Z</time></trkpt><trkpt lat="42.41268742461678" lon="12.755317655504959"><ele>635.0</ele><time>2026-04-12T09:26:33Z</time></trkpt><trkpt lat="42.412758931486245" lon="12.755204934906986"><ele>635.0</ele><time>2026-04-12T09:26:34Z</time></trkpt><trkpt lat="42.41277586058371" lon="12.755071225352825"><ele>635.0</ele><time>2026-04-12T09:26:35Z</time></trkpt><trkpt lat="42.41275593843258" lon="12.754936463282872"><ele>635.0</ele><time>2026-04-12T09:26:36Z</time></trkpt><trkpt lat="42.412693833984115" lon="12.754791045901856"><ele>633.0</ele><time>2026-04-12T09:26:37Z</time></trkpt><trkpt lat="42.41261967189041" lon="12.754625974547022"><ele>631.0</ele><time>2026-04-12T09:26:38Z</time></trkpt><trkpt lat="42.41257894662975" lon="12.754420594781475"><ele>629.0</ele><time>2026-04-12T09:26:39Z</time></trkpt><trkpt lat="42.41254048486727" lon="12.754186947846835"><ele>629.0</ele><time>2026-04-12T09:26:40Z</time></trkpt><trkpt lat="42.412527075712546" lon="12.753974325490924"><ele>629.0</ele><time>2026-04-12T09:26:41Z</time></trkpt><trkpt lat="42.412535396177475" lon="12.75378287708722"><ele>629.0</ele><time>2026-04-12T09:26:42Z</time></trkpt><trkpt lat="42.41257596345181" lon="12.753599669084867"><ele>629.0</ele><time>2026-04-12T09:26:43Z</time></trkpt><trkpt lat="42.4126289864423" lon="12.753385431842442"><ele>628.3333333333333</ele><time>2026-04-12T09:26:44Z</time></trkpt><trkpt lat="42.41273332201977" lon="12.75318490289082"><ele>627.6666666666666</ele><time>2026-04-12T09:26:45Z</time></trkpt><trkpt lat="42.41280614038456" lon="12.752957515198547"><ele>627.0</ele><time>2026-04-12T09:26:46Z</time></trkpt><trkpt lat="42.412901073896066" lon="12.752725910484932"><ele>638.6666666666666</ele><time>2026-04-12T09:26:47Z</time></trkpt><trkpt lat="42.412999744080224" lon="12.752488285700162"><ele>650.3333333333333</ele><time>2026-04-12T09:26:48Z</time></trkpt><trkpt lat="42.413101126478054" lon="12.752257517390367"><ele>662.0</ele><time>2026-04-12T09:26:49Z</time></trkpt><trkpt lat="42.41320302590438" lon="12.752029682911502"><ele>656.0</ele><time>2026-04-12T09:26:50Z</time></trkpt><trkpt lat="42.413299870465195" lon="12.751804491671406"><ele>650.0</ele><time>2026-04-12T09:26:51Z</time></trkpt><trkpt lat="42.41339825801205" lon="12.751580864473537"><ele>644.0</ele><time>2026-04-12T09:26:52Z</time></trkpt><trkpt lat="42.41349905435744" lon="12.751357815732568"><ele>644.0</ele><time>2026-04-12T09:26:53Z</time></trkpt><trkpt lat="42.41360360011816" lon="12.751143518029254"><ele>644.0</ele><time>2026-04-12T09:26:54Z</time></trkpt><trkpt lat="42.41370431150456" lon="12.750952798190632"><ele>644.0</ele><time>2026-04-12T09:26:55Z</time></trkpt><trkpt lat="42.41379713836445" lon="12.750790198417514"><ele>648.75</ele><time>2026-04-12T09:26:56Z</time></trkpt><trkpt lat="42.41387393524394" lon="12.7506256603298"><ele>653.5</ele><time>2026-04-12T09:26:57Z</time></trkpt><trkpt lat="42.41393041145375" lon="12.750432604875089"><ele>658.25</ele><time>2026-04-12T09:26:58Z</time></trkpt><trkpt lat="42.413962019171166" lon="12.750231187812894"><ele>663.0</ele><time>2026-04-12T09:26:59Z</time></trkpt><trkpt lat="42.413967545364194" lon="12.749981245914675"><ele>663.0</ele><time>2026-04-12T09:27:00Z</time></trkpt><trkpt lat="42.4139633121546" lon="12.74970807263593"><ele>663.0</ele><time>2026-04-12T09:27:01Z</time></trkpt><trkpt lat="42.41398035064559" lon="12.749452832050052"><ele>663.0</ele><time>2026-04-12T09:27:02Z</time></trkpt><trkpt lat="42.414008620430984" lon="12.749235466195685"><ele>663.25</ele><time>2026-04-12T09:27:03Z</time></trkpt><trkpt lat="42.41405091689465" lon="12.749029030693846"><ele>663.5</ele><time>2026-04-12T09:27:04Z</time></trkpt><trkpt lat="42.414102282776895" lon="12.748844525287819"><ele>663.75</ele><time>2026-04-12T09:27:05Z</time></trkpt><trkpt lat="42.414131875957025" lon="12.748687272185816"><ele>664.0</ele><time>2026-04-12T09:27:06Z</time></trkpt><trkpt lat="42.414091966943325" lon="12.748552840828976"><ele>663.5</ele><time>2026-04-12T09:27:07Z</time></trkpt><trkpt lat="42.41402833631376" lon="12.748417357888751"><ele>663.0</ele><time>2026-04-12T09:27:08Z</time></trkpt><trkpt lat="42.41392917945383" lon="12.74829965588683"><ele>662.5</ele><time>2026-04-12T09:27:09Z</time></trkpt><trkpt lat="42.413795013897364" lon="12.74818215506031"><ele>662.0</ele><time>2026-04-12T09:27:10Z</time></trkpt><trkpt lat="42.4136908394739" lon="12.748033893698887"><ele>662.0</ele><time>2026-04-12T09:27:11Z</time></trkpt><trkpt lat="42.41361536080309" lon="12.747867222551937"><ele>662.0</ele><time>2026-04-12T09:27:12Z</time></trkpt><trkpt lat="42.413546503083346" lon="12.747724945005118"><ele>662.0</ele><time>2026-04-12T09:27:13Z</time></trkpt><trkpt lat="42.41347675850891" lon="12.747613471820342"><ele>662.0</ele><time>2026-04-12T09:27:14Z</time></trkpt><trkpt lat="42.41339014749868" lon="12.747539247383349"><ele>662.0</ele><time>2026-04-12T09:27:15Z</time></trkpt><trkpt lat="42.413292047260136" lon="12.747510068814778"><ele>662.0</ele><time>2026-04-12T09:27:16Z</time></trkpt><trkpt lat="42.41319002215478" lon="12.747593379175093"><ele>662.0</ele><time>2026-04-12T09:27:17Z</time></trkpt><trkpt lat="42.413115437994534" lon="12.747684699115903"><ele>662.0</ele><time>2026-04-12T09:27:18Z</time></trkpt><trkpt lat="42.41306642745346" lon="12.747813668813757"><ele>662.0</ele><time>2026-04-12T09:27:19Z</time></trkpt><trkpt lat="42.413005993247786" lon="12.747977510301038"><ele>664.25</ele><time>2026-04-12T09:27:20Z</time></trkpt><trkpt lat="42.41291569240934" lon="12.748139799359986"><ele>666.5</ele><time>2026-04-12T09:27:21Z</time></trkpt><trkpt lat="42.41279485640734" lon="12.748201902453157"><ele>668.75</ele><time>2026-04-12T09:27:22Z</time></trkpt><trkpt lat="42.41267197747204" lon="12.748221845498492"><ele>671.0</ele><time>2026-04-12T09:27:23Z</time></trkpt><trkpt lat="42.41254645387363" lon="12.748188330658614"><ele>671.0</ele><time>2026-04-12T09:27:24Z</time></trkpt><trkpt lat="42.412420840814164" lon="12.748126223665183"><ele>671.0</ele><time>2026-04-12T09:27:25Z</time></trkpt><trkpt lat="42.41227212623901" lon="12.74802695181002"><ele>671.0</ele><time>2026-04-12T09:27:26Z</time></trkpt><trkpt lat="42.41210087537898" lon="12.747914419305195"><ele>669.0</ele><time>2026-04-12T09:27:27Z</time></trkpt><trkpt lat="42.41190401362842" lon="12.747824298543993"><ele>667.0</ele><time>2026-04-12T09:27:28Z</time></trkpt><trkpt lat="42.41170643862681" lon="12.747737144966894"><ele>665.0</ele><time>2026-04-12T09:27:29Z</time></trkpt><trkpt lat="42.41150105173469" lon="12.747677760106662"><ele>669.3333333333333</ele><time>2026-04-12T09:27:30Z</time></trkpt><trkpt lat="42.411327783456954" lon="12.747627081936553"><ele>673.6666666666666</ele><time>2026-04-12T09:27:31Z</time></trkpt><trkpt lat="42.41118176157058" lon="12.747541215529187"><ele>678.0</ele><time>2026-04-12T09:27:32Z</time></trkpt><trkpt lat="42.411041984832636" lon="12.747461329302922"><ele>678.0</ele><time>2026-04-12T09:27:33Z</time></trkpt><trkpt lat="42.41092400715286" lon="12.747360098803597"><ele>678.0</ele><time>2026-04-12T09:27:34Z</time></trkpt><trkpt lat="42.41085533815478" lon="12.747195207675471"><ele>678.0</ele><time>2026-04-12T09:27:35Z</time></trkpt><trkpt lat="42.410816350728204" lon="12.747025897280773"><ele>678.0</ele><time>2026-04-12T09:27:36Z</time></trkpt><trkpt lat="42.41077487364949" lon="12.746821442106308"><ele>682.6666666666666</ele><time>2026-04-12T09:27:37Z</time></trkpt><trkpt lat="42.410727175796744" lon="12.746602818347935"><ele>687.3333333333333</ele><time>2026-04-12T09:27:38Z</time></trkpt><trkpt lat="42.410713321124376" lon="12.74637010020316"><ele>692.0</ele><time>2026-04-12T09:27:39Z</time></trkpt><trkpt lat="42.41067942833492" lon="12.746164941842968"><ele>696.4000000000001</ele><time>2026-04-12T09:27:40Z</time></trkpt><trkpt lat="42.410647770117556" lon="12.746004003460804"><ele>700.8000000000001</ele><time>2026-04-12T09:27:41Z</time></trkpt><trkpt lat="42.410597452451235" lon="12.745844794962188"><ele>705.2</ele><time>2026-04-12T09:27:42Z</time></trkpt><trkpt lat="42.41050847958157" lon="12.745799007508698"><ele>709.6</ele><time>2026-04-12T09:27:43Z</time></trkpt><trkpt lat="42.41042836724523" lon="12.74577918068532"><ele>714.0</ele><time>2026-04-12T09:27:44Z</time></trkpt><trkpt lat="42.41030548668023" lon="12.74583670277389"><ele>714.0</ele><time>2026-04-12T09:27:45Z</time></trkpt><trkpt lat="42.41018640550054" lon="12.745938744110623"><ele>714.0</ele><time>2026-04-12T09:27:46Z</time></trkpt><trkpt lat="42.41006823060352" lon="12.746066385727989"><ele>714.0</ele><time>2026-04-12T09:27:47Z</time></trkpt><trkpt lat="42.4099417430837" lon="12.746197391830131"><ele>708.75</ele><time>2026-04-12T09:27:48Z</time></trkpt><trkpt lat="42.40982552394747" lon="12.746295502899398"><ele>703.5</ele><time>2026-04-12T09:27:49Z</time></trkpt><trkpt lat="42.40971880996183" lon="12.746339144809822"><ele>698.25</ele><time>2026-04-12T09:27:50Z</time></trkpt><trkpt lat="42.40961361764427" lon="12.746339546207366"><ele>693.0</ele><time>2026-04-12T09:27:51Z</time></trkpt><trkpt lat="42.40951888479138" lon="12.746246289089012"><ele>693.0</ele><time>2026-04-12T09:27:52Z</time></trkpt><trkpt lat="42.409404708586194" lon="12.746171427619222"><ele>693.0</ele><time>2026-04-12T09:27:53Z</time></trkpt><trkpt lat="42.409290127736206" lon="12.746134551556757"><ele>693.0</ele><time>2026-04-12T09:27:54Z</time></trkpt><trkpt lat="42.40916283677349" lon="12.746145677696083"><ele>693.0</ele><time>2026-04-12T09:27:55Z</time></trkpt><trkpt lat="42.40902237835505" lon="12.746216244906325"><ele>693.0</ele><time>2026-04-12T09:27:56Z</time></trkpt><trkpt lat="42.408861650334096" lon="12.746312693920542"><ele>693.0</ele><time>2026-04-12T09:27:57Z</time></trkpt><trkpt lat="42.40871178635595" lon="12.746415838552343"><ele>693.0</ele><time>2026-04-12T09:27:58Z</time></trkpt><trkpt lat="42.40856718951774" lon="12.746461304649321"><ele>695.25</ele><time>2026-04-12T09:27:59Z</time></trkpt><trkpt lat="42.408429043945475" lon="12.746488052726642"><ele>697.5</ele><time>2026-04-12T09:28:00Z</time></trkpt><trkpt lat="42.408281127109205" lon="12.746484672450624"><ele>699.75</ele><time>2026-04-12T09:28:01Z</time></trkpt><trkpt lat="42.40813624331794" lon="12.746430071413743"><ele>702.0</ele><time>2026-04-12T09:28:02Z</time></trkpt><trkpt lat="42.407998007199055" lon="12.746332310483687"><ele>702.0</ele><time>2026-04-12T09:28:03Z</time></trkpt><trkpt lat="42.40787510511329" lon="12.746209587571963"><ele>702.0</ele><time>2026-04-12T09:28:04Z</time></trkpt><trkpt lat="42.40779054095022" lon="12.746029344074822"><ele>702.0</ele><time>2026-04-12T09:28:05Z</time></trkpt><trkpt lat="42.407714383355554" lon="12.745843814693394"><ele>702.0</ele><time>2026-04-12T09:28:06Z</time></trkpt><trkpt lat="42.40765913347136" lon="12.745648125761315"><ele>702.0</ele><time>2026-04-12T09:28:07Z</time></trkpt><trkpt lat="42.40763048231928" lon="12.745397592594596"><ele>702.0</ele><time>2026-04-12T09:28:08Z</time></trkpt><trkpt lat="42.40762941306137" lon="12.745132604828635"><ele>704.6666666666666</ele><time>2026-04-12T09:28:09Z</time></trkpt><trkpt lat="42.4076313509253" lon="12.7448467559986"><ele>707.3333333333333</ele><time>2026-04-12T09:28:10Z</time></trkpt><trkpt lat="42.40763122680487" lon="12.744555738676086"><ele>710.0</ele><time>2026-04-12T09:28:11Z</time></trkpt><trkpt lat="42.407635867294374" lon="12.744286573687875"><ele>711.6666666666666</ele><time>2026-04-12T09:28:12Z</time></trkpt><trkpt lat="42.40765943402381" lon="12.744050249509373"><ele>713.3333333333334</ele><time>2026-04-12T09:28:13Z</time></trkpt><trkpt lat="42.407673229978954" lon="12.743814700989315"><ele>715.0</ele><time>2026-04-12T09:28:14Z</time></trkpt><trkpt lat="42.407660548734704" lon="12.743583377154895"><ele>715.3333333333334</ele><time>2026-04-12T09:28:15Z</time></trkpt><trkpt lat="42.40766203640021" lon="12.743361859290474"><ele>715.6666666666666</ele><time>2026-04-12T09:28:16Z</time></trkpt><trkpt lat="42.40765921019309" lon="12.743158897661536"><ele>716.0</ele><time>2026-04-12T09:28:17Z</time></trkpt><trkpt lat="42.40765310668297" lon="12.742958538016097"><ele>716.0</ele><time>2026-04-12T09:28:18Z</time></trkpt><trkpt lat="42.407642262991565" lon="12.742755130590645"><ele>716.0</ele><time>2026-04-12T09:28:19Z</time></trkpt><trkpt lat="42.407635065413835" lon="12.742541874960738"><ele>716.0</ele><time>2026-04-12T09:28:20Z</time></trkpt><trkpt lat="42.40763577806027" lon="12.742352539741997"><ele>716.0</ele><time>2026-04-12T09:28:21Z</time></trkpt><trkpt lat="42.407624288325714" lon="12.742152538952597"><ele>718.0</ele><time>2026-04-12T09:28:22Z</time></trkpt><trkpt lat="42.407619008543584" lon="12.74193764316443"><ele>720.0</ele><time>2026-04-12T09:28:23Z</time></trkpt><trkpt lat="42.407619584554396" lon="12.741710599010787"><ele>722.0</ele><time>2026-04-12T09:28:24Z</time></trkpt><trkpt lat="42.40764404667524" lon="12.741494010897789"><ele>723.0</ele><time>2026-04-12T09:28:25Z</time></trkpt><trkpt lat="42.40763172300651" lon="12.741257192292426"><ele>724.0</ele><time>2026-04-12T09:28:26Z</time></trkpt><trkpt lat="42.40762788597681" lon="12.741022440352799"><ele>725.0</ele><time>2026-04-12T09:28:27Z</time></trkpt><trkpt lat="42.40763349581736" lon="12.740780094518131"><ele>726.3333333333333</ele><time>2026-04-12T09:28:28Z</time></trkpt><trkpt lat="42.407637532303106" lon="12.740528433241167"><ele>727.6666666666666</ele><time>2026-04-12T09:28:29Z</time></trkpt><trkpt lat="42.407644747185756" lon="12.740271684041122"><ele>729.0</ele><time>2026-04-12T09:28:30Z</time></trkpt><trkpt lat="42.40765650811171" lon="12.740013897994967"><ele>729.0</ele><time>2026-04-12T09:28:31Z</time></trkpt><trkpt lat="42.40766585297632" lon="12.739763276529567"><ele>729.0</ele><time>2026-04-12T09:28:32Z</time></trkpt><trkpt lat="42.407675293099516" lon="12.739489825693289"><ele>729.0</ele><time>2026-04-12T09:28:33Z</time></trkpt><trkpt lat="42.407674379817315" lon="12.739212266487417"><ele>729.3333333333334</ele><time>2026-04-12T09:28:34Z</time></trkpt><trkpt lat="42.40766142584385" lon="12.73895269255688"><ele>729.6666666666667</ele><time>2026-04-12T09:28:35Z</time></trkpt><trkpt lat="42.40761989600194" lon="12.738715115401872"><ele>730.0</ele><time>2026-04-12T09:28:36Z</time></trkpt><trkpt lat="42.40761681080764" lon="12.738523906258537"><ele>730.0</ele><time>2026-04-12T09:28:37Z</time></trkpt><trkpt lat="42.40766195436539" lon="12.738322344701613"><ele>730.0</ele><time>2026-04-12T09:28:38Z</time></trkpt><trkpt lat="42.407742919993645" lon="12.738123645266265"><ele>730.0</ele><time>2026-04-12T09:28:39Z</time></trkpt><trkpt lat="42.40781939597435" lon="12.737917636727097"><ele>730.0</ele><time>2026-04-12T09:28:40Z</time></trkpt><trkpt lat="42.40790146165555" lon="12.737697623352258"><ele>730.0</ele><time>2026-04-12T09:28:41Z</time></trkpt><trkpt lat="42.407981729413436" lon="12.737481103854261"><ele>730.0</ele><time>2026-04-12T09:28:42Z</time></trkpt><trkpt lat="42.40803784770404" lon="12.73725870389633"><ele>743.3333333333334</ele><time>2026-04-12T09:28:43Z</time></trkpt><trkpt lat="42.40808789815605" lon="12.737027492792288"><ele>756.6666666666667</ele><time>2026-04-12T09:28:44Z</time></trkpt><trkpt lat="42.40811877817097" lon="12.736801443937729"><ele>770.0</ele><time>2026-04-12T09:28:45Z</time></trkpt><trkpt lat="42.408137811965226" lon="12.736562680055943"><ele>770.0</ele><time>2026-04-12T09:28:46Z</time></trkpt><trkpt lat="42.40816600712762" lon="12.736358805343217"><ele>770.0</ele><time>2026-04-12T09:28:47Z</time></trkpt><trkpt lat="42.40819003261718" lon="12.73612303864352"><ele>770.0</ele><time>2026-04-12T09:28:48Z</time></trkpt><trkpt lat="42.408223421402944" lon="12.735904441727913"><ele>770.3333333333334</ele><time>2026-04-12T09:28:49Z</time></trkpt><trkpt lat="42.40825279314741" lon="12.73569129168448"><ele>770.6666666666667</ele><time>2026-04-12T09:28:50Z</time></trkpt><trkpt lat="42.40829513086608" lon="12.735502108782107"><ele>771.0</ele><time>2026-04-12T09:28:51Z</time></trkpt><trkpt lat="42.40837456046123" lon="12.735339670227726"><ele>770.4</ele><time>2026-04-12T09:28:52Z</time></trkpt><trkpt lat="42.40843876689235" lon="12.73519197388296"><ele>769.8</ele><time>2026-04-12T09:28:53Z</time></trkpt><trkpt lat="42.4085148550887" lon="12.735064876655231"><ele>769.1999999999999</ele><time>2026-04-12T09:28:54Z</time></trkpt><trkpt lat="42.40857249631939" lon="12.734938146106362"><ele>768.5999999999999</ele><time>2026-04-12T09:28:55Z</time></trkpt><trkpt lat="42.408607750123515" lon="12.73484075200365"><ele>768.0</ele><time>2026-04-12T09:28:56Z</time></trkpt><trkpt lat="42.40858566416767" lon="12.734723014709562"><ele>768.0</ele><time>2026-04-12T09:28:58Z</time></trkpt><trkpt lat="42.408549322986495" lon="12.734641017951667"><ele>768.0</ele><time>2026-04-12T09:29:02Z</time></trkpt><trkpt lat="42.40853185135445" lon="12.734547419148011"><ele>768.0</ele><time>2026-04-12T09:29:31.999Z</time></trkpt><trkpt lat="42.408593002407684" lon="12.734589320386252"><ele>768.0</ele><time>2026-04-12T09:29:48Z</time></trkpt><trkpt lat="42.408627050154735" lon="12.734678872638991"><ele>768.0</ele><time>2026-04-12T09:29:51Z</time></trkpt><trkpt lat="42.408738454285974" lon="12.734851206921974"><ele>768.0</ele><time>2026-04-12T09:29:55Z</time></trkpt><trkpt lat="42.408683356688044" lon="12.734920102822207"><ele>768.0</ele><time>2026-04-12T09:29:56Z</time></trkpt><trkpt lat="42.40880344643672" lon="12.734663248613751"><ele>768.0</ele><time>2026-04-12T09:29:58Z</time></trkpt><trkpt lat="42.40872461333821" lon="12.735096633026096"><ele>768.5999999999999</ele><time>2026-04-12T09:29:59Z</time></trkpt><trkpt lat="42.408714001817145" lon="12.735224133962847"><ele>769.1999999999999</ele><time>2026-04-12T09:30:01Z</time></trkpt><trkpt lat="42.40865897358836" lon="12.735353451516442"><ele>769.8</ele><time>2026-04-12T09:30:03Z</time></trkpt><trkpt lat="42.408596217592425" lon="12.735479346947617"><ele>770.4</ele><time>2026-04-12T09:30:05Z</time></trkpt><trkpt lat="42.40861041633299" lon="12.73556973783169"><ele>771.0</ele><time>2026-04-12T09:30:07Z</time></trkpt><trkpt lat="42.408683219897355" lon="12.735576858055513"><ele>771.0</ele><time>2026-04-12T09:30:10Z</time></trkpt><trkpt lat="42.4087494912627" lon="12.735500226902822"><ele>771.0</ele><time>2026-04-12T09:30:12Z</time></trkpt><trkpt lat="42.408781364384566" lon="12.735378070694672"><ele>771.0</ele><time>2026-04-12T09:30:14Z</time></trkpt><trkpt lat="42.40883431735446" lon="12.7352925961463"><ele>771.0</ele><time>2026-04-12T09:30:16Z</time></trkpt><trkpt lat="42.40892909787653" lon="12.735220346427441"><ele>771.0</ele><time>2026-04-12T09:30:18Z</time></trkpt><trkpt lat="42.40900865789414" lon="12.735141552396954"><ele>775.8</ele><time>2026-04-12T09:30:20Z</time></trkpt><trkpt lat="42.409075172020394" lon="12.735068061784343"><ele>780.5999999999999</ele><time>2026-04-12T09:30:22Z</time></trkpt><trkpt lat="42.40917007507711" lon="12.735000938066943"><ele>785.4</ele><time>2026-04-12T09:30:24Z</time></trkpt><trkpt lat="42.40927110922485" lon="12.734909961463867"><ele>790.2</ele><time>2026-04-12T09:30:26Z</time></trkpt><trkpt lat="42.40935228408592" lon="12.734842199372293"><ele>795.0</ele><time>2026-04-12T09:30:28Z</time></trkpt><trkpt lat="42.409449547866274" lon="12.73482484128603"><ele>795.0</ele><time>2026-04-12T09:30:30Z</time></trkpt><trkpt lat="42.4095528040636" lon="12.7348004759145"><ele>795.0</ele><time>2026-04-12T09:30:32Z</time></trkpt><trkpt lat="42.40965769201942" lon="12.7347605068977"><ele>795.0</ele><time>2026-04-12T09:30:34Z</time></trkpt><trkpt lat="42.40973436025809" lon="12.734705698749629"><ele>795.0</ele><time>2026-04-12T09:30:36Z</time></trkpt><trkpt lat="42.40979961417985" lon="12.734620327789996"><ele>795.0</ele><time>2026-04-12T09:30:38Z</time></trkpt><trkpt lat="42.409873447316286" lon="12.734511483848951"><ele>798.5</ele><time>2026-04-12T09:30:40Z</time></trkpt><trkpt lat="42.409940953608825" lon="12.734421404280678"><ele>802.0</ele><time>2026-04-12T09:30:42Z</time></trkpt><trkpt lat="42.40996133656271" lon="12.734317467513195"><ele>805.5</ele><time>2026-04-12T09:30:45Z</time></trkpt><trkpt lat="42.41000068156218" lon="12.734222279608407"><ele>809.0</ele><time>2026-04-12T09:30:47Z</time></trkpt><trkpt lat="42.41005361385508" lon="12.734119410224402"><ele>812.5</ele><time>2026-04-12T09:30:49Z</time></trkpt><trkpt lat="42.41012642923452" lon="12.734030902852457"><ele>816.0</ele><time>2026-04-12T09:30:51Z</time></trkpt><trkpt lat="42.41020785276819" lon="12.733958535563435"><ele>816.0</ele><time>2026-04-12T09:30:53Z</time></trkpt><trkpt lat="42.41026489116028" lon="12.733910729630596"><ele>816.0</ele><time>2026-04-12T09:30:54Z</time></trkpt><trkpt lat="42.4103505677423" lon="12.733807878315032"><ele>816.0</ele><time>2026-04-12T09:30:56Z</time></trkpt><trkpt lat="42.4104069065347" lon="12.733698527071573"><ele>816.0</ele><time>2026-04-12T09:30:58Z</time></trkpt><trkpt lat="42.41043253754724" lon="12.733615643640427"><ele>816.0</ele><time>2026-04-12T09:31:17Z</time></trkpt><trkpt lat="42.410490137940485" lon="12.73351278942123"><ele>816.0</ele><time>2026-04-12T09:31:19Z</time></trkpt><trkpt lat="42.4105611184037" lon="12.73340633615127"><ele>817.8</ele><time>2026-04-12T09:31:21Z</time></trkpt><trkpt lat="42.41065033105111" lon="12.733327447291032"><ele>819.5999999999999</ele><time>2026-04-12T09:31:23Z</time></trkpt><trkpt lat="42.410707182776775" lon="12.733288355237992"><ele>821.4</ele><time>2026-04-12T09:31:24Z</time></trkpt><trkpt lat="42.41081570617979" lon="12.7332264236945"><ele>823.2</ele><time>2026-04-12T09:31:26Z</time></trkpt><trkpt lat="42.41094282067475" lon="12.733209203967903"><ele>825.0</ele><time>2026-04-12T09:31:28Z</time></trkpt><trkpt lat="42.4110229355546" lon="12.733223975347483"><ele>825.0</ele><time>2026-04-12T09:31:29Z</time></trkpt><trkpt lat="42.41109259094607" lon="12.73321146734201"><ele>825.0</ele><time>2026-04-12T09:31:30Z</time></trkpt><trkpt lat="42.411156445188325" lon="12.733188475342574"><ele>825.0</ele><time>2026-04-12T09:31:31Z</time></trkpt><trkpt lat="42.41121837320449" lon="12.733151823910621"><ele>825.0</ele><time>2026-04-12T09:31:32Z</time></trkpt><trkpt lat="42.41131506503786" lon="12.733059354763114"><ele>825.0</ele><time>2026-04-12T09:31:34Z</time></trkpt><trkpt lat="42.41140091352087" lon="12.73293182103539"><ele>822.1666666666666</ele><time>2026-04-12T09:31:36Z</time></trkpt><trkpt lat="42.41146803168474" lon="12.73285888966418"><ele>819.3333333333333</ele><time>2026-04-12T09:31:37Z</time></trkpt><trkpt lat="42.4115285360084" lon="12.732810659149333"><ele>816.5</ele><time>2026-04-12T09:31:38Z</time></trkpt><trkpt lat="42.41159159942329" lon="12.732788248815202"><ele>813.6666666666666</ele><time>2026-04-12T09:31:39Z</time></trkpt><trkpt lat="42.41166138902939" lon="12.73279368544771"><ele>810.8333333333333</ele><time>2026-04-12T09:31:40Z</time></trkpt><trkpt lat="42.41173669294342" lon="12.732800540665215"><ele>808.0</ele><time>2026-04-12T09:31:41Z</time></trkpt><trkpt lat="42.411823446783444" lon="12.732810344238759"><ele>807.9999999999999</ele><time>2026-04-12T09:31:42Z</time></trkpt><trkpt lat="42.41189161908128" lon="12.732786289104606"><ele>808.0</ele><time>2026-04-12T09:31:43Z</time></trkpt><trkpt lat="42.41197238380328" lon="12.732757169866979"><ele>808.0</ele><time>2026-04-12T09:31:44Z</time></trkpt><trkpt lat="42.412045025297445" lon="12.732724776932704"><ele>808.0</ele><time>2026-04-12T09:31:45Z</time></trkpt><trkpt lat="42.41216331642968" lon="12.7326509975724"><ele>807.9999999999999</ele><time>2026-04-12T09:31:47Z</time></trkpt><trkpt lat="42.41222233018834" lon="12.732598149093176"><ele>808.0</ele><time>2026-04-12T09:31:48Z</time></trkpt><trkpt lat="42.41228372899759" lon="12.732528578471797"><ele>811.6666666666666</ele><time>2026-04-12T09:31:49Z</time></trkpt><trkpt lat="42.41234488004497" lon="12.732459532123567"><ele>815.3333333333333</ele><time>2026-04-12T09:31:50Z</time></trkpt><trkpt lat="42.41241851859289" lon="12.732415239298815"><ele>819.0</ele><time>2026-04-12T09:31:51Z</time></trkpt><trkpt lat="42.412489148403715" lon="12.73237004872649"><ele>822.6666666666667</ele><time>2026-04-12T09:31:52Z</time></trkpt><trkpt lat="42.412558567241405" lon="12.732328490827031"><ele>826.3333333333334</ele><time>2026-04-12T09:31:53Z</time></trkpt><trkpt lat="42.41267736431753" lon="12.732246839888337"><ele>830.0</ele><time>2026-04-12T09:31:55Z</time></trkpt><trkpt lat="42.412750104517954" lon="12.732252994774411"><ele>830.0000000000001</ele><time>2026-04-12T09:31:56Z</time></trkpt><trkpt lat="42.4128174926171" lon="12.732252158487785"><ele>830.0</ele><time>2026-04-12T09:31:57Z</time></trkpt><trkpt lat="42.41290420883998" lon="12.732266923931231"><ele>830.0</ele><time>2026-04-12T09:31:58Z</time></trkpt><trkpt lat="42.41300306444653" lon="12.732302626447819"><ele>830.0</ele><time>2026-04-12T09:31:59Z</time></trkpt><trkpt lat="42.41309247034956" lon="12.732308043826311"><ele>830.0000000000001</ele><time>2026-04-12T09:32:00Z</time></trkpt><trkpt lat="42.41315977792082" lon="12.732327082560179"><ele>830.0</ele><time>2026-04-12T09:32:01Z</time></trkpt><trkpt lat="42.41323641034093" lon="12.732346685109382"><ele>829.3333333333334</ele><time>2026-04-12T09:32:02Z</time></trkpt><trkpt lat="42.413302203882125" lon="12.732380598026742"><ele>828.6666666666667</ele><time>2026-04-12T09:32:03Z</time></trkpt><trkpt lat="42.413371431565515" lon="12.732436087344782"><ele>828.0</ele><time>2026-04-12T09:32:04Z</time></trkpt><trkpt lat="42.41343904534346" lon="12.732496137773536"><ele>827.3333333333333</ele><time>2026-04-12T09:32:05Z</time></trkpt><trkpt lat="42.413506750192866" lon="12.732548823137586"><ele>826.6666666666666</ele><time>2026-04-12T09:32:06Z</time></trkpt><trkpt lat="42.413570745409004" lon="12.732588241666548"><ele>826.0</ele><time>2026-04-12T09:32:07Z</time></trkpt><trkpt lat="42.413637656570266" lon="12.732617672577705"><ele>826.0</ele><time>2026-04-12T09:32:08Z</time></trkpt><trkpt lat="42.413703049552815" lon="12.732640352050652"><ele>826.0</ele><time>2026-04-12T09:32:09Z</time></trkpt><trkpt lat="42.41382233631104" lon="12.73263078017207"><ele>826.0</ele><time>2026-04-12T09:32:11Z</time></trkpt><trkpt lat="42.41392058744433" lon="12.732567577649066"><ele>826.0</ele><time>2026-04-12T09:32:13Z</time></trkpt><trkpt lat="42.4139793808656" lon="12.732461555590403"><ele>826.0</ele><time>2026-04-12T09:32:15Z</time></trkpt><trkpt lat="42.414040546308" lon="12.732345332603277"><ele>825.4999999999999</ele><time>2026-04-12T09:32:17Z</time></trkpt><trkpt lat="42.41407284141526" lon="12.7322467579507"><ele>825.0</ele><time>2026-04-12T09:32:18Z</time></trkpt><trkpt lat="42.41411665737271" lon="12.732139607820873"><ele>824.5</ele><time>2026-04-12T09:32:19Z</time></trkpt><trkpt lat="42.41417407423646" lon="12.732042973429877"><ele>824.0</ele><time>2026-04-12T09:32:20Z</time></trkpt><trkpt lat="42.41423281117787" lon="12.731952305679272"><ele>823.4999999999999</ele><time>2026-04-12T09:32:21Z</time></trkpt><trkpt lat="42.41428879359042" lon="12.731874231408662"><ele>823.0</ele><time>2026-04-12T09:32:22Z</time></trkpt><trkpt lat="42.41433843382492" lon="12.73180676467"><ele>823.6666666666666</ele><time>2026-04-12T09:32:23Z</time></trkpt><trkpt lat="42.41442811285136" lon="12.731697133973908"><ele>824.3333333333333</ele><time>2026-04-12T09:32:25Z</time></trkpt><trkpt lat="42.414489779454605" lon="12.731658383198118"><ele>825.0</ele><time>2026-04-12T09:32:26Z</time></trkpt><trkpt lat="42.4145562230016" lon="12.731624102406931"><ele>825.6666666666667</ele><time>2026-04-12T09:32:27Z</time></trkpt><trkpt lat="42.41462211571558" lon="12.731605701451729"><ele>826.3333333333334</ele><time>2026-04-12T09:32:28Z</time></trkpt><trkpt lat="42.414692598939965" lon="12.731580592307159"><ele>827.0</ele><time>2026-04-12T09:32:29Z</time></trkpt><trkpt lat="42.41477299262816" lon="12.731557011730954"><ele>827.0</ele><time>2026-04-12T09:32:30Z</time></trkpt><trkpt lat="42.41485423661434" lon="12.731532661096754"><ele>827.0</ele><time>2026-04-12T09:32:31Z</time></trkpt><trkpt lat="42.41493665739296" lon="12.731526175130242"><ele>827.0</ele><time>2026-04-12T09:32:32Z</time></trkpt><trkpt lat="42.415002755157474" lon="12.73149413791498"><ele>827.0</ele><time>2026-04-12T09:32:33Z</time></trkpt><trkpt lat="42.41506194993662" lon="12.731451832497052"><ele>827.0</ele><time>2026-04-12T09:32:34Z</time></trkpt><trkpt lat="42.41511952550231" lon="12.731395018476569"><ele>827.0</ele><time>2026-04-12T09:32:35Z</time></trkpt><trkpt lat="42.41517294412245" lon="12.731338108443056"><ele>827.0</ele><time>2026-04-12T09:32:36Z</time></trkpt><trkpt lat="42.41520920103502" lon="12.731252466854409"><ele>827.0</ele><time>2026-04-12T09:32:37Z</time></trkpt><trkpt lat="42.415291639063966" lon="12.731115113645558"><ele>827.0</ele><time>2026-04-12T09:32:39Z</time></trkpt><trkpt lat="42.4153707107933" lon="12.73100903470644"><ele>827.0</ele><time>2026-04-12T09:32:41Z</time></trkpt><trkpt lat="42.415435256681405" lon="12.730977852349076"><ele>827.0</ele><time>2026-04-12T09:32:42Z</time></trkpt><trkpt lat="42.41553175221576" lon="12.73099093795393"><ele>827.0</ele><time>2026-04-12T09:32:44Z</time></trkpt><trkpt lat="42.41564021394442" lon="12.731005760702343"><ele>828.5000000000001</ele><time>2026-04-12T09:32:46Z</time></trkpt><trkpt lat="42.41575326205923" lon="12.730973813430786"><ele>830.0</ele><time>2026-04-12T09:32:48Z</time></trkpt><trkpt lat="42.415801607115675" lon="12.73091457761176"><ele>831.5</ele><time>2026-04-12T09:32:49Z</time></trkpt><trkpt lat="42.415874272329276" lon="12.730847671371015"><ele>833.0</ele><time>2026-04-12T09:32:50Z</time></trkpt><trkpt lat="42.41594323454958" lon="12.730767882807285"><ele>834.5000000000001</ele><time>2026-04-12T09:32:51Z</time></trkpt><trkpt lat="42.4160164496991" lon="12.73071756146193"><ele>836.0</ele><time>2026-04-12T09:32:52Z</time></trkpt><trkpt lat="42.41607679082516" lon="12.730667645915691"><ele>836.0000000000001</ele><time>2026-04-12T09:32:53Z</time></trkpt><trkpt lat="42.41617949262301" lon="12.730572762414898"><ele>836.0</ele><time>2026-04-12T09:32:55Z</time></trkpt><trkpt lat="42.41623485911439" lon="12.73051783925162"><ele>836.0</ele><time>2026-04-12T09:32:56Z</time></trkpt><trkpt lat="42.416305704761335" lon="12.73038771914252"><ele>836.0</ele><time>2026-04-12T09:32:58Z</time></trkpt><trkpt lat="42.41634327715785" lon="12.730313860276839"><ele>836.0000000000001</ele><time>2026-04-12T09:32:59Z</time></trkpt><trkpt lat="42.41638958906473" lon="12.730255401572787"><ele>836.0</ele><time>2026-04-12T09:33:00Z</time></trkpt><trkpt lat="42.41642426451768" lon="12.730175569695477"><ele>838.8</ele><time>2026-04-12T09:33:01Z</time></trkpt><trkpt lat="42.41646635053079" lon="12.730048785288837"><ele>841.5999999999999</ele><time>2026-04-12T09:33:03Z</time></trkpt><trkpt lat="42.41653618482136" lon="12.729945883726366"><ele>844.4</ele><time>2026-04-12T09:33:05Z</time></trkpt><trkpt lat="42.41664817081808" lon="12.72994269520315"><ele>847.2</ele><time>2026-04-12T09:33:07Z</time></trkpt><trkpt lat="42.41673286127154" lon="12.730042950928244"><ele>850.0</ele><time>2026-04-12T09:33:09Z</time></trkpt><trkpt lat="42.41680761568305" lon="12.730100146595111"><ele>850.0</ele><time>2026-04-12T09:33:11Z</time></trkpt><trkpt lat="42.41690759872315" lon="12.730150396963646"><ele>850.0</ele><time>2026-04-12T09:33:13Z</time></trkpt><trkpt lat="42.41700713956948" lon="12.73015961175473"><ele>850.0</ele><time>2026-04-12T09:33:15Z</time></trkpt><trkpt lat="42.41708375673174" lon="12.730132253231877"><ele>850.0</ele><time>2026-04-12T09:33:16Z</time></trkpt><trkpt lat="42.41716503997303" lon="12.730084684184128"><ele>850.0</ele><time>2026-04-12T09:33:18Z</time></trkpt><trkpt lat="42.41722327630176" lon="12.729977264726013"><ele>849.2857142857142</ele><time>2026-04-12T09:33:20Z</time></trkpt><trkpt lat="42.41724875322959" lon="12.729899020764991"><ele>848.5714285714286</ele><time>2026-04-12T09:33:21Z</time></trkpt><trkpt lat="42.41727172284704" lon="12.729791759123788"><ele>847.8571428571429</ele><time>2026-04-12T09:33:22Z</time></trkpt><trkpt lat="42.41729590047608" lon="12.72970406242514"><ele>847.1428571428571</ele><time>2026-04-12T09:33:23Z</time></trkpt><trkpt lat="42.4173423426859" lon="12.729627735983785"><ele>846.4285714285714</ele><time>2026-04-12T09:33:24Z</time></trkpt><trkpt lat="42.41738383613139" lon="12.729538368789733"><ele>845.7142857142857</ele><time>2026-04-12T09:33:25Z</time></trkpt><trkpt lat="42.41742299387427" lon="12.72944759263018"><ele>845.0</ele><time>2026-04-12T09:33:26Z</time></trkpt><trkpt lat="42.41744839510135" lon="12.729359113006025"><ele>846.9999999999999</ele><time>2026-04-12T09:33:27Z</time></trkpt><trkpt lat="42.41748045303412" lon="12.729271184376012"><ele>849.0</ele><time>2026-04-12T09:33:28Z</time></trkpt><trkpt lat="42.41753743413877" lon="12.729181876798918"><ele>851.0</ele><time>2026-04-12T09:33:29Z</time></trkpt><trkpt lat="42.41759875104153" lon="12.729125103501254"><ele>853.0</ele><time>2026-04-12T09:33:30Z</time></trkpt><trkpt lat="42.41765432215858" lon="12.729064594375181"><ele>855.0</ele><time>2026-04-12T09:33:31.001Z</time></trkpt><trkpt lat="42.41770351032591" lon="12.728991563351185"><ele>856.9999999999999</ele><time>2026-04-12T09:33:32.001Z</time></trkpt><trkpt lat="42.41772769723461" lon="12.728901241087799"><ele>859.0</ele><time>2026-04-12T09:33:33Z</time></trkpt><trkpt lat="42.41775838328916" lon="12.728756261567549"><ele>858.9999999999999</ele><time>2026-04-12T09:33:35Z</time></trkpt><trkpt lat="42.417754827475356" lon="12.728670632377934"><ele>859.0</ele><time>2026-04-12T09:33:36Z</time></trkpt><trkpt lat="42.41778794574621" lon="12.728535771614812"><ele>859.0</ele><time>2026-04-12T09:33:38Z</time></trkpt><trkpt lat="42.41786183698416" lon="12.728412666414897"><ele>859.0</ele><time>2026-04-12T09:33:40Z</time></trkpt><trkpt lat="42.417924206341105" lon="12.728372285490497"><ele>858.9999999999999</ele><time>2026-04-12T09:33:41Z</time></trkpt><trkpt lat="42.418002632664916" lon="12.728338070361849"><ele>859.0</ele><time>2026-04-12T09:33:42Z</time></trkpt><trkpt lat="42.41807542893544" lon="12.728303017025116"><ele>857.4999999999999</ele><time>2026-04-12T09:33:43Z</time></trkpt><trkpt lat="42.41813464854422" lon="12.728269680583079"><ele>856.0</ele><time>2026-04-12T09:33:44Z</time></trkpt><trkpt lat="42.41820813067619" lon="12.728236032946054"><ele>854.5</ele><time>2026-04-12T09:33:45Z</time></trkpt><trkpt lat="42.418275429139484" lon="12.72818269002526"><ele>853.0</ele><time>2026-04-12T09:33:46Z</time></trkpt><trkpt lat="42.41834041877037" lon="12.728114228445495"><ele>851.4999999999999</ele><time>2026-04-12T09:33:47Z</time></trkpt><trkpt lat="42.41839803469137" lon="12.7280375092675"><ele>850.0</ele><time>2026-04-12T09:33:48Z</time></trkpt><trkpt lat="42.41846356659949" lon="12.727975996024767"><ele>849.9999999999999</ele><time>2026-04-12T09:33:49Z</time></trkpt><trkpt lat="42.4185081945633" lon="12.727909055858788"><ele>850.0</ele><time>2026-04-12T09:33:50Z</time></trkpt><trkpt lat="42.418559688280254" lon="12.727824261781853"><ele>850.0</ele><time>2026-04-12T09:33:52Z</time></trkpt><trkpt lat="42.41858369392028" lon="12.72774351432596"><ele>850.0</ele><time>2026-04-12T09:33:54Z</time></trkpt><trkpt lat="42.4186219907465" lon="12.72763442168252"><ele>849.9999999999999</ele><time>2026-04-12T09:33:59Z</time></trkpt><trkpt lat="42.418675271218916" lon="12.727500069486286"><ele>850.0</ele><time>2026-04-12T09:34:01Z</time></trkpt><trkpt lat="42.41872551109325" lon="12.727443437204274"><ele>850.4999999999999</ele><time>2026-04-12T09:34:02Z</time></trkpt><trkpt lat="42.41878699182902" lon="12.72738430041381"><ele>851.0</ele><time>2026-04-12T09:34:03Z</time></trkpt><trkpt lat="42.41884828872218" lon="12.727326370902713"><ele>851.5</ele><time>2026-04-12T09:34:04Z</time></trkpt><trkpt lat="42.41891529595484" lon="12.72725464880862"><ele>852.0</ele><time>2026-04-12T09:34:05Z</time></trkpt><trkpt lat="42.41897390653283" lon="12.7271884293601"><ele>852.4999999999999</ele><time>2026-04-12T09:34:06Z</time></trkpt><trkpt lat="42.419021217230586" lon="12.727128446816671"><ele>853.0</ele><time>2026-04-12T09:34:07Z</time></trkpt><trkpt lat="42.419070169393464" lon="12.727053199880531"><ele>853.0</ele><time>2026-04-12T09:34:09Z</time></trkpt><trkpt lat="42.419150640061574" lon="12.72699844228751"><ele>853.0</ele><time>2026-04-12T09:34:16Z</time></trkpt><trkpt lat="42.419225734340976" lon="12.726900547469825"><ele>853.0</ele><time>2026-04-12T09:34:18Z</time></trkpt><trkpt lat="42.41930488624817" lon="12.72682010762636"><ele>853.0</ele><time>2026-04-12T09:34:20Z</time></trkpt><trkpt lat="42.41936375848324" lon="12.726778242664471"><ele>853.0</ele><time>2026-04-12T09:34:22Z</time></trkpt><trkpt lat="42.41944920423061" lon="12.726839234640067"><ele>853.0</ele><time>2026-04-12T09:34:24Z</time></trkpt><trkpt lat="42.41947292019313" lon="12.726941763150458"><ele>853.0</ele><time>2026-04-12T09:34:25Z</time></trkpt><trkpt lat="42.41947095451016" lon="12.727063146688984"><ele>853.0</ele><time>2026-04-12T09:34:27Z</time></trkpt><trkpt lat="42.41950758344592" lon="12.727201655686535"><ele>853.0</ele><time>2026-04-12T09:34:29Z</time></trkpt><trkpt lat="42.41957675233316" lon="12.727352324845628"><ele>853.0</ele><time>2026-04-12T09:34:31Z</time></trkpt><trkpt lat="42.419616478099606" lon="12.72744078506569"><ele>855.8333333333333</ele><time>2026-04-12T09:34:32Z</time></trkpt><trkpt lat="42.419673154483036" lon="12.727557880239003"><ele>858.6666666666666</ele><time>2026-04-12T09:34:33Z</time></trkpt><trkpt lat="42.41972568604888" lon="12.727661958482718"><ele>861.5</ele><time>2026-04-12T09:34:34Z</time></trkpt><trkpt lat="42.419766839853445" lon="12.727758165422657"><ele>864.3333333333333</ele><time>2026-04-12T09:34:35Z</time></trkpt><trkpt lat="42.419804258648405" lon="12.727857761873477"><ele>867.1666666666666</ele><time>2026-04-12T09:34:36Z</time></trkpt><trkpt lat="42.419825665627464" lon="12.72795419621156"><ele>870.0</ele><time>2026-04-12T09:34:37Z</time></trkpt><trkpt lat="42.41984819670502" lon="12.72806807569791"><ele>870.0</ele><time>2026-04-12T09:34:38Z</time></trkpt><trkpt lat="42.41987387549547" lon="12.728155895572133"><ele>870.0</ele><time>2026-04-12T09:34:39Z</time></trkpt><trkpt lat="42.41990010003832" lon="12.728247302424828"><ele>870.0</ele><time>2026-04-12T09:34:40Z</time></trkpt><trkpt lat="42.419963314626926" lon="12.728390362106522"><ele>870.0</ele><time>2026-04-12T09:34:42Z</time></trkpt><trkpt lat="42.41999751580297" lon="12.728473326328993"><ele>870.0</ele><time>2026-04-12T09:34:43Z</time></trkpt><trkpt lat="42.42007942529221" lon="12.728576986743084"><ele>870.0</ele><time>2026-04-12T09:34:45Z</time></trkpt><trkpt lat="42.42016736640865" lon="12.728689141868816"><ele>868.4</ele><time>2026-04-12T09:34:47Z</time></trkpt><trkpt lat="42.42021312072976" lon="12.728762950574398"><ele>866.8</ele><time>2026-04-12T09:34:48Z</time></trkpt><trkpt lat="42.42030299926199" lon="12.728859891003475"><ele>865.2</ele><time>2026-04-12T09:34:50Z</time></trkpt><trkpt lat="42.420353155422504" lon="12.72892231550972"><ele>863.6</ele><time>2026-04-12T09:34:51Z</time></trkpt><trkpt lat="42.42046415161618" lon="12.728963898127448"><ele>862.0</ele><time>2026-04-12T09:34:53Z</time></trkpt><trkpt lat="42.42058123360075" lon="12.72894438530159"><ele>862.0</ele><time>2026-04-12T09:34:55Z</time></trkpt><trkpt lat="42.42072114749038" lon="12.728931772103728"><ele>862.0</ele><time>2026-04-12T09:34:57Z</time></trkpt><trkpt lat="42.42079313324709" lon="12.728928601219405"><ele>862.0</ele><time>2026-04-12T09:34:58Z</time></trkpt><trkpt lat="42.420875244769995" lon="12.728917572582558"><ele>862.0</ele><time>2026-04-12T09:34:59Z</time></trkpt><trkpt lat="42.420953323123115" lon="12.728897346678838"><ele>862.0</ele><time>2026-04-12T09:35:00Z</time></trkpt><trkpt lat="42.4210308315813" lon="12.728875398181227"><ele>861.9999999999999</ele><time>2026-04-12T09:35:01Z</time></trkpt><trkpt lat="42.421109151745675" lon="12.728834791410886"><ele>862.0</ele><time>2026-04-12T09:35:02Z</time></trkpt><trkpt lat="42.42118033404991" lon="12.728792250017294"><ele>862.0</ele><time>2026-04-12T09:35:03Z</time></trkpt><trkpt lat="42.42125337990136" lon="12.728743862619405"><ele>862.0</ele><time>2026-04-12T09:35:04Z</time></trkpt><trkpt lat="42.421325595352684" lon="12.728679925784238"><ele>861.9999999999999</ele><time>2026-04-12T09:35:05Z</time></trkpt><trkpt lat="42.421391015083195" lon="12.728602790069177"><ele>862.0</ele><time>2026-04-12T09:35:06Z</time></trkpt><trkpt lat="42.421437552940915" lon="12.728532197507151"><ele>865.8</ele><time>2026-04-12T09:35:07Z</time></trkpt><trkpt lat="42.42152375212968" lon="12.728459830876911"><ele>869.6</ele><time>2026-04-12T09:35:08Z</time></trkpt><trkpt lat="42.42161085496834" lon="12.728424208663968"><ele>873.3999999999999</ele><time>2026-04-12T09:35:10Z</time></trkpt><trkpt lat="42.421725156348295" lon="12.728339191122341"><ele>877.1999999999999</ele><time>2026-04-12T09:35:12Z</time></trkpt><trkpt lat="42.42179807545758" lon="12.728309854253721"><ele>881.0</ele><time>2026-04-12T09:35:13Z</time></trkpt><trkpt lat="42.42187909103891" lon="12.728265550248988"><ele>881.0000000000001</ele><time>2026-04-12T09:35:14Z</time></trkpt><trkpt lat="42.42196606317325" lon="12.728234364737864"><ele>881.0</ele><time>2026-04-12T09:35:15Z</time></trkpt><trkpt lat="42.422037675381674" lon="12.728205999057282"><ele>881.0</ele><time>2026-04-12T09:35:16Z</time></trkpt><trkpt lat="42.422116961680295" lon="12.728175845132423"><ele>881.0</ele><time>2026-04-12T09:35:17Z</time></trkpt><trkpt lat="42.42218888994531" lon="12.728142008009781"><ele>881.0000000000001</ele><time>2026-04-12T09:35:18Z</time></trkpt><trkpt lat="42.42224977914206" lon="12.728093857512517"><ele>881.0</ele><time>2026-04-12T09:35:19Z</time></trkpt><trkpt lat="42.42232377415695" lon="12.72799652194909"><ele>881.1666666666667</ele><time>2026-04-12T09:35:21Z</time></trkpt><trkpt lat="42.422396905534164" lon="12.72797344826241"><ele>881.3333333333334</ele><time>2026-04-12T09:35:23.001Z</time></trkpt><trkpt lat="42.42244022944379" lon="12.728047898649303"><ele>881.5</ele><time>2026-04-12T09:35:24.001Z</time></trkpt><trkpt lat="42.422464132199984" lon="12.728206862497508"><ele>881.6666666666667</ele><time>2026-04-12T09:35:26.001Z</time></trkpt><trkpt lat="42.42245562313222" lon="12.728347990540307"><ele>881.8333333333334</ele><time>2026-04-12T09:35:28.001Z</time></trkpt><trkpt lat="42.422447932977065" lon="12.728438944789355"><ele>882.0</ele><time>2026-04-12T09:35:29.001Z</time></trkpt><trkpt lat="42.42245233111991" lon="12.728565430777413"><ele>882.0</ele><time>2026-04-12T09:35:30.001Z</time></trkpt><trkpt lat="42.42244445216925" lon="12.728686721118807"><ele>882.0</ele><time>2026-04-12T09:35:31.001Z</time></trkpt><trkpt lat="42.422430149902816" lon="12.728776376806186"><ele>882.0</ele><time>2026-04-12T09:35:32.001Z</time></trkpt><trkpt lat="42.422422657213644" lon="12.728876442003198"><ele>882.0</ele><time>2026-04-12T09:35:33.001Z</time></trkpt><trkpt lat="42.42241805937715" lon="12.72897963386145"><ele>882.0</ele><time>2026-04-12T09:35:34.001Z</time></trkpt><trkpt lat="42.42239115910087" lon="12.729071547661427"><ele>882.0</ele><time>2026-04-12T09:35:35.001Z</time></trkpt><trkpt lat="42.42238827222264" lon="12.729169121185343"><ele>882.0</ele><time>2026-04-12T09:35:36.001Z</time></trkpt><trkpt lat="42.42236779073263" lon="12.729340325337866"><ele>882.0</ele><time>2026-04-12T09:35:38.001Z</time></trkpt><trkpt lat="42.422357989436875" lon="12.729428456254782"><ele>882.0</ele><time>2026-04-12T09:35:39Z</time></trkpt><trkpt lat="42.422363675285645" lon="12.729520732623653"><ele>882.0</ele><time>2026-04-12T09:35:40Z</time></trkpt><trkpt lat="42.42235765539156" lon="12.729612119996107"><ele>882.0</ele><time>2026-04-12T09:35:41Z</time></trkpt><trkpt lat="42.42234667830924" lon="12.729750732054923"><ele>882.0</ele><time>2026-04-12T09:35:43Z</time></trkpt><trkpt lat="42.422332964862996" lon="12.729887324040137"><ele>884.4000000000001</ele><time>2026-04-12T09:35:45Z</time></trkpt><trkpt lat="42.42230548030292" lon="12.73003178420798"><ele>886.8000000000001</ele><time>2026-04-12T09:35:47Z</time></trkpt><trkpt lat="42.422302028198025" lon="12.730178169625011"><ele>889.2</ele><time>2026-04-12T09:35:49Z</time></trkpt><trkpt lat="42.42228547687259" lon="12.730326638474825"><ele>891.6</ele><time>2026-04-12T09:35:51Z</time></trkpt><trkpt lat="42.422249540525826" lon="12.730481905679554"><ele>894.0</ele><time>2026-04-12T09:35:53Z</time></trkpt><trkpt lat="42.42220548441931" lon="12.730639003772124"><ele>893.4000000000001</ele><time>2026-04-12T09:35:55Z</time></trkpt><trkpt lat="42.42218339551256" lon="12.73072721974893"><ele>892.8000000000001</ele><time>2026-04-12T09:35:56Z</time></trkpt><trkpt lat="42.42214561207637" lon="12.730887033361057"><ele>892.1999999999999</ele><time>2026-04-12T09:35:58Z</time></trkpt><trkpt lat="42.42208660968709" lon="12.731022550562137"><ele>891.5999999999999</ele><time>2026-04-12T09:36:00Z</time></trkpt><trkpt lat="42.42203219373338" lon="12.731162582167252"><ele>891.0</ele><time>2026-04-12T09:36:02Z</time></trkpt><trkpt lat="42.42200777707755" lon="12.731247755276602"><ele>891.0000000000001</ele><time>2026-04-12T09:36:03Z</time></trkpt><trkpt lat="42.42198027612748" lon="12.731326939653922"><ele>891.0</ele><time>2026-04-12T09:36:04Z</time></trkpt><trkpt lat="42.42192423838359" lon="12.731474557739887"><ele>891.0</ele><time>2026-04-12T09:36:06Z</time></trkpt><trkpt lat="42.42190032450804" lon="12.731556404374382"><ele>891.0</ele><time>2026-04-12T09:36:07Z</time></trkpt><trkpt lat="42.42186782938369" lon="12.73163703177651"><ele>891.0</ele><time>2026-04-12T09:36:08Z</time></trkpt><trkpt lat="42.42183956557875" lon="12.731717709975769"><ele>891.0000000000001</ele><time>2026-04-12T09:36:09Z</time></trkpt><trkpt lat="42.42181080990988" lon="12.731793701352588"><ele>891.0</ele><time>2026-04-12T09:36:10Z</time></trkpt><trkpt lat="42.42175555296256" lon="12.731930159832821"><ele>894.8</ele><time>2026-04-12T09:36:12Z</time></trkpt><trkpt lat="42.42169526794984" lon="12.732014485437782"><ele>898.5999999999999</ele><time>2026-04-12T09:36:14Z</time></trkpt><trkpt lat="42.421657467095336" lon="12.732146525406238"><ele>902.4</ele><time>2026-04-12T09:36:16Z</time></trkpt><trkpt lat="42.42161221690833" lon="12.732281538113503"><ele>906.2</ele><time>2026-04-12T09:36:18Z</time></trkpt><trkpt lat="42.421550180995105" lon="12.732417234040115"><ele>910.0</ele><time>2026-04-12T09:36:20Z</time></trkpt><trkpt lat="42.42147394210335" lon="12.732523465389031"><ele>909.9999999999999</ele><time>2026-04-12T09:36:22Z</time></trkpt><trkpt lat="42.42143144753156" lon="12.732603546316323"><ele>910.0</ele><time>2026-04-12T09:36:23Z</time></trkpt><trkpt lat="42.42139819462516" lon="12.732680308793094"><ele>910.0</ele><time>2026-04-12T09:36:24Z</time></trkpt><trkpt lat="42.42136552738029" lon="12.732767573760231"><ele>910.0</ele><time>2026-04-12T09:36:25Z</time></trkpt><trkpt lat="42.42134960589098" lon="12.73288633653632"><ele>909.9999999999999</ele><time>2026-04-12T09:36:27Z</time></trkpt><trkpt lat="42.421388402597515" lon="12.73298965063406"><ele>910.0</ele><time>2026-04-12T09:36:29Z</time></trkpt><trkpt lat="42.421467091105995" lon="12.733016306999795"><ele>910.0</ele><time>2026-04-12T09:36:42Z</time></trkpt><trkpt lat="42.42154019810248" lon="12.732935230187751"><ele>910.0</ele><time>2026-04-12T09:36:44Z</time></trkpt><trkpt lat="42.42158368625463" lon="12.732815762678324"><ele>910.0</ele><time>2026-04-12T09:36:46Z</time></trkpt><trkpt lat="42.42162900011127" lon="12.732684914978547"><ele>910.0</ele><time>2026-04-12T09:36:48Z</time></trkpt><trkpt lat="42.42169726284583" lon="12.732550728785316"><ele>910.0</ele><time>2026-04-12T09:36:50Z</time></trkpt><trkpt lat="42.42179682568236" lon="12.732432274722013"><ele>909.9999999999999</ele><time>2026-04-12T09:36:52Z</time></trkpt><trkpt lat="42.42185014270586" lon="12.73236089690072"><ele>910.0</ele><time>2026-04-12T09:36:53Z</time></trkpt><trkpt lat="42.42194504293079" lon="12.73225602892781"><ele>910.0</ele><time>2026-04-12T09:36:55Z</time></trkpt><trkpt lat="42.42200805400814" lon="12.732223674350951"><ele>910.0</ele><time>2026-04-12T09:36:56Z</time></trkpt><trkpt lat="42.42210081702479" lon="12.732158895005917"><ele>909.9999999999999</ele><time>2026-04-12T09:36:58Z</time></trkpt><trkpt lat="42.42215201967633" lon="12.732089930969178"><ele>910.0</ele><time>2026-04-12T09:36:59Z</time></trkpt><trkpt lat="42.42220753520144" lon="12.732019710780412"><ele>909.4999999999999</ele><time>2026-04-12T09:37:00Z</time></trkpt><trkpt lat="42.4222633301496" lon="12.73192969847309"><ele>909.0</ele><time>2026-04-12T09:37:01Z</time></trkpt><trkpt lat="42.422331042970534" lon="12.731846061439539"><ele>908.5</ele><time>2026-04-12T09:37:02Z</time></trkpt><trkpt lat="42.42237698047334" lon="12.73177197838886"><ele>908.0</ele><time>2026-04-12T09:37:03Z</time></trkpt><trkpt lat="42.4224240322342" lon="12.731695493364592"><ele>907.4999999999999</ele><time>2026-04-12T09:37:04Z</time></trkpt><trkpt lat="42.422483761030286" lon="12.731612737288973"><ele>907.0</ele><time>2026-04-12T09:37:05Z</time></trkpt><trkpt lat="42.422531043806735" lon="12.731533954137156"><ele>906.9999999999999</ele><time>2026-04-12T09:37:06Z</time></trkpt><trkpt lat="42.42258738956328" lon="12.731477000235698"><ele>907.0</ele><time>2026-04-12T09:37:07Z</time></trkpt><trkpt lat="42.42263866639296" lon="12.731401426216847"><ele>907.0</ele><time>2026-04-12T09:37:08Z</time></trkpt><trkpt lat="42.42268784455638" lon="12.731334228053246"><ele>907.0</ele><time>2026-04-12T09:37:09Z</time></trkpt><trkpt lat="42.42272246506191" lon="12.731247612229236"><ele>906.9999999999999</ele><time>2026-04-12T09:37:10Z</time></trkpt><trkpt lat="42.422796118964314" lon="12.731098139756236"><ele>907.0</ele><time>2026-04-12T09:37:12Z</time></trkpt><trkpt lat="42.42283354302862" lon="12.731021774710268"><ele>907.0000000000001</ele><time>2026-04-12T09:37:13Z</time></trkpt><trkpt lat="42.42287933507567" lon="12.730938819031687"><ele>907.0</ele><time>2026-04-12T09:37:14Z</time></trkpt><trkpt lat="42.42292587834514" lon="12.730844789119466"><ele>907.0000000000001</ele><time>2026-04-12T09:37:15Z</time></trkpt><trkpt lat="42.4229625252341" lon="12.730763045664348"><ele>907.0000000000001</ele><time>2026-04-12T09:37:16.001Z</time></trkpt><trkpt lat="42.42299578786154" lon="12.730676843772553"><ele>907.0</ele><time>2026-04-12T09:37:17.001Z</time></trkpt><trkpt lat="42.423026491626864" lon="12.730600246658451"><ele>907.0000000000001</ele><time>2026-04-12T09:37:18.001Z</time></trkpt><trkpt lat="42.42305961254383" lon="12.730519156429404"><ele>907.0000000000001</ele><time>2026-04-12T09:37:19.001Z</time></trkpt><trkpt lat="42.42308994827583" lon="12.730435482757112"><ele>912.8333333333333</ele><time>2026-04-12T09:37:20.001Z</time></trkpt><trkpt lat="42.423122742515616" lon="12.730341298922028"><ele>918.6666666666666</ele><time>2026-04-12T09:37:21.001Z</time></trkpt><trkpt lat="42.4231507156505" lon="12.730238917903332"><ele>924.5</ele><time>2026-04-12T09:37:22.001Z</time></trkpt><trkpt lat="42.42318285680586" lon="12.730139829989017"><ele>930.3333333333333</ele><time>2026-04-12T09:37:23.001Z</time></trkpt><trkpt lat="42.42321266040493" lon="12.730048563006298"><ele>936.1666666666666</ele><time>2026-04-12T09:37:24.001Z</time></trkpt><trkpt lat="42.423234867716246" lon="12.729945806540321"><ele>942.0</ele><time>2026-04-12T09:37:25.001Z</time></trkpt><trkpt lat="42.42325757921348" lon="12.729838994910756"><ele>942.4285714285716</ele><time>2026-04-12T09:37:26.001Z</time></trkpt><trkpt lat="42.42328072177912" lon="12.729749702789446"><ele>942.8571428571429</ele><time>2026-04-12T09:37:27.001Z</time></trkpt><trkpt lat="42.42330482772964" lon="12.729662264395122"><ele>943.2857142857143</ele><time>2026-04-12T09:37:28.001Z</time></trkpt><trkpt lat="42.423328467890364" lon="12.72957421725533"><ele>943.7142857142858</ele><time>2026-04-12T09:37:29.001Z</time></trkpt><trkpt lat="42.423367740533315" lon="12.729506593774785"><ele>944.1428571428571</ele><time>2026-04-12T09:37:30.001Z</time></trkpt><trkpt lat="42.42338587976371" lon="12.729398313726442"><ele>944.5714285714286</ele><time>2026-04-12T09:37:31.001Z</time></trkpt><trkpt lat="42.423415938808084" lon="12.7292923900052"><ele>945.0</ele><time>2026-04-12T09:37:32.001Z</time></trkpt><trkpt lat="42.4234405430405" lon="12.729213076707051"><ele>943.6</ele><time>2026-04-12T09:37:33.001Z</time></trkpt><trkpt lat="42.423472715887975" lon="12.729128923708268"><ele>942.2</ele><time>2026-04-12T09:37:34.001Z</time></trkpt><trkpt lat="42.423527306362374" lon="12.728966024334069"><ele>940.8</ele><time>2026-04-12T09:37:36.001Z</time></trkpt><trkpt lat="42.42356469956379" lon="12.728806400008349"><ele>939.4</ele><time>2026-04-12T09:37:38.001Z</time></trkpt><trkpt lat="42.42361279845916" lon="12.728658927836536"><ele>938.0</ele><time>2026-04-12T09:37:40.001Z</time></trkpt><trkpt lat="42.42365607266299" lon="12.728500445113115"><ele>937.1666666666667</ele><time>2026-04-12T09:37:42.001Z</time></trkpt><trkpt lat="42.423677848577114" lon="12.728401884507518"><ele>936.3333333333334</ele><time>2026-04-12T09:37:43.001Z</time></trkpt><trkpt lat="42.42369974118958" lon="12.728311804652387"><ele>935.5</ele><time>2026-04-12T09:37:44.001Z</time></trkpt><trkpt lat="42.42371384443178" lon="12.728219223286612"><ele>934.6666666666667</ele><time>2026-04-12T09:37:45Z</time></trkpt><trkpt lat="42.42373027524395" lon="12.728068077048523"><ele>933.8333333333334</ele><time>2026-04-12T09:37:47Z</time></trkpt><trkpt lat="42.42371804401437" lon="12.727982013028894"><ele>933.0</ele><time>2026-04-12T09:37:48Z</time></trkpt><trkpt lat="42.42370449902661" lon="12.727895247437186"><ele>933.0</ele><time>2026-04-12T09:37:49Z</time></trkpt><trkpt lat="42.42369161249219" lon="12.727806005747015"><ele>933.0</ele><time>2026-04-12T09:37:50Z</time></trkpt><trkpt lat="42.423693293697184" lon="12.72771457224503"><ele>933.0</ele><time>2026-04-12T09:37:51Z</time></trkpt><trkpt lat="42.42369829330835" lon="12.727554170791331"><ele>933.0</ele><time>2026-04-12T09:37:53Z</time></trkpt><trkpt lat="42.42369595730378" lon="12.727414761745896"><ele>933.0</ele><time>2026-04-12T09:37:55Z</time></trkpt><trkpt lat="42.423740273597915" lon="12.727277612480348"><ele>933.75</ele><time>2026-04-12T09:37:57Z</time></trkpt><trkpt lat="42.423792146100624" lon="12.727128992859639"><ele>934.5</ele><time>2026-04-12T09:37:59Z</time></trkpt><trkpt lat="42.42385014202275" lon="12.726977007492845"><ele>935.25</ele><time>2026-04-12T09:38:01Z</time></trkpt><trkpt lat="42.423910219844316" lon="12.726812279969838"><ele>936.0</ele><time>2026-04-12T09:38:03Z</time></trkpt><trkpt lat="42.42394463202538" lon="12.726730818372696"><ele>942.5</ele><time>2026-04-12T09:38:04Z</time></trkpt><trkpt lat="42.423982700849095" lon="12.726643075238352"><ele>949.0</ele><time>2026-04-12T09:38:05Z</time></trkpt><trkpt lat="42.42402036267269" lon="12.726562806173106"><ele>955.5</ele><time>2026-04-12T09:38:06Z</time></trkpt><trkpt lat="42.42406421191077" lon="12.726477090278319"><ele>962.0</ele><time>2026-04-12T09:38:07Z</time></trkpt><trkpt lat="42.424095566802826" lon="12.726394955594852"><ele>968.5</ele><time>2026-04-12T09:38:08Z</time></trkpt><trkpt lat="42.42415494608355" lon="12.726266087636334"><ele>975.0</ele><time>2026-04-12T09:38:10Z</time></trkpt><trkpt lat="42.42419224099867" lon="12.72617811165346"><ele>975.0</ele><time>2026-04-12T09:38:11Z</time></trkpt><trkpt lat="42.42422498765457" lon="12.726092639566561"><ele>975.0</ele><time>2026-04-12T09:38:12Z</time></trkpt><trkpt lat="42.424261802847674" lon="12.726022843814498"><ele>975.0</ele><time>2026-04-12T09:38:13Z</time></trkpt><trkpt lat="42.424299305981314" lon="12.725950561274217"><ele>975.0</ele><time>2026-04-12T09:38:14Z</time></trkpt><trkpt lat="42.42433411331194" lon="12.725868901441663"><ele>975.0</ele><time>2026-04-12T09:38:15Z</time></trkpt><trkpt lat="42.4244210211552" lon="12.725760373402416"><ele>975.0</ele><time>2026-04-12T09:38:17Z</time></trkpt><trkpt lat="42.424466211961004" lon="12.725700473443192"><ele>973.6666666666666</ele><time>2026-04-12T09:38:18Z</time></trkpt><trkpt lat="42.424560227624774" lon="12.725601152661557"><ele>972.3333333333333</ele><time>2026-04-12T09:38:20Z</time></trkpt><trkpt lat="42.42462199795254" lon="12.725547839170916"><ele>971.0</ele><time>2026-04-12T09:38:21Z</time></trkpt><trkpt lat="42.42470045881516" lon="12.72551126038213"><ele>969.6666666666666</ele><time>2026-04-12T09:38:22Z</time></trkpt><trkpt lat="42.424776231439644" lon="12.725469911043763"><ele>968.3333333333333</ele><time>2026-04-12T09:38:23Z</time></trkpt><trkpt lat="42.42484799092989" lon="12.725427605555618"><ele>967.0</ele><time>2026-04-12T09:38:24Z</time></trkpt><trkpt lat="42.42490961875383" lon="12.725402996299195"><ele>970.1428571428571</ele><time>2026-04-12T09:38:25Z</time></trkpt><trkpt lat="42.424984499037805" lon="12.725385615722162"><ele>973.2857142857142</ele><time>2026-04-12T09:38:26Z</time></trkpt><trkpt lat="42.42504418334253" lon="12.725357857209593"><ele>976.4285714285713</ele><time>2026-04-12T09:38:27Z</time></trkpt><trkpt lat="42.42510277490915" lon="12.725318875066236"><ele>979.5714285714286</ele><time>2026-04-12T09:38:28Z</time></trkpt><trkpt lat="42.42517289651959" lon="12.725290540988583"><ele>982.7142857142856</ele><time>2026-04-12T09:38:29Z</time></trkpt><trkpt lat="42.425234888652014" lon="12.725306812916383"><ele>985.8571428571428</ele><time>2026-04-12T09:38:30Z</time></trkpt><trkpt lat="42.42529863748299" lon="12.725284832964983"><ele>989.0</ele><time>2026-04-12T09:38:31Z</time></trkpt><trkpt lat="42.42536521719012" lon="12.725277547753604"><ele>989.0</ele><time>2026-04-12T09:38:32Z</time></trkpt><trkpt lat="42.42544698759828" lon="12.725272910815656"><ele>989.0000000000001</ele><time>2026-04-12T09:38:33Z</time></trkpt><trkpt lat="42.425542105750985" lon="12.725217427611701"><ele>989.0000000000001</ele><time>2026-04-12T09:38:35Z</time></trkpt><trkpt lat="42.42561393661282" lon="12.7250866633753"><ele>989.0</ele><time>2026-04-12T09:38:37Z</time></trkpt><trkpt lat="42.425637514258966" lon="12.7249728248675"><ele>989.0</ele><time>2026-04-12T09:38:38Z</time></trkpt><trkpt lat="42.425664977167656" lon="12.724859959404354"><ele>989.8333333333334</ele><time>2026-04-12T09:38:39Z</time></trkpt><trkpt lat="42.425697948757964" lon="12.724757342687093"><ele>990.6666666666667</ele><time>2026-04-12T09:38:40Z</time></trkpt><trkpt lat="42.4256931114134" lon="12.72466644976783"><ele>991.5</ele><time>2026-04-12T09:38:41Z</time></trkpt><trkpt lat="42.42568882528694" lon="12.724577543559883"><ele>992.3333333333333</ele><time>2026-04-12T09:38:42Z</time></trkpt><trkpt lat="42.425680275067144" lon="12.724411004091959"><ele>993.1666666666666</ele><time>2026-04-12T09:38:44Z</time></trkpt><trkpt lat="42.4257335552639" lon="12.724301471686623"><ele>994.0</ele><time>2026-04-12T09:38:46Z</time></trkpt><trkpt lat="42.425819510220364" lon="12.724223938590178"><ele>993.9999999999999</ele><time>2026-04-12T09:38:48Z</time></trkpt><trkpt lat="42.42587031415727" lon="12.724143254589475"><ele>994.0</ele><time>2026-04-12T09:38:57Z</time></trkpt><trkpt lat="42.42593576119215" lon="12.724081450195948"><ele>994.0</ele><time>2026-04-12T09:38:59Z</time></trkpt><trkpt lat="42.426022938225636" lon="12.723999530077796"><ele>994.0</ele><time>2026-04-12T09:39:01Z</time></trkpt><trkpt lat="42.42610769278592" lon="12.723926630531865"><ele>993.9999999999999</ele><time>2026-04-12T09:39:03Z</time></trkpt><trkpt lat="42.42616121559402" lon="12.723865573462382"><ele>994.0</ele><time>2026-04-12T09:39:04Z</time></trkpt><trkpt lat="42.42622198066166" lon="12.723788785865656"><ele>993.9999999999999</ele><time>2026-04-12T09:39:05Z</time></trkpt><trkpt lat="42.42628138819442" lon="12.72372431479443"><ele>994.0</ele><time>2026-04-12T09:39:06Z</time></trkpt><trkpt lat="42.42633879981444" lon="12.723675614002106"><ele>994.0</ele><time>2026-04-12T09:39:07Z</time></trkpt><trkpt lat="42.426397861370816" lon="12.723631533015967"><ele>994.0</ele><time>2026-04-12T09:39:08Z</time></trkpt><trkpt lat="42.42648888628438" lon="12.7235382087825"><ele>993.9999999999999</ele><time>2026-04-12T09:39:10Z</time></trkpt><trkpt lat="42.426547701730186" lon="12.723461016249741"><ele>994.0</ele><time>2026-04-12T09:39:11Z</time></trkpt><trkpt lat="42.42659362599456" lon="12.723396507329209"><ele>993.4999999999999</ele><time>2026-04-12T09:39:12Z</time></trkpt><trkpt lat="42.42664657042678" lon="12.723336325677467"><ele>993.0</ele><time>2026-04-12T09:39:13.001Z</time></trkpt><trkpt lat="42.42670744891344" lon="12.72328232574817"><ele>992.5</ele><time>2026-04-12T09:39:14.001Z</time></trkpt><trkpt lat="42.42676555516209" lon="12.723236248118429"><ele>992.0</ele><time>2026-04-12T09:39:15.001Z</time></trkpt><trkpt lat="42.426824552823284" lon="12.723181371032188"><ele>991.4999999999999</ele><time>2026-04-12T09:39:16.001Z</time></trkpt><trkpt lat="42.426910806602486" lon="12.723095471526301"><ele>991.0</ele><time>2026-04-12T09:39:18.001Z</time></trkpt><trkpt lat="42.426976281920645" lon="12.723009411526588"><ele>990.9999999999999</ele><time>2026-04-12T09:39:20.001Z</time></trkpt><trkpt lat="42.426973677078465" lon="12.722876622028586"><ele>991.0</ele><time>2026-04-12T09:39:22.001Z</time></trkpt><trkpt lat="42.42690800963561" lon="12.722800387289775"><ele>991.0</ele><time>2026-04-12T09:39:23.001Z</time></trkpt><trkpt lat="42.42686754698409" lon="12.722707617012736"><ele>991.0</ele><time>2026-04-12T09:39:24.001Z</time></trkpt><trkpt lat="42.42683440070311" lon="12.722605349418144"><ele>990.9999999999999</ele><time>2026-04-12T09:39:25.001Z</time></trkpt><trkpt lat="42.42681183833958" lon="12.72250110898324"><ele>991.0</ele><time>2026-04-12T09:39:26.001Z</time></trkpt><trkpt lat="42.42679251331074" lon="12.722409211703559"><ele>990.3333333333333</ele><time>2026-04-12T09:39:27.001Z</time></trkpt><trkpt lat="42.42678486940783" lon="12.722310880218892"><ele>989.6666666666666</ele><time>2026-04-12T09:39:28.001Z</time></trkpt><trkpt lat="42.4267777647772" lon="12.722213413612133"><ele>989.0</ele><time>2026-04-12T09:39:29.001Z</time></trkpt><trkpt lat="42.426758718813275" lon="12.72211024438246"><ele>988.3333333333333</ele><time>2026-04-12T09:39:30.001Z</time></trkpt><trkpt lat="42.42677888599602" lon="12.721999348285841"><ele>987.6666666666666</ele><time>2026-04-12T09:39:31.001Z</time></trkpt><trkpt lat="42.42679006755858" lon="12.721899359632896"><ele>987.0</ele><time>2026-04-12T09:39:32.001Z</time></trkpt><trkpt lat="42.42680350635955" lon="12.72180495601073"><ele>987.0</ele><time>2026-04-12T09:39:33.001Z</time></trkpt><trkpt lat="42.42681609018911" lon="12.721700917348246"><ele>987.0</ele><time>2026-04-12T09:39:34.001Z</time></trkpt><trkpt lat="42.42682827985923" lon="12.721609148108438"><ele>987.0</ele><time>2026-04-12T09:39:35.001Z</time></trkpt><trkpt lat="42.4268473251053" lon="12.721523890764411"><ele>987.0</ele><time>2026-04-12T09:39:36.001Z</time></trkpt><trkpt lat="42.426869422718056" lon="12.721434329072354"><ele>987.0</ele><time>2026-04-12T09:39:37.001Z</time></trkpt><trkpt lat="42.42689241914472" lon="12.721354778466248"><ele>987.0</ele><time>2026-04-12T09:39:38.001Z</time></trkpt><trkpt lat="42.426925777997866" lon="12.721271647795701"><ele>987.0</ele><time>2026-04-12T09:39:39.001Z</time></trkpt><trkpt lat="42.426970784464956" lon="12.721193378962093"><ele>987.0</ele><time>2026-04-12T09:39:40.001Z</time></trkpt><trkpt lat="42.42703184480243" lon="12.721121704069551"><ele>987.0</ele><time>2026-04-12T09:39:41.001Z</time></trkpt><trkpt lat="42.42709959846683" lon="12.72105465954477"><ele>987.0</ele><time>2026-04-12T09:39:42.001Z</time></trkpt><trkpt lat="42.42718035504461" lon="12.72097916491284"><ele>987.0</ele><time>2026-04-12T09:39:43.001Z</time></trkpt><trkpt lat="42.42726706809022" lon="12.720907370504573"><ele>987.0</ele><time>2026-04-12T09:39:44.001Z</time></trkpt><trkpt lat="42.427356722779265" lon="12.72083100639258"><ele>985.5</ele><time>2026-04-12T09:39:45.001Z</time></trkpt><trkpt lat="42.42745386164923" lon="12.72075930013676"><ele>984.0</ele><time>2026-04-12T09:39:46.001Z</time></trkpt><trkpt lat="42.42754924038858" lon="12.720684707426894"><ele>982.5</ele><time>2026-04-12T09:39:47.001Z</time></trkpt><trkpt lat="42.42765334906995" lon="12.720599126348535"><ele>981.0</ele><time>2026-04-12T09:39:48.001Z</time></trkpt><trkpt lat="42.42775714960178" lon="12.720519238980925"><ele>981.0</ele><time>2026-04-12T09:39:49.001Z</time></trkpt><trkpt lat="42.42785846292026" lon="12.720433449393648"><ele>980.9999999999999</ele><time>2026-04-12T09:39:50.001Z</time></trkpt><trkpt lat="42.427949509971924" lon="12.720349146895732"><ele>980.9999999999999</ele><time>2026-04-12T09:39:51Z</time></trkpt><trkpt lat="42.428029848215424" lon="12.720269056724778"><ele>981.0</ele><time>2026-04-12T09:39:52Z</time></trkpt><trkpt lat="42.42810571717562" lon="12.720185349232993"><ele>981.0</ele><time>2026-04-12T09:39:53Z</time></trkpt><trkpt lat="42.42817281568853" lon="12.720087895997926"><ele>981.0</ele><time>2026-04-12T09:39:54Z</time></trkpt><trkpt lat="42.42822713212112" lon="12.719987776625361"><ele>981.0</ele><time>2026-04-12T09:39:55Z</time></trkpt><trkpt lat="42.428260304332355" lon="12.719902185919329"><ele>981.0</ele><time>2026-04-12T09:39:56Z</time></trkpt><trkpt lat="42.428295007089396" lon="12.719807476349573"><ele>981.0</ele><time>2026-04-12T09:39:57Z</time></trkpt><trkpt lat="42.42832485464442" lon="12.719731338342557"><ele>981.0</ele><time>2026-04-12T09:39:58Z</time></trkpt><trkpt lat="42.42836562776112" lon="12.719658515492092"><ele>981.0</ele><time>2026-04-12T09:39:59Z</time></trkpt><trkpt lat="42.42841370541569" lon="12.719572129428107"><ele>981.0</ele><time>2026-04-12T09:40:00Z</time></trkpt><trkpt lat="42.428467216994804" lon="12.719484123480045"><ele>980.9999999999999</ele><time>2026-04-12T09:40:01Z</time></trkpt><trkpt lat="42.42850984354415" lon="12.719416561615985"><ele>980.9999999999999</ele><time>2026-04-12T09:40:02Z</time></trkpt><trkpt lat="42.42859672902326" lon="12.719312127981409"><ele>981.0</ele><time>2026-04-12T09:40:04Z</time></trkpt><trkpt lat="42.42869936048301" lon="12.719221603391368"><ele>981.0</ele><time>2026-04-12T09:40:06Z</time></trkpt><trkpt lat="42.42880487383724" lon="12.719124549070495"><ele>985.1666666666666</ele><time>2026-04-12T09:40:08Z</time></trkpt><trkpt lat="42.42888816835545" lon="12.719001336611738"><ele>989.3333333333333</ele><time>2026-04-12T09:40:10Z</time></trkpt><trkpt lat="42.42893479835512" lon="12.718925581885273"><ele>993.5</ele><time>2026-04-12T09:40:11Z</time></trkpt><trkpt lat="42.428986052887595" lon="12.71885608086324"><ele>997.6666666666666</ele><time>2026-04-12T09:40:12Z</time></trkpt><trkpt lat="42.42903624863636" lon="12.718788170609681"><ele>1001.8333333333333</ele><time>2026-04-12T09:40:13Z</time></trkpt><trkpt lat="42.42909442795895" lon="12.718724725304822"><ele>1006.0</ele><time>2026-04-12T09:40:14Z</time></trkpt><trkpt lat="42.42916674179845" lon="12.71860750116709"><ele>1006.6666666666666</ele><time>2026-04-12T09:40:16Z</time></trkpt><trkpt lat="42.42924629303202" lon="12.718458590354018"><ele>1007.3333333333333</ele><time>2026-04-12T09:40:18Z</time></trkpt><trkpt lat="42.429288839032274" lon="12.718386039017366"><ele>1008.0</ele><time>2026-04-12T09:40:19Z</time></trkpt><trkpt lat="42.42932189054024" lon="12.718309566662848"><ele>1008.6666666666667</ele><time>2026-04-12T09:40:20Z</time></trkpt><trkpt lat="42.42935857009847" lon="12.718235304797158"><ele>1009.3333333333334</ele><time>2026-04-12T09:40:21Z</time></trkpt><trkpt lat="42.42939460355528" lon="12.71815908994139"><ele>1010.0</ele><time>2026-04-12T09:40:22Z</time></trkpt><trkpt lat="42.429436690091805" lon="12.7180925189446"><ele>1010.0</ele><time>2026-04-12T09:40:23Z</time></trkpt><trkpt lat="42.42948415861525" lon="12.718035604906508"><ele>1010.0</ele><time>2026-04-12T09:40:24Z</time></trkpt><trkpt lat="42.42958977921064" lon="12.717935474411947"><ele>1010.0</ele><time>2026-04-12T09:40:26Z</time></trkpt><trkpt lat="42.42964324432853" lon="12.717769995411484"><ele>1010.0</ele><time>2026-04-12T09:40:28Z</time></trkpt><trkpt lat="42.42966587964805" lon="12.717677274278588"><ele>1010.0</ele><time>2026-04-12T09:40:29Z</time></trkpt><trkpt lat="42.42970237345974" lon="12.717568756590468"><ele>1011.6</ele><time>2026-04-12T09:40:30Z</time></trkpt><trkpt lat="42.4297514531886" lon="12.717462997247596"><ele>1013.2</ele><time>2026-04-12T09:40:31Z</time></trkpt><trkpt lat="42.4298071437529" lon="12.717344584159708"><ele>1014.8</ele><time>2026-04-12T09:40:32Z</time></trkpt><trkpt lat="42.42986208500549" lon="12.717242123315888"><ele>1016.4</ele><time>2026-04-12T09:40:33Z</time></trkpt><trkpt lat="42.42992097891709" lon="12.717156528108163"><ele>1018.0</ele><time>2026-04-12T09:40:34Z</time></trkpt><trkpt lat="42.429976676290096" lon="12.717089124677488"><ele>1017.9999999999999</ele><time>2026-04-12T09:40:35Z</time></trkpt><trkpt lat="42.43004000540561" lon="12.717021998132669"><ele>1018.0</ele><time>2026-04-12T09:40:36Z</time></trkpt><trkpt lat="42.43010181579227" lon="12.716941010942502"><ele>1018.0</ele><time>2026-04-12T09:40:37Z</time></trkpt><trkpt lat="42.43015603621388" lon="12.7168608388284"><ele>1018.0</ele><time>2026-04-12T09:40:38Z</time></trkpt><trkpt lat="42.430237981277834" lon="12.716836085015746"><ele>1017.9999999999999</ele><time>2026-04-12T09:40:40Z</time></trkpt><trkpt lat="42.43035534650221" lon="12.716854044081192"><ele>1018.0</ele><time>2026-04-12T09:40:42Z</time></trkpt><trkpt lat="42.430441521943585" lon="12.716877300237662"><ele>1017.4999999999999</ele><time>2026-04-12T09:40:43Z</time></trkpt><trkpt lat="42.43052763119553" lon="12.716899660572821"><ele>1017.0</ele><time>2026-04-12T09:40:44Z</time></trkpt><trkpt lat="42.43060595810331" lon="12.716891820469929"><ele>1016.5</ele><time>2026-04-12T09:40:45Z</time></trkpt><trkpt lat="42.430679803389836" lon="12.716858033904058"><ele>1016.0</ele><time>2026-04-12T09:40:46Z</time></trkpt><trkpt lat="42.43075610025934" lon="12.716806425598115"><ele>1015.4999999999999</ele><time>2026-04-12T09:40:47Z</time></trkpt><trkpt lat="42.430850026747734" lon="12.716755301263833"><ele>1015.0</ele><time>2026-04-12T09:40:48Z</time></trkpt><trkpt lat="42.430932722735136" lon="12.716694303096308"><ele>1014.9999999999999</ele><time>2026-04-12T09:40:49Z</time></trkpt><trkpt lat="42.4310062137993" lon="12.716638651571106"><ele>1015.0</ele><time>2026-04-12T09:40:50Z</time></trkpt><trkpt lat="42.4310705609872" lon="12.716602266790671"><ele>1015.0</ele><time>2026-04-12T09:40:51Z</time></trkpt><trkpt lat="42.43114573246127" lon="12.716549294982078"><ele>1015.0</ele><time>2026-04-12T09:40:52Z</time></trkpt><trkpt lat="42.43121850898275" lon="12.716510651140185"><ele>1014.9999999999999</ele><time>2026-04-12T09:40:53Z</time></trkpt><trkpt lat="42.431287942203575" lon="12.716485753254181"><ele>1015.0</ele><time>2026-04-12T09:40:54Z</time></trkpt><trkpt lat="42.43136040479297" lon="12.716469529774594"><ele>1015.1666666666666</ele><time>2026-04-12T09:40:55Z</time></trkpt><trkpt lat="42.431441879114075" lon="12.71647552025349"><ele>1015.3333333333333</ele><time>2026-04-12T09:40:56Z</time></trkpt><trkpt lat="42.43154473324852" lon="12.71650401786316"><ele>1015.5</ele><time>2026-04-12T09:40:57Z</time></trkpt><trkpt lat="42.43164663754011" lon="12.716517666984744"><ele>1015.6666666666667</ele><time>2026-04-12T09:40:58Z</time></trkpt><trkpt lat="42.43173076863642" lon="12.716519710630827"><ele>1015.8333333333334</ele><time>2026-04-12T09:40:59Z</time></trkpt><trkpt lat="42.431800093242906" lon="12.716506548328939"><ele>1016.0</ele><time>2026-04-12T09:41:00Z</time></trkpt><trkpt lat="42.43186788702152" lon="12.716524386711013"><ele>1016.0000000000001</ele><time>2026-04-12T09:41:01Z</time></trkpt><trkpt lat="42.43195333627778" lon="12.716545820953982"><ele>1016.0</ele><time>2026-04-12T09:41:03Z</time></trkpt><trkpt lat="42.432010304942665" lon="12.716593976238148"><ele>1016.0</ele><time>2026-04-12T09:41:04Z</time></trkpt><trkpt lat="42.43206550995074" lon="12.716685702842906"><ele>1016.0</ele><time>2026-04-12T09:41:05Z</time></trkpt><trkpt lat="42.43211969885057" lon="12.716764251990922"><ele>1016.0000000000001</ele><time>2026-04-12T09:41:06Z</time></trkpt><trkpt lat="42.432180351738005" lon="12.716834539691805"><ele>1016.0</ele><time>2026-04-12T09:41:07Z</time></trkpt><trkpt lat="42.43224841595408" lon="12.716910415498877"><ele>1015.1666666666667</ele><time>2026-04-12T09:41:08Z</time></trkpt><trkpt lat="42.432305919858464" lon="12.716989078672272"><ele>1014.3333333333334</ele><time>2026-04-12T09:41:09Z</time></trkpt><trkpt lat="42.43236769283192" lon="12.717068462228484"><ele>1013.5</ele><time>2026-04-12T09:41:10Z</time></trkpt><trkpt lat="42.432438000516484" lon="12.717128249158435"><ele>1012.6666666666667</ele><time>2026-04-12T09:41:11Z</time></trkpt><trkpt lat="42.43251192534395" lon="12.717182385116075"><ele>1011.8333333333334</ele><time>2026-04-12T09:41:12Z</time></trkpt><trkpt lat="42.43256733008277" lon="12.717230322314867"><ele>1011.0</ele><time>2026-04-12T09:41:13Z</time></trkpt><trkpt lat="42.43262400083101" lon="12.717287765366338"><ele>1011.0</ele><time>2026-04-12T09:41:14Z</time></trkpt><trkpt lat="42.4327032502925" lon="12.71740748814748"><ele>1010.9999999999999</ele><time>2026-04-12T09:41:16Z</time></trkpt><trkpt lat="42.43277120144407" lon="12.71754298968659"><ele>1010.9999999999999</ele><time>2026-04-12T09:41:18.001Z</time></trkpt><trkpt lat="42.43280435179477" lon="12.717653307105008"><ele>1011.0</ele><time>2026-04-12T09:41:19.001Z</time></trkpt><trkpt lat="42.432854764452536" lon="12.717749940550304"><ele>1011.0</ele><time>2026-04-12T09:41:20.001Z</time></trkpt><trkpt lat="42.4328910354674" lon="12.717857841820328"><ele>1011.8333333333334</ele><time>2026-04-12T09:41:21.001Z</time></trkpt><trkpt lat="42.432939203734435" lon="12.717929958128432"><ele>1012.6666666666667</ele><time>2026-04-12T09:41:22.001Z</time></trkpt><trkpt lat="42.43298486994269" lon="12.718000174210964"><ele>1013.5</ele><time>2026-04-12T09:41:23.001Z</time></trkpt><trkpt lat="42.43304869678778" lon="12.718072022648348"><ele>1014.3333333333334</ele><time>2026-04-12T09:41:24.001Z</time></trkpt><trkpt lat="42.43310326443144" lon="12.718147191586569"><ele>1015.1666666666667</ele><time>2026-04-12T09:41:25.001Z</time></trkpt><trkpt lat="42.43315580771215" lon="12.71822917764708"><ele>1016.0</ele><time>2026-04-12T09:41:26.001Z</time></trkpt><trkpt lat="42.43321339102731" lon="12.718315625967975"><ele>1013.3333333333334</ele><time>2026-04-12T09:41:27.001Z</time></trkpt><trkpt lat="42.43326774736081" lon="12.718398602217498"><ele>1010.6666666666667</ele><time>2026-04-12T09:41:28.001Z</time></trkpt><trkpt lat="42.433329486317824" lon="12.718490467195856"><ele>1008.0</ele><time>2026-04-12T09:41:29.001Z</time></trkpt><trkpt lat="42.433387308898276" lon="12.71856313217543"><ele>1005.3333333333333</ele><time>2026-04-12T09:41:30.001Z</time></trkpt><trkpt lat="42.43343256152201" lon="12.718626893143762"><ele>1002.6666666666666</ele><time>2026-04-12T09:41:31.001Z</time></trkpt><trkpt lat="42.43348331918489" lon="12.718697549016001"><ele>1000.0</ele><time>2026-04-12T09:41:32.001Z</time></trkpt><trkpt lat="42.43355672678456" lon="12.718825626124378"><ele>998.6666666666666</ele><time>2026-04-12T09:41:34.001Z</time></trkpt><trkpt lat="42.43359535064093" lon="12.718908266879811"><ele>997.3333333333333</ele><time>2026-04-12T09:41:35.001Z</time></trkpt><trkpt lat="42.43362392868501" lon="12.718999028622374"><ele>996.0</ele><time>2026-04-12T09:41:36.001Z</time></trkpt><trkpt lat="42.43366245603074" lon="12.719088738452074"><ele>994.6666666666667</ele><time>2026-04-12T09:41:37.001Z</time></trkpt><trkpt lat="42.43370508875033" lon="12.719185933420242"><ele>993.3333333333334</ele><time>2026-04-12T09:41:38.001Z</time></trkpt><trkpt lat="42.433757199827795" lon="12.719262022417684"><ele>992.0</ele><time>2026-04-12T09:41:39.001Z</time></trkpt><trkpt lat="42.4338071455791" lon="12.719361989947174"><ele>989.1666666666667</ele><time>2026-04-12T09:41:40.001Z</time></trkpt><trkpt lat="42.43386084439871" lon="12.719454115785325"><ele>986.3333333333334</ele><time>2026-04-12T09:41:41.001Z</time></trkpt><trkpt lat="42.43392524689112" lon="12.719540144440723"><ele>983.5</ele><time>2026-04-12T09:41:42.001Z</time></trkpt><trkpt lat="42.433983632909204" lon="12.719644896355621"><ele>980.6666666666667</ele><time>2026-04-12T09:41:43.001Z</time></trkpt><trkpt lat="42.434060204123256" lon="12.719708151082884"><ele>977.8333333333334</ele><time>2026-04-12T09:41:44.001Z</time></trkpt><trkpt lat="42.43411001335943" lon="12.719767097169619"><ele>975.0</ele><time>2026-04-12T09:41:45.001Z</time></trkpt><trkpt lat="42.43415722293374" lon="12.719831886865123"><ele>975.0</ele><time>2026-04-12T09:41:46.001Z</time></trkpt><trkpt lat="42.43419140849556" lon="12.71990552179319"><ele>975.0</ele><time>2026-04-12T09:41:47.001Z</time></trkpt><trkpt lat="42.43421407482917" lon="12.720016302697145"><ele>975.0</ele><time>2026-04-12T09:41:48.001Z</time></trkpt><trkpt lat="42.434292081852846" lon="12.720162576271832"><ele>975.0</ele><time>2026-04-12T09:41:50.001Z</time></trkpt><trkpt lat="42.434355782130645" lon="12.72022624212248"><ele>975.0</ele><time>2026-04-12T09:41:51.001Z</time></trkpt><trkpt lat="42.434415149569155" lon="12.720310503433183"><ele>975.0</ele><time>2026-04-12T09:41:52.001Z</time></trkpt><trkpt lat="42.43446336428049" lon="12.720382468135199"><ele>974.2</ele><time>2026-04-12T09:41:53.001Z</time></trkpt><trkpt lat="42.434525842704026" lon="12.720459650766712"><ele>973.4</ele><time>2026-04-12T09:41:54.001Z</time></trkpt><trkpt lat="42.43456326747252" lon="12.72055423002115"><ele>972.5999999999999</ele><time>2026-04-12T09:41:55.001Z</time></trkpt><trkpt lat="42.43462061067073" lon="12.72066248883994"><ele>971.8</ele><time>2026-04-12T09:41:56.001Z</time></trkpt><trkpt lat="42.4346861381383" lon="12.720769560735132"><ele>971.0</ele><time>2026-04-12T09:41:57Z</time></trkpt><trkpt lat="42.434746394613434" lon="12.720858973834504"><ele>969.6666666666667</ele><time>2026-04-12T09:41:58Z</time></trkpt><trkpt lat="42.43482257706975" lon="12.72094253885931"><ele>968.3333333333334</ele><time>2026-04-12T09:41:59Z</time></trkpt><trkpt lat="42.43489359315851" lon="12.721035503889462"><ele>967.0</ele><time>2026-04-12T09:42:00Z</time></trkpt><trkpt lat="42.43494778255592" lon="12.72112324263737"><ele>965.6666666666667</ele><time>2026-04-12T09:42:01Z</time></trkpt><trkpt lat="42.43501100560075" lon="12.721187919211006"><ele>964.3333333333334</ele><time>2026-04-12T09:42:02Z</time></trkpt><trkpt lat="42.435087611869044" lon="12.721244000651385"><ele>963.0</ele><time>2026-04-12T09:42:03Z</time></trkpt><trkpt lat="42.43515401668473" lon="12.721293667740703"><ele>961.8333333333334</ele><time>2026-04-12T09:42:04Z</time></trkpt><trkpt lat="42.43524005990472" lon="12.72133906927406"><ele>960.6666666666667</ele><time>2026-04-12T09:42:05Z</time></trkpt><trkpt lat="42.435322851111216" lon="12.72137795992681"><ele>959.5</ele><time>2026-04-12T09:42:06Z</time></trkpt><trkpt lat="42.43540221709706" lon="12.721398384126338"><ele>958.3333333333334</ele><time>2026-04-12T09:42:07Z</time></trkpt><trkpt lat="42.43547956792389" lon="12.721415333572526"><ele>957.1666666666667</ele><time>2026-04-12T09:42:08Z</time></trkpt><trkpt lat="42.43555805177323" lon="12.721420350053254"><ele>956.0</ele><time>2026-04-12T09:42:09Z</time></trkpt><trkpt lat="42.43564449443144" lon="12.72141298633258"><ele>955.6666666666667</ele><time>2026-04-12T09:42:10Z</time></trkpt><trkpt lat="42.4357236417262" lon="12.721396109595934"><ele>955.3333333333334</ele><time>2026-04-12T09:42:11Z</time></trkpt><trkpt lat="42.435817917158175" lon="12.721374217021461"><ele>955.0</ele><time>2026-04-12T09:42:12Z</time></trkpt><trkpt lat="42.43590535091226" lon="12.721340233695148"><ele>954.6666666666667</ele><time>2026-04-12T09:42:13Z</time></trkpt><trkpt lat="42.435982266487244" lon="12.72129622075498"><ele>954.3333333333334</ele><time>2026-04-12T09:42:14Z</time></trkpt><trkpt lat="42.436062659362065" lon="12.721226015948437"><ele>954.0</ele><time>2026-04-12T09:42:15Z</time></trkpt><trkpt lat="42.436152313327774" lon="12.721186050526072"><ele>954.0</ele><time>2026-04-12T09:42:16Z</time></trkpt><trkpt lat="42.436252173117715" lon="12.721160839658536"><ele>954.0000000000001</ele><time>2026-04-12T09:42:17Z</time></trkpt><trkpt lat="42.43635096434603" lon="12.721141312786054"><ele>954.0000000000001</ele><time>2026-04-12T09:42:18Z</time></trkpt><trkpt lat="42.43644443865667" lon="12.72112101871916"><ele>954.0</ele><time>2026-04-12T09:42:19Z</time></trkpt><trkpt lat="42.43655037641718" lon="12.721095143662948"><ele>954.0</ele><time>2026-04-12T09:42:20Z</time></trkpt><trkpt lat="42.436639717849005" lon="12.721066603453943"><ele>954.4000000000001</ele><time>2026-04-12T09:42:21Z</time></trkpt><trkpt lat="42.43674214119409" lon="12.721004227977273"><ele>954.8000000000001</ele><time>2026-04-12T09:42:22Z</time></trkpt><trkpt lat="42.43682452575479" lon="12.720949764256403"><ele>955.1999999999999</ele><time>2026-04-12T09:42:23Z</time></trkpt><trkpt lat="42.43691226618497" lon="12.720892735980572"><ele>955.5999999999999</ele><time>2026-04-12T09:42:24Z</time></trkpt><trkpt lat="42.43700150468825" lon="12.720836935710699"><ele>956.0</ele><time>2026-04-12T09:42:25Z</time></trkpt><trkpt lat="42.437105372701495" lon="12.720786692405511"><ele>955.8</ele><time>2026-04-12T09:42:26Z</time></trkpt><trkpt lat="42.437201155647585" lon="12.720730719412744"><ele>955.5999999999999</ele><time>2026-04-12T09:42:27Z</time></trkpt><trkpt lat="42.43728644746469" lon="12.720658009356194"><ele>955.4</ele><time>2026-04-12T09:42:28Z</time></trkpt><trkpt lat="42.43737451254946" lon="12.72058292351484"><ele>955.2</ele><time>2026-04-12T09:42:29Z</time></trkpt><trkpt lat="42.43747660539597" lon="12.720514346880828"><ele>955.0</ele><time>2026-04-12T09:42:30Z</time></trkpt><trkpt lat="42.43757655414324" lon="12.720457908057062"><ele>955.0</ele><time>2026-04-12T09:42:31Z</time></trkpt><trkpt lat="42.4376728748448" lon="12.720430279422336"><ele>955.0</ele><time>2026-04-12T09:42:32Z</time></trkpt><trkpt lat="42.43775024069727" lon="12.720373293537861"><ele>955.0</ele><time>2026-04-12T09:42:33Z</time></trkpt><trkpt lat="42.43781970741271" lon="12.720296323337966"><ele>955.0</ele><time>2026-04-12T09:42:34Z</time></trkpt><trkpt lat="42.437889233847166" lon="12.720209425076671"><ele>955.0</ele><time>2026-04-12T09:42:35Z</time></trkpt><trkpt lat="42.43794079746382" lon="12.720115583164658"><ele>955.0</ele><time>2026-04-12T09:42:36Z</time></trkpt><trkpt lat="42.437985779737744" lon="12.720003058567759"><ele>955.0</ele><time>2026-04-12T09:42:37Z</time></trkpt><trkpt lat="42.4380210422775" lon="12.719887340114523"><ele>955.0</ele><time>2026-04-12T09:42:38Z</time></trkpt><trkpt lat="42.43805634030474" lon="12.719778999608742"><ele>955.0</ele><time>2026-04-12T09:42:39Z</time></trkpt><trkpt lat="42.43812434337871" lon="12.719676034280964"><ele>955.0</ele><time>2026-04-12T09:42:40Z</time></trkpt><trkpt lat="42.43818420468646" lon="12.719579809501429"><ele>954.9999999999999</ele><time>2026-04-12T09:42:41Z</time></trkpt><trkpt lat="42.438236818534214" lon="12.719483858998206"><ele>955.0</ele><time>2026-04-12T09:42:42Z</time></trkpt><trkpt lat="42.43828927541267" lon="12.719383328761277"><ele>955.0</ele><time>2026-04-12T09:42:43Z</time></trkpt><trkpt lat="42.43834356318148" lon="12.719286718834663"><ele>955.0</ele><time>2026-04-12T09:42:44Z</time></trkpt><trkpt lat="42.43839674991083" lon="12.719184032002273"><ele>954.9999999999999</ele><time>2026-04-12T09:42:45Z</time></trkpt><trkpt lat="42.43845123760517" lon="12.719101335495342"><ele>955.0</ele><time>2026-04-12T09:42:46Z</time></trkpt><trkpt lat="42.43851246368498" lon="12.718998335019458"><ele>953.9999999999999</ele><time>2026-04-12T09:42:47Z</time></trkpt><trkpt lat="42.43856652451645" lon="12.718902803919477"><ele>953.0</ele><time>2026-04-12T09:42:48Z</time></trkpt><trkpt lat="42.438626412803934" lon="12.718814956488346"><ele>952.0</ele><time>2026-04-12T09:42:49Z</time></trkpt><trkpt lat="42.4386731890459" lon="12.71873281263221"><ele>951.0</ele><time>2026-04-12T09:42:50Z</time></trkpt><trkpt lat="42.43872390948703" lon="12.718673504323625"><ele>949.9999999999999</ele><time>2026-04-12T09:42:51Z</time></trkpt><trkpt lat="42.43883180919188" lon="12.718607192356012"><ele>949.0</ele><time>2026-04-12T09:42:53Z</time></trkpt><trkpt lat="42.438904167004814" lon="12.718559483596518"><ele>946.4999999999999</ele><time>2026-04-12T09:42:54Z</time></trkpt><trkpt lat="42.43898887147934" lon="12.718514327495509"><ele>944.0</ele><time>2026-04-12T09:42:55Z</time></trkpt><trkpt lat="42.439064258284546" lon="12.718461050618613"><ele>941.5</ele><time>2026-04-12T09:42:56Z</time></trkpt><trkpt lat="42.43913299970326" lon="12.718413069448594"><ele>939.0</ele><time>2026-04-12T09:42:57Z</time></trkpt><trkpt lat="42.43919627652393" lon="12.718356042353697"><ele>936.4999999999999</ele><time>2026-04-12T09:42:58Z</time></trkpt><trkpt lat="42.43927502897583" lon="12.71829776144775"><ele>934.0</ele><time>2026-04-12T09:42:59Z</time></trkpt><trkpt lat="42.43935022907856" lon="12.718231862286858"><ele>933.9999999999999</ele><time>2026-04-12T09:43:00Z</time></trkpt><trkpt lat="42.439413396307415" lon="12.7181665880422"><ele>934.0</ele><time>2026-04-12T09:43:01Z</time></trkpt><trkpt lat="42.4394741007838" lon="12.718106122191324"><ele>934.0</ele><time>2026-04-12T09:43:02Z</time></trkpt><trkpt lat="42.43953805273657" lon="12.718044106796805"><ele>934.0</ele><time>2026-04-12T09:43:03Z</time></trkpt><trkpt lat="42.439613751222645" lon="12.717959777297596"><ele>933.9999999999999</ele><time>2026-04-12T09:43:04Z</time></trkpt><trkpt lat="42.4396800295706" lon="12.717881865242402"><ele>934.0</ele><time>2026-04-12T09:43:05Z</time></trkpt><trkpt lat="42.43973464504785" lon="12.717800882507122"><ele>931.1666666666666</ele><time>2026-04-12T09:43:06Z</time></trkpt><trkpt lat="42.439773270968864" lon="12.717731177049092"><ele>928.3333333333333</ele><time>2026-04-12T09:43:07Z</time></trkpt><trkpt lat="42.43981988243668" lon="12.717615827856037"><ele>925.5</ele><time>2026-04-12T09:43:09Z</time></trkpt><trkpt lat="42.439820756583394" lon="12.717529790041963"><ele>922.6666666666667</ele><time>2026-04-12T09:43:12Z</time></trkpt><trkpt lat="42.43986910457532" lon="12.717457714797597"><ele>919.8333333333334</ele><time>2026-04-12T09:43:22.001Z</time></trkpt><trkpt lat="42.43995590553388" lon="12.717426542723564"><ele>917.0</ele><time>2026-04-12T09:43:24.001Z</time></trkpt><trkpt lat="42.44006346596627" lon="12.71742395850123"><ele>917.0</ele><time>2026-04-12T09:43:26.001Z</time></trkpt><trkpt lat="42.44016782048063" lon="12.717455641026678"><ele>917.0</ele><time>2026-04-12T09:43:28.001Z</time></trkpt><trkpt lat="42.44023567482109" lon="12.717509094498798"><ele>917.0</ele><time>2026-04-12T09:43:30.001Z</time></trkpt><trkpt lat="42.440345336905324" lon="12.717591244415274"><ele>917.0</ele><time>2026-04-12T09:43:32.001Z</time></trkpt><trkpt lat="42.44040342073731" lon="12.717642026450738"><ele>917.0</ele><time>2026-04-12T09:43:33.001Z</time></trkpt><trkpt lat="42.44046189584805" lon="12.717694529083559"><ele>919.8333333333334</ele><time>2026-04-12T09:43:34.001Z</time></trkpt><trkpt lat="42.440524476308866" lon="12.717743068428762"><ele>922.6666666666667</ele><time>2026-04-12T09:43:35.001Z</time></trkpt><trkpt lat="42.440582548489225" lon="12.717813829789177"><ele>925.5</ele><time>2026-04-12T09:43:36.001Z</time></trkpt><trkpt lat="42.44064579638846" lon="12.717880896807294"><ele>928.3333333333333</ele><time>2026-04-12T09:43:37.001Z</time></trkpt><trkpt lat="42.44070148630924" lon="12.717929223922116"><ele>931.1666666666666</ele><time>2026-04-12T09:43:38.001Z</time></trkpt><trkpt lat="42.44076249006875" lon="12.717988837247944"><ele>934.0</ele><time>2026-04-12T09:43:39.001Z</time></trkpt><trkpt lat="42.44082931281243" lon="12.718059670539795"><ele>934.0</ele><time>2026-04-12T09:43:40.001Z</time></trkpt><trkpt lat="42.4408910186826" lon="12.718122561131787"><ele>934.0000000000001</ele><time>2026-04-12T09:43:41.001Z</time></trkpt><trkpt lat="42.44095302280417" lon="12.718202843550472"><ele>934.0000000000001</ele><time>2026-04-12T09:43:42.001Z</time></trkpt><trkpt lat="42.441025706058504" lon="12.718302771633239"><ele>934.0</ele><time>2026-04-12T09:43:43.001Z</time></trkpt><trkpt lat="42.44109346851995" lon="12.718399927422249"><ele>934.0</ele><time>2026-04-12T09:43:44.001Z</time></trkpt><trkpt lat="42.44116865425394" lon="12.718483287975504"><ele>934.0</ele><time>2026-04-12T09:43:45.001Z</time></trkpt><trkpt lat="42.44124858968125" lon="12.718559096341858"><ele>934.0000000000001</ele><time>2026-04-12T09:43:46.001Z</time></trkpt><trkpt lat="42.441330795520784" lon="12.718618665425145"><ele>934.0000000000001</ele><time>2026-04-12T09:43:47.001Z</time></trkpt><trkpt lat="42.44142064812398" lon="12.71866323395374"><ele>934.0</ele><time>2026-04-12T09:43:48.001Z</time></trkpt><trkpt lat="42.441511925937284" lon="12.718702551359074"><ele>934.0</ele><time>2026-04-12T09:43:49.001Z</time></trkpt><trkpt lat="42.44160163800698" lon="12.718740135929087"><ele>935.9999999999999</ele><time>2026-04-12T09:43:50.001Z</time></trkpt><trkpt lat="42.44167145217226" lon="12.718797788012704"><ele>938.0</ele><time>2026-04-12T09:43:51.001Z</time></trkpt><trkpt lat="42.441730272380134" lon="12.71886885705528"><ele>940.0</ele><time>2026-04-12T09:43:52.001Z</time></trkpt><trkpt lat="42.44178595789822" lon="12.718960529599984"><ele>942.0</ele><time>2026-04-12T09:43:53.001Z</time></trkpt><trkpt lat="42.441845882502136" lon="12.7190603439223"><ele>943.9999999999999</ele><time>2026-04-12T09:43:54.001Z</time></trkpt><trkpt lat="42.44192331950777" lon="12.719141908761928"><ele>946.0</ele><time>2026-04-12T09:43:55.001Z</time></trkpt><trkpt lat="42.44200158817842" lon="12.719213292343793"><ele>946.0</ele><time>2026-04-12T09:43:56.001Z</time></trkpt><trkpt lat="42.44208199230522" lon="12.719265306394876"><ele>945.9999999999999</ele><time>2026-04-12T09:43:57.001Z</time></trkpt><trkpt lat="42.44216720280299" lon="12.719299957860901"><ele>945.9999999999999</ele><time>2026-04-12T09:43:58.001Z</time></trkpt><trkpt lat="42.442262727386414" lon="12.719318729820491"><ele>946.0</ele><time>2026-04-12T09:43:59.001Z</time></trkpt><trkpt lat="42.44236267290184" lon="12.719343802207112"><ele>946.0</ele><time>2026-04-12T09:44:00.001Z</time></trkpt><trkpt lat="42.442441565035054" lon="12.719377465417862"><ele>946.9999999999999</ele><time>2026-04-12T09:44:01.001Z</time></trkpt><trkpt lat="42.44252305846985" lon="12.719401584945459"><ele>948.0</ele><time>2026-04-12T09:44:02.001Z</time></trkpt><trkpt lat="42.44259291805963" lon="12.719460099245701"><ele>949.0</ele><time>2026-04-12T09:44:03Z</time></trkpt><trkpt lat="42.44265791926694" lon="12.719525616758931"><ele>950.0</ele><time>2026-04-12T09:44:04Z</time></trkpt><trkpt lat="42.442733064183216" lon="12.719611029257873"><ele>950.9999999999999</ele><time>2026-04-12T09:44:05Z</time></trkpt><trkpt lat="42.442798967288496" lon="12.719674800984729"><ele>952.0</ele><time>2026-04-12T09:44:06Z</time></trkpt><trkpt lat="42.44286882601896" lon="12.719722071463984"><ele>949.4000000000001</ele><time>2026-04-12T09:44:07Z</time></trkpt><trkpt lat="42.44297146820878" lon="12.719775401255724"><ele>946.8000000000001</ele><time>2026-04-12T09:44:08Z</time></trkpt><trkpt lat="42.44307053346809" lon="12.71981278942917"><ele>944.2</ele><time>2026-04-12T09:44:09Z</time></trkpt><trkpt lat="42.443157670643856" lon="12.719855314615952"><ele>941.6</ele><time>2026-04-12T09:44:10Z</time></trkpt><trkpt lat="42.44325002132237" lon="12.719907533051044"><ele>939.0</ele><time>2026-04-12T09:44:11Z</time></trkpt><trkpt lat="42.44334767744836" lon="12.719949993836902"><ele>939.0</ele><time>2026-04-12T09:44:12Z</time></trkpt><trkpt lat="42.443443087667674" lon="12.719973476403016"><ele>939.0000000000001</ele><time>2026-04-12T09:44:13Z</time></trkpt><trkpt lat="42.44354191312107" lon="12.720000111052846"><ele>939.0000000000001</ele><time>2026-04-12T09:44:14Z</time></trkpt><trkpt lat="42.443627111900916" lon="12.720019229257032"><ele>939.0</ele><time>2026-04-12T09:44:15Z</time></trkpt><trkpt lat="42.44371628264366" lon="12.720033507757924"><ele>939.0</ele><time>2026-04-12T09:44:16Z</time></trkpt><trkpt lat="42.443798034988426" lon="12.7200668518193"><ele>938.1666666666666</ele><time>2026-04-12T09:44:17Z</time></trkpt><trkpt lat="42.4438755170723" lon="12.720092260326533"><ele>937.3333333333333</ele><time>2026-04-12T09:44:18Z</time></trkpt><trkpt lat="42.443967827635944" lon="12.720130925932576"><ele>936.5</ele><time>2026-04-12T09:44:19Z</time></trkpt><trkpt lat="42.44406881313003" lon="12.720167535204807"><ele>935.6666666666666</ele><time>2026-04-12T09:44:20Z</time></trkpt><trkpt lat="42.44415412646866" lon="12.720182844940286"><ele>934.8333333333333</ele><time>2026-04-12T09:44:21Z</time></trkpt><trkpt lat="42.44422449242727" lon="12.720196981981"><ele>934.0</ele><time>2026-04-12T09:44:22Z</time></trkpt><trkpt lat="42.4443341419805" lon="12.720252987123803"><ele>935.6</ele><time>2026-04-12T09:44:24Z</time></trkpt><trkpt lat="42.44438627715408" lon="12.720305287759805"><ele>937.2</ele><time>2026-04-12T09:44:25Z</time></trkpt><trkpt lat="42.444443051713925" lon="12.720376135159546"><ele>938.8000000000001</ele><time>2026-04-12T09:44:26Z</time></trkpt><trkpt lat="42.444508109210226" lon="12.720465989417566"><ele>940.4000000000001</ele><time>2026-04-12T09:44:27Z</time></trkpt><trkpt lat="42.44458498837077" lon="12.7205640011766"><ele>942.0</ele><time>2026-04-12T09:44:28Z</time></trkpt><trkpt lat="42.4446598991075" lon="12.720676706555567"><ele>942.0</ele><time>2026-04-12T09:44:29Z</time></trkpt><trkpt lat="42.444716708429716" lon="12.720770467621115"><ele>942.0</ele><time>2026-04-12T09:44:30Z</time></trkpt><trkpt lat="42.44476754137686" lon="12.72084863013965"><ele>942.0</ele><time>2026-04-12T09:44:31Z</time></trkpt><trkpt lat="42.4448304839529" lon="12.720924098317038"><ele>942.0</ele><time>2026-04-12T09:44:32Z</time></trkpt><trkpt lat="42.444889526307826" lon="12.720979515453763"><ele>942.0</ele><time>2026-04-12T09:44:33Z</time></trkpt><trkpt lat="42.44502103643524" lon="12.721034632800636"><ele>942.0</ele><time>2026-04-12T09:44:35Z</time></trkpt><trkpt lat="42.44510766132721" lon="12.721027540148494"><ele>942.0</ele><time>2026-04-12T09:44:36Z</time></trkpt><trkpt lat="42.445186890003704" lon="12.721016534213556"><ele>942.0</ele><time>2026-04-12T09:44:37Z</time></trkpt><trkpt lat="42.44525747573381" lon="12.720989467027984"><ele>942.0</ele><time>2026-04-12T09:44:38Z</time></trkpt><trkpt lat="42.445342153422395" lon="12.72095665350859"><ele>942.0</ele><time>2026-04-12T09:44:39Z</time></trkpt><trkpt lat="42.445410094192454" lon="12.72093155713027"><ele>942.0</ele><time>2026-04-12T09:44:40Z</time></trkpt><trkpt lat="42.44548411482549" lon="12.720809725782622"><ele>941.0</ele><time>2026-04-12T09:44:42Z</time></trkpt><trkpt lat="42.44553559768534" lon="12.720718802159539"><ele>940.0</ele><time>2026-04-12T09:44:43Z</time></trkpt><trkpt lat="42.44558469985593" lon="12.720660727425175"><ele>939.0</ele><time>2026-04-12T09:44:44Z</time></trkpt><trkpt lat="42.44564623126978" lon="12.720598533777924"><ele>938.0</ele><time>2026-04-12T09:44:45Z</time></trkpt><trkpt lat="42.44574788420926" lon="12.720582881253423"><ele>937.0</ele><time>2026-04-12T09:44:47Z</time></trkpt><trkpt lat="42.44581472862522" lon="12.72061256402477"><ele>936.0</ele><time>2026-04-12T09:44:48Z</time></trkpt><trkpt lat="42.44587966383614" lon="12.720649510815521"><ele>936.0</ele><time>2026-04-12T09:44:49Z</time></trkpt><trkpt lat="42.445956932852084" lon="12.720743725120657"><ele>936.0</ele><time>2026-04-12T09:44:51Z</time></trkpt><trkpt lat="42.44601773070356" lon="12.720832691992882"><ele>936.0</ele><time>2026-04-12T09:44:53Z</time></trkpt><trkpt lat="42.44611122333049" lon="12.720781457602962"><ele>936.0</ele><time>2026-04-12T09:44:55Z</time></trkpt><trkpt lat="42.446149408194536" lon="12.720698763158092"><ele>936.0</ele><time>2026-04-12T09:44:56Z</time></trkpt><trkpt lat="42.446169349294635" lon="12.720603731220168"><ele>936.0</ele><time>2026-04-12T09:44:57Z</time></trkpt><trkpt lat="42.44618367761694" lon="12.720514065019326"><ele>936.0</ele><time>2026-04-12T09:44:58Z</time></trkpt><trkpt lat="42.44621966772584" lon="12.720418239700765"><ele>936.0</ele><time>2026-04-12T09:44:59Z</time></trkpt><trkpt lat="42.446269556021605" lon="12.720325675983851"><ele>936.0</ele><time>2026-04-12T09:45:00Z</time></trkpt><trkpt lat="42.44630961397152" lon="12.720228559356343"><ele>936.0</ele><time>2026-04-12T09:45:01Z</time></trkpt><trkpt lat="42.44635012340594" lon="12.720140278942631"><ele>936.0</ele><time>2026-04-12T09:45:02Z</time></trkpt><trkpt lat="42.44640165534467" lon="12.720069616240247"><ele>936.0</ele><time>2026-04-12T09:45:03Z</time></trkpt><trkpt lat="42.44645804901294" lon="12.72000982168533"><ele>934.3333333333334</ele><time>2026-04-12T09:45:04Z</time></trkpt><trkpt lat="42.44652682840314" lon="12.719953513165112"><ele>932.6666666666667</ele><time>2026-04-12T09:45:05Z</time></trkpt><trkpt lat="42.44659663558095" lon="12.719903625521395"><ele>931.0</ele><time>2026-04-12T09:45:06Z</time></trkpt><trkpt lat="42.44665799433936" lon="12.719862007705615"><ele>929.3333333333334</ele><time>2026-04-12T09:45:07Z</time></trkpt><trkpt lat="42.446730977215296" lon="12.7198085348714"><ele>927.6666666666667</ele><time>2026-04-12T09:45:08Z</time></trkpt><trkpt lat="42.44679735429972" lon="12.7197612293029"><ele>926.0</ele><time>2026-04-12T09:45:09Z</time></trkpt><trkpt lat="42.44686412718784" lon="12.719707464911243"><ele>926.0000000000001</ele><time>2026-04-12T09:45:10.001Z</time></trkpt><trkpt lat="42.446940930807926" lon="12.719650927362135"><ele>926.0</ele><time>2026-04-12T09:45:11.001Z</time></trkpt><trkpt lat="42.447016687153344" lon="12.7195980829074"><ele>926.0</ele><time>2026-04-12T09:45:12.001Z</time></trkpt><trkpt lat="42.44708706950823" lon="12.719560930995293"><ele>926.0</ele><time>2026-04-12T09:45:13.001Z</time></trkpt><trkpt lat="42.447173894120134" lon="12.719524067399558"><ele>926.0000000000001</ele><time>2026-04-12T09:45:14.001Z</time></trkpt><trkpt lat="42.44725410057223" lon="12.719496856215313"><ele>926.0</ele><time>2026-04-12T09:45:15.001Z</time></trkpt><trkpt lat="42.447344766275805" lon="12.7194398771122"><ele>926.5999999999999</ele><time>2026-04-12T09:45:16.001Z</time></trkpt><trkpt lat="42.44741909999243" lon="12.719376719945616"><ele>927.1999999999999</ele><time>2026-04-12T09:45:17.001Z</time></trkpt><trkpt lat="42.44749088891443" lon="12.719297908434058"><ele>927.8000000000001</ele><time>2026-04-12T09:45:18.001Z</time></trkpt><trkpt lat="42.4475785777854" lon="12.719200513680647"><ele>928.4000000000001</ele><time>2026-04-12T09:45:19.001Z</time></trkpt><trkpt lat="42.447667652658524" lon="12.71909952226639"><ele>929.0</ele><time>2026-04-12T09:45:20.001Z</time></trkpt><trkpt lat="42.447746031245146" lon="12.718995390847796"><ele>929.0000000000001</ele><time>2026-04-12T09:45:21.001Z</time></trkpt><trkpt lat="42.44781789585353" lon="12.718900730850107"><ele>929.0</ele><time>2026-04-12T09:45:22.001Z</time></trkpt><trkpt lat="42.44788355990058" lon="12.718808773812482"><ele>929.0</ele><time>2026-04-12T09:45:23.001Z</time></trkpt><trkpt lat="42.447948313515575" lon="12.718720062313212"><ele>929.0</ele><time>2026-04-12T09:45:24.001Z</time></trkpt><trkpt lat="42.448008048377616" lon="12.718654635982125"><ele>929.0000000000001</ele><time>2026-04-12T09:45:25.001Z</time></trkpt><trkpt lat="42.44807000684051" lon="12.718621537723664"><ele>929.0</ele><time>2026-04-12T09:45:26.001Z</time></trkpt><trkpt lat="42.448128505977685" lon="12.71857673728828"><ele>929.2</ele><time>2026-04-12T09:45:27.001Z</time></trkpt><trkpt lat="42.4481780961839" lon="12.718493477956471"><ele>929.4000000000001</ele><time>2026-04-12T09:45:28.001Z</time></trkpt><trkpt lat="42.44823889442227" lon="12.718421663658324"><ele>929.6</ele><time>2026-04-12T09:45:29.001Z</time></trkpt><trkpt lat="42.44836391169488" lon="12.718406948988784"><ele>929.8</ele><time>2026-04-12T09:45:30.001Z</time></trkpt><trkpt lat="42.44845206328762" lon="12.71836315482434"><ele>930.0</ele><time>2026-04-12T09:45:31.001Z</time></trkpt><trkpt lat="42.44850908199094" lon="12.71829499932138"><ele>930.0</ele><time>2026-04-12T09:45:32.001Z</time></trkpt><trkpt lat="42.44858318133011" lon="12.718143191057644"><ele>930.0</ele><time>2026-04-12T09:45:34.001Z</time></trkpt><trkpt lat="42.448615477779896" lon="12.718023682367186"><ele>930.0</ele><time>2026-04-12T09:45:35.001Z</time></trkpt><trkpt lat="42.448641438992624" lon="12.71790237203375"><ele>930.0</ele><time>2026-04-12T09:45:36.001Z</time></trkpt><trkpt lat="42.44866094604089" lon="12.717793713588975"><ele>930.0</ele><time>2026-04-12T09:45:37.001Z</time></trkpt><trkpt lat="42.448682325975454" lon="12.71768244731365"><ele>931.1666666666666</ele><time>2026-04-12T09:45:38.001Z</time></trkpt><trkpt lat="42.44870584758807" lon="12.717573966174722"><ele>932.3333333333333</ele><time>2026-04-12T09:45:39.001Z</time></trkpt><trkpt lat="42.4487338851376" lon="12.717460375046096"><ele>933.5</ele><time>2026-04-12T09:45:40.001Z</time></trkpt><trkpt lat="42.44876020159253" lon="12.717347444540838"><ele>934.6666666666666</ele><time>2026-04-12T09:45:41.001Z</time></trkpt><trkpt lat="42.44878756180289" lon="12.717237972961247"><ele>935.8333333333333</ele><time>2026-04-12T09:45:42.001Z</time></trkpt><trkpt lat="42.44881370448924" lon="12.717129625941723"><ele>937.0</ele><time>2026-04-12T09:45:43.001Z</time></trkpt><trkpt lat="42.44884586940314" lon="12.717018288343823"><ele>934.4000000000001</ele><time>2026-04-12T09:45:44.001Z</time></trkpt><trkpt lat="42.448871132319056" lon="12.716892155263016"><ele>931.8000000000001</ele><time>2026-04-12T09:45:45.001Z</time></trkpt><trkpt lat="42.44889790677251" lon="12.716774491390003"><ele>929.2</ele><time>2026-04-12T09:45:46.001Z</time></trkpt><trkpt lat="42.44892681742549" lon="12.716650177766239"><ele>926.6</ele><time>2026-04-12T09:45:47.001Z</time></trkpt><trkpt lat="42.448957204402845" lon="12.716528679699485"><ele>924.0</ele><time>2026-04-12T09:45:48.001Z</time></trkpt><trkpt lat="42.448995317653306" lon="12.71640412635525"><ele>924.0</ele><time>2026-04-12T09:45:49.001Z</time></trkpt><trkpt lat="42.4490351545355" lon="12.716283363157425"><ele>924.0000000000001</ele><time>2026-04-12T09:45:50.001Z</time></trkpt><trkpt lat="42.44907053128481" lon="12.716164935303187"><ele>924.0000000000001</ele><time>2026-04-12T09:45:51.001Z</time></trkpt><trkpt lat="42.44912367443512" lon="12.716056640527775"><ele>924.0</ele><time>2026-04-12T09:45:52.001Z</time></trkpt><trkpt lat="42.44917753245054" lon="12.71594887321011"><ele>924.0</ele><time>2026-04-12T09:45:53.001Z</time></trkpt><trkpt lat="42.44921415813322" lon="12.715849477460301"><ele>921.6</ele><time>2026-04-12T09:45:54.001Z</time></trkpt><trkpt lat="42.449260989723" lon="12.71574795989768"><ele>919.2</ele><time>2026-04-12T09:45:55.001Z</time></trkpt><trkpt lat="42.449317694546195" lon="12.715640267882725"><ele>916.8000000000001</ele><time>2026-04-12T09:45:56.001Z</time></trkpt><trkpt lat="42.449375904781185" lon="12.715545126184804"><ele>914.4000000000001</ele><time>2026-04-12T09:45:57.001Z</time></trkpt><trkpt lat="42.44943832477879" lon="12.715441349133549"><ele>912.0</ele><time>2026-04-12T09:45:58.001Z</time></trkpt><trkpt lat="42.449499396618" lon="12.71534279554728"><ele>912.0</ele><time>2026-04-12T09:45:59.001Z</time></trkpt><trkpt lat="42.44954697667602" lon="12.71525660882247"><ele>912.0</ele><time>2026-04-12T09:46:00.001Z</time></trkpt><trkpt lat="42.449589447489394" lon="12.715174082165207"><ele>912.0</ele><time>2026-04-12T09:46:01.001Z</time></trkpt><trkpt lat="42.44963225307811" lon="12.715091578251139"><ele>912.0</ele><time>2026-04-12T09:46:02.001Z</time></trkpt><trkpt lat="42.44966057291174" lon="12.714990176774007"><ele>912.0</ele><time>2026-04-12T09:46:03.001Z</time></trkpt><trkpt lat="42.44967750836386" lon="12.714885748558501"><ele>912.0</ele><time>2026-04-12T09:46:04.001Z</time></trkpt><trkpt lat="42.44968394400177" lon="12.714779279960451"><ele>911.3333333333334</ele><time>2026-04-12T09:46:05.001Z</time></trkpt><trkpt lat="42.449695064601585" lon="12.714685206094623"><ele>910.6666666666667</ele><time>2026-04-12T09:46:06.001Z</time></trkpt><trkpt lat="42.44971982828382" lon="12.714602299343678"><ele>910.0</ele><time>2026-04-12T09:46:07.001Z</time></trkpt><trkpt lat="42.44975538044873" lon="12.714523497289292"><ele>909.3333333333334</ele><time>2026-04-12T09:46:08.001Z</time></trkpt><trkpt lat="42.44979404945204" lon="12.714453320734314"><ele>908.6666666666667</ele><time>2026-04-12T09:46:09Z</time></trkpt><trkpt lat="42.44989248450733" lon="12.714353899132455"><ele>908.0</ele><time>2026-04-12T09:46:11Z</time></trkpt><trkpt lat="42.4499605612721" lon="12.71430337952657"><ele>905.2</ele><time>2026-04-12T09:46:12Z</time></trkpt><trkpt lat="42.45004776123775" lon="12.71423036967473"><ele>902.4</ele><time>2026-04-12T09:46:13Z</time></trkpt><trkpt lat="42.45014387551323" lon="12.714203778731747"><ele>899.6000000000001</ele><time>2026-04-12T09:46:14Z</time></trkpt><trkpt lat="42.450239402587904" lon="12.714198520611133"><ele>896.8000000000001</ele><time>2026-04-12T09:46:15Z</time></trkpt><trkpt lat="42.45031775060276" lon="12.714193942256475"><ele>894.0</ele><time>2026-04-12T09:46:16Z</time></trkpt><trkpt lat="42.45042556181302" lon="12.714170852198082"><ele>895.0</ele><time>2026-04-12T09:46:17Z</time></trkpt><trkpt lat="42.45053440386142" lon="12.714148974789488"><ele>896.0000000000001</ele><time>2026-04-12T09:46:18Z</time></trkpt><trkpt lat="42.450638218468114" lon="12.714124216284752"><ele>897.0000000000001</ele><time>2026-04-12T09:46:19Z</time></trkpt><trkpt lat="42.45073647130661" lon="12.714104102630193"><ele>898.0</ele><time>2026-04-12T09:46:20Z</time></trkpt><trkpt lat="42.450833443554515" lon="12.714077808229371"><ele>899.0</ele><time>2026-04-12T09:46:21Z</time></trkpt><trkpt lat="42.4509311097641" lon="12.714040980716051"><ele>899.0000000000001</ele><time>2026-04-12T09:46:22Z</time></trkpt><trkpt lat="42.4510195196813" lon="12.714003599728988"><ele>899.0</ele><time>2026-04-12T09:46:23Z</time></trkpt><trkpt lat="42.451113131867466" lon="12.713973216498117"><ele>899.0</ele><time>2026-04-12T09:46:24Z</time></trkpt><trkpt lat="42.45120503931001" lon="12.713942617114792"><ele>899.0</ele><time>2026-04-12T09:46:25Z</time></trkpt><trkpt lat="42.451284764087426" lon="12.713926976173129"><ele>899.0000000000001</ele><time>2026-04-12T09:46:26Z</time></trkpt><trkpt lat="42.45135710499359" lon="12.713913191528556"><ele>899.0</ele><time>2026-04-12T09:46:27Z</time></trkpt><trkpt lat="42.45142913404879" lon="12.713911743252686"><ele>900.2</ele><time>2026-04-12T09:46:28Z</time></trkpt><trkpt lat="42.45152338530603" lon="12.713939709348809"><ele>901.4000000000001</ele><time>2026-04-12T09:46:29Z</time></trkpt><trkpt lat="42.45161755513417" lon="12.713949989403755"><ele>902.6</ele><time>2026-04-12T09:46:30Z</time></trkpt><trkpt lat="42.45170373254082" lon="12.713934073968066"><ele>903.8</ele><time>2026-04-12T09:46:31Z</time></trkpt><trkpt lat="42.45179453884664" lon="12.71390629033052"><ele>905.0</ele><time>2026-04-12T09:46:32Z</time></trkpt><trkpt lat="42.45188739138693" lon="12.713873235874281"><ele>905.0</ele><time>2026-04-12T09:46:33Z</time></trkpt><trkpt lat="42.451985444497" lon="12.71383834722413"><ele>905.0</ele><time>2026-04-12T09:46:34Z</time></trkpt><trkpt lat="42.45207546774549" lon="12.713804437145875"><ele>905.0</ele><time>2026-04-12T09:46:35Z</time></trkpt><trkpt lat="42.4521629969299" lon="12.713763239712534"><ele>905.0</ele><time>2026-04-12T09:46:36Z</time></trkpt><trkpt lat="42.452245753925936" lon="12.713713523869009"><ele>905.0</ele><time>2026-04-12T09:46:37Z</time></trkpt><trkpt lat="42.452337387921034" lon="12.713679444682557"><ele>904.2</ele><time>2026-04-12T09:46:38Z</time></trkpt><trkpt lat="42.452431764946596" lon="12.713627568219719"><ele>903.4</ele><time>2026-04-12T09:46:39Z</time></trkpt><trkpt lat="42.45250895295217" lon="12.713570423767399"><ele>902.5999999999999</ele><time>2026-04-12T09:46:40Z</time></trkpt><trkpt lat="42.452580025189015" lon="12.713492624823473"><ele>901.8</ele><time>2026-04-12T09:46:41Z</time></trkpt><trkpt lat="42.452646159557034" lon="12.713403284489383"><ele>901.0</ele><time>2026-04-12T09:46:42Z</time></trkpt><trkpt lat="42.45270670372078" lon="12.71329155284371"><ele>900.9999999999999</ele><time>2026-04-12T09:46:43Z</time></trkpt><trkpt lat="42.45275630851921" lon="12.713180259253019"><ele>901.0</ele><time>2026-04-12T09:46:44Z</time></trkpt><trkpt lat="42.452775919292776" lon="12.71308691412027"><ele>901.0</ele><time>2026-04-12T09:46:45Z</time></trkpt><trkpt lat="42.452813684450774" lon="12.713005957248127"><ele>901.0</ele><time>2026-04-12T09:46:46Z</time></trkpt><trkpt lat="42.45288324278232" lon="12.712908627301768"><ele>900.9999999999999</ele><time>2026-04-12T09:46:47Z</time></trkpt><trkpt lat="42.452954943392534" lon="12.712837245112976"><ele>901.0</ele><time>2026-04-12T09:46:48Z</time></trkpt><trkpt lat="42.4530349361867" lon="12.712756854734382"><ele>902.0</ele><time>2026-04-12T09:46:49Z</time></trkpt><trkpt lat="42.45313646296461" lon="12.712685486748615"><ele>903.0</ele><time>2026-04-12T09:46:50Z</time></trkpt><trkpt lat="42.45324090681091" lon="12.712600920041277"><ele>904.0</ele><time>2026-04-12T09:46:51Z</time></trkpt><trkpt lat="42.45334333217623" lon="12.712518845276831"><ele>905.0</ele><time>2026-04-12T09:46:52Z</time></trkpt><trkpt lat="42.453440022806646" lon="12.712440866940781"><ele>905.0</ele><time>2026-04-12T09:46:53Z</time></trkpt><trkpt lat="42.45352265358473" lon="12.712351781669586"><ele>905.0</ele><time>2026-04-12T09:46:54Z</time></trkpt><trkpt lat="42.45358053652116" lon="12.712247742694768"><ele>905.0</ele><time>2026-04-12T09:46:55Z</time></trkpt><trkpt lat="42.45365665363405" lon="12.712154779442306"><ele>905.0</ele><time>2026-04-12T09:46:56Z</time></trkpt><trkpt lat="42.453737481273635" lon="12.712076221392635"><ele>905.0</ele><time>2026-04-12T09:46:57Z</time></trkpt><trkpt lat="42.45382435975371" lon="12.71199478136568"><ele>906.2</ele><time>2026-04-12T09:46:58Z</time></trkpt><trkpt lat="42.45391010236184" lon="12.711915776040659"><ele>907.4</ele><time>2026-04-12T09:46:59Z</time></trkpt><trkpt lat="42.45399396383807" lon="12.71183485485591"><ele>908.5999999999999</ele><time>2026-04-12T09:47:00Z</time></trkpt><trkpt lat="42.45408201847083" lon="12.711744808279551"><ele>909.8</ele><time>2026-04-12T09:47:01Z</time></trkpt><trkpt lat="42.454159730109886" lon="12.711648515109262"><ele>911.0</ele><time>2026-04-12T09:47:02Z</time></trkpt><trkpt lat="42.45423411578642" lon="12.71155575104441"><ele>908.5999999999999</ele><time>2026-04-12T09:47:03Z</time></trkpt><trkpt lat="42.45430384158279" lon="12.711473794654998"><ele>906.1999999999999</ele><time>2026-04-12T09:47:04Z</time></trkpt><trkpt lat="42.45438198141139" lon="12.711405096571289"><ele>903.8000000000001</ele><time>2026-04-12T09:47:05Z</time></trkpt><trkpt lat="42.454457406790475" lon="12.711341093275328"><ele>901.4000000000001</ele><time>2026-04-12T09:47:06Z</time></trkpt><trkpt lat="42.454531776241446" lon="12.711270903341815"><ele>899.0</ele><time>2026-04-12T09:47:07Z</time></trkpt><trkpt lat="42.45460904520833" lon="12.711203234255507"><ele>899.8333333333334</ele><time>2026-04-12T09:47:08Z</time></trkpt><trkpt lat="42.45466565611429" lon="12.711127734868425"><ele>900.6666666666667</ele><time>2026-04-12T09:47:09Z</time></trkpt><trkpt lat="42.454722749828036" lon="12.711042535064571"><ele>901.5</ele><time>2026-04-12T09:47:10Z</time></trkpt><trkpt lat="42.454759531285056" lon="12.71096091493634"><ele>902.3333333333333</ele><time>2026-04-12T09:47:11Z</time></trkpt><trkpt lat="42.454782204686545" lon="12.71084747185291"><ele>903.1666666666666</ele><time>2026-04-12T09:47:12Z</time></trkpt><trkpt lat="42.45478960956974" lon="12.710710216141907"><ele>904.0</ele><time>2026-04-12T09:47:13Z</time></trkpt><trkpt lat="42.45480339340379" lon="12.710567369913402"><ele>901.6666666666666</ele><time>2026-04-12T09:47:14Z</time></trkpt><trkpt lat="42.45481845976685" lon="12.710436849196382"><ele>899.3333333333333</ele><time>2026-04-12T09:47:15Z</time></trkpt><trkpt lat="42.4548318819325" lon="12.710315546730593"><ele>897.0</ele><time>2026-04-12T09:47:16Z</time></trkpt><trkpt lat="42.45485462625985" lon="12.710200369340583"><ele>894.6666666666667</ele><time>2026-04-12T09:47:17Z</time></trkpt><trkpt lat="42.454879623973746" lon="12.710099823519034"><ele>892.3333333333334</ele><time>2026-04-12T09:47:18Z</time></trkpt><trkpt lat="42.454932162732234" lon="12.71000599678673"><ele>890.0</ele><time>2026-04-12T09:47:19Z</time></trkpt><trkpt lat="42.454997167150445" lon="12.709899909509868"><ele>889.0</ele><time>2026-04-12T09:47:20Z</time></trkpt><trkpt lat="42.45508313644772" lon="12.709801341805612"><ele>888.0</ele><time>2026-04-12T09:47:21Z</time></trkpt><trkpt lat="42.45515258476263" lon="12.709692186089322"><ele>887.0</ele><time>2026-04-12T09:47:22Z</time></trkpt><trkpt lat="42.455214408573994" lon="12.709575475393635"><ele>886.0</ele><time>2026-04-12T09:47:23Z</time></trkpt><trkpt lat="42.455248116519094" lon="12.709432839650205"><ele>885.0</ele><time>2026-04-12T09:47:24Z</time></trkpt><trkpt lat="42.45528145346944" lon="12.709291094945389"><ele>884.8</ele><time>2026-04-12T09:47:25Z</time></trkpt><trkpt lat="42.4553213746077" lon="12.709159051171254"><ele>884.6</ele><time>2026-04-12T09:47:26.001Z</time></trkpt><trkpt lat="42.45535761518438" lon="12.709041282812612"><ele>884.4000000000001</ele><time>2026-04-12T09:47:27.001Z</time></trkpt><trkpt lat="42.45540822211906" lon="12.708936158673085"><ele>884.2</ele><time>2026-04-12T09:47:28.001Z</time></trkpt><trkpt lat="42.45546486042023" lon="12.708840634424604"><ele>884.0</ele><time>2026-04-12T09:47:29.001Z</time></trkpt><trkpt lat="42.45551948867314" lon="12.708766230906908"><ele>882.8000000000001</ele><time>2026-04-12T09:47:30.001Z</time></trkpt><trkpt lat="42.45558689889703" lon="12.708660309854064"><ele>881.6000000000001</ele><time>2026-04-12T09:47:31.001Z</time></trkpt><trkpt lat="42.45566117011993" lon="12.708558055592066"><ele>880.4</ele><time>2026-04-12T09:47:32.001Z</time></trkpt><trkpt lat="42.45573635349527" lon="12.708454762496654"><ele>879.2</ele><time>2026-04-12T09:47:33.001Z</time></trkpt><trkpt lat="42.45581524680403" lon="12.708350981392279"><ele>878.0</ele><time>2026-04-12T09:47:34.001Z</time></trkpt><trkpt lat="42.455881146686856" lon="12.708249945844692"><ele>878.0</ele><time>2026-04-12T09:47:35.001Z</time></trkpt><trkpt lat="42.45596039642359" lon="12.708131355906213"><ele>878.0</ele><time>2026-04-12T09:47:36.001Z</time></trkpt><trkpt lat="42.456043684112686" lon="12.708003662261191"><ele>878.0</ele><time>2026-04-12T09:47:37.001Z</time></trkpt><trkpt lat="42.45611659666726" lon="12.707881708781372"><ele>878.0</ele><time>2026-04-12T09:47:38.001Z</time></trkpt><trkpt lat="42.45621538448921" lon="12.707759697632694"><ele>877.25</ele><time>2026-04-12T09:47:39.001Z</time></trkpt><trkpt lat="42.456301708934895" lon="12.707638505094703"><ele>876.5</ele><time>2026-04-12T09:47:40.001Z</time></trkpt><trkpt lat="42.45637102355226" lon="12.707531665015127"><ele>875.75</ele><time>2026-04-12T09:47:41.001Z</time></trkpt><trkpt lat="42.45644705430115" lon="12.707407522290675"><ele>875.0</ele><time>2026-04-12T09:47:42.001Z</time></trkpt><trkpt lat="42.45652393255658" lon="12.707274351383791"><ele>875.0</ele><time>2026-04-12T09:47:43.001Z</time></trkpt><trkpt lat="42.45660580813726" lon="12.707146110007473"><ele>875.0</ele><time>2026-04-12T09:47:44.001Z</time></trkpt><trkpt lat="42.45667149888183" lon="12.707017096794559"><ele>875.0</ele><time>2026-04-12T09:47:45.001Z</time></trkpt><trkpt lat="42.456753545379755" lon="12.706911569924484"><ele>875.0</ele><time>2026-04-12T09:47:46.001Z</time></trkpt><trkpt lat="42.456825163451825" lon="12.70679365852395"><ele>874.8333333333334</ele><time>2026-04-12T09:47:47.001Z</time></trkpt><trkpt lat="42.456880051495006" lon="12.706689831946198"><ele>874.6666666666667</ele><time>2026-04-12T09:47:48.001Z</time></trkpt><trkpt lat="42.45691858820972" lon="12.70657893394466"><ele>874.5</ele><time>2026-04-12T09:47:49.001Z</time></trkpt><trkpt lat="42.45695059500017" lon="12.706471509106382"><ele>874.3333333333333</ele><time>2026-04-12T09:47:50.001Z</time></trkpt><trkpt lat="42.45696674869993" lon="12.706364333519089"><ele>874.1666666666666</ele><time>2026-04-12T09:47:51.001Z</time></trkpt><trkpt lat="42.45696541413264" lon="12.70624937796939"><ele>874.0</ele><time>2026-04-12T09:47:52.001Z</time></trkpt><trkpt lat="42.45694820433796" lon="12.706148577779212"><ele>873.8333333333333</ele><time>2026-04-12T09:47:53.001Z</time></trkpt><trkpt lat="42.45692472005176" lon="12.706029791194373"><ele>873.6666666666666</ele><time>2026-04-12T09:47:54.001Z</time></trkpt><trkpt lat="42.45690687403507" lon="12.705896564899602"><ele>873.5</ele><time>2026-04-12T09:47:55.001Z</time></trkpt><trkpt lat="42.45688694205345" lon="12.705782546840222"><ele>873.3333333333333</ele><time>2026-04-12T09:47:56.001Z</time></trkpt><trkpt lat="42.456865599794234" lon="12.705693327239096"><ele>873.1666666666666</ele><time>2026-04-12T09:47:57.001Z</time></trkpt><trkpt lat="42.45684503052471" lon="12.705558084627434"><ele>873.0</ele><time>2026-04-12T09:47:59.001Z</time></trkpt><trkpt lat="42.456950995806274" lon="12.705553342462933"><ele>873.0</ele><time>2026-04-12T09:48:14.001Z</time></trkpt><trkpt lat="42.457017963090095" lon="12.70555934848514"><ele>873.0</ele><time>2026-04-12T09:48:15Z</time></trkpt><trkpt lat="42.45713963360283" lon="12.705579739716688"><ele>873.0</ele><time>2026-04-12T09:48:17Z</time></trkpt><trkpt lat="42.45720468825777" lon="12.705599799481247"><ele>873.0</ele><time>2026-04-12T09:48:18Z</time></trkpt><trkpt lat="42.457318641426006" lon="12.70560053523122"><ele>873.0</ele><time>2026-04-12T09:48:20Z</time></trkpt><trkpt lat="42.45742133505104" lon="12.705558127918954"><ele>871.5999999999999</ele><time>2026-04-12T09:48:22Z</time></trkpt><trkpt lat="42.45752901266755" lon="12.705553375454395"><ele>870.1999999999999</ele><time>2026-04-12T09:48:24Z</time></trkpt><trkpt lat="42.45759779210174" lon="12.705548244495835"><ele>868.8</ele><time>2026-04-12T09:48:25Z</time></trkpt><trkpt lat="42.45767673342243" lon="12.705541477332488"><ele>867.4</ele><time>2026-04-12T09:48:26Z</time></trkpt><trkpt lat="42.45778468501786" lon="12.705516712036642"><ele>866.0</ele><time>2026-04-12T09:48:28Z</time></trkpt><trkpt lat="42.45786484864181" lon="12.7054777911786"><ele>866.0</ele><time>2026-04-12T09:48:29Z</time></trkpt><trkpt lat="42.45794371336802" lon="12.705455017421658"><ele>865.9999999999999</ele><time>2026-04-12T09:48:30Z</time></trkpt><trkpt lat="42.45801876509743" lon="12.705430935952666"><ele>865.9999999999999</ele><time>2026-04-12T09:48:31Z</time></trkpt><trkpt lat="42.45813564697184" lon="12.705357155632214"><ele>866.0</ele><time>2026-04-12T09:48:33Z</time></trkpt><trkpt lat="42.45820118473117" lon="12.705293515065518"><ele>866.0</ele><time>2026-04-12T09:48:34Z</time></trkpt><trkpt lat="42.458257964554704" lon="12.705209784804225"><ele>865.8</ele><time>2026-04-12T09:48:35Z</time></trkpt><trkpt lat="42.45829517093383" lon="12.705112044404268"><ele>865.5999999999999</ele><time>2026-04-12T09:48:36Z</time></trkpt><trkpt lat="42.45833599212665" lon="12.704970278622863"><ele>865.4</ele><time>2026-04-12T09:48:38Z</time></trkpt><trkpt lat="42.45835273516105" lon="12.704863167242275"><ele>865.2</ele><time>2026-04-12T09:48:40Z</time></trkpt><trkpt lat="42.45832541141209" lon="12.704735563692305"><ele>865.0</ele><time>2026-04-12T09:48:42Z</time></trkpt><trkpt lat="42.45835430993715" lon="12.704626079048547"><ele>864.9999999999999</ele><time>2026-04-12T09:48:44Z</time></trkpt><trkpt lat="42.45837010372917" lon="12.704497259343883"><ele>865.0</ele><time>2026-04-12T09:48:46Z</time></trkpt><trkpt lat="42.458326165676" lon="12.70437759606517"><ele>865.0</ele><time>2026-04-12T09:48:48Z</time></trkpt><trkpt lat="42.458275145107386" lon="12.704316515457492"><ele>865.0</ele><time>2026-04-12T09:48:57Z</time></trkpt><trkpt lat="42.458246136684316" lon="12.704172935547293"><ele>864.9999999999999</ele><time>2026-04-12T09:48:59Z</time></trkpt><trkpt lat="42.45824207436135" lon="12.704084198281556"><ele>865.0</ele><time>2026-04-12T09:49:00Z</time></trkpt><trkpt lat="42.45823244072438" lon="12.703983100408713"><ele>865.2</ele><time>2026-04-12T09:49:02Z</time></trkpt><trkpt lat="42.458312162981564" lon="12.70386247069979"><ele>865.4</ele><time>2026-04-12T09:49:04Z</time></trkpt><trkpt lat="42.45833619801618" lon="12.703731898230405"><ele>865.5999999999999</ele><time>2026-04-12T09:49:06Z</time></trkpt><trkpt lat="42.458362523767605" lon="12.703608172740257"><ele>865.8</ele><time>2026-04-12T09:49:08Z</time></trkpt><trkpt lat="42.458419022316676" lon="12.703536326084423"><ele>866.0</ele><time>2026-04-12T09:49:10Z</time></trkpt><trkpt lat="42.45850555638279" lon="12.703523661212275"><ele>866.0000000000001</ele><time>2026-04-12T09:49:27.001Z</time></trkpt><trkpt lat="42.45858907001369" lon="12.703576272961882"><ele>866.0</ele><time>2026-04-12T09:49:30.001Z</time></trkpt><trkpt lat="42.458656933439926" lon="12.703583364433602"><ele>866.0</ele><time>2026-04-12T09:49:32.001Z</time></trkpt><trkpt lat="42.458728593041556" lon="12.70365685798952"><ele>866.0</ele><time>2026-04-12T10:01:25Z</time></trkpt><trkpt lat="42.458784810822394" lon="12.703747077782008"><ele>866.0000000000001</ele><time>2026-04-12T10:01:27Z</time></trkpt><trkpt lat="42.45885629919641" lon="12.703794369364536"><ele>866.0</ele><time>2026-04-12T10:01:29Z</time></trkpt><trkpt lat="42.45894392970122" lon="12.703849704312164"><ele>868.5000000000001</ele><time>2026-04-12T10:01:32Z</time></trkpt><trkpt lat="42.45899581912737" lon="12.703938114079529"><ele>871.0</ele><time>2026-04-12T10:01:34Z</time></trkpt><trkpt lat="42.459055564592404" lon="12.703991021652861"><ele>873.5</ele><time>2026-04-12T10:01:36Z</time></trkpt><trkpt lat="42.45914155342697" lon="12.704037019015226"><ele>876.0</ele><time>2026-04-12T10:01:38Z</time></trkpt><trkpt lat="42.459173439657064" lon="12.704111701163045"><ele>878.5000000000001</ele><time>2026-04-12T10:01:40Z</time></trkpt><trkpt lat="42.459238205334294" lon="12.704166165433545"><ele>881.0</ele><time>2026-04-12T10:01:42Z</time></trkpt><trkpt lat="42.459324719848176" lon="12.704174456256712"><ele>881.0</ele><time>2026-04-12T10:01:44Z</time></trkpt><trkpt lat="42.45938953705549" lon="12.704157922535625"><ele>881.0</ele><time>2026-04-12T10:02:11Z</time></trkpt><trkpt lat="42.45946224125068" lon="12.704179115858318"><ele>881.0</ele><time>2026-04-12T10:03:10.999Z</time></trkpt><trkpt lat="42.45953171992172" lon="12.704172863274925"><ele>881.0</ele><time>2026-04-12T10:03:12.999Z</time></trkpt><trkpt lat="42.45959714000233" lon="12.70411585474496"><ele>881.0</ele><time>2026-04-12T10:03:15.999Z</time></trkpt><trkpt lat="42.459640965001434" lon="12.704051177034307"><ele>881.0</ele><time>2026-04-12T10:03:18Z</time></trkpt><trkpt lat="42.45970474355041" lon="12.704056039845767"><ele>881.0</ele><time>2026-04-12T10:03:20Z</time></trkpt><trkpt lat="42.45974967622906" lon="12.704122968779837"><ele>883.6666666666667</ele><time>2026-04-12T10:04:08Z</time></trkpt><trkpt lat="42.4597833055414" lon="12.704202648417057"><ele>886.3333333333334</ele><time>2026-04-12T10:04:13Z</time></trkpt><trkpt lat="42.45984082357721" lon="12.704243179351906"><ele>889.0</ele><time>2026-04-12T10:04:15Z</time></trkpt><trkpt lat="42.459904354912126" lon="12.704264230772425"><ele>891.6666666666667</ele><time>2026-04-12T10:08:34.001Z</time></trkpt><trkpt lat="42.45998434422975" lon="12.704290921069472"><ele>894.3333333333334</ele><time>2026-04-12T10:08:36.001Z</time></trkpt><trkpt lat="42.46007459980164" lon="12.704316608165577"><ele>897.0</ele><time>2026-04-12T10:08:38.001Z</time></trkpt><trkpt lat="42.46016401082303" lon="12.704349130788344"><ele>897.0</ele><time>2026-04-12T10:08:40.001Z</time></trkpt><trkpt lat="42.46023073491418" lon="12.704387611138715"><ele>897.0</ele><time>2026-04-12T10:08:42.001Z</time></trkpt><trkpt lat="42.46033023154391" lon="12.70445604658135"><ele>897.0</ele><time>2026-04-12T10:08:44.001Z</time></trkpt><trkpt lat="42.460393170024346" lon="12.704467879627781"><ele>897.0</ele><time>2026-04-12T10:08:45.001Z</time></trkpt><trkpt lat="42.4604992905579" lon="12.704470059582858"><ele>897.0</ele><time>2026-04-12T10:08:47.001Z</time></trkpt><trkpt lat="42.46058210234172" lon="12.704438471327212"><ele>897.0</ele><time>2026-04-12T10:08:49.001Z</time></trkpt><trkpt lat="42.460652106230725" lon="12.70444661074823"><ele>899.2857142857143</ele><time>2026-04-12T10:08:56.001Z</time></trkpt><trkpt lat="42.46073566522819" lon="12.704484837321617"><ele>901.5714285714284</ele><time>2026-04-12T10:08:59.001Z</time></trkpt><trkpt lat="42.46078970801499" lon="12.704532622225479"><ele>903.8571428571428</ele><time>2026-04-12T10:09:02.001Z</time></trkpt><trkpt lat="42.46086745751709" lon="12.704548156824355"><ele>906.1428571428571</ele><time>2026-04-12T10:09:04.001Z</time></trkpt><trkpt lat="42.4609363481221" lon="12.70453396475076"><ele>908.4285714285713</ele><time>2026-04-12T10:09:06.001Z</time></trkpt><trkpt lat="42.46098344371438" lon="12.704462393851601"><ele>910.7142857142856</ele><time>2026-04-12T10:09:09.001Z</time></trkpt><trkpt lat="42.46104646028887" lon="12.704431631422747"><ele>912.9999999999999</ele><time>2026-04-12T10:09:32.999Z</time></trkpt><trkpt lat="42.460905513937846" lon="12.704530236339528"><ele>912.9999999999999</ele><time>2026-04-12T10:17:51Z</time></trkpt><trkpt lat="42.46078785018854" lon="12.70453256000563"><ele>913.0</ele><time>2026-04-12T10:17:53Z</time></trkpt><trkpt lat="42.46070039726084" lon="12.704493889814565"><ele>913.0</ele><time>2026-04-12T10:17:55Z</time></trkpt><trkpt lat="42.460637943000954" lon="12.704455097282642"><ele>913.0</ele><time>2026-04-12T10:17:58Z</time></trkpt><trkpt lat="42.460554056147515" lon="12.704450374997492"><ele>912.9999999999999</ele><time>2026-04-12T10:18:02Z</time></trkpt><trkpt lat="42.460478140230926" lon="12.704470223119841"><ele>913.0</ele><time>2026-04-12T10:18:05Z</time></trkpt><trkpt lat="42.46038864015584" lon="12.704475761559076"><ele>910.3333333333333</ele><time>2026-04-12T10:18:07Z</time></trkpt><trkpt lat="42.460279690593545" lon="12.704446262479143"><ele>907.6666666666666</ele><time>2026-04-12T10:18:09Z</time></trkpt><trkpt lat="42.460206060543065" lon="12.704382351297857"><ele>905.0</ele><time>2026-04-12T10:18:11Z</time></trkpt><trkpt lat="42.46013530643825" lon="12.704353431109041"><ele>902.3333333333333</ele><time>2026-04-12T10:18:14.001Z</time></trkpt><trkpt lat="42.46007239048727" lon="12.704330553762098"><ele>899.6666666666666</ele><time>2026-04-12T10:18:16.001Z</time></trkpt><trkpt lat="42.45998057166522" lon="12.704302578977778"><ele>897.0</ele><time>2026-04-12T10:18:19.001Z</time></trkpt><trkpt lat="42.459906277105894" lon="12.704277915584719"><ele>897.0</ele><time>2026-04-12T10:18:21.001Z</time></trkpt><trkpt lat="42.45983642090606" lon="12.70424641594756"><ele>897.0</ele><time>2026-04-12T10:18:23.001Z</time></trkpt><trkpt lat="42.45976454192563" lon="12.704171027500973"><ele>897.0</ele><time>2026-04-12T10:18:25.001Z</time></trkpt><trkpt lat="42.459700845146216" lon="12.704120210785748"><ele>897.0</ele><time>2026-04-12T10:18:32.001Z</time></trkpt><trkpt lat="42.45965142759703" lon="12.704061503379991"><ele>897.0</ele><time>2026-04-12T10:18:35.001Z</time></trkpt><trkpt lat="42.459587225766455" lon="12.704066556886076"><ele>897.0</ele><time>2026-04-12T10:18:40.001Z</time></trkpt><trkpt lat="42.459536568324616" lon="12.704130367027435"><ele>897.0</ele><time>2026-04-12T10:18:58.002Z</time></trkpt><trkpt lat="42.45945978898746" lon="12.704161386052485"><ele>894.7142857142858</ele><time>2026-04-12T10:19:08.002Z</time></trkpt><trkpt lat="42.459387241558154" lon="12.704175361383978"><ele>892.4285714285713</ele><time>2026-04-12T10:19:16.002Z</time></trkpt><trkpt lat="42.459323121609025" lon="12.704199408751668"><ele>890.1428571428571</ele><time>2026-04-12T10:19:24.002Z</time></trkpt><trkpt lat="42.45925168162592" lon="12.70420564661192"><ele>887.8571428571429</ele><time>2026-04-12T10:19:28.002Z</time></trkpt><trkpt lat="42.459197799574824" lon="12.704142219394237"><ele>885.5714285714287</ele><time>2026-04-12T10:19:31.002Z</time></trkpt><trkpt lat="42.45914878111488" lon="12.704075406757603"><ele>883.2857142857142</ele><time>2026-04-12T10:19:35.002Z</time></trkpt><trkpt lat="42.459076045016246" lon="12.704030997029808"><ele>881.0</ele><time>2026-04-12T10:19:40.002Z</time></trkpt><trkpt lat="42.459018720226595" lon="12.703985283178094"><ele>881.0000000000001</ele><time>2026-04-12T10:19:43.003Z</time></trkpt><trkpt lat="42.45896175206469" lon="12.703940828222631"><ele>881.0</ele><time>2026-04-12T10:19:47Z</time></trkpt><trkpt lat="42.458922506022056" lon="12.703861865434641"><ele>881.0</ele><time>2026-04-12T10:19:50Z</time></trkpt><trkpt lat="42.45883349250179" lon="12.703804531985945"><ele>881.0</ele><time>2026-04-12T10:19:53Z</time></trkpt><trkpt lat="42.45876739518561" lon="12.703757474203563"><ele>881.0000000000001</ele><time>2026-04-12T10:19:56Z</time></trkpt><trkpt lat="42.45871960016974" lon="12.70369315072721"><ele>881.0</ele><time>2026-04-12T10:19:59Z</time></trkpt><trkpt lat="42.45866379995949" lon="12.703594339277613"><ele>878.5000000000001</ele><time>2026-04-12T10:20:01Z</time></trkpt><trkpt lat="42.45860019668271" lon="12.703550805882138"><ele>876.0</ele><time>2026-04-12T10:21:43.002Z</time></trkpt><trkpt lat="42.458532758227655" lon="12.703535739684867"><ele>873.5</ele><time>2026-04-12T10:21:46.002Z</time></trkpt><trkpt lat="42.45844777493976" lon="12.70352664446279"><ele>871.0</ele><time>2026-04-12T10:21:50.002Z</time></trkpt><trkpt lat="42.458388632034996" lon="12.70360478188538"><ele>868.5000000000001</ele><time>2026-04-12T10:21:54Z</time></trkpt><trkpt lat="42.45836029988647" lon="12.703693469050235"><ele>866.0</ele><time>2026-04-12T10:21:57Z</time></trkpt><trkpt lat="42.45834785143727" lon="12.703791543604863"><ele>866.0000000000001</ele><time>2026-04-12T10:21:59Z</time></trkpt><trkpt lat="42.458326717608536" lon="12.703873367444084"><ele>866.0</ele><time>2026-04-12T10:22:01Z</time></trkpt><trkpt lat="42.458287686116904" lon="12.703956259827168"><ele>866.0</ele><time>2026-04-12T10:22:03Z</time></trkpt><trkpt lat="42.45827832034211" lon="12.704048347534322"><ele>866.0</ele><time>2026-04-12T10:22:05Z</time></trkpt><trkpt lat="42.45830030642089" lon="12.704183747789013"><ele>866.0000000000001</ele><time>2026-04-12T10:22:07Z</time></trkpt><trkpt lat="42.458307688954825" lon="12.704327892562022"><ele>866.0</ele><time>2026-04-12T10:22:09Z</time></trkpt><trkpt lat="42.458360890339954" lon="12.704427027176354"><ele>865.8333333333334</ele><time>2026-04-12T10:22:11Z</time></trkpt><trkpt lat="42.45839705795872" lon="12.704533242961359"><ele>865.6666666666667</ele><time>2026-04-12T10:22:13Z</time></trkpt><trkpt lat="42.45836141493514" lon="12.704641406624544"><ele>865.5</ele><time>2026-04-12T10:22:15Z</time></trkpt><trkpt lat="42.45833208375974" lon="12.70477512744523"><ele>865.3333333333333</ele><time>2026-04-12T10:22:17Z</time></trkpt><trkpt lat="42.45833438376278" lon="12.704861480609974"><ele>865.1666666666666</ele><time>2026-04-12T10:22:18Z</time></trkpt><trkpt lat="42.458337631645705" lon="12.704958451678849"><ele>865.0</ele><time>2026-04-12T10:22:19Z</time></trkpt><trkpt lat="42.45831273166755" lon="12.70509987194367"><ele>864.9999999999999</ele><time>2026-04-12T10:22:21Z</time></trkpt><trkpt lat="42.45823964135786" lon="12.705215045570254"><ele>865.0</ele><time>2026-04-12T10:22:23Z</time></trkpt><trkpt lat="42.45818704860329" lon="12.705294154076428"><ele>865.0</ele><time>2026-04-12T10:22:24Z</time></trkpt><trkpt lat="42.45813468816849" lon="12.705355837073736"><ele>865.0</ele><time>2026-04-12T10:22:25.001Z</time></trkpt><trkpt lat="42.458074945499085" lon="12.705406986248086"><ele>864.9999999999999</ele><time>2026-04-12T10:22:26.001Z</time></trkpt><trkpt lat="42.45799872300334" lon="12.705447715320956"><ele>865.0</ele><time>2026-04-12T10:22:27.001Z</time></trkpt><trkpt lat="42.45791841917314" lon="12.705469427436896"><ele>865.1666666666666</ele><time>2026-04-12T10:22:28.001Z</time></trkpt><trkpt lat="42.45784762802086" lon="12.705496033049727"><ele>865.3333333333333</ele><time>2026-04-12T10:22:29.001Z</time></trkpt><trkpt lat="42.45777081939974" lon="12.70551505961755"><ele>865.5</ele><time>2026-04-12T10:22:30.001Z</time></trkpt><trkpt lat="42.45769655303227" lon="12.705531225178701"><ele>865.6666666666667</ele><time>2026-04-12T10:22:31.001Z</time></trkpt><trkpt lat="42.45761400859497" lon="12.705546188994457"><ele>865.8333333333334</ele><time>2026-04-12T10:22:32.001Z</time></trkpt><trkpt lat="42.45753969330289" lon="12.705554236080307"><ele>866.0</ele><time>2026-04-12T10:22:33.001Z</time></trkpt><trkpt lat="42.45746916699901" lon="12.705570285482636"><ele>866.0000000000001</ele><time>2026-04-12T10:22:34.001Z</time></trkpt><trkpt lat="42.45740318466445" lon="12.705583232670502"><ele>866.0</ele><time>2026-04-12T10:22:35.001Z</time></trkpt><trkpt lat="42.45731332716514" lon="12.705598495365022"><ele>866.0</ele><time>2026-04-12T10:22:36.001Z</time></trkpt><trkpt lat="42.45718301839677" lon="12.705627866233618"><ele>866.0</ele><time>2026-04-12T10:22:38.001Z</time></trkpt><trkpt lat="42.45711818354709" lon="12.7056206462958"><ele>866.0000000000001</ele><time>2026-04-12T10:22:39.001Z</time></trkpt><trkpt lat="42.457047828878" lon="12.705582223850763"><ele>866.0</ele><time>2026-04-12T10:22:41.001Z</time></trkpt><trkpt lat="42.45693907998575" lon="12.705557351429839"><ele>867.1666666666667</ele><time>2026-04-12T10:22:53.001Z</time></trkpt><trkpt lat="42.456857810901106" lon="12.705563160926685"><ele>868.3333333333334</ele><time>2026-04-12T10:23:06.001Z</time></trkpt><trkpt lat="42.4567909873854" lon="12.705500501682106"><ele>869.5</ele><time>2026-04-12T10:23:08.001Z</time></trkpt><trkpt lat="42.45667523461667" lon="12.705443761192615"><ele>870.6666666666667</ele><time>2026-04-12T10:23:10.002Z</time></trkpt><trkpt lat="42.45660800526013" lon="12.70540358674454"><ele>871.8333333333334</ele><time>2026-04-12T10:23:11.002Z</time></trkpt><trkpt lat="42.4565246372333" lon="12.70537383051018"><ele>873.0</ele><time>2026-04-12T10:23:12.002Z</time></trkpt><trkpt lat="42.45643249732257" lon="12.705335165177683"><ele>873.0</ele><time>2026-04-12T10:23:13.002Z</time></trkpt><trkpt lat="42.456340376995406" lon="12.705299306070758"><ele>873.0</ele><time>2026-04-12T10:23:14.002Z</time></trkpt><trkpt lat="42.456266123745046" lon="12.705232803369151"><ele>873.0</ele><time>2026-04-12T10:23:15.002Z</time></trkpt><trkpt lat="42.45620734252501" lon="12.705152918337852"><ele>873.0</ele><time>2026-04-12T10:23:16.002Z</time></trkpt><trkpt lat="42.45614272873286" lon="12.705076640567576"><ele>873.0</ele><time>2026-04-12T10:23:17.002Z</time></trkpt><trkpt lat="42.45606793481995" lon="12.704996164156123"><ele>873.0</ele><time>2026-04-12T10:23:18.002Z</time></trkpt><trkpt lat="42.45598611866729" lon="12.704915840599433"><ele>872.6666666666666</ele><time>2026-04-12T10:23:19.002Z</time></trkpt><trkpt lat="42.45589888039835" lon="12.704834724713564"><ele>872.3333333333333</ele><time>2026-04-12T10:23:20.002Z</time></trkpt><trkpt lat="42.45581573718114" lon="12.704781630992844"><ele>872.0</ele><time>2026-04-12T10:23:21.002Z</time></trkpt><trkpt lat="42.45573270386009" lon="12.704712994066458"><ele>871.6666666666666</ele><time>2026-04-12T10:23:22.002Z</time></trkpt><trkpt lat="42.45566605746897" lon="12.704662698216746"><ele>871.3333333333333</ele><time>2026-04-12T10:23:23.002Z</time></trkpt><trkpt lat="42.45560449578102" lon="12.70463921110426"><ele>871.0</ele><time>2026-04-12T10:23:24.002Z</time></trkpt><trkpt lat="42.45553221209801" lon="12.704634558182853"><ele>870.3333333333333</ele><time>2026-04-12T10:23:25.002Z</time></trkpt><trkpt lat="42.45540818568864" lon="12.704715417702255"><ele>869.6666666666666</ele><time>2026-04-12T10:23:27.002Z</time></trkpt><trkpt lat="42.4553483068784" lon="12.704768932091838"><ele>869.0</ele><time>2026-04-12T10:23:28.002Z</time></trkpt><trkpt lat="42.455298637411914" lon="12.704831010653422"><ele>868.3333333333333</ele><time>2026-04-12T10:23:29.002Z</time></trkpt><trkpt lat="42.4552165059801" lon="12.704879485605675"><ele>867.6666666666666</ele><time>2026-04-12T10:23:30.002Z</time></trkpt><trkpt lat="42.45514969886038" lon="12.704881850124844"><ele>867.0</ele><time>2026-04-12T10:23:31.002Z</time></trkpt><trkpt lat="42.45507648303385" lon="12.704868078712849"><ele>867.0</ele><time>2026-04-12T10:23:32.002Z</time></trkpt><trkpt lat="42.45500247236692" lon="12.704849169200422"><ele>867.0</ele><time>2026-04-12T10:23:33.002Z</time></trkpt><trkpt lat="42.45491626573651" lon="12.704818648597954"><ele>867.0</ele><time>2026-04-12T10:23:34.002Z</time></trkpt><trkpt lat="42.45482429005175" lon="12.704773856702264"><ele>867.0</ele><time>2026-04-12T10:23:35.002Z</time></trkpt><trkpt lat="42.45473925672198" lon="12.704737086586784"><ele>867.0</ele><time>2026-04-12T10:23:36.002Z</time></trkpt><trkpt lat="42.454658340977" lon="12.704704141684754"><ele>867.0</ele><time>2026-04-12T10:23:37.002Z</time></trkpt><trkpt lat="42.45458651142461" lon="12.704686891631376"><ele>867.8333333333334</ele><time>2026-04-12T10:23:38.002Z</time></trkpt><trkpt lat="42.45450257313259" lon="12.704642064652786"><ele>868.6666666666667</ele><time>2026-04-12T10:23:39.002Z</time></trkpt><trkpt lat="42.454429230924234" lon="12.704599368492845"><ele>869.5</ele><time>2026-04-12T10:23:40.002Z</time></trkpt><trkpt lat="42.45436022267828" lon="12.704549445349896"><ele>870.3333333333334</ele><time>2026-04-12T10:23:41.002Z</time></trkpt><trkpt lat="42.45429760796983" lon="12.704506345017691"><ele>871.1666666666667</ele><time>2026-04-12T10:23:42.002Z</time></trkpt><trkpt lat="42.45422734332377" lon="12.704459798209285"><ele>872.0</ele><time>2026-04-12T10:23:43.002Z</time></trkpt><trkpt lat="42.45415769328529" lon="12.704416440429469"><ele>870.0000000000001</ele><time>2026-04-12T10:23:44.002Z</time></trkpt><trkpt lat="42.45409049450762" lon="12.704396007845036"><ele>868.0</ele><time>2026-04-12T10:23:45.002Z</time></trkpt><trkpt lat="42.454022711444864" lon="12.704342549753479"><ele>866.0</ele><time>2026-04-12T10:23:46.002Z</time></trkpt><trkpt lat="42.4539382027715" lon="12.704325506538385"><ele>864.0</ele><time>2026-04-12T10:23:47.002Z</time></trkpt><trkpt lat="42.453872245059756" lon="12.704302678317319"><ele>862.0000000000001</ele><time>2026-04-12T10:23:48.002Z</time></trkpt><trkpt lat="42.45379956469063" lon="12.704286674389287"><ele>860.0</ele><time>2026-04-12T10:23:49.002Z</time></trkpt><trkpt lat="42.453722687842834" lon="12.70427200795878"><ele>860.0000000000001</ele><time>2026-04-12T10:23:50.002Z</time></trkpt><trkpt lat="42.45362254018131" lon="12.70427686410887"><ele>860.0</ele><time>2026-04-12T10:23:51.002Z</time></trkpt><trkpt lat="42.45355996775679" lon="12.704238935480276"><ele>860.0</ele><time>2026-04-12T10:23:52.002Z</time></trkpt><trkpt lat="42.45348177412287" lon="12.704213448807122"><ele>860.0</ele><time>2026-04-12T10:23:53.002Z</time></trkpt><trkpt lat="42.453402222804755" lon="12.704179168960598"><ele>860.0000000000001</ele><time>2026-04-12T10:23:54.003Z</time></trkpt><trkpt lat="42.45331577730727" lon="12.704140820956544"><ele>860.0</ele><time>2026-04-12T10:23:55.003Z</time></trkpt><trkpt lat="42.45322309898108" lon="12.704097308579133"><ele>860.0</ele><time>2026-04-12T10:23:56.003Z</time></trkpt><trkpt lat="42.45313024195024" lon="12.704062649293745"><ele>860.0</ele><time>2026-04-12T10:23:57Z</time></trkpt><trkpt lat="42.453033032875936" lon="12.70403190194469"><ele>860.0</ele><time>2026-04-12T10:23:58Z</time></trkpt><trkpt lat="42.45293000186174" lon="12.703995792410707"><ele>860.0</ele><time>2026-04-12T10:23:59Z</time></trkpt><trkpt lat="42.45282867835798" lon="12.703992385299047"><ele>860.0</ele><time>2026-04-12T10:24:00Z</time></trkpt><trkpt lat="42.45274008494072" lon="12.703948108757466"><ele>861.2</ele><time>2026-04-12T10:24:01Z</time></trkpt><trkpt lat="42.45264293765925" lon="12.703933034940896"><ele>862.4</ele><time>2026-04-12T10:24:02Z</time></trkpt><trkpt lat="42.45254429477522" lon="12.703900507160851"><ele>863.5999999999999</ele><time>2026-04-12T10:24:03Z</time></trkpt><trkpt lat="42.45244610898102" lon="12.703869039805195"><ele>864.8</ele><time>2026-04-12T10:24:04Z</time></trkpt><trkpt lat="42.45236277397851" lon="12.703840368206686"><ele>866.0</ele><time>2026-04-12T10:24:05Z</time></trkpt><trkpt lat="42.45227413126058" lon="12.703796459580282"><ele>866.0000000000001</ele><time>2026-04-12T10:24:06Z</time></trkpt><trkpt lat="42.452211293969654" lon="12.70374240665813"><ele>866.0</ele><time>2026-04-12T10:24:07Z</time></trkpt><trkpt lat="42.45215160450633" lon="12.703667727963666"><ele>866.0</ele><time>2026-04-12T10:24:08Z</time></trkpt><trkpt lat="42.452114969536986" lon="12.703582565392878"><ele>866.0</ele><time>2026-04-12T10:24:09Z</time></trkpt><trkpt lat="42.45207231350324" lon="12.70349562510748"><ele>866.0000000000001</ele><time>2026-04-12T10:24:10Z</time></trkpt><trkpt lat="42.45203369241553" lon="12.70339148412882"><ele>866.0</ele><time>2026-04-12T10:24:11Z</time></trkpt><trkpt lat="42.45197912466707" lon="12.703308329368893"><ele>865.0000000000001</ele><time>2026-04-12T10:24:12Z</time></trkpt><trkpt lat="42.45191844755073" lon="12.703223931688942"><ele>864.0</ele><time>2026-04-12T10:24:13Z</time></trkpt><trkpt lat="42.4518492192935" lon="12.703149416916526"><ele>863.0</ele><time>2026-04-12T10:24:14Z</time></trkpt><trkpt lat="42.45177586979851" lon="12.703084745410875"><ele>862.0</ele><time>2026-04-12T10:24:15Z</time></trkpt><trkpt lat="42.45169511124214" lon="12.703017251959022"><ele>861.0000000000001</ele><time>2026-04-12T10:24:16Z</time></trkpt><trkpt lat="42.45161496459358" lon="12.702964710960188"><ele>860.0</ele><time>2026-04-12T10:24:17Z</time></trkpt><trkpt lat="42.451525934135" lon="12.702900634455608"><ele>860.0</ele><time>2026-04-12T10:24:18Z</time></trkpt><trkpt lat="42.45143396192772" lon="12.702851173697127"><ele>860.0</ele><time>2026-04-12T10:24:19Z</time></trkpt><trkpt lat="42.45134621478959" lon="12.702811630972084"><ele>860.0</ele><time>2026-04-12T10:24:20Z</time></trkpt><trkpt lat="42.45125866134323" lon="12.702786413098714"><ele>860.0</ele><time>2026-04-12T10:24:21Z</time></trkpt><trkpt lat="42.45116918394905" lon="12.702774663046705"><ele>860.0</ele><time>2026-04-12T10:24:22Z</time></trkpt><trkpt lat="42.45107684382209" lon="12.702743419455727"><ele>857.8</ele><time>2026-04-12T10:24:23Z</time></trkpt><trkpt lat="42.45097781976053" lon="12.702701325001827"><ele>855.6</ele><time>2026-04-12T10:24:24Z</time></trkpt><trkpt lat="42.45088633290373" lon="12.70266830125279"><ele>853.4000000000001</ele><time>2026-04-12T10:24:25Z</time></trkpt><trkpt lat="42.45079743598992" lon="12.702628417410509"><ele>851.2</ele><time>2026-04-12T10:24:26Z</time></trkpt><trkpt lat="42.450707262272005" lon="12.702580744592549"><ele>849.0</ele><time>2026-04-12T10:24:27Z</time></trkpt><trkpt lat="42.450619560292495" lon="12.702538059693834"><ele>849.0</ele><time>2026-04-12T10:24:28Z</time></trkpt><trkpt lat="42.45051901355522" lon="12.702498183107906"><ele>849.0</ele><time>2026-04-12T10:24:29Z</time></trkpt><trkpt lat="42.45041073744436" lon="12.702453050683717"><ele>849.0</ele><time>2026-04-12T10:24:30Z</time></trkpt><trkpt lat="42.45030263243877" lon="12.702416909279114"><ele>849.0</ele><time>2026-04-12T10:24:31.001Z</time></trkpt><trkpt lat="42.4502061289502" lon="12.702422559107028"><ele>849.0</ele><time>2026-04-12T10:24:32.001Z</time></trkpt><trkpt lat="42.45011545591489" lon="12.70241285921856"><ele>849.4000000000001</ele><time>2026-04-12T10:24:33.001Z</time></trkpt><trkpt lat="42.45001975066325" lon="12.702386342152282"><ele>849.8</ele><time>2026-04-12T10:24:34.001Z</time></trkpt><trkpt lat="42.449929914122464" lon="12.702381342159702"><ele>850.2</ele><time>2026-04-12T10:24:35.001Z</time></trkpt><trkpt lat="42.44984154772339" lon="12.702409404238374"><ele>850.5999999999999</ele><time>2026-04-12T10:24:36.001Z</time></trkpt><trkpt lat="42.44975299220404" lon="12.702430732699696"><ele>851.0</ele><time>2026-04-12T10:24:37.001Z</time></trkpt><trkpt lat="42.44965703216574" lon="12.702468422988476"><ele>850.1999999999999</ele><time>2026-04-12T10:24:38.001Z</time></trkpt><trkpt lat="42.44956194590413" lon="12.702503361673317"><ele>849.4</ele><time>2026-04-12T10:24:39.001Z</time></trkpt><trkpt lat="42.44947074911692" lon="12.7025469616136"><ele>848.6</ele><time>2026-04-12T10:24:40.001Z</time></trkpt><trkpt lat="42.4493922867564" lon="12.702600611168952"><ele>847.8</ele><time>2026-04-12T10:24:41.001Z</time></trkpt><trkpt lat="42.4493161891455" lon="12.702659236376316"><ele>847.0</ele><time>2026-04-12T10:24:42.001Z</time></trkpt><trkpt lat="42.44922383989627" lon="12.702707870255784"><ele>847.4000000000001</ele><time>2026-04-12T10:24:43.001Z</time></trkpt><trkpt lat="42.4491364331572" lon="12.702753833442802"><ele>847.8000000000001</ele><time>2026-04-12T10:24:44.001Z</time></trkpt><trkpt lat="42.44902739056858" lon="12.702810305758437"><ele>848.2</ele><time>2026-04-12T10:24:45.001Z</time></trkpt><trkpt lat="42.4489425134304" lon="12.702873241167302"><ele>848.6</ele><time>2026-04-12T10:24:46.001Z</time></trkpt><trkpt lat="42.44885357540784" lon="12.702925265240959"><ele>849.0</ele><time>2026-04-12T10:24:47.001Z</time></trkpt><trkpt lat="42.44877618404208" lon="12.702967069678433"><ele>849.0</ele><time>2026-04-12T10:24:48.001Z</time></trkpt><trkpt lat="42.4486657895185" lon="12.703034522413482"><ele>849.0</ele><time>2026-04-12T10:24:49.001Z</time></trkpt><trkpt lat="42.44857097145302" lon="12.703088643855345"><ele>849.0</ele><time>2026-04-12T10:24:50.001Z</time></trkpt><trkpt lat="42.44847951647993" lon="12.70314438651579"><ele>849.0</ele><time>2026-04-12T10:24:51.001Z</time></trkpt><trkpt lat="42.44837924917721" lon="12.703182603168788"><ele>849.0</ele><time>2026-04-12T10:24:52.001Z</time></trkpt><trkpt lat="42.44828250501172" lon="12.703216880600166"><ele>849.0</ele><time>2026-04-12T10:24:53.001Z</time></trkpt><trkpt lat="42.44818906914202" lon="12.703232887275552"><ele>849.0</ele><time>2026-04-12T10:24:54.001Z</time></trkpt><trkpt lat="42.44809489609779" lon="12.703251680668693"><ele>849.0</ele><time>2026-04-12T10:24:55.001Z</time></trkpt><trkpt lat="42.44798997128753" lon="12.703270830351677"><ele>849.0</ele><time>2026-04-12T10:24:56.001Z</time></trkpt><trkpt lat="42.44790029606672" lon="12.703284152135454"><ele>849.0</ele><time>2026-04-12T10:24:57.001Z</time></trkpt><trkpt lat="42.44781291182973" lon="12.703315602587528"><ele>849.2</ele><time>2026-04-12T10:24:58.001Z</time></trkpt><trkpt lat="42.44773522700728" lon="12.70337594735316"><ele>849.4000000000001</ele><time>2026-04-12T10:24:59.001Z</time></trkpt><trkpt lat="42.4476596957904" lon="12.703432371520748"><ele>849.6</ele><time>2026-04-12T10:25:00.001Z</time></trkpt><trkpt lat="42.44757933302359" lon="12.70349937856721"><ele>849.8</ele><time>2026-04-12T10:25:01.001Z</time></trkpt><trkpt lat="42.44749957230312" lon="12.703574703125609"><ele>850.0</ele><time>2026-04-12T10:25:02.001Z</time></trkpt><trkpt lat="42.447415132186244" lon="12.703660320188938"><ele>850.0</ele><time>2026-04-12T10:25:03.001Z</time></trkpt><trkpt lat="42.44732531243592" lon="12.703728906971117"><ele>850.0</ele><time>2026-04-12T10:25:04.001Z</time></trkpt><trkpt lat="42.44724228191058" lon="12.703803798268703"><ele>850.0</ele><time>2026-04-12T10:25:05.001Z</time></trkpt><trkpt lat="42.44716074526884" lon="12.70388120808273"><ele>850.0</ele><time>2026-04-12T10:25:06.001Z</time></trkpt><trkpt lat="42.44708130110348" lon="12.703949927439128"><ele>850.0</ele><time>2026-04-12T10:25:07.001Z</time></trkpt><trkpt lat="42.44700067141371" lon="12.704003166609294"><ele>848.8333333333333</ele><time>2026-04-12T10:25:08.001Z</time></trkpt><trkpt lat="42.4469171423082" lon="12.704033051603343"><ele>847.6666666666666</ele><time>2026-04-12T10:25:09.001Z</time></trkpt><trkpt lat="42.446836555790775" lon="12.704054663813839"><ele>846.5</ele><time>2026-04-12T10:25:10.001Z</time></trkpt><trkpt lat="42.44675498042041" lon="12.704057588312017"><ele>845.3333333333333</ele><time>2026-04-12T10:25:11.001Z</time></trkpt><trkpt lat="42.446686002190845" lon="12.704044121528048"><ele>844.1666666666666</ele><time>2026-04-12T10:25:12.001Z</time></trkpt><trkpt lat="42.446613888966056" lon="12.70400001277916"><ele>843.0</ele><time>2026-04-12T10:25:13.001Z</time></trkpt><trkpt lat="42.44652078755328" lon="12.703948925880233"><ele>843.0</ele><time>2026-04-12T10:25:14.001Z</time></trkpt><trkpt lat="42.44642469474523" lon="12.70390229733131"><ele>843.0</ele><time>2026-04-12T10:25:15.001Z</time></trkpt><trkpt lat="42.446324659792936" lon="12.703857204239089"><ele>843.0</ele><time>2026-04-12T10:25:16.001Z</time></trkpt><trkpt lat="42.44621848665759" lon="12.70380340931549"><ele>843.0</ele><time>2026-04-12T10:25:17.001Z</time></trkpt><trkpt lat="42.44611926732657" lon="12.70377666068424"><ele>843.0</ele><time>2026-04-12T10:25:18.002Z</time></trkpt><trkpt lat="42.44601437821527" lon="12.70374935278891"><ele>843.75</ele><time>2026-04-12T10:25:19.002Z</time></trkpt><trkpt lat="42.445904550630466" lon="12.703730394071263"><ele>844.5</ele><time>2026-04-12T10:25:20.002Z</time></trkpt><trkpt lat="42.445788025915604" lon="12.703730781949922"><ele>845.25</ele><time>2026-04-12T10:25:21.002Z</time></trkpt><trkpt lat="42.44566890687218" lon="12.703735225223483"><ele>846.0</ele><time>2026-04-12T10:25:22.002Z</time></trkpt><trkpt lat="42.44554789728407" lon="12.703726527368511"><ele>845.5</ele><time>2026-04-12T10:25:23.002Z</time></trkpt><trkpt lat="42.44541910797834" lon="12.7037089715525"><ele>845.0</ele><time>2026-04-12T10:25:24.002Z</time></trkpt><trkpt lat="42.44531729162925" lon="12.703693973688607"><ele>844.5</ele><time>2026-04-12T10:25:25.002Z</time></trkpt><trkpt lat="42.445211717751064" lon="12.703687712919404"><ele>844.0</ele><time>2026-04-12T10:25:26.002Z</time></trkpt><trkpt lat="42.44509378917659" lon="12.703694144734268"><ele>844.0</ele><time>2026-04-12T10:25:27.002Z</time></trkpt><trkpt lat="42.444975507066836" lon="12.7036934711997"><ele>844.0</ele><time>2026-04-12T10:25:28.002Z</time></trkpt><trkpt lat="42.44486021312953" lon="12.703701710528689"><ele>844.0</ele><time>2026-04-12T10:25:29.002Z</time></trkpt><trkpt lat="42.44474334282033" lon="12.703733818468468"><ele>844.0</ele><time>2026-04-12T10:25:30.002Z</time></trkpt><trkpt lat="42.444631916365786" lon="12.703737776594167"><ele>843.8000000000001</ele><time>2026-04-12T10:25:31.002Z</time></trkpt><trkpt lat="42.44451813768525" lon="12.703737380098366"><ele>843.6</ele><time>2026-04-12T10:25:32.002Z</time></trkpt><trkpt lat="42.444396975084246" lon="12.703760249869957"><ele>843.4</ele><time>2026-04-12T10:25:33.002Z</time></trkpt><trkpt lat="42.444287519075" lon="12.703788515924082"><ele>843.2</ele><time>2026-04-12T10:25:34.002Z</time></trkpt><trkpt lat="42.44419625953262" lon="12.703800573582015"><ele>843.0</ele><time>2026-04-12T10:25:35.002Z</time></trkpt><trkpt lat="42.44410426087661" lon="12.703791611257373"><ele>843.0</ele><time>2026-04-12T10:25:36.002Z</time></trkpt><trkpt lat="42.444015832150924" lon="12.703760735628325"><ele>843.0</ele><time>2026-04-12T10:25:37.002Z</time></trkpt><trkpt lat="42.44390817283053" lon="12.703732598555431"><ele>843.0</ele><time>2026-04-12T10:25:38.002Z</time></trkpt><trkpt lat="42.443801559249216" lon="12.703715335677241"><ele>843.0</ele><time>2026-04-12T10:25:39.002Z</time></trkpt><trkpt lat="42.44369882959485" lon="12.703712352669683"><ele>843.0</ele><time>2026-04-12T10:25:40.002Z</time></trkpt><trkpt lat="42.44359398113218" lon="12.70370518730966"><ele>841.8</ele><time>2026-04-12T10:25:41.002Z</time></trkpt><trkpt lat="42.44348599275825" lon="12.703694432651913"><ele>840.5999999999999</ele><time>2026-04-12T10:25:42.002Z</time></trkpt><trkpt lat="42.44338020518453" lon="12.703696450994189"><ele>839.4000000000001</ele><time>2026-04-12T10:25:43.002Z</time></trkpt><trkpt lat="42.44328506110489" lon="12.70369535345636"><ele>838.2</ele><time>2026-04-12T10:25:44.002Z</time></trkpt><trkpt lat="42.44320380366976" lon="12.703708428296205"><ele>837.0</ele><time>2026-04-12T10:25:45.002Z</time></trkpt><trkpt lat="42.44313036419505" lon="12.703742204580283"><ele>837.0</ele><time>2026-04-12T10:25:46.002Z</time></trkpt><trkpt lat="42.44306461933981" lon="12.703785676625905"><ele>837.0</ele><time>2026-04-12T10:25:47.002Z</time></trkpt><trkpt lat="42.44299929739949" lon="12.703883666222021"><ele>837.0</ele><time>2026-04-12T10:25:48.002Z</time></trkpt><trkpt lat="42.44293575338355" lon="12.703960284485772"><ele>837.0</ele><time>2026-04-12T10:25:49.002Z</time></trkpt><trkpt lat="42.44287208750392" lon="12.704055610250421"><ele>837.0</ele><time>2026-04-12T10:25:50.002Z</time></trkpt><trkpt lat="42.4427972214894" lon="12.704125799435019"><ele>837.0</ele><time>2026-04-12T10:25:51.002Z</time></trkpt><trkpt lat="42.442718580954384" lon="12.704166730360381"><ele>835.8</ele><time>2026-04-12T10:25:52.002Z</time></trkpt><trkpt lat="42.442632552924685" lon="12.704182825865402"><ele>834.6</ele><time>2026-04-12T10:25:53.002Z</time></trkpt><trkpt lat="42.44254852816088" lon="12.704179347498128"><ele>833.4</ele><time>2026-04-12T10:25:54.002Z</time></trkpt><trkpt lat="42.44246612053008" lon="12.704162887658889"><ele>832.1999999999999</ele><time>2026-04-12T10:25:55.002Z</time></trkpt><trkpt lat="42.4423646247952" lon="12.70414437676183"><ele>831.0</ele><time>2026-04-12T10:25:56.002Z</time></trkpt><trkpt lat="42.44227292137064" lon="12.704109419369026"><ele>831.0</ele><time>2026-04-12T10:25:57.002Z</time></trkpt><trkpt lat="42.44218786609638" lon="12.704072773525562"><ele>831.0</ele><time>2026-04-12T10:25:58.002Z</time></trkpt><trkpt lat="42.44208935263073" lon="12.704039553210421"><ele>831.0</ele><time>2026-04-12T10:25:59.002Z</time></trkpt><trkpt lat="42.441973710770974" lon="12.703999280659087"><ele>831.0</ele><time>2026-04-12T10:26:00.002Z</time></trkpt><trkpt lat="42.441875187220816" lon="12.703963986760234"><ele>831.0</ele><time>2026-04-12T10:26:01.002Z</time></trkpt><trkpt lat="42.44176237943081" lon="12.703940954438721"><ele>831.5</ele><time>2026-04-12T10:26:02.002Z</time></trkpt><trkpt lat="42.44164624103139" lon="12.703939978469641"><ele>832.0</ele><time>2026-04-12T10:26:03Z</time></trkpt><trkpt lat="42.44153851197143" lon="12.703953907770895"><ele>832.5</ele><time>2026-04-12T10:26:04Z</time></trkpt><trkpt lat="42.44141345808744" lon="12.703956020118826"><ele>833.0</ele><time>2026-04-12T10:26:05Z</time></trkpt><trkpt lat="42.44129771317937" lon="12.703957303291467"><ele>831.25</ele><time>2026-04-12T10:26:06Z</time></trkpt><trkpt lat="42.44118910897545" lon="12.703959268800356"><ele>829.5</ele><time>2026-04-12T10:26:07Z</time></trkpt><trkpt lat="42.441070903676284" lon="12.703978867030669"><ele>827.75</ele><time>2026-04-12T10:26:08Z</time></trkpt><trkpt lat="42.44093735681588" lon="12.704008337977317"><ele>826.0</ele><time>2026-04-12T10:26:09Z</time></trkpt><trkpt lat="42.44081150413163" lon="12.70404881960764"><ele>826.0</ele><time>2026-04-12T10:26:10Z</time></trkpt><trkpt lat="42.440688883720675" lon="12.704089728349294"><ele>826.0</ele><time>2026-04-12T10:26:11Z</time></trkpt><trkpt lat="42.440576620655946" lon="12.704115452449143"><ele>826.0</ele><time>2026-04-12T10:26:12Z</time></trkpt><trkpt lat="42.44045148553601" lon="12.704123016537572"><ele>826.0</ele><time>2026-04-12T10:26:13Z</time></trkpt><trkpt lat="42.4403132620307" lon="12.704148365150024"><ele>823.75</ele><time>2026-04-12T10:26:14Z</time></trkpt><trkpt lat="42.440193524151574" lon="12.704182113864572"><ele>821.5</ele><time>2026-04-12T10:26:15Z</time></trkpt><trkpt lat="42.440075202273775" lon="12.704225015457515"><ele>819.25</ele><time>2026-04-12T10:26:16Z</time></trkpt><trkpt lat="42.439952290985644" lon="12.70427323003837"><ele>817.0</ele><time>2026-04-12T10:26:17Z</time></trkpt><trkpt lat="42.439833767729596" lon="12.70433333477204"><ele>817.0</ele><time>2026-04-12T10:26:18Z</time></trkpt><trkpt lat="42.43971287109882" lon="12.704405917552762"><ele>817.0</ele><time>2026-04-12T10:26:19Z</time></trkpt><trkpt lat="42.43959868786523" lon="12.704476650025066"><ele>817.0</ele><time>2026-04-12T10:26:20Z</time></trkpt><trkpt lat="42.439498374385124" lon="12.70453571253293"><ele>817.0</ele><time>2026-04-12T10:26:21Z</time></trkpt><trkpt lat="42.439405308372955" lon="12.70458220869041"><ele>817.6666666666666</ele><time>2026-04-12T10:26:22Z</time></trkpt><trkpt lat="42.43931880416994" lon="12.704615082532776"><ele>818.3333333333333</ele><time>2026-04-12T10:26:23Z</time></trkpt><trkpt lat="42.439246641262315" lon="12.704627447234932"><ele>819.0</ele><time>2026-04-12T10:26:24Z</time></trkpt><trkpt lat="42.4391661549474" lon="12.704617436423213"><ele>819.6666666666667</ele><time>2026-04-12T10:26:25Z</time></trkpt><trkpt lat="42.43906982572437" lon="12.70458670499166"><ele>820.3333333333334</ele><time>2026-04-12T10:26:26Z</time></trkpt><trkpt lat="42.438971437201175" lon="12.704560061181411"><ele>821.0</ele><time>2026-04-12T10:26:27.001Z</time></trkpt><trkpt lat="42.43886738373555" lon="12.704544229315237"><ele>820.4</ele><time>2026-04-12T10:26:28.001Z</time></trkpt><trkpt lat="42.43876657470551" lon="12.704524376127093"><ele>819.8</ele><time>2026-04-12T10:26:29.001Z</time></trkpt><trkpt lat="42.43865891767568" lon="12.704506988485411"><ele>819.1999999999999</ele><time>2026-04-12T10:26:30.001Z</time></trkpt><trkpt lat="42.43856058618061" lon="12.70450208030083"><ele>818.5999999999999</ele><time>2026-04-12T10:26:31.001Z</time></trkpt><trkpt lat="42.43844906534989" lon="12.704493336796661"><ele>818.0</ele><time>2026-04-12T10:26:32.001Z</time></trkpt><trkpt lat="42.438347140946306" lon="12.704480969051072"><ele>818.0000000000001</ele><time>2026-04-12T10:26:33.001Z</time></trkpt><trkpt lat="42.438253361532574" lon="12.704472995203183"><ele>818.0</ele><time>2026-04-12T10:26:34.001Z</time></trkpt><trkpt lat="42.438174386619586" lon="12.704465538791357"><ele>818.0</ele><time>2026-04-12T10:26:35.001Z</time></trkpt><trkpt lat="42.43809818792197" lon="12.704446408621155"><ele>818.0</ele><time>2026-04-12T10:26:36.001Z</time></trkpt><trkpt lat="42.438022824516146" lon="12.70441893965607"><ele>818.0000000000001</ele><time>2026-04-12T10:26:37.001Z</time></trkpt><trkpt lat="42.437957569569136" lon="12.704396297959056"><ele>818.0</ele><time>2026-04-12T10:26:38.001Z</time></trkpt><trkpt lat="42.43789451318123" lon="12.704378339067166"><ele>816.5000000000001</ele><time>2026-04-12T10:26:39.001Z</time></trkpt><trkpt lat="42.43782359053093" lon="12.704350051633988"><ele>815.0</ele><time>2026-04-12T10:26:40.001Z</time></trkpt><trkpt lat="42.43770763209212" lon="12.704301454442986"><ele>813.5</ele><time>2026-04-12T10:26:42.001Z</time></trkpt><trkpt lat="42.437621776907754" lon="12.704276049107182"><ele>812.0</ele><time>2026-04-12T10:26:44.001Z</time></trkpt><trkpt lat="42.43758397685348" lon="12.704193609564502"><ele>810.5000000000001</ele><time>2026-04-12T10:28:12.001Z</time></trkpt><trkpt lat="42.43763890050547" lon="12.704150117935415"><ele>809.0</ele><time>2026-04-12T10:28:15.001Z</time></trkpt><trkpt lat="42.4376901516252" lon="12.704219266709652"><ele>809.0</ele><time>2026-04-12T10:28:17.001Z</time></trkpt><trkpt lat="42.43771737058684" lon="12.704350298839074"><ele>809.0</ele><time>2026-04-12T10:28:19.001Z</time></trkpt><trkpt lat="42.437750670662595" lon="12.704509332671272"><ele>809.0</ele><time>2026-04-12T10:28:21.001Z</time></trkpt><trkpt lat="42.43774772563258" lon="12.704660076700092"><ele>809.0</ele><time>2026-04-12T10:28:23.001Z</time></trkpt><trkpt lat="42.437682190355964" lon="12.704797704573751"><ele>810.1666666666667</ele><time>2026-04-12T10:28:25.001Z</time></trkpt><trkpt lat="42.43763840145392" lon="12.704893068368738"><ele>811.3333333333334</ele><time>2026-04-12T10:28:26.001Z</time></trkpt><trkpt lat="42.43758819561189" lon="12.704989487609144"><ele>812.5</ele><time>2026-04-12T10:28:27.001Z</time></trkpt><trkpt lat="42.43754991145465" lon="12.705082468029604"><ele>813.6666666666667</ele><time>2026-04-12T10:28:28.001Z</time></trkpt><trkpt lat="42.43750943491375" lon="12.705171973405884"><ele>814.8333333333334</ele><time>2026-04-12T10:28:29.001Z</time></trkpt><trkpt lat="42.43746041634808" lon="12.705251299240963"><ele>816.0</ele><time>2026-04-12T10:28:30.001Z</time></trkpt><trkpt lat="42.43741264831963" lon="12.705314196458978"><ele>816.1666666666666</ele><time>2026-04-12T10:28:31.001Z</time></trkpt><trkpt lat="42.437359195952816" lon="12.705387420924596"><ele>816.3333333333333</ele><time>2026-04-12T10:28:32.001Z</time></trkpt><trkpt lat="42.437306963426146" lon="12.70547603220666"><ele>816.5</ele><time>2026-04-12T10:28:33.001Z</time></trkpt><trkpt lat="42.43725090972718" lon="12.705550803089128"><ele>816.6666666666666</ele><time>2026-04-12T10:28:34.001Z</time></trkpt><trkpt lat="42.43718835157256" lon="12.70560667072321"><ele>816.8333333333333</ele><time>2026-04-12T10:28:35.001Z</time></trkpt><trkpt lat="42.43712604568123" lon="12.705655960138076"><ele>817.0</ele><time>2026-04-12T10:28:36.001Z</time></trkpt><trkpt lat="42.437071886482606" lon="12.705713197554768"><ele>817.0</ele><time>2026-04-12T10:28:37.001Z</time></trkpt><trkpt lat="42.43701622873952" lon="12.705832426418477"><ele>817.0</ele><time>2026-04-12T10:28:39.001Z</time></trkpt><trkpt lat="42.437001335312175" lon="12.705955884343975"><ele>817.0</ele><time>2026-04-12T10:28:41.001Z</time></trkpt><trkpt lat="42.437007909381066" lon="12.706078851559305"><ele>817.0</ele><time>2026-04-12T10:28:43.001Z</time></trkpt><trkpt lat="42.43699905674587" lon="12.706241465828834"><ele>817.0</ele><time>2026-04-12T10:28:45.001Z</time></trkpt><trkpt lat="42.43699248998821" lon="12.706357433223172"><ele>818.6666666666666</ele><time>2026-04-12T10:28:47.001Z</time></trkpt><trkpt lat="42.4370420605417" lon="12.706448364910022"><ele>820.3333333333333</ele><time>2026-04-12T10:28:50.001Z</time></trkpt><trkpt lat="42.43711528247812" lon="12.706419968795466"><ele>822.0</ele><time>2026-04-12T10:28:52.001Z</time></trkpt><trkpt lat="42.43717609517536" lon="12.706339706980526"><ele>823.6666666666667</ele><time>2026-04-12T10:28:54.001Z</time></trkpt><trkpt lat="42.43723007618875" lon="12.706408483168348"><ele>825.3333333333334</ele><time>2026-04-12T10:29:24.002Z</time></trkpt><trkpt lat="42.43722512082638" lon="12.706531250669476"><ele>827.0</ele><time>2026-04-12T10:29:26.002Z</time></trkpt><trkpt lat="42.437235741726425" lon="12.706645099747833"><ele>828.5000000000001</ele><time>2026-04-12T10:29:28.002Z</time></trkpt><trkpt lat="42.43724417267753" lon="12.706735040148056"><ele>830.0</ele><time>2026-04-12T10:29:30.002Z</time></trkpt><trkpt lat="42.437188842468565" lon="12.706828986798723"><ele>831.5</ele><time>2026-04-12T10:29:32.002Z</time></trkpt><trkpt lat="42.43716474335153" lon="12.706927263528026"><ele>833.0</ele><time>2026-04-12T10:29:34.002Z</time></trkpt><trkpt lat="42.43714357230618" lon="12.70706967716103"><ele>834.5000000000001</ele><time>2026-04-12T10:29:36.002Z</time></trkpt><trkpt lat="42.43710892657527" lon="12.707184052329058"><ele>836.0</ele><time>2026-04-12T10:29:38.002Z</time></trkpt><trkpt lat="42.437100514162864" lon="12.707282756525101"><ele>837.0000000000001</ele><time>2026-04-12T10:29:40.002Z</time></trkpt><trkpt lat="42.437119081846376" lon="12.707364335135413"><ele>838.0</ele><time>2026-04-12T10:29:42.002Z</time></trkpt><trkpt lat="42.43720129676064" lon="12.70732806876014"><ele>839.0</ele><time>2026-04-12T10:30:08.002Z</time></trkpt><trkpt lat="42.43727736254166" lon="12.70726084099475"><ele>840.0</ele><time>2026-04-12T10:30:11.002Z</time></trkpt><trkpt lat="42.43736025568783" lon="12.707309652695699"><ele>841.0000000000001</ele><time>2026-04-12T10:30:14.003Z</time></trkpt><trkpt lat="42.43738982122254" lon="12.707408892581915"><ele>842.0</ele><time>2026-04-12T10:30:16.001Z</time></trkpt><trkpt lat="42.437359088263655" lon="12.70750385568926"><ele>843.8333333333334</ele><time>2026-04-12T10:30:18.001Z</time></trkpt><trkpt lat="42.43734368756905" lon="12.707610720130889"><ele>845.6666666666667</ele><time>2026-04-12T10:30:20.001Z</time></trkpt><trkpt lat="42.43736211585397" lon="12.707716218355545"><ele>847.5</ele><time>2026-04-12T10:30:22.001Z</time></trkpt><trkpt lat="42.437396421612256" lon="12.707822091101471"><ele>849.3333333333333</ele><time>2026-04-12T10:30:24.001Z</time></trkpt><trkpt lat="42.43744976295061" lon="12.707913991330711"><ele>851.1666666666666</ele><time>2026-04-12T10:30:26.001Z</time></trkpt><trkpt lat="42.437514560926836" lon="12.70797153590136"><ele>853.0</ele><time>2026-04-12T10:30:28.001Z</time></trkpt><trkpt lat="42.43761411253538" lon="12.708008319151302"><ele>855.8</ele><time>2026-04-12T10:30:30.001Z</time></trkpt><trkpt lat="42.43769828862793" lon="12.708094582846647"><ele>858.5999999999999</ele><time>2026-04-12T10:30:32.001Z</time></trkpt><trkpt lat="42.437762310606395" lon="12.708193523155943"><ele>861.4000000000001</ele><time>2026-04-12T10:30:34.001Z</time></trkpt><trkpt lat="42.43784132114876" lon="12.708254694452819"><ele>864.2</ele><time>2026-04-12T10:30:36.001Z</time></trkpt><trkpt lat="42.437912958947386" lon="12.708252386942977"><ele>867.0</ele><time>2026-04-12T10:30:38.001Z</time></trkpt><trkpt lat="42.43800854402783" lon="12.708285233798422"><ele>867.0</ele><time>2026-04-12T10:31:09.001Z</time></trkpt><trkpt lat="42.438086113925934" lon="12.708367386944737"><ele>867.0</ele><time>2026-04-12T10:31:11.001Z</time></trkpt><trkpt lat="42.4381458029566" lon="12.70846476358562"><ele>867.0</ele><time>2026-04-12T10:31:13.001Z</time></trkpt><trkpt lat="42.43817010472817" lon="12.708593493184816"><ele>867.0</ele><time>2026-04-12T10:31:15.001Z</time></trkpt><trkpt lat="42.43820149305703" lon="12.708680524060432"><ele>867.0</ele><time>2026-04-12T10:31:17.001Z</time></trkpt><trkpt lat="42.43826179539445" lon="12.708828887003275"><ele>870.2</ele><time>2026-04-12T10:31:19.001Z</time></trkpt><trkpt lat="42.43832546984315" lon="12.70895153695166"><ele>873.4000000000001</ele><time>2026-04-12T10:31:21.001Z</time></trkpt><trkpt lat="42.43837051378642" lon="12.709018316038929"><ele>876.5999999999999</ele><time>2026-04-12T10:31:22.001Z</time></trkpt><trkpt lat="42.438432595763295" lon="12.70914021174199"><ele>879.8</ele><time>2026-04-12T10:31:24.001Z</time></trkpt><trkpt lat="42.43852014720415" lon="12.709264774947485"><ele>883.0</ele><time>2026-04-12T10:31:26.001Z</time></trkpt><trkpt lat="42.438549700589974" lon="12.709351674066813"><ele>883.8333333333333</ele><time>2026-04-12T10:31:27.001Z</time></trkpt><trkpt lat="42.438622607709355" lon="12.709422074649869"><ele>884.6666666666666</ele><time>2026-04-12T10:31:28.001Z</time></trkpt><trkpt lat="42.43867647179383" lon="12.709468024615633"><ele>885.5</ele><time>2026-04-12T10:31:29.001Z</time></trkpt><trkpt lat="42.43875501417065" lon="12.709587980725333"><ele>886.3333333333333</ele><time>2026-04-12T10:31:31.001Z</time></trkpt><trkpt lat="42.438776668438166" lon="12.709692523823886"><ele>887.1666666666666</ele><time>2026-04-12T10:31:33.001Z</time></trkpt><trkpt lat="42.43879578212745" lon="12.709782273153168"><ele>888.0</ele><time>2026-04-12T10:31:34.001Z</time></trkpt><trkpt lat="42.43880799493134" lon="12.709936314946718"><ele>888.0</ele><time>2026-04-12T10:31:36.001Z</time></trkpt><trkpt lat="42.43880132629917" lon="12.71002192970033"><ele>888.0</ele><time>2026-04-12T10:31:37.001Z</time></trkpt><trkpt lat="42.43876987924502" lon="12.710106640236715"><ele>888.0</ele><time>2026-04-12T10:31:38.001Z</time></trkpt><trkpt lat="42.43876575319187" lon="12.710204952650564"><ele>888.0</ele><time>2026-04-12T10:31:39.001Z</time></trkpt><trkpt lat="42.438726971995315" lon="12.710367618882943"><ele>888.0</ele><time>2026-04-12T10:31:41.001Z</time></trkpt><trkpt lat="42.43868903062979" lon="12.710441918632455"><ele>888.0</ele><time>2026-04-12T10:31:42.001Z</time></trkpt><trkpt lat="42.43868127420315" lon="12.710575948707033"><ele>887.8</ele><time>2026-04-12T10:31:44.002Z</time></trkpt><trkpt lat="42.43875548726628" lon="12.710678393909234"><ele>887.5999999999999</ele><time>2026-04-12T10:31:46.002Z</time></trkpt><trkpt lat="42.4388638330078" lon="12.710768259135024"><ele>887.4000000000001</ele><time>2026-04-12T10:31:48.002Z</time></trkpt><trkpt lat="42.438967689794744" lon="12.710826631280199"><ele>887.2</ele><time>2026-04-12T10:31:50.002Z</time></trkpt><trkpt lat="42.43901862551665" lon="12.710914683283576"><ele>887.0</ele><time>2026-04-12T10:31:52.002Z</time></trkpt><trkpt lat="42.43905049548117" lon="12.71106000506037"><ele>886.6666666666667</ele><time>2026-04-12T10:31:54.002Z</time></trkpt><trkpt lat="42.43907556036899" lon="12.71122296071084"><ele>886.3333333333334</ele><time>2026-04-12T10:31:56.002Z</time></trkpt><trkpt lat="42.439079959546454" lon="12.711311332599768"><ele>886.0</ele><time>2026-04-12T10:31:57.002Z</time></trkpt><trkpt lat="42.439067467022355" lon="12.711411189854509"><ele>885.6666666666667</ele><time>2026-04-12T10:31:58.002Z</time></trkpt><trkpt lat="42.439044443885415" lon="12.711497023725718"><ele>885.3333333333334</ele><time>2026-04-12T10:31:59.002Z</time></trkpt><trkpt lat="42.4390165226956" lon="12.711585737612092"><ele>885.0</ele><time>2026-04-12T10:32:00.002Z</time></trkpt><trkpt lat="42.438983474381914" lon="12.711681091971531"><ele>885.0</ele><time>2026-04-12T10:32:01.002Z</time></trkpt><trkpt lat="42.438930633143585" lon="12.711787566134559"><ele>885.0</ele><time>2026-04-12T10:32:02.002Z</time></trkpt><trkpt lat="42.43888052035615" lon="12.711888759332444"><ele>885.0</ele><time>2026-04-12T10:32:03.002Z</time></trkpt><trkpt lat="42.438851693472145" lon="12.711972066577818"><ele>885.0</ele><time>2026-04-12T10:32:04.002Z</time></trkpt><trkpt lat="42.43884055878913" lon="12.712059672679684"><ele>885.0</ele><time>2026-04-12T10:32:05.002Z</time></trkpt><trkpt lat="42.43882912697068" lon="12.71221083363759"><ele>885.0</ele><time>2026-04-12T10:32:07.002Z</time></trkpt><trkpt lat="42.43881723722658" lon="12.712362024525971"><ele>885.1428571428571</ele><time>2026-04-12T10:32:09.002Z</time></trkpt><trkpt lat="42.43881750738972" lon="12.712471644663106"><ele>885.2857142857142</ele><time>2026-04-12T10:32:11.002Z</time></trkpt><trkpt lat="42.4388266940851" lon="12.712559932715234"><ele>885.4285714285714</ele><time>2026-04-12T10:32:13.002Z</time></trkpt><trkpt lat="42.43881262216219" lon="12.712643502880061"><ele>885.5714285714286</ele><time>2026-04-12T10:32:16.002Z</time></trkpt><trkpt lat="42.43878644102573" lon="12.712724761958318"><ele>885.7142857142858</ele><time>2026-04-12T10:32:18.002Z</time></trkpt><trkpt lat="42.438751711555774" lon="12.71281806391792"><ele>885.8571428571429</ele><time>2026-04-12T10:32:20.002Z</time></trkpt><trkpt lat="42.438715858242254" lon="12.71289708669713"><ele>886.0</ele><time>2026-04-12T10:32:23Z</time></trkpt><trkpt lat="42.43867099472046" lon="12.71299839776954"><ele>887.0</ele><time>2026-04-12T10:32:26Z</time></trkpt><trkpt lat="42.438609794458415" lon="12.713052803510354"><ele>887.9999999999999</ele><time>2026-04-12T10:32:28Z</time></trkpt><trkpt lat="42.43850367386924" lon="12.71311403146678"><ele>888.9999999999999</ele><time>2026-04-12T10:32:30Z</time></trkpt><trkpt lat="42.43837928891604" lon="12.713172261263571"><ele>890.0</ele><time>2026-04-12T10:32:32Z</time></trkpt><trkpt lat="42.43831575534379" lon="12.713198955754008"><ele>891.0</ele><time>2026-04-12T10:32:33Z</time></trkpt><trkpt lat="42.4382276771143" lon="12.71325087700222"><ele>891.0000000000001</ele><time>2026-04-12T10:32:35Z</time></trkpt><trkpt lat="42.438182916250966" lon="12.713311365616518"><ele>891.0</ele><time>2026-04-12T10:32:37Z</time></trkpt><trkpt lat="42.438125921130094" lon="12.713355247502538"><ele>891.0</ele><time>2026-04-12T10:32:47Z</time></trkpt><trkpt lat="42.43805231361056" lon="12.713363502335564"><ele>891.0</ele><time>2026-04-12T10:32:50Z</time></trkpt><trkpt lat="42.43808001929769" lon="12.713281622906056"><ele>891.0</ele><time>2026-04-12T10:32:54Z</time></trkpt><trkpt lat="42.43816433605822" lon="12.713262190103407"><ele>891.0000000000001</ele><time>2026-04-12T10:32:56.001Z</time></trkpt><trkpt lat="42.43823518452005" lon="12.713249531296574"><ele>891.0</ele><time>2026-04-12T10:32:57.001Z</time></trkpt><trkpt lat="42.43832567418831" lon="12.713216625814917"><ele>891.0</ele><time>2026-04-12T10:32:59.001Z</time></trkpt><trkpt lat="42.438410819538035" lon="12.713209588945764"><ele>891.0</ele><time>2026-04-12T10:33:01.001Z</time></trkpt><trkpt lat="42.43849794309378" lon="12.713240269692168"><ele>891.0</ele><time>2026-04-12T10:33:03.001Z</time></trkpt><trkpt lat="42.43859210621233" lon="12.713305415699384"><ele>891.0</ele><time>2026-04-12T10:33:05.001Z</time></trkpt><trkpt lat="42.43865235718919" lon="12.713362448454065"><ele>891.0</ele><time>2026-04-12T10:33:07.001Z</time></trkpt><trkpt lat="42.43870338617685" lon="12.71342128888294"><ele>891.0</ele><time>2026-04-12T10:33:12.001Z</time></trkpt><trkpt lat="42.438749869302576" lon="12.713491255071492"><ele>892.4</ele><time>2026-04-12T10:33:15.001Z</time></trkpt><trkpt lat="42.43883269153514" lon="12.713594691165765"><ele>893.8</ele><time>2026-04-12T10:33:17.001Z</time></trkpt><trkpt lat="42.43888932159627" lon="12.713637485255093"><ele>895.1999999999999</ele><time>2026-04-12T10:33:18.001Z</time></trkpt><trkpt lat="42.438982655437144" lon="12.713738627152066"><ele>896.5999999999999</ele><time>2026-04-12T10:33:20.001Z</time></trkpt><trkpt lat="42.43905795283925" lon="12.713850041934085"><ele>898.0</ele><time>2026-04-12T10:33:22.001Z</time></trkpt><trkpt lat="42.439132413563975" lon="12.713935375839963"><ele>897.9999999999999</ele><time>2026-04-12T10:33:24.001Z</time></trkpt><trkpt lat="42.43919873183156" lon="12.713953571245044"><ele>898.0</ele><time>2026-04-12T10:33:26.001Z</time></trkpt><trkpt lat="42.43925557587558" lon="12.71399585117727"><ele>898.0</ele><time>2026-04-12T10:33:27.001Z</time></trkpt><trkpt lat="42.43932747382291" lon="12.71407808703299"><ele>898.0</ele><time>2026-04-12T10:33:29.001Z</time></trkpt><trkpt lat="42.439348837232544" lon="12.714175379353765"><ele>897.9999999999999</ele><time>2026-04-12T10:33:31.001Z</time></trkpt><trkpt lat="42.4393427760154" lon="12.714320967911519"><ele>898.0</ele><time>2026-04-12T10:33:33.001Z</time></trkpt><trkpt lat="42.43935781161555" lon="12.714486823087913"><ele>898.8333333333333</ele><time>2026-04-12T10:33:35.001Z</time></trkpt><trkpt lat="42.439384248254534" lon="12.714572323582082"><ele>899.6666666666666</ele><time>2026-04-12T10:33:36.001Z</time></trkpt><trkpt lat="42.439423533526316" lon="12.714669082702994"><ele>900.5</ele><time>2026-04-12T10:33:37.001Z</time></trkpt><trkpt lat="42.439462480039786" lon="12.71477074790522"><ele>901.3333333333333</ele><time>2026-04-12T10:33:38.001Z</time></trkpt><trkpt lat="42.43950966470683" lon="12.714872556980549"><ele>902.1666666666666</ele><time>2026-04-12T10:33:39.001Z</time></trkpt><trkpt lat="42.439539687327446" lon="12.7149869768295"><ele>903.0</ele><time>2026-04-12T10:33:40.001Z</time></trkpt><trkpt lat="42.439560289474855" lon="12.715073732770616"><ele>903.0</ele><time>2026-04-12T10:33:41.001Z</time></trkpt><trkpt lat="42.4396290095709" lon="12.715200767323477"><ele>903.0</ele><time>2026-04-12T10:33:43.001Z</time></trkpt><trkpt lat="42.43967861824057" lon="12.715270161032361"><ele>903.0</ele><time>2026-04-12T10:33:44.001Z</time></trkpt><trkpt lat="42.43973487788728" lon="12.715345823730134"><ele>903.0</ele><time>2026-04-12T10:33:45.001Z</time></trkpt><trkpt lat="42.43978863546607" lon="12.715431347363772"><ele>903.0</ele><time>2026-04-12T10:33:46.001Z</time></trkpt><trkpt lat="42.439830217123344" lon="12.715514473666179"><ele>903.0</ele><time>2026-04-12T10:33:47.001Z</time></trkpt><trkpt lat="42.43987054595048" lon="12.715607392267998"><ele>903.8333333333334</ele><time>2026-04-12T10:33:48.001Z</time></trkpt><trkpt lat="42.43990349119475" lon="12.715685285637603"><ele>904.6666666666667</ele><time>2026-04-12T10:33:49.001Z</time></trkpt><trkpt lat="42.43995563526301" lon="12.71582384244008"><ele>905.5</ele><time>2026-04-12T10:33:51.001Z</time></trkpt><trkpt lat="42.43997104268265" lon="12.715982421798465"><ele>906.3333333333334</ele><time>2026-04-12T10:33:53.001Z</time></trkpt><trkpt lat="42.43997779544972" lon="12.716075093903497"><ele>907.1666666666667</ele><time>2026-04-12T10:33:54.001Z</time></trkpt><trkpt lat="42.439974841796385" lon="12.716176313699764"><ele>908.0</ele><time>2026-04-12T10:33:55.001Z</time></trkpt><trkpt lat="42.439946613200206" lon="12.716355030039399"><ele>908.6666666666667</ele><time>2026-04-12T10:33:57.001Z</time></trkpt><trkpt lat="42.43993344318095" lon="12.716441519932681"><ele>909.3333333333334</ele><time>2026-04-12T10:33:58.001Z</time></trkpt><trkpt lat="42.439902692649575" lon="12.71654149045202"><ele>910.0</ele><time>2026-04-12T10:33:59.001Z</time></trkpt><trkpt lat="42.43987093600115" lon="12.716636112996554"><ele>910.6666666666667</ele><time>2026-04-12T10:34:00.001Z</time></trkpt><trkpt lat="42.439843713335726" lon="12.716804467476324"><ele>911.3333333333334</ele><time>2026-04-12T10:34:02.001Z</time></trkpt><trkpt lat="42.43984081913933" lon="12.716917761414479"><ele>912.0</ele><time>2026-04-12T10:34:03.002Z</time></trkpt><trkpt lat="42.43984222894311" lon="12.717021228148432"><ele>912.8333333333334</ele><time>2026-04-12T10:34:04.002Z</time></trkpt><trkpt lat="42.43984775037728" lon="12.717119347484772"><ele>913.6666666666667</ele><time>2026-04-12T10:34:05.002Z</time></trkpt><trkpt lat="42.43983863086593" lon="12.717274861937872"><ele>914.5</ele><time>2026-04-12T10:34:07.002Z</time></trkpt><trkpt lat="42.43980873387664" lon="12.717357710555437"><ele>915.3333333333334</ele><time>2026-04-12T10:34:08.002Z</time></trkpt><trkpt lat="42.439820961113625" lon="12.717508403884452"><ele>916.1666666666667</ele><time>2026-04-12T10:34:10.002Z</time></trkpt><trkpt lat="42.43981683269681" lon="12.717595808869344"><ele>917.0</ele><time>2026-04-12T10:34:11.002Z</time></trkpt><trkpt lat="42.43977504359523" lon="12.717731214497176"><ele>919.5000000000001</ele><time>2026-04-12T10:34:13.002Z</time></trkpt><trkpt lat="42.43969418459658" lon="12.717861169058285"><ele>922.0</ele><time>2026-04-12T10:34:15.002Z</time></trkpt><trkpt lat="42.439642434417195" lon="12.717923010523126"><ele>924.5</ele><time>2026-04-12T10:34:16.002Z</time></trkpt><trkpt lat="42.439580495872605" lon="12.71799240503677"><ele>927.0</ele><time>2026-04-12T10:34:17.002Z</time></trkpt><trkpt lat="42.43951378729359" lon="12.718064357709437"><ele>929.5000000000001</ele><time>2026-04-12T10:34:18.002Z</time></trkpt><trkpt lat="42.43945418596154" lon="12.718133141525175"><ele>932.0</ele><time>2026-04-12T10:34:19.002Z</time></trkpt><trkpt lat="42.43938816662621" lon="12.718193022418191"><ele>932.3333333333334</ele><time>2026-04-12T10:34:20.002Z</time></trkpt><trkpt lat="42.439325307403095" lon="12.718244340647049"><ele>932.6666666666667</ele><time>2026-04-12T10:34:21.002Z</time></trkpt><trkpt lat="42.43926886421878" lon="12.718320909577308"><ele>933.0</ele><time>2026-04-12T10:34:22.002Z</time></trkpt><trkpt lat="42.439188535429935" lon="12.718372820234986"><ele>933.3333333333333</ele><time>2026-04-12T10:34:23.002Z</time></trkpt><trkpt lat="42.4391153309358" lon="12.71842684118811"><ele>933.6666666666666</ele><time>2026-04-12T10:34:24.002Z</time></trkpt><trkpt lat="42.43903147175592" lon="12.718478887547263"><ele>934.0</ele><time>2026-04-12T10:34:25.002Z</time></trkpt><trkpt lat="42.43894818422857" lon="12.718535740875563"><ele>935.9999999999999</ele><time>2026-04-12T10:34:26.002Z</time></trkpt><trkpt lat="42.43887447741224" lon="12.718590558081718"><ele>938.0</ele><time>2026-04-12T10:34:27Z</time></trkpt><trkpt lat="42.43879999601792" lon="12.718644265410733"><ele>940.0</ele><time>2026-04-12T10:34:28Z</time></trkpt><trkpt lat="42.43872928345341" lon="12.718688922070381"><ele>942.0</ele><time>2026-04-12T10:34:29Z</time></trkpt><trkpt lat="42.438668241013545" lon="12.718736236075445"><ele>943.9999999999999</ele><time>2026-04-12T10:34:30Z</time></trkpt><trkpt lat="42.43858572183873" lon="12.718859434252353"><ele>946.0</ele><time>2026-04-12T10:34:32Z</time></trkpt><trkpt lat="42.43854359062807" lon="12.718942866490243"><ele>946.0</ele><time>2026-04-12T10:34:33Z</time></trkpt><trkpt lat="42.43847761952216" lon="12.719049579412108"><ele>945.9999999999999</ele><time>2026-04-12T10:34:34Z</time></trkpt><trkpt lat="42.43842114001526" lon="12.719149796555893"><ele>945.9999999999999</ele><time>2026-04-12T10:34:35Z</time></trkpt><trkpt lat="42.43836880510041" lon="12.71924006997612"><ele>946.0</ele><time>2026-04-12T10:34:36Z</time></trkpt><trkpt lat="42.43832722982436" lon="12.719334345724567"><ele>946.0</ele><time>2026-04-12T10:34:37Z</time></trkpt><trkpt lat="42.43826966910146" lon="12.719436374635748"><ele>947.4999999999999</ele><time>2026-04-12T10:34:38Z</time></trkpt><trkpt lat="42.43820946650248" lon="12.719541404435521"><ele>949.0</ele><time>2026-04-12T10:34:39Z</time></trkpt><trkpt lat="42.43814896918392" lon="12.719635966297522"><ele>950.5</ele><time>2026-04-12T10:34:40Z</time></trkpt><trkpt lat="42.438095081568505" lon="12.719724248908904"><ele>952.0</ele><time>2026-04-12T10:34:41Z</time></trkpt><trkpt lat="42.43804923186083" lon="12.719826121798564"><ele>953.4999999999999</ele><time>2026-04-12T10:34:42Z</time></trkpt><trkpt lat="42.438031143114884" lon="12.719914114625139"><ele>955.0</ele><time>2026-04-12T10:34:43Z</time></trkpt><trkpt lat="42.43798460890841" lon="12.720014834208447"><ele>955.0</ele><time>2026-04-12T10:34:44Z</time></trkpt><trkpt lat="42.43792597283088" lon="12.720116721211301"><ele>955.0</ele><time>2026-04-12T10:34:45Z</time></trkpt><trkpt lat="42.43787811006042" lon="12.720231302620325"><ele>955.0</ele><time>2026-04-12T10:34:46Z</time></trkpt><trkpt lat="42.43781249890392" lon="12.72030418253749"><ele>955.0</ele><time>2026-04-12T10:34:47Z</time></trkpt><trkpt lat="42.43773492527703" lon="12.720368013724048"><ele>955.0</ele><time>2026-04-12T10:34:48Z</time></trkpt><trkpt lat="42.4376607355117" lon="12.720420943774716"><ele>955.0</ele><time>2026-04-12T10:34:49Z</time></trkpt><trkpt lat="42.437578586620546" lon="12.720465606245366"><ele>955.0</ele><time>2026-04-12T10:34:50Z</time></trkpt><trkpt lat="42.43747844895175" lon="12.720511645180936"><ele>955.0</ele><time>2026-04-12T10:34:51Z</time></trkpt><trkpt lat="42.43738865098019" lon="12.720563645302917"><ele>955.0</ele><time>2026-04-12T10:34:52Z</time></trkpt><trkpt lat="42.43729937876484" lon="12.720613863802086"><ele>955.0</ele><time>2026-04-12T10:34:53Z</time></trkpt><trkpt lat="42.43722230938604" lon="12.720673539373902"><ele>955.0</ele><time>2026-04-12T10:34:54Z</time></trkpt><trkpt lat="42.43714997052955" lon="12.720748334273061"><ele>955.0</ele><time>2026-04-12T10:34:55Z</time></trkpt><trkpt lat="42.43707710486523" lon="12.720806049395499"><ele>955.0</ele><time>2026-04-12T10:34:56Z</time></trkpt><trkpt lat="42.4369788710792" lon="12.720879992496744"><ele>955.0</ele><time>2026-04-12T10:34:57Z</time></trkpt><trkpt lat="42.436858071180886" lon="12.720942961207149"><ele>955.0</ele><time>2026-04-12T10:34:58Z</time></trkpt><trkpt lat="42.43674808056684" lon="12.720997560576318"><ele>955.2</ele><time>2026-04-12T10:34:59Z</time></trkpt><trkpt lat="42.436646577585186" lon="12.721051077831474"><ele>955.4</ele><time>2026-04-12T10:35:00Z</time></trkpt><trkpt lat="42.4365548754033" lon="12.721103618876487"><ele>955.5999999999999</ele><time>2026-04-12T10:35:01Z</time></trkpt><trkpt lat="42.43645854689735" lon="12.72113162329921"><ele>955.8</ele><time>2026-04-12T10:35:02Z</time></trkpt><trkpt lat="42.43637141895399" lon="12.7211467073773"><ele>956.0</ele><time>2026-04-12T10:35:03Z</time></trkpt><trkpt lat="42.43627556877064" lon="12.7211646675471"><ele>955.5999999999999</ele><time>2026-04-12T10:35:04Z</time></trkpt><trkpt lat="42.436179706013974" lon="12.72118966591758"><ele>955.1999999999999</ele><time>2026-04-12T10:35:05Z</time></trkpt><trkpt lat="42.436083146378515" lon="12.721219685270112"><ele>954.8000000000001</ele><time>2026-04-12T10:35:06Z</time></trkpt><trkpt lat="42.435994630824254" lon="12.721261909911588"><ele>954.4000000000001</ele><time>2026-04-12T10:35:07Z</time></trkpt><trkpt lat="42.43591665598078" lon="12.721311474356739"><ele>954.0</ele><time>2026-04-12T10:35:08Z</time></trkpt><trkpt lat="42.43584175897337" lon="12.721357711146242"><ele>954.0</ele><time>2026-04-12T10:35:09Z</time></trkpt><trkpt lat="42.43575431673336" lon="12.721395130157306"><ele>954.0</ele><time>2026-04-12T10:35:10Z</time></trkpt><trkpt lat="42.43567677706947" lon="12.721412826767601"><ele>954.0</ele><time>2026-04-12T10:35:11Z</time></trkpt><trkpt lat="42.43559268848443" lon="12.721399794864622"><ele>954.0</ele><time>2026-04-12T10:35:12Z</time></trkpt><trkpt lat="42.43551592358731" lon="12.721396699270743"><ele>954.0</ele><time>2026-04-12T10:35:13Z</time></trkpt><trkpt lat="42.4354371316552" lon="12.72139380610701"><ele>954.0</ele><time>2026-04-12T10:35:14Z</time></trkpt><trkpt lat="42.435362465977775" lon="12.721376249442557"><ele>954.3333333333334</ele><time>2026-04-12T10:35:15Z</time></trkpt><trkpt lat="42.435299254646296" lon="12.721344086962334"><ele>954.6666666666667</ele><time>2026-04-12T10:35:16.001Z</time></trkpt><trkpt lat="42.435206579367815" lon="12.721310472612311"><ele>955.0</ele><time>2026-04-12T10:35:17.001Z</time></trkpt><trkpt lat="42.43512358683514" lon="12.72125754309104"><ele>955.3333333333334</ele><time>2026-04-12T10:35:18.001Z</time></trkpt><trkpt lat="42.43504692298038" lon="12.721209321660641"><ele>955.6666666666667</ele><time>2026-04-12T10:35:19.001Z</time></trkpt><trkpt lat="42.43498298681284" lon="12.721150057634143"><ele>956.0</ele><time>2026-04-12T10:35:20.001Z</time></trkpt><trkpt lat="42.43493220720209" lon="12.72107963594866"><ele>957.1666666666667</ele><time>2026-04-12T10:35:21.001Z</time></trkpt><trkpt lat="42.43486896883998" lon="12.720999134607187"><ele>958.3333333333334</ele><time>2026-04-12T10:35:22.001Z</time></trkpt><trkpt lat="42.43480161085639" lon="12.720914753142674"><ele>959.5</ele><time>2026-04-12T10:35:23.001Z</time></trkpt><trkpt lat="42.43474388049002" lon="12.720839304294339"><ele>960.6666666666667</ele><time>2026-04-12T10:35:24.001Z</time></trkpt><trkpt lat="42.43469611760447" lon="12.720770309000612"><ele>961.8333333333334</ele><time>2026-04-12T10:35:25.001Z</time></trkpt><trkpt lat="42.434636148189334" lon="12.720699019079023"><ele>963.0</ele><time>2026-04-12T10:35:26.001Z</time></trkpt><trkpt lat="42.43457100854053" lon="12.720600881056889"><ele>964.3333333333334</ele><time>2026-04-12T10:35:27.001Z</time></trkpt><trkpt lat="42.43450520351553" lon="12.720516005779295"><ele>965.6666666666667</ele><time>2026-04-12T10:35:28.001Z</time></trkpt><trkpt lat="42.43446816338493" lon="12.720419199363876"><ele>967.0</ele><time>2026-04-12T10:35:29.001Z</time></trkpt><trkpt lat="42.43441887486003" lon="12.720331019333345"><ele>968.3333333333334</ele><time>2026-04-12T10:35:30.001Z</time></trkpt><trkpt lat="42.43437507505813" lon="12.720249873530594"><ele>969.6666666666667</ele><time>2026-04-12T10:35:31.001Z</time></trkpt><trkpt lat="42.434311551679876" lon="12.720169190323329"><ele>971.0</ele><time>2026-04-12T10:35:32.001Z</time></trkpt><trkpt lat="42.43424522891557" lon="12.720079980641927"><ele>971.6666666666667</ele><time>2026-04-12T10:35:33.001Z</time></trkpt><trkpt lat="42.43418062997119" lon="12.720004293546538"><ele>972.3333333333334</ele><time>2026-04-12T10:35:34.001Z</time></trkpt><trkpt lat="42.43414067896908" lon="12.719931297726262"><ele>973.0</ele><time>2026-04-12T10:35:35.001Z</time></trkpt><trkpt lat="42.43409235102709" lon="12.719852784252701"><ele>973.6666666666667</ele><time>2026-04-12T10:35:36.001Z</time></trkpt><trkpt lat="42.434089513855305" lon="12.719736907793525"><ele>974.3333333333334</ele><time>2026-04-12T10:35:37.001Z</time></trkpt><trkpt lat="42.434032108970456" lon="12.719661586437754"><ele>975.0</ele><time>2026-04-12T10:35:38.001Z</time></trkpt><trkpt lat="42.43397958132573" lon="12.719608582745357"><ele>975.0</ele><time>2026-04-12T10:35:39.001Z</time></trkpt><trkpt lat="42.43391526887011" lon="12.719554200700628"><ele>975.0</ele><time>2026-04-12T10:35:40.001Z</time></trkpt><trkpt lat="42.433856619817256" lon="12.719484945767157"><ele>975.0</ele><time>2026-04-12T10:35:41.001Z</time></trkpt><trkpt lat="42.43380508774434" lon="12.719408257930645"><ele>975.0</ele><time>2026-04-12T10:35:42.001Z</time></trkpt><trkpt lat="42.4337478670489" lon="12.719306937487511"><ele>975.0</ele><time>2026-04-12T10:35:43.001Z</time></trkpt><trkpt lat="42.43369188646846" lon="12.719198480104334"><ele>975.0</ele><time>2026-04-12T10:35:44.001Z</time></trkpt><trkpt lat="42.43363230336775" lon="12.719092932952464"><ele>977.8333333333334</ele><time>2026-04-12T10:35:45.001Z</time></trkpt><trkpt lat="42.43358748812775" lon="12.718962958452146"><ele>980.6666666666667</ele><time>2026-04-12T10:35:46.001Z</time></trkpt><trkpt lat="42.43355565806078" lon="12.718853173558552"><ele>983.5</ele><time>2026-04-12T10:35:47.001Z</time></trkpt><trkpt lat="42.433515331390666" lon="12.718775288087711"><ele>986.3333333333334</ele><time>2026-04-12T10:35:48.001Z</time></trkpt><trkpt lat="42.433475826664015" lon="12.718692722243395"><ele>989.1666666666667</ele><time>2026-04-12T10:35:49.001Z</time></trkpt><trkpt lat="42.433425575578035" lon="12.718600760928078"><ele>992.0</ele><time>2026-04-12T10:35:50.001Z</time></trkpt><trkpt lat="42.433349248555025" lon="12.718532911728671"><ele>993.6</ele><time>2026-04-12T10:35:51.001Z</time></trkpt><trkpt lat="42.43329208701434" lon="12.718451685499726"><ele>995.2</ele><time>2026-04-12T10:35:52.001Z</time></trkpt><trkpt lat="42.433237561061674" lon="12.718349611495452"><ele>996.8</ele><time>2026-04-12T10:35:53.001Z</time></trkpt><trkpt lat="42.433156120069235" lon="12.718224820794727"><ele>998.4</ele><time>2026-04-12T10:35:54.001Z</time></trkpt><trkpt lat="42.43307123602266" lon="12.71813615033111"><ele>1000.0</ele><time>2026-04-12T10:35:55.001Z</time></trkpt><trkpt lat="42.433017068927846" lon="12.718043279567944"><ele>1001.8333333333333</ele><time>2026-04-12T10:35:56.001Z</time></trkpt><trkpt lat="42.43296506428028" lon="12.71793348438309"><ele>1003.6666666666666</ele><time>2026-04-12T10:35:57.001Z</time></trkpt><trkpt lat="42.432909122124414" lon="12.717853735377501"><ele>1005.5</ele><time>2026-04-12T10:35:58.001Z</time></trkpt><trkpt lat="42.43285299570132" lon="12.717774856992039"><ele>1007.3333333333333</ele><time>2026-04-12T10:35:59.001Z</time></trkpt><trkpt lat="42.43281068680924" lon="12.717673808901441"><ele>1009.1666666666666</ele><time>2026-04-12T10:36:00.001Z</time></trkpt><trkpt lat="42.43277470299753" lon="12.717567631567992"><ele>1011.0</ele><time>2026-04-12T10:36:01.001Z</time></trkpt><trkpt lat="42.432733523587885" lon="12.71746926586159"><ele>1011.0</ele><time>2026-04-12T10:36:02.001Z</time></trkpt><trkpt lat="42.4326921362093" lon="12.71739522503646"><ele>1011.0</ele><time>2026-04-12T10:36:03.001Z</time></trkpt><trkpt lat="42.43264496585638" lon="12.717332622329446"><ele>1011.0</ele><time>2026-04-12T10:36:04.001Z</time></trkpt><trkpt lat="42.432573592607696" lon="12.717250079033075"><ele>1011.0</ele><time>2026-04-12T10:36:05.001Z</time></trkpt><trkpt lat="42.432493535963964" lon="12.717171197841896"><ele>1011.0</ele><time>2026-04-12T10:36:06.001Z</time></trkpt><trkpt lat="42.43241021536639" lon="12.717104364894677"><ele>1011.0</ele><time>2026-04-12T10:36:07.001Z</time></trkpt><trkpt lat="42.432329172031004" lon="12.717037018685742"><ele>1011.0</ele><time>2026-04-12T10:36:08.001Z</time></trkpt><trkpt lat="42.43224370620863" lon="12.716964994488345"><ele>1010.9999999999999</ele><time>2026-04-12T10:36:09.001Z</time></trkpt><trkpt lat="42.43218686699019" lon="12.71686952921655"><ele>1010.9999999999999</ele><time>2026-04-12T10:36:10.001Z</time></trkpt><trkpt lat="42.43211927820835" lon="12.716773084099712"><ele>1011.0</ele><time>2026-04-12T10:36:11.001Z</time></trkpt><trkpt lat="42.43205432372012" lon="12.716682695904636"><ele>1011.0</ele><time>2026-04-12T10:36:12.001Z</time></trkpt><trkpt lat="42.4319770582919" lon="12.716604325790332"><ele>1011.7142857142856</ele><time>2026-04-12T10:36:13.001Z</time></trkpt><trkpt lat="42.4319198428265" lon="12.716533237402212"><ele>1012.4285714285713</ele><time>2026-04-12T10:36:14.001Z</time></trkpt><trkpt lat="42.43185002820091" lon="12.716472945010532"><ele>1013.1428571428571</ele><time>2026-04-12T10:36:16.001Z</time></trkpt><trkpt lat="42.43178956381952" lon="12.71650096037539"><ele>1013.8571428571428</ele><time>2026-04-12T10:36:19.001Z</time></trkpt><trkpt lat="42.43172536472323" lon="12.716516719212853"><ele>1014.5714285714284</ele><time>2026-04-12T10:36:20.002Z</time></trkpt><trkpt lat="42.43165222181302" lon="12.716535877269605"><ele>1015.2857142857143</ele><time>2026-04-12T10:36:21.002Z</time></trkpt><trkpt lat="42.43157149803737" lon="12.716516586209996"><ele>1016.0</ele><time>2026-04-12T10:36:22.002Z</time></trkpt><trkpt lat="42.43149381094146" lon="12.716508663554135"><ele>1016.0000000000001</ele><time>2026-04-12T10:36:23.002Z</time></trkpt><trkpt lat="42.431419401824144" lon="12.716505831717567"><ele>1016.0</ele><time>2026-04-12T10:36:24.002Z</time></trkpt><trkpt lat="42.43135235604499" lon="12.716497292203645"><ele>1016.0</ele><time>2026-04-12T10:36:25.002Z</time></trkpt><trkpt lat="42.431282365783375" lon="12.716512196706374"><ele>1016.0</ele><time>2026-04-12T10:36:26.002Z</time></trkpt><trkpt lat="42.431197883155306" lon="12.716555981411664"><ele>1016.0000000000001</ele><time>2026-04-12T10:36:27.002Z</time></trkpt><trkpt lat="42.43112357404543" lon="12.716596225112495"><ele>1016.0</ele><time>2026-04-12T10:36:28.002Z</time></trkpt><trkpt lat="42.43105183549385" lon="12.71663292148526"><ele>1015.8333333333334</ele><time>2026-04-12T10:36:29.002Z</time></trkpt><trkpt lat="42.4309909873903" lon="12.716677843320179"><ele>1015.6666666666667</ele><time>2026-04-12T10:36:30.002Z</time></trkpt><trkpt lat="42.43091804594649" lon="12.716728517621755"><ele>1015.5</ele><time>2026-04-12T10:36:31.002Z</time></trkpt><trkpt lat="42.43083807279318" lon="12.716776963004051"><ele>1015.3333333333333</ele><time>2026-04-12T10:36:32.002Z</time></trkpt><trkpt lat="42.430759661116326" lon="12.716817466686269"><ele>1015.1666666666666</ele><time>2026-04-12T10:36:33Z</time></trkpt><trkpt lat="42.43067382402013" lon="12.716862275537876"><ele>1015.0</ele><time>2026-04-12T10:36:34Z</time></trkpt><trkpt lat="42.43058500044561" lon="12.716892545275346"><ele>1015.0</ele><time>2026-04-12T10:36:35Z</time></trkpt><trkpt lat="42.43048942165857" lon="12.716900274250083"><ele>1015.0</ele><time>2026-04-12T10:36:36Z</time></trkpt><trkpt lat="42.43039458184249" lon="12.71690295028572"><ele>1015.0</ele><time>2026-04-12T10:36:37Z</time></trkpt><trkpt lat="42.43029885307034" lon="12.71687299631381"><ele>1015.0</ele><time>2026-04-12T10:36:38Z</time></trkpt><trkpt lat="42.4302262953811" lon="12.716850706293545"><ele>1015.0</ele><time>2026-04-12T10:36:39Z</time></trkpt><trkpt lat="42.43014325790595" lon="12.716891277863713"><ele>1015.6</ele><time>2026-04-12T10:36:41Z</time></trkpt><trkpt lat="42.430056545182296" lon="12.717040427994794"><ele>1016.2</ele><time>2026-04-12T10:36:43Z</time></trkpt><trkpt lat="42.42999145982107" lon="12.717134248011279"><ele>1016.8</ele><time>2026-04-12T10:36:44Z</time></trkpt><trkpt lat="42.429922921902566" lon="12.717214062172078"><ele>1017.4</ele><time>2026-04-12T10:36:45Z</time></trkpt><trkpt lat="42.42985742676246" lon="12.717297473556082"><ele>1018.0</ele><time>2026-04-12T10:36:46Z</time></trkpt><trkpt lat="42.429807212561926" lon="12.717381248271963"><ele>1018.0</ele><time>2026-04-12T10:36:47Z</time></trkpt><trkpt lat="42.42976256095833" lon="12.717487108233977"><ele>1018.0</ele><time>2026-04-12T10:36:48Z</time></trkpt><trkpt lat="42.42971116351972" lon="12.717604617018198"><ele>1018.0</ele><time>2026-04-12T10:36:49Z</time></trkpt><trkpt lat="42.42966576949606" lon="12.717727361791468"><ele>1018.0</ele><time>2026-04-12T10:36:50Z</time></trkpt><trkpt lat="42.429634575371686" lon="12.71783450484656"><ele>1018.0</ele><time>2026-04-12T10:36:51Z</time></trkpt><trkpt lat="42.429577997249446" lon="12.71796075370992"><ele>1016.6666666666666</ele><time>2026-04-12T10:36:53Z</time></trkpt><trkpt lat="42.42952768127541" lon="12.718032225486171"><ele>1015.3333333333333</ele><time>2026-04-12T10:36:54Z</time></trkpt><trkpt lat="42.42947359503769" lon="12.718083499264479"><ele>1014.0</ele><time>2026-04-12T10:36:55Z</time></trkpt><trkpt lat="42.429421880842185" lon="12.7181486381616"><ele>1012.6666666666667</ele><time>2026-04-12T10:36:56Z</time></trkpt><trkpt lat="42.42936904882197" lon="12.718225002760297"><ele>1011.3333333333334</ele><time>2026-04-12T10:36:57Z</time></trkpt><trkpt lat="42.42932646378971" lon="12.718313359405666"><ele>1010.0</ele><time>2026-04-12T10:36:58Z</time></trkpt><trkpt lat="42.42927859274724" lon="12.718409126066671"><ele>1010.0000000000001</ele><time>2026-04-12T10:36:59Z</time></trkpt><trkpt lat="42.429236214680856" lon="12.718496798051872"><ele>1010.0</ele><time>2026-04-12T10:37:00Z</time></trkpt><trkpt lat="42.429147230547464" lon="12.71861893729271"><ele>1010.0</ele><time>2026-04-12T10:37:02Z</time></trkpt><trkpt lat="42.429088846487105" lon="12.718697892861828"><ele>1010.0</ele><time>2026-04-12T10:37:03Z</time></trkpt><trkpt lat="42.42903375429367" lon="12.718777944165875"><ele>1010.0000000000001</ele><time>2026-04-12T10:37:04Z</time></trkpt><trkpt lat="42.428986210794264" lon="12.718848573910096"><ele>1010.0</ele><time>2026-04-12T10:37:05Z</time></trkpt><trkpt lat="42.42893500537711" lon="12.718919462961116"><ele>1009.4285714285713</ele><time>2026-04-12T10:37:06Z</time></trkpt><trkpt lat="42.4288834095843" lon="12.718979651746068"><ele>1008.8571428571428</ele><time>2026-04-12T10:37:07Z</time></trkpt><trkpt lat="42.42883833096412" lon="12.719049580644448"><ele>1008.2857142857142</ele><time>2026-04-12T10:37:08Z</time></trkpt><trkpt lat="42.42878389352868" lon="12.719128964035658"><ele>1007.7142857142858</ele><time>2026-04-12T10:37:09Z</time></trkpt><trkpt lat="42.42872383263091" lon="12.71919239248281"><ele>1007.1428571428572</ele><time>2026-04-12T10:37:10Z</time></trkpt><trkpt lat="42.428664316482376" lon="12.719246928887895"><ele>1006.5714285714287</ele><time>2026-04-12T10:37:11Z</time></trkpt><trkpt lat="42.42861598920294" lon="12.719306711137417"><ele>1006.0</ele><time>2026-04-12T10:37:12Z</time></trkpt><trkpt lat="42.42855461564229" lon="12.719367779873519"><ele>1001.8333333333333</ele><time>2026-04-12T10:37:13Z</time></trkpt><trkpt lat="42.42850178066533" lon="12.719446333384633"><ele>997.6666666666666</ele><time>2026-04-12T10:37:14Z</time></trkpt><trkpt lat="42.42845133357626" lon="12.7195222016873"><ele>993.5</ele><time>2026-04-12T10:37:15Z</time></trkpt><trkpt lat="42.42840399110355" lon="12.719589008059389"><ele>989.3333333333333</ele><time>2026-04-12T10:37:16Z</time></trkpt><trkpt lat="42.42835370989574" lon="12.719678576680423"><ele>985.1666666666666</ele><time>2026-04-12T10:37:17Z</time></trkpt><trkpt lat="42.42830754817199" lon="12.719770810573515"><ele>981.0</ele><time>2026-04-12T10:37:18Z</time></trkpt><trkpt lat="42.42825608052643" lon="12.719866598456502"><ele>981.0</ele><time>2026-04-12T10:37:19.001Z</time></trkpt><trkpt lat="42.428218264448326" lon="12.719960963458236"><ele>981.0</ele><time>2026-04-12T10:37:20.001Z</time></trkpt><trkpt lat="42.42817931553806" lon="12.72005303965022"><ele>981.0</ele><time>2026-04-12T10:37:21.001Z</time></trkpt><trkpt lat="42.4281337442718" lon="12.720143616044"><ele>981.0</ele><time>2026-04-12T10:37:22.001Z</time></trkpt><trkpt lat="42.42808502850718" lon="12.720220189455658"><ele>981.0</ele><time>2026-04-12T10:37:23.001Z</time></trkpt><trkpt lat="42.42801882591457" lon="12.720291165543333"><ele>981.0</ele><time>2026-04-12T10:37:24.001Z</time></trkpt><trkpt lat="42.42794587972968" lon="12.720357338310741"><ele>981.0</ele><time>2026-04-12T10:37:25.001Z</time></trkpt><trkpt lat="42.42785531662524" lon="12.720434003262207"><ele>980.9999999999999</ele><time>2026-04-12T10:37:26.001Z</time></trkpt><trkpt lat="42.42775919214092" lon="12.720511328989787"><ele>980.9999999999999</ele><time>2026-04-12T10:37:27.001Z</time></trkpt><trkpt lat="42.42766985966273" lon="12.720582482228371"><ele>981.0</ele><time>2026-04-12T10:37:28.001Z</time></trkpt><trkpt lat="42.42758297154831" lon="12.72065312878505"><ele>981.0</ele><time>2026-04-12T10:37:29.001Z</time></trkpt><trkpt lat="42.42749625782329" lon="12.72072553701511"><ele>981.0</ele><time>2026-04-12T10:37:30.001Z</time></trkpt><trkpt lat="42.42740985319315" lon="12.720801794975229"><ele>980.9999999999999</ele><time>2026-04-12T10:37:31.001Z</time></trkpt><trkpt lat="42.427318950702805" lon="12.720880890832461"><ele>980.9999999999999</ele><time>2026-04-12T10:37:32.001Z</time></trkpt><trkpt lat="42.427233699279206" lon="12.72095420487236"><ele>981.0</ele><time>2026-04-12T10:37:33.001Z</time></trkpt><trkpt lat="42.427153066321814" lon="12.721019549114377"><ele>981.0</ele><time>2026-04-12T10:37:34.001Z</time></trkpt><trkpt lat="42.427081741026655" lon="12.721086768562987"><ele>981.5</ele><time>2026-04-12T10:37:35.001Z</time></trkpt><trkpt lat="42.42701902424837" lon="12.72114453005814"><ele>982.0</ele><time>2026-04-12T10:37:36.001Z</time></trkpt><trkpt lat="42.42691676969526" lon="12.721207812297296"><ele>982.5</ele><time>2026-04-12T10:37:38.001Z</time></trkpt><trkpt lat="42.42684345749398" lon="12.721131291941944"><ele>983.0</ele><time>2026-04-12T10:37:40.001Z</time></trkpt><trkpt lat="42.42680000775844" lon="12.721063158831411"><ele>983.5</ele><time>2026-04-12T10:37:41.001Z</time></trkpt><trkpt lat="42.426753307031326" lon="12.720996022008965"><ele>984.0</ele><time>2026-04-12T10:37:42.001Z</time></trkpt><trkpt lat="42.42670600035768" lon="12.720920300620614"><ele>984.0</ele><time>2026-04-12T10:37:43.001Z</time></trkpt><trkpt lat="42.42665843654977" lon="12.720819222511377"><ele>984.0</ele><time>2026-04-12T10:37:44.001Z</time></trkpt><trkpt lat="42.42661069860652" lon="12.720754507145998"><ele>984.0</ele><time>2026-04-12T10:37:45.001Z</time></trkpt><trkpt lat="42.42659569451291" lon="12.720604890788872"><ele>984.0</ele><time>2026-04-12T10:37:47.001Z</time></trkpt><trkpt lat="42.426613037519765" lon="12.720496430325905"><ele>984.0</ele><time>2026-04-12T10:37:48.001Z</time></trkpt><trkpt lat="42.42661907197478" lon="12.720377621135947"><ele>984.0</ele><time>2026-04-12T10:37:49.001Z</time></trkpt><trkpt lat="42.426612865855795" lon="12.720272357124792"><ele>985.2</ele><time>2026-04-12T10:37:50.001Z</time></trkpt><trkpt lat="42.42658780176509" lon="12.720186808653631"><ele>986.4000000000001</ele><time>2026-04-12T10:37:51.001Z</time></trkpt><trkpt lat="42.426517906872235" lon="12.720056560947148"><ele>987.6</ele><time>2026-04-12T10:37:53.001Z</time></trkpt><trkpt lat="42.42640625053361" lon="12.719968787720891"><ele>988.8</ele><time>2026-04-12T10:37:55.001Z</time></trkpt><trkpt lat="42.42628935083868" lon="12.719942149863437"><ele>990.0</ele><time>2026-04-12T10:37:57.001Z</time></trkpt><trkpt lat="42.4262116840697" lon="12.71994917375465"><ele>990.0</ele><time>2026-04-12T10:37:58.001Z</time></trkpt><trkpt lat="42.426136965786725" lon="12.7199307760966"><ele>990.0</ele><time>2026-04-12T10:37:59.001Z</time></trkpt><trkpt lat="42.42607749954919" lon="12.719882756612451"><ele>990.0</ele><time>2026-04-12T10:38:00.001Z</time></trkpt><trkpt lat="42.42603372224532" lon="12.71982097823645"><ele>990.0</ele><time>2026-04-12T10:38:01.001Z</time></trkpt><trkpt lat="42.426008497043824" lon="12.719724860645034"><ele>990.0</ele><time>2026-04-12T10:38:02.001Z</time></trkpt><trkpt lat="42.425976856926646" lon="12.719584417958627"><ele>990.0</ele><time>2026-04-12T10:38:03.001Z</time></trkpt><trkpt lat="42.425944845073474" lon="12.719428336196312"><ele>988.1666666666666</ele><time>2026-04-12T10:38:04.001Z</time></trkpt><trkpt lat="42.425915408091846" lon="12.719296794310978"><ele>986.3333333333333</ele><time>2026-04-12T10:38:05.001Z</time></trkpt><trkpt lat="42.42587325755117" lon="12.719179612262103"><ele>984.5</ele><time>2026-04-12T10:38:06.001Z</time></trkpt><trkpt lat="42.42583195297835" lon="12.719094055469563"><ele>982.6666666666666</ele><time>2026-04-12T10:38:07.001Z</time></trkpt><trkpt lat="42.4257846859535" lon="12.719010329058058"><ele>980.8333333333333</ele><time>2026-04-12T10:38:08.001Z</time></trkpt><trkpt lat="42.42573707868954" lon="12.718922735765814"><ele>979.0</ele><time>2026-04-12T10:38:09.001Z</time></trkpt><trkpt lat="42.42568505782233" lon="12.718860541842059"><ele>979.0</ele><time>2026-04-12T10:38:10.001Z</time></trkpt><trkpt lat="42.425610700267676" lon="12.718806991279028"><ele>979.0000000000001</ele><time>2026-04-12T10:38:11.001Z</time></trkpt><trkpt lat="42.42550897449186" lon="12.718742840530487"><ele>979.0000000000001</ele><time>2026-04-12T10:38:12.001Z</time></trkpt><trkpt lat="42.42542706361599" lon="12.71865286317178"><ele>979.0</ele><time>2026-04-12T10:38:13.001Z</time></trkpt><trkpt lat="42.42532784970424" lon="12.718582714589765"><ele>979.0</ele><time>2026-04-12T10:38:14.001Z</time></trkpt><trkpt lat="42.42520205649335" lon="12.718528221334353"><ele>978.8000000000001</ele><time>2026-04-12T10:38:15.001Z</time></trkpt><trkpt lat="42.42509918714009" lon="12.71847405042423"><ele>978.6000000000001</ele><time>2026-04-12T10:38:16.001Z</time></trkpt><trkpt lat="42.42500676205782" lon="12.718401467731708"><ele>978.4</ele><time>2026-04-12T10:38:17.001Z</time></trkpt><trkpt lat="42.424925402080355" lon="12.718335148973338"><ele>978.2</ele><time>2026-04-12T10:38:18.002Z</time></trkpt><trkpt lat="42.424836598924266" lon="12.718270344916299"><ele>978.0</ele><time>2026-04-12T10:38:19.002Z</time></trkpt><trkpt lat="42.42475258829159" lon="12.71819436264209"><ele>978.0</ele><time>2026-04-12T10:38:20.002Z</time></trkpt><trkpt lat="42.42465603804243" lon="12.718129831396666"><ele>978.0</ele><time>2026-04-12T10:38:21.002Z</time></trkpt><trkpt lat="42.42454756423343" lon="12.71806546296363"><ele>978.0</ele><time>2026-04-12T10:38:22.002Z</time></trkpt><trkpt lat="42.42445881455566" lon="12.717967842385354"><ele>978.0</ele><time>2026-04-12T10:38:23.002Z</time></trkpt><trkpt lat="42.424370753515845" lon="12.717874542613648"><ele>977.0</ele><time>2026-04-12T10:38:24.002Z</time></trkpt><trkpt lat="42.42429475176331" lon="12.71777029632842"><ele>976.0</ele><time>2026-04-12T10:38:25.002Z</time></trkpt><trkpt lat="42.424231717152594" lon="12.717690421315131"><ele>975.0</ele><time>2026-04-12T10:38:26.002Z</time></trkpt><trkpt lat="42.42415216546747" lon="12.717584753571957"><ele>974.0</ele><time>2026-04-12T10:38:28.002Z</time></trkpt><trkpt lat="42.42403242053673" lon="12.71755796758526"><ele>973.0</ele><time>2026-04-12T10:38:30.002Z</time></trkpt><trkpt lat="42.42395688679196" lon="12.71755331690551"><ele>972.9999999999999</ele><time>2026-04-12T10:38:31.002Z</time></trkpt><trkpt lat="42.42389241631818" lon="12.717565745199117"><ele>973.0</ele><time>2026-04-12T10:38:32.002Z</time></trkpt><trkpt lat="42.42379943783313" lon="12.717655570831802"><ele>973.0</ele><time>2026-04-12T10:38:34.002Z</time></trkpt><trkpt lat="42.42370164622498" lon="12.71769637825226"><ele>973.0</ele><time>2026-04-12T10:38:36.002Z</time></trkpt><trkpt lat="42.42364036214737" lon="12.717645394476671"><ele>972.9999999999999</ele><time>2026-04-12T10:38:37.002Z</time></trkpt><trkpt lat="42.423593612273166" lon="12.717570271979074"><ele>973.0</ele><time>2026-04-12T10:38:38.002Z</time></trkpt><trkpt lat="42.42354341025566" lon="12.717491519044687"><ele>975.2</ele><time>2026-04-12T10:38:39Z</time></trkpt><trkpt lat="42.42347530662531" lon="12.717424707491778"><ele>977.4</ele><time>2026-04-12T10:38:40Z</time></trkpt><trkpt lat="42.42339357924437" lon="12.717369513941252"><ele>979.6000000000001</ele><time>2026-04-12T10:38:41Z</time></trkpt><trkpt lat="42.42330865037579" lon="12.717334244109182"><ele>981.8000000000001</ele><time>2026-04-12T10:38:42Z</time></trkpt><trkpt lat="42.4232005441175" lon="12.717305147187394"><ele>984.0</ele><time>2026-04-12T10:38:43Z</time></trkpt><trkpt lat="42.423089762065224" lon="12.71727453938175"><ele>984.0</ele><time>2026-04-12T10:38:44Z</time></trkpt><trkpt lat="42.42298577555446" lon="12.717249202610619"><ele>984.0000000000001</ele><time>2026-04-12T10:38:45Z</time></trkpt><trkpt lat="42.42290356227927" lon="12.71722456525086"><ele>984.0000000000001</ele><time>2026-04-12T10:38:46Z</time></trkpt><trkpt lat="42.42281833369425" lon="12.717188211148143"><ele>984.0</ele><time>2026-04-12T10:38:47Z</time></trkpt><trkpt lat="42.422723650008955" lon="12.717135300214283"><ele>984.0</ele><time>2026-04-12T10:38:48Z</time></trkpt><trkpt lat="42.422629641806175" lon="12.717083093582234"><ele>987.1666666666666</ele><time>2026-04-12T10:38:49Z</time></trkpt><trkpt lat="42.42254029631738" lon="12.717040013666452"><ele>990.3333333333333</ele><time>2026-04-12T10:38:50Z</time></trkpt><trkpt lat="42.422463261033144" lon="12.716991331234212"><ele>993.5</ele><time>2026-04-12T10:38:51Z</time></trkpt><trkpt lat="42.42238678202841" lon="12.71697024178895"><ele>996.6666666666666</ele><time>2026-04-12T10:38:52Z</time></trkpt><trkpt lat="42.422311548639605" lon="12.716970686096412"><ele>999.8333333333333</ele><time>2026-04-12T10:38:53Z</time></trkpt><trkpt lat="42.422242978560256" lon="12.71698359768021"><ele>1003.0</ele><time>2026-04-12T10:38:54Z</time></trkpt><trkpt lat="42.42217757446119" lon="12.71701532550484"><ele>1004.4</ele><time>2026-04-12T10:38:55Z</time></trkpt><trkpt lat="42.422097895670994" lon="12.717044531886323"><ele>1005.8</ele><time>2026-04-12T10:38:56Z</time></trkpt><trkpt lat="42.42201226263705" lon="12.717074901673842"><ele>1007.2</ele><time>2026-04-12T10:38:57Z</time></trkpt><trkpt lat="42.4219098749015" lon="12.71708832108302"><ele>1008.6</ele><time>2026-04-12T10:38:58Z</time></trkpt><trkpt lat="42.42180196698004" lon="12.717094543427102"><ele>1010.0</ele><time>2026-04-12T10:38:59Z</time></trkpt><trkpt lat="42.421705107637536" lon="12.717095002320287"><ele>1010.0</ele><time>2026-04-12T10:39:00Z</time></trkpt><trkpt lat="42.42159502806919" lon="12.717086749009631"><ele>1010.0</ele><time>2026-04-12T10:39:01Z</time></trkpt><trkpt lat="42.42149321756044" lon="12.717071542022413"><ele>1010.0</ele><time>2026-04-12T10:39:02Z</time></trkpt><trkpt lat="42.42140664813168" lon="12.717055665239121"><ele>1010.0</ele><time>2026-04-12T10:39:03Z</time></trkpt><trkpt lat="42.42132996119865" lon="12.717031706510186"><ele>1010.0</ele><time>2026-04-12T10:39:04Z</time></trkpt><trkpt lat="42.421255023547666" lon="12.716984212323103"><ele>1009.1666666666667</ele><time>2026-04-12T10:39:05Z</time></trkpt><trkpt lat="42.421190930235554" lon="12.716932590340912"><ele>1008.3333333333334</ele><time>2026-04-12T10:39:06Z</time></trkpt><trkpt lat="42.421144700348535" lon="12.716860290360799"><ele>1007.5</ele><time>2026-04-12T10:39:07Z</time></trkpt><trkpt lat="42.42108293958147" lon="12.716791455417043"><ele>1006.6666666666667</ele><time>2026-04-12T10:39:08Z</time></trkpt><trkpt lat="42.42103730917" lon="12.716680254914321"><ele>1005.8333333333334</ele><time>2026-04-12T10:39:09Z</time></trkpt><trkpt lat="42.420983532134116" lon="12.71658836519294"><ele>1005.0</ele><time>2026-04-12T10:39:10Z</time></trkpt><trkpt lat="42.42092425441342" lon="12.716519656303316"><ele>1003.3333333333334</ele><time>2026-04-12T10:39:11Z</time></trkpt><trkpt lat="42.42086162615023" lon="12.716471227836717"><ele>1001.6666666666667</ele><time>2026-04-12T10:39:12Z</time></trkpt><trkpt lat="42.42079306284902" lon="12.716448018342861"><ele>1000.0</ele><time>2026-04-12T10:39:13Z</time></trkpt><trkpt lat="42.4207211395903" lon="12.716458593110737"><ele>998.3333333333334</ele><time>2026-04-12T10:39:14.001Z</time></trkpt><trkpt lat="42.420624399187936" lon="12.716461666301555"><ele>996.6666666666667</ele><time>2026-04-12T10:39:15.001Z</time></trkpt><trkpt lat="42.42053522646691" lon="12.716473797497269"><ele>995.0</ele><time>2026-04-12T10:39:16.001Z</time></trkpt><trkpt lat="42.42045925160279" lon="12.716499519626518"><ele>994.5000000000001</ele><time>2026-04-12T10:39:17.001Z</time></trkpt><trkpt lat="42.4203952847976" lon="12.716538633930107"><ele>994.0</ele><time>2026-04-12T10:39:18.001Z</time></trkpt><trkpt lat="42.42033376930592" lon="12.71659651701724"><ele>993.5</ele><time>2026-04-12T10:39:19.001Z</time></trkpt><trkpt lat="42.42027829967686" lon="12.716671064266531"><ele>993.0</ele><time>2026-04-12T10:39:20.001Z</time></trkpt><trkpt lat="42.42021992402387" lon="12.71674250947046"><ele>992.5000000000001</ele><time>2026-04-12T10:39:21.001Z</time></trkpt><trkpt lat="42.42016442812536" lon="12.716800388286456"><ele>992.0</ele><time>2026-04-12T10:39:22.001Z</time></trkpt><trkpt lat="42.42010415932638" lon="12.716882263696784"><ele>991.8</ele><time>2026-04-12T10:39:23.001Z</time></trkpt><trkpt lat="42.42003152981567" lon="12.71697922094416"><ele>991.6</ele><time>2026-04-12T10:39:24.001Z</time></trkpt><trkpt lat="42.41995204321779" lon="12.717067235705763"><ele>991.3999999999999</ele><time>2026-04-12T10:39:25.001Z</time></trkpt><trkpt lat="42.41987188767037" lon="12.717150250978001"><ele>991.1999999999999</ele><time>2026-04-12T10:39:26.001Z</time></trkpt><trkpt lat="42.41976054822939" lon="12.717226143171054"><ele>991.0</ele><time>2026-04-12T10:39:27.001Z</time></trkpt><trkpt lat="42.41968207388986" lon="12.717291837592187"><ele>990.1999999999999</ele><time>2026-04-12T10:39:28.001Z</time></trkpt><trkpt lat="42.41959939969907" lon="12.717344845445968"><ele>989.3999999999999</ele><time>2026-04-12T10:39:29.001Z</time></trkpt><trkpt lat="42.419509885687575" lon="12.717381059884055"><ele>988.6</ele><time>2026-04-12T10:39:30.001Z</time></trkpt><trkpt lat="42.41941835082576" lon="12.717404583492758"><ele>987.8</ele><time>2026-04-12T10:39:31.001Z</time></trkpt><trkpt lat="42.419322512338745" lon="12.717435966652868"><ele>987.0</ele><time>2026-04-12T10:39:32.001Z</time></trkpt><trkpt lat="42.419227545586836" lon="12.717451985047582"><ele>987.0</ele><time>2026-04-12T10:39:33.001Z</time></trkpt><trkpt lat="42.41913357121563" lon="12.717477169666706"><ele>987.0</ele><time>2026-04-12T10:39:34.001Z</time></trkpt><trkpt lat="42.41904355079021" lon="12.717504937187037"><ele>987.0</ele><time>2026-04-12T10:39:35.001Z</time></trkpt><trkpt lat="42.418962213994554" lon="12.717534347983458"><ele>987.0</ele><time>2026-04-12T10:39:36.001Z</time></trkpt><trkpt lat="42.41887898437662" lon="12.717573226050883"><ele>987.0</ele><time>2026-04-12T10:39:37.001Z</time></trkpt><trkpt lat="42.418802984470936" lon="12.717599592781719"><ele>987.0</ele><time>2026-04-12T10:39:38.001Z</time></trkpt><trkpt lat="42.418717737293086" lon="12.717635812604469"><ele>986.8333333333334</ele><time>2026-04-12T10:39:39.001Z</time></trkpt><trkpt lat="42.418633985151864" lon="12.717669714285956"><ele>986.6666666666667</ele><time>2026-04-12T10:39:40.001Z</time></trkpt><trkpt lat="42.41855473634011" lon="12.717715017091454"><ele>986.5</ele><time>2026-04-12T10:39:41.001Z</time></trkpt><trkpt lat="42.418474609335355" lon="12.717751183415368"><ele>986.3333333333334</ele><time>2026-04-12T10:39:42.001Z</time></trkpt><trkpt lat="42.41839657494263" lon="12.717789113254227"><ele>986.1666666666667</ele><time>2026-04-12T10:39:43.001Z</time></trkpt><trkpt lat="42.41831925349922" lon="12.717820814043344"><ele>986.0</ele><time>2026-04-12T10:39:44.001Z</time></trkpt><trkpt lat="42.41824150381297" lon="12.717848107230878"><ele>986.0000000000001</ele><time>2026-04-12T10:39:45.001Z</time></trkpt><trkpt lat="42.41815674740604" lon="12.71787351279319"><ele>986.0</ele><time>2026-04-12T10:39:46.001Z</time></trkpt><trkpt lat="42.41808749031707" lon="12.717908727121612"><ele>986.0</ele><time>2026-04-12T10:39:47.001Z</time></trkpt><trkpt lat="42.41801822825963" lon="12.717958233037924"><ele>986.0</ele><time>2026-04-12T10:39:48.001Z</time></trkpt><trkpt lat="42.417953210154394" lon="12.717988881739716"><ele>986.0000000000001</ele><time>2026-04-12T10:39:49.001Z</time></trkpt><trkpt lat="42.417889399692626" lon="12.718034667044526"><ele>986.0</ele><time>2026-04-12T10:39:50.001Z</time></trkpt><trkpt lat="42.41782204383977" lon="12.718090785139326"><ele>981.1999999999999</ele><time>2026-04-12T10:39:51.001Z</time></trkpt><trkpt lat="42.41774349940933" lon="12.718159547508705"><ele>976.3999999999999</ele><time>2026-04-12T10:39:52.001Z</time></trkpt><trkpt lat="42.41766056577501" lon="12.71821509779945"><ele>971.6</ele><time>2026-04-12T10:39:53.001Z</time></trkpt><trkpt lat="42.41756420312434" lon="12.718281705819576"><ele>966.8</ele><time>2026-04-12T10:39:54.001Z</time></trkpt><trkpt lat="42.417461143676825" lon="12.718370417988544"><ele>962.0</ele><time>2026-04-12T10:39:55.001Z</time></trkpt><trkpt lat="42.41736883571274" lon="12.71845620747535"><ele>962.0</ele><time>2026-04-12T10:39:56.001Z</time></trkpt><trkpt lat="42.4172680395195" lon="12.718541080464611"><ele>962.0</ele><time>2026-04-12T10:39:57.001Z</time></trkpt><trkpt lat="42.4171694840513" lon="12.718607653764659"><ele>962.0</ele><time>2026-04-12T10:39:58.001Z</time></trkpt><trkpt lat="42.41706324967737" lon="12.718674641390164"><ele>962.0</ele><time>2026-04-12T10:39:59.001Z</time></trkpt><trkpt lat="42.4169529391724" lon="12.718756189979755"><ele>961.8</ele><time>2026-04-12T10:40:00.001Z</time></trkpt><trkpt lat="42.41685013902724" lon="12.718845165698987"><ele>961.6</ele><time>2026-04-12T10:40:01.001Z</time></trkpt><trkpt lat="42.41675762379579" lon="12.718920840992793"><ele>961.3999999999999</ele><time>2026-04-12T10:40:02.001Z</time></trkpt><trkpt lat="42.41667142842866" lon="12.718986317486268"><ele>961.1999999999999</ele><time>2026-04-12T10:40:03.001Z</time></trkpt><trkpt lat="42.41659487982862" lon="12.719045713568214"><ele>961.0</ele><time>2026-04-12T10:40:04.001Z</time></trkpt><trkpt lat="42.41650405752467" lon="12.719091096615347"><ele>961.0</ele><time>2026-04-12T10:40:05.001Z</time></trkpt><trkpt lat="42.416413398133" lon="12.719142605468496"><ele>960.9999999999999</ele><time>2026-04-12T10:40:06.001Z</time></trkpt><trkpt lat="42.41631847356914" lon="12.719167536753286"><ele>960.9999999999999</ele><time>2026-04-12T10:40:07.001Z</time></trkpt><trkpt lat="42.416228486427514" lon="12.71919780757597"><ele>961.0</ele><time>2026-04-12T10:40:08.001Z</time></trkpt><trkpt lat="42.41614923062387" lon="12.719227622681775"><ele>961.0</ele><time>2026-04-12T10:40:09.001Z</time></trkpt><trkpt lat="42.416070709650185" lon="12.719269276765155"><ele>960.6666666666666</ele><time>2026-04-12T10:40:10.001Z</time></trkpt><trkpt lat="42.41599510069454" lon="12.719316914637565"><ele>960.3333333333333</ele><time>2026-04-12T10:40:11.001Z</time></trkpt><trkpt lat="42.41591855862869" lon="12.719371696035383"><ele>960.0</ele><time>2026-04-12T10:40:12.001Z</time></trkpt><trkpt lat="42.415842259164876" lon="12.719425985545948"><ele>959.6666666666667</ele><time>2026-04-12T10:40:13.001Z</time></trkpt><trkpt lat="42.415770942516964" lon="12.719477039211977"><ele>959.3333333333334</ele><time>2026-04-12T10:40:14.001Z</time></trkpt><trkpt lat="42.415697858667926" lon="12.719534141558245"><ele>959.0</ele><time>2026-04-12T10:40:15.001Z</time></trkpt><trkpt lat="42.41560765072667" lon="12.719599349367273"><ele>959.0</ele><time>2026-04-12T10:40:16.001Z</time></trkpt><trkpt lat="42.41551928387959" lon="12.719662719659086"><ele>959.0000000000001</ele><time>2026-04-12T10:40:17.001Z</time></trkpt><trkpt lat="42.41543328927357" lon="12.719732667866271"><ele>959.0000000000001</ele><time>2026-04-12T10:40:18.001Z</time></trkpt><trkpt lat="42.41534213340159" lon="12.719801149064994"><ele>959.0</ele><time>2026-04-12T10:40:19.001Z</time></trkpt><trkpt lat="42.41525661647068" lon="12.719862211622674"><ele>959.0</ele><time>2026-04-12T10:40:20.001Z</time></trkpt><trkpt lat="42.4151719810544" lon="12.719920396733443"><ele>953.2</ele><time>2026-04-12T10:40:21.001Z</time></trkpt><trkpt lat="42.41508562378516" lon="12.719972934035901"><ele>947.4000000000001</ele><time>2026-04-12T10:40:22.001Z</time></trkpt><trkpt lat="42.414993995109214" lon="12.720017225874715"><ele>941.6</ele><time>2026-04-12T10:40:23.001Z</time></trkpt><trkpt lat="42.414902178813335" lon="12.720066764424008"><ele>935.8</ele><time>2026-04-12T10:40:24.001Z</time></trkpt><trkpt lat="42.414819581988716" lon="12.720128460961984"><ele>930.0</ele><time>2026-04-12T10:40:25.001Z</time></trkpt><trkpt lat="42.41473901867146" lon="12.720170222504189"><ele>927.8</ele><time>2026-04-12T10:40:26.001Z</time></trkpt><trkpt lat="42.41465116116122" lon="12.720193538421736"><ele>925.6</ele><time>2026-04-12T10:40:27.002Z</time></trkpt><trkpt lat="42.41456401979332" lon="12.720197490943637"><ele>923.4000000000001</ele><time>2026-04-12T10:40:28.002Z</time></trkpt><trkpt lat="42.41447843137615" lon="12.720208686200511"><ele>921.2</ele><time>2026-04-12T10:40:29.002Z</time></trkpt><trkpt lat="42.41438833699263" lon="12.720242074148578"><ele>919.0</ele><time>2026-04-12T10:40:30.002Z</time></trkpt><trkpt lat="42.414298144109736" lon="12.720299496988027"><ele>919.0</ele><time>2026-04-12T10:40:31.002Z</time></trkpt><trkpt lat="42.41420329013333" lon="12.720371937797182"><ele>919.0000000000001</ele><time>2026-04-12T10:40:32.002Z</time></trkpt><trkpt lat="42.414114414686004" lon="12.720443467075919"><ele>919.0000000000001</ele><time>2026-04-12T10:40:33.002Z</time></trkpt><trkpt lat="42.41403378860857" lon="12.720506183748627"><ele>919.0</ele><time>2026-04-12T10:40:34.002Z</time></trkpt><trkpt lat="42.41398541196653" lon="12.720572690332178"><ele>919.0</ele><time>2026-04-12T10:40:35.002Z</time></trkpt><trkpt lat="42.413933726548" lon="12.720653987752042"><ele>918.9999999999999</ele><time>2026-04-12T10:40:36.002Z</time></trkpt><trkpt lat="42.41389457050001" lon="12.720735211748051"><ele>919.0</ele><time>2026-04-12T10:40:37.002Z</time></trkpt><trkpt lat="42.413862174380505" lon="12.720821402173101"><ele>919.0</ele><time>2026-04-12T10:40:38.002Z</time></trkpt><trkpt lat="42.413830164639094" lon="12.720914208099252"><ele>919.0</ele><time>2026-04-12T10:40:39.002Z</time></trkpt><trkpt lat="42.41378794013184" lon="12.72100776471677"><ele>918.9999999999999</ele><time>2026-04-12T10:40:40.002Z</time></trkpt><trkpt lat="42.413758949007374" lon="12.72112197229214"><ele>919.0</ele><time>2026-04-12T10:40:41.002Z</time></trkpt><trkpt lat="42.413741145338136" lon="12.721226290198487"><ele>914.8333333333333</ele><time>2026-04-12T10:40:42.002Z</time></trkpt><trkpt lat="42.4137276722642" lon="12.72131998252577"><ele>910.6666666666666</ele><time>2026-04-12T10:40:43.002Z</time></trkpt><trkpt lat="42.41372663601289" lon="12.721426522190487"><ele>906.5</ele><time>2026-04-12T10:40:44.002Z</time></trkpt><trkpt lat="42.41370699756938" lon="12.721517528384435"><ele>902.3333333333333</ele><time>2026-04-12T10:40:45.001Z</time></trkpt><trkpt lat="42.413665710898286" lon="12.721618860357493"><ele>898.1666666666666</ele><time>2026-04-12T10:40:46.001Z</time></trkpt><trkpt lat="42.41361382996076" lon="12.721715898909807"><ele>894.0</ele><time>2026-04-12T10:40:47.001Z</time></trkpt><trkpt lat="42.41355728271752" lon="12.72182283167582"><ele>896.8000000000001</ele><time>2026-04-12T10:40:48.001Z</time></trkpt><trkpt lat="42.41350409087485" lon="12.72193554723578"><ele>899.6000000000001</ele><time>2026-04-12T10:40:49.001Z</time></trkpt><trkpt lat="42.41345540632193" lon="12.722052242456327"><ele>902.4</ele><time>2026-04-12T10:40:50.001Z</time></trkpt><trkpt lat="42.413415188801096" lon="12.722175864992778"><ele>905.2</ele><time>2026-04-12T10:40:51.001Z</time></trkpt><trkpt lat="42.413372633227574" lon="12.722301708898042"><ele>908.0</ele><time>2026-04-12T10:40:52Z</time></trkpt><trkpt lat="42.413321854079165" lon="12.72240771368388"><ele>908.0000000000001</ele><time>2026-04-12T10:40:53Z</time></trkpt><trkpt lat="42.41326895597066" lon="12.722493997962225"><ele>908.0</ele><time>2026-04-12T10:40:54Z</time></trkpt><trkpt lat="42.41321954759424" lon="12.722569306509143"><ele>908.0</ele><time>2026-04-12T10:40:55Z</time></trkpt><trkpt lat="42.41316236859812" lon="12.722643199240832"><ele>908.0</ele><time>2026-04-12T10:40:56Z</time></trkpt><trkpt lat="42.41312211534253" lon="12.722710174195015"><ele>908.0000000000001</ele><time>2026-04-12T10:40:57Z</time></trkpt><trkpt lat="42.41305340574315" lon="12.7227862495053"><ele>908.0</ele><time>2026-04-12T10:40:59Z</time></trkpt><trkpt lat="42.41294225035657" lon="12.722762539455372"><ele>909.2</ele><time>2026-04-12T10:41:02Z</time></trkpt><trkpt lat="42.412878577100535" lon="12.722797521732321"><ele>910.4</ele><time>2026-04-12T10:41:03Z</time></trkpt><trkpt lat="42.41279016332742" lon="12.722840992735692"><ele>911.6000000000001</ele><time>2026-04-12T10:41:04Z</time></trkpt><trkpt lat="42.41270259486139" lon="12.722872602541065"><ele>912.8000000000001</ele><time>2026-04-12T10:41:05Z</time></trkpt><trkpt lat="42.41263096621603" lon="12.722900937850726"><ele>914.0</ele><time>2026-04-12T10:41:06Z</time></trkpt><trkpt lat="42.41250797446695" lon="12.722901170311335"><ele>914.0000000000001</ele><time>2026-04-12T10:41:08Z</time></trkpt><trkpt lat="42.41243827517677" lon="12.722878810357036"><ele>914.0</ele><time>2026-04-12T10:41:09Z</time></trkpt><trkpt lat="42.4123577897174" lon="12.722873564525809"><ele>914.0</ele><time>2026-04-12T10:41:10Z</time></trkpt><trkpt lat="42.412265939406794" lon="12.72288291028655"><ele>914.0</ele><time>2026-04-12T10:41:11Z</time></trkpt><trkpt lat="42.4121826607243" lon="12.722887422265067"><ele>914.0000000000001</ele><time>2026-04-12T10:41:12.001Z</time></trkpt><trkpt lat="42.41210450354154" lon="12.722891624181662"><ele>914.0</ele><time>2026-04-12T10:41:13.001Z</time></trkpt><trkpt lat="42.41202807086929" lon="12.722898096687597"><ele>910.6666666666667</ele><time>2026-04-12T10:41:14.001Z</time></trkpt><trkpt lat="42.41194629302888" lon="12.722920884661812"><ele>907.3333333333334</ele><time>2026-04-12T10:41:15.001Z</time></trkpt><trkpt lat="42.4118559210593" lon="12.722941758928707"><ele>904.0</ele><time>2026-04-12T10:41:16.001Z</time></trkpt><trkpt lat="42.41177332365371" lon="12.722961372462628"><ele>900.6666666666667</ele><time>2026-04-12T10:41:17.001Z</time></trkpt><trkpt lat="42.411693107136685" lon="12.722986253159725"><ele>897.3333333333334</ele><time>2026-04-12T10:41:18.001Z</time></trkpt><trkpt lat="42.41162327793726" lon="12.723020025666875"><ele>894.0</ele><time>2026-04-12T10:41:19.001Z</time></trkpt><trkpt lat="42.41156605824429" lon="12.72308393933513"><ele>894.0</ele><time>2026-04-12T10:41:20.001Z</time></trkpt><trkpt lat="42.411508940318676" lon="12.723158785823708"><ele>894.0</ele><time>2026-04-12T10:41:21.001Z</time></trkpt><trkpt lat="42.41146628465778" lon="12.723235055654667"><ele>894.0</ele><time>2026-04-12T10:41:22.001Z</time></trkpt><trkpt lat="42.41138396439013" lon="12.72328024621933"><ele>894.0</ele><time>2026-04-12T10:41:24.001Z</time></trkpt><trkpt lat="42.41127076693486" lon="12.723214078847537"><ele>894.0</ele><time>2026-04-12T10:41:26.001Z</time></trkpt><trkpt lat="42.41121072824185" lon="12.723153875108999"><ele>894.0</ele><time>2026-04-12T10:41:27.001Z</time></trkpt><trkpt lat="42.411149963099014" lon="12.72307108775794"><ele>891.0</ele><time>2026-04-12T10:41:28.001Z</time></trkpt><trkpt lat="42.411082301534236" lon="12.72301145162761"><ele>888.0</ele><time>2026-04-12T10:41:29.001Z</time></trkpt><trkpt lat="42.411023156170685" lon="12.722930146207666"><ele>885.0</ele><time>2026-04-12T10:41:30.001Z</time></trkpt><trkpt lat="42.4109640651294" lon="12.722831526904969"><ele>882.0</ele><time>2026-04-12T10:41:31.001Z</time></trkpt><trkpt lat="42.41090975936932" lon="12.722764407441488"><ele>879.0</ele><time>2026-04-12T10:41:32.001Z</time></trkpt><trkpt lat="42.4108547725907" lon="12.722721056426769"><ele>876.0</ele><time>2026-04-12T10:41:33.001Z</time></trkpt><trkpt lat="42.41073750507694" lon="12.722690465799397"><ele>874.1999999999999</ele><time>2026-04-12T10:41:35.001Z</time></trkpt><trkpt lat="42.4106207746494" lon="12.722672475421694"><ele>872.3999999999999</ele><time>2026-04-12T10:41:37.001Z</time></trkpt><trkpt lat="42.410563993174044" lon="12.722562263339471"><ele>870.6</ele><time>2026-04-12T10:41:39.001Z</time></trkpt><trkpt lat="42.41047918521548" lon="12.722512235890242"><ele>868.8</ele><time>2026-04-12T10:41:41.001Z</time></trkpt><trkpt lat="42.41040724337458" lon="12.722570380910073"><ele>867.0</ele><time>2026-04-12T10:41:43.001Z</time></trkpt><trkpt lat="42.410335767478564" lon="12.722625005783952"><ele>863.8</ele><time>2026-04-12T10:41:45.001Z</time></trkpt><trkpt lat="42.41026170512132" lon="12.722545437952828"><ele>860.6</ele><time>2026-04-12T10:41:47.001Z</time></trkpt><trkpt lat="42.41025566294231" lon="12.722398475424958"><ele>857.4</ele><time>2026-04-12T10:41:49.001Z</time></trkpt><trkpt lat="42.41027793293459" lon="12.72225334275677"><ele>854.1999999999999</ele><time>2026-04-12T10:41:51.001Z</time></trkpt><trkpt lat="42.41032442807361" lon="12.72212808397085"><ele>851.0</ele><time>2026-04-12T10:41:53.001Z</time></trkpt><trkpt lat="42.410391116702925" lon="12.72206627917807"><ele>851.0</ele><time>2026-04-12T10:41:55.001Z</time></trkpt><trkpt lat="42.41047606358716" lon="12.722005373295719"><ele>851.0</ele><time>2026-04-12T10:41:57.001Z</time></trkpt><trkpt lat="42.410533557636036" lon="12.721913259638542"><ele>851.0</ele><time>2026-04-12T10:41:59.001Z</time></trkpt><trkpt lat="42.41051749977814" lon="12.721778227101384"><ele>851.0</ele><time>2026-04-12T10:42:01.001Z</time></trkpt><trkpt lat="42.41052205153307" lon="12.721631360210221"><ele>851.0</ele><time>2026-04-12T10:42:03.001Z</time></trkpt><trkpt lat="42.41055027940127" lon="12.721481901980383"><ele>850.6666666666667</ele><time>2026-04-12T10:42:05.001Z</time></trkpt><trkpt lat="42.410590918227584" lon="12.721350592187253"><ele>850.3333333333334</ele><time>2026-04-12T10:42:07.001Z</time></trkpt><trkpt lat="42.41063307491016" lon="12.721246935251335"><ele>850.0</ele><time>2026-04-12T10:42:09.001Z</time></trkpt><trkpt lat="42.410669630115876" lon="12.721141720773462"><ele>849.6666666666667</ele><time>2026-04-12T10:42:11.001Z</time></trkpt><trkpt lat="42.41068513566576" lon="12.721014143284846"><ele>849.3333333333334</ele><time>2026-04-12T10:42:13.001Z</time></trkpt><trkpt lat="42.41064604706464" lon="12.720939200146482"><ele>849.0</ele><time>2026-04-12T10:42:15.001Z</time></trkpt><trkpt lat="42.41057750729488" lon="12.720908169620033"><ele>849.0</ele><time>2026-04-12T10:42:17.001Z</time></trkpt><trkpt lat="42.41050125965086" lon="12.720939349124452"><ele>849.0</ele><time>2026-04-12T10:42:20.001Z</time></trkpt><trkpt lat="42.4104489486426" lon="12.721116423779604"><ele>849.0</ele><time>2026-04-12T10:42:22.001Z</time></trkpt><trkpt lat="42.41042599396216" lon="12.721257086300522"><ele>849.0</ele><time>2026-04-12T10:42:23.001Z</time></trkpt><trkpt lat="42.410388683394196" lon="12.721420213092838"><ele>849.4000000000001</ele><time>2026-04-12T10:42:24.001Z</time></trkpt><trkpt lat="42.4103429354695" lon="12.721572987289777"><ele>849.8</ele><time>2026-04-12T10:42:25.001Z</time></trkpt><trkpt lat="42.41027862430526" lon="12.72169562760057"><ele>850.2</ele><time>2026-04-12T10:42:26.001Z</time></trkpt><trkpt lat="42.41019266704677" lon="12.721799212293114"><ele>850.5999999999999</ele><time>2026-04-12T10:42:27.001Z</time></trkpt><trkpt lat="42.410118659797035" lon="12.721877961097656"><ele>851.0</ele><time>2026-04-12T10:42:28.001Z</time></trkpt><trkpt lat="42.41006579665637" lon="12.7219450355812"><ele>851.0000000000001</ele><time>2026-04-12T10:42:29.001Z</time></trkpt><trkpt lat="42.409973328327865" lon="12.722041355401299"><ele>851.0</ele><time>2026-04-12T10:42:31.001Z</time></trkpt><trkpt lat="42.409912072328915" lon="12.722111097372917"><ele>851.0</ele><time>2026-04-12T10:42:33.001Z</time></trkpt><trkpt lat="42.40985563616503" lon="12.722156032366701"><ele>851.0</ele><time>2026-04-12T10:42:35.001Z</time></trkpt><trkpt lat="42.40979453375523" lon="12.72218406128482"><ele>851.0000000000001</ele><time>2026-04-12T10:42:37.002Z</time></trkpt><trkpt lat="42.409722825567705" lon="12.722154741527067"><ele>851.0</ele><time>2026-04-12T10:42:39.002Z</time></trkpt><trkpt lat="42.4096609658096" lon="12.722081969185789"><ele>851.0000000000001</ele><time>2026-04-12T10:42:42.002Z</time></trkpt><trkpt lat="42.4096515957058" lon="12.721985034397202"><ele>851.0</ele><time>2026-04-12T10:42:45.002Z</time></trkpt><trkpt lat="42.40968319389727" lon="12.72186887876455"><ele>851.0</ele><time>2026-04-12T10:42:55.001Z</time></trkpt><trkpt lat="42.40967441013091" lon="12.721754596015424"><ele>851.0</ele><time>2026-04-12T10:42:57.001Z</time></trkpt><trkpt lat="42.4096840435048" lon="12.721641902631527"><ele>851.0000000000001</ele><time>2026-04-12T10:42:59Z</time></trkpt><trkpt lat="42.40969987388608" lon="12.721506318716818"><ele>851.0</ele><time>2026-04-12T10:43:01Z</time></trkpt><trkpt lat="42.40967594195554" lon="12.721397142235299"><ele>850.0</ele><time>2026-04-12T10:43:03Z</time></trkpt><trkpt lat="42.40961842499467" lon="12.721293978660272"><ele>849.0</ele><time>2026-04-12T10:43:05Z</time></trkpt><trkpt lat="42.409561383688185" lon="12.721245588873327"><ele>848.0</ele><time>2026-04-12T10:43:06Z</time></trkpt><trkpt lat="42.409497057585625" lon="12.721215428606675"><ele>847.0</ele><time>2026-04-12T10:43:07Z</time></trkpt><trkpt lat="42.40937916332905" lon="12.72118078861919"><ele>846.0</ele><time>2026-04-12T10:43:09Z</time></trkpt><trkpt lat="42.409266151854105" lon="12.721202938867842"><ele>846.0</ele><time>2026-04-12T10:43:11Z</time></trkpt><trkpt lat="42.40920652133984" lon="12.721249224518557"><ele>846.0</ele><time>2026-04-12T10:43:12Z</time></trkpt><trkpt lat="42.40914914497025" lon="12.721312418474815"><ele>846.0</ele><time>2026-04-12T10:43:13Z</time></trkpt><trkpt lat="42.40909308617457" lon="12.7213840927862"><ele>846.0</ele><time>2026-04-12T10:43:14Z</time></trkpt><trkpt lat="42.40902562306215" lon="12.721446919988274"><ele>846.0</ele><time>2026-04-12T10:43:15Z</time></trkpt><trkpt lat="42.40895610863855" lon="12.721507858995937"><ele>846.0</ele><time>2026-04-12T10:43:16Z</time></trkpt><trkpt lat="42.40889518004725" lon="12.721556948978515"><ele>847.1666666666666</ele><time>2026-04-12T10:43:17Z</time></trkpt><trkpt lat="42.40882448467816" lon="12.72160314589157"><ele>848.3333333333333</ele><time>2026-04-12T10:43:18Z</time></trkpt><trkpt lat="42.40875967791042" lon="12.721633288142431"><ele>849.5</ele><time>2026-04-12T10:43:19Z</time></trkpt><trkpt lat="42.40868127838438" lon="12.72164175686125"><ele>850.6666666666666</ele><time>2026-04-12T10:43:20Z</time></trkpt><trkpt lat="42.408594146247" lon="12.721657237701688"><ele>851.8333333333333</ele><time>2026-04-12T10:43:21Z</time></trkpt><trkpt lat="42.4085136246512" lon="12.721671130088856"><ele>853.0</ele><time>2026-04-12T10:43:22Z</time></trkpt><trkpt lat="42.40844406093557" lon="12.721674037732642"><ele>852.9999999999999</ele><time>2026-04-12T10:43:23Z</time></trkpt><trkpt lat="42.40837571138964" lon="12.721686228807577"><ele>853.0</ele><time>2026-04-12T10:43:24.001Z</time></trkpt><trkpt lat="42.4083043836262" lon="12.721700988593298"><ele>853.0</ele><time>2026-04-12T10:43:25.001Z</time></trkpt><trkpt lat="42.40822825231898" lon="12.721701623556525"><ele>853.0</ele><time>2026-04-12T10:43:26.001Z</time></trkpt><trkpt lat="42.40814083388235" lon="12.721710360432098"><ele>852.9999999999999</ele><time>2026-04-12T10:43:27.001Z</time></trkpt><trkpt lat="42.40804428623398" lon="12.721722551343719"><ele>853.0</ele><time>2026-04-12T10:43:28.001Z</time></trkpt><trkpt lat="42.407953268293774" lon="12.721759552874863"><ele>854.4</ele><time>2026-04-12T10:43:29.001Z</time></trkpt><trkpt lat="42.40786566292286" lon="12.72181486169071"><ele>855.8</ele><time>2026-04-12T10:43:30.001Z</time></trkpt><trkpt lat="42.407788021045995" lon="12.721890488666455"><ele>857.2</ele><time>2026-04-12T10:43:31.001Z</time></trkpt><trkpt lat="42.40772344871546" lon="12.721955919078605"><ele>858.6</ele><time>2026-04-12T10:43:32.001Z</time></trkpt><trkpt lat="42.40764915784933" lon="12.722019577076383"><ele>860.0</ele><time>2026-04-12T10:43:33.001Z</time></trkpt><trkpt lat="42.40757002829953" lon="12.722089263270757"><ele>861.0000000000001</ele><time>2026-04-12T10:43:34.001Z</time></trkpt><trkpt lat="42.40748390290708" lon="12.72213681954999"><ele>862.0</ele><time>2026-04-12T10:43:35.001Z</time></trkpt><trkpt lat="42.407397229498336" lon="12.722167694288716"><ele>863.0</ele><time>2026-04-12T10:43:36.001Z</time></trkpt><trkpt lat="42.407326536034255" lon="12.722189160538502"><ele>864.0</ele><time>2026-04-12T10:43:37.001Z</time></trkpt><trkpt lat="42.40725656284119" lon="12.722216379984832"><ele>865.0000000000001</ele><time>2026-04-12T10:43:38.001Z</time></trkpt><trkpt lat="42.40718828548137" lon="12.722274318350454"><ele>866.0</ele><time>2026-04-12T10:43:39.001Z</time></trkpt><trkpt lat="42.40712111164619" lon="12.722388255433598"><ele>862.8</ele><time>2026-04-12T10:43:41.001Z</time></trkpt><trkpt lat="42.407171667839236" lon="12.722542200570127"><ele>859.5999999999999</ele><time>2026-04-12T10:43:43.001Z</time></trkpt><trkpt lat="42.40722843547043" lon="12.72266543682001"><ele>856.4</ele><time>2026-04-12T10:43:45.001Z</time></trkpt><trkpt lat="42.40724534481535" lon="12.722827572451143"><ele>853.2</ele><time>2026-04-12T10:43:47.001Z</time></trkpt><trkpt lat="42.40723757290399" lon="12.72295165776037"><ele>850.0</ele><time>2026-04-12T10:43:49.001Z</time></trkpt><trkpt lat="42.407142388296506" lon="12.723048336697904"><ele>850.0</ele><time>2026-04-12T10:43:51.001Z</time></trkpt><trkpt lat="42.407086049360686" lon="12.72311112548666"><ele>850.0</ele><time>2026-04-12T10:43:52.001Z</time></trkpt><trkpt lat="42.4070347289828" lon="12.723171147890426"><ele>850.0</ele><time>2026-04-12T10:43:53.001Z</time></trkpt><trkpt lat="42.406944933680116" lon="12.7232820591763"><ele>850.0</ele><time>2026-04-12T10:43:55.001Z</time></trkpt><trkpt lat="42.40683112330104" lon="12.723356615805084"><ele>850.0</ele><time>2026-04-12T10:43:57.001Z</time></trkpt><trkpt lat="42.40677619517755" lon="12.723423246097788"><ele>850.0</ele><time>2026-04-12T10:43:58.001Z</time></trkpt><trkpt lat="42.40673377204694" lon="12.723498277334116"><ele>850.0</ele><time>2026-04-12T10:43:59.001Z</time></trkpt><trkpt lat="42.406661065798396" lon="12.723596998015722"><ele>850.0</ele><time>2026-04-12T10:44:01.001Z</time></trkpt><trkpt lat="42.40656271849513" lon="12.723644086074593"><ele>850.0</ele><time>2026-04-12T10:44:03.001Z</time></trkpt><trkpt lat="42.40644460851767" lon="12.72362364976777"><ele>850.0</ele><time>2026-04-12T10:44:05.001Z</time></trkpt><trkpt lat="42.406369569841694" lon="12.72359166085552"><ele>848.3333333333333</ele><time>2026-04-12T10:44:06.001Z</time></trkpt><trkpt lat="42.40628747928857" lon="12.723582946921494"><ele>846.6666666666666</ele><time>2026-04-12T10:44:07.001Z</time></trkpt><trkpt lat="42.406199629769155" lon="12.723593136408708"><ele>845.0</ele><time>2026-04-12T10:44:08.001Z</time></trkpt><trkpt lat="42.4061087500343" lon="12.723613566989263"><ele>843.3333333333333</ele><time>2026-04-12T10:44:09.001Z</time></trkpt><trkpt lat="42.40601933757459" lon="12.723634411787366"><ele>841.6666666666666</ele><time>2026-04-12T10:44:10.001Z</time></trkpt><trkpt lat="42.405934860667195" lon="12.723649289989273"><ele>840.0</ele><time>2026-04-12T10:44:11.001Z</time></trkpt><trkpt lat="42.40584855525288" lon="12.723664735299467"><ele>840.0</ele><time>2026-04-12T10:44:12.001Z</time></trkpt><trkpt lat="42.40576193611163" lon="12.723669206927937"><ele>840.0</ele><time>2026-04-12T10:44:13.001Z</time></trkpt><trkpt lat="42.40567867616598" lon="12.723675517954344"><ele>840.0</ele><time>2026-04-12T10:44:14.001Z</time></trkpt><trkpt lat="42.40559500635296" lon="12.72367828232519"><ele>840.0</ele><time>2026-04-12T10:44:15.001Z</time></trkpt><trkpt lat="42.405519183650334" lon="12.723661253839007"><ele>840.0</ele><time>2026-04-12T10:44:16.001Z</time></trkpt><trkpt lat="42.405436040654855" lon="12.72365472989169"><ele>840.0</ele><time>2026-04-12T10:44:17.001Z</time></trkpt><trkpt lat="42.405358421707874" lon="12.723646845972327"><ele>844.0</ele><time>2026-04-12T10:44:18.001Z</time></trkpt><trkpt lat="42.40526853311635" lon="12.723630105841453"><ele>848.0</ele><time>2026-04-12T10:44:19.001Z</time></trkpt><trkpt lat="42.40519066620357" lon="12.723618519327815"><ele>852.0</ele><time>2026-04-12T10:44:20.001Z</time></trkpt><trkpt lat="42.40508455926264" lon="12.723620015271575"><ele>856.0</ele><time>2026-04-12T10:44:21.001Z</time></trkpt><trkpt lat="42.40498389351714" lon="12.7236463586343"><ele>860.0</ele><time>2026-04-12T10:44:22.001Z</time></trkpt><trkpt lat="42.40488366987444" lon="12.723676547810168"><ele>860.0</ele><time>2026-04-12T10:44:23.001Z</time></trkpt><trkpt lat="42.40478483002522" lon="12.723704850705339"><ele>860.0</ele><time>2026-04-12T10:44:24.001Z</time></trkpt><trkpt lat="42.40468783264228" lon="12.723725077563458"><ele>860.0</ele><time>2026-04-12T10:44:25.001Z</time></trkpt><trkpt lat="42.40459818233016" lon="12.723742190764865"><ele>860.0</ele><time>2026-04-12T10:44:26.001Z</time></trkpt><trkpt lat="42.40446833143878" lon="12.723790986082259"><ele>860.0</ele><time>2026-04-12T10:44:28.001Z</time></trkpt><trkpt lat="42.40436816161268" lon="12.723825263738538"><ele>863.1666666666667</ele><time>2026-04-12T10:44:29.001Z</time></trkpt><trkpt lat="42.404290804827134" lon="12.723848615037415"><ele>866.3333333333334</ele><time>2026-04-12T10:44:30.001Z</time></trkpt><trkpt lat="42.40421231713692" lon="12.723862836712222"><ele>869.5</ele><time>2026-04-12T10:44:31.001Z</time></trkpt><trkpt lat="42.40412950084248" lon="12.72386869162214"><ele>872.6666666666667</ele><time>2026-04-12T10:44:32.001Z</time></trkpt><trkpt lat="42.404049601037755" lon="12.723861787356594"><ele>875.8333333333334</ele><time>2026-04-12T10:44:33.001Z</time></trkpt><trkpt lat="42.40394329369504" lon="12.723854693782284"><ele>879.0</ele><time>2026-04-12T10:44:34.001Z</time></trkpt><trkpt lat="42.40385351218796" lon="12.72387129664886"><ele>880.8333333333334</ele><time>2026-04-12T10:44:35.001Z</time></trkpt><trkpt lat="42.40376644370004" lon="12.723906518187832"><ele>882.6666666666667</ele><time>2026-04-12T10:44:36.001Z</time></trkpt><trkpt lat="42.403687888454996" lon="12.72396500609862"><ele>884.5</ele><time>2026-04-12T10:44:37.001Z</time></trkpt><trkpt lat="42.40361635182784" lon="12.724042466872772"><ele>886.3333333333334</ele><time>2026-04-12T10:44:38.001Z</time></trkpt><trkpt lat="42.40354331533197" lon="12.72409609323685"><ele>888.1666666666667</ele><time>2026-04-12T10:44:39.001Z</time></trkpt><trkpt lat="42.40347460667239" lon="12.72413908710382"><ele>890.0</ele><time>2026-04-12T10:44:40.001Z</time></trkpt><trkpt lat="42.40340780833819" lon="12.724136699853785"><ele>890.0000000000001</ele><time>2026-04-12T10:44:41.001Z</time></trkpt><trkpt lat="42.40333577455228" lon="12.724114977334914"><ele>890.0</ele><time>2026-04-12T10:44:42.001Z</time></trkpt><trkpt lat="42.40324744930365" lon="12.724081440931041"><ele>890.0</ele><time>2026-04-12T10:44:43.001Z</time></trkpt><trkpt lat="42.40315056129569" lon="12.724066944988367"><ele>890.0</ele><time>2026-04-12T10:44:44.001Z</time></trkpt><trkpt lat="42.40306024050108" lon="12.724083197915066"><ele>890.0000000000001</ele><time>2026-04-12T10:44:45.001Z</time></trkpt><trkpt lat="42.402975116071204" lon="12.724122051614167"><ele>890.0</ele><time>2026-04-12T10:44:46.001Z</time></trkpt><trkpt lat="42.40288946114604" lon="12.724149943862663"><ele>889.0000000000001</ele><time>2026-04-12T10:44:47.001Z</time></trkpt><trkpt lat="42.40280337897463" lon="12.724172628522116"><ele>888.0</ele><time>2026-04-12T10:44:48.001Z</time></trkpt><trkpt lat="42.402726713933944" lon="12.724183544548362"><ele>887.0</ele><time>2026-04-12T10:44:49.001Z</time></trkpt><trkpt lat="42.40266659874734" lon="12.724217026422426"><ele>886.0</ele><time>2026-04-12T10:44:50.001Z</time></trkpt><trkpt lat="42.40260438570936" lon="12.724265665526028"><ele>885.0000000000001</ele><time>2026-04-12T10:44:51.001Z</time></trkpt><trkpt lat="42.4025462763711" lon="12.724336972066743"><ele>884.0</ele><time>2026-04-12T10:44:52.002Z</time></trkpt><trkpt lat="42.40247293848344" lon="12.724406487897028"><ele>884.0</ele><time>2026-04-12T10:44:53.002Z</time></trkpt><trkpt lat="42.402389168701816" lon="12.724461769760087"><ele>884.0000000000001</ele><time>2026-04-12T10:44:54.002Z</time></trkpt><trkpt lat="42.40232243533075" lon="12.724484054962483"><ele>884.0000000000001</ele><time>2026-04-12T10:44:55.002Z</time></trkpt><trkpt lat="42.40219219024748" lon="12.724431610836701"><ele>884.0</ele><time>2026-04-12T10:44:57Z</time></trkpt><trkpt lat="42.4021069140821" lon="12.724395948367675"><ele>884.0</ele><time>2026-04-12T10:44:58Z</time></trkpt><trkpt lat="42.40199762012227" lon="12.72438404124327"><ele>884.1666666666667</ele><time>2026-04-12T10:44:59Z</time></trkpt><trkpt lat="42.40189899740051" lon="12.724367753998006"><ele>884.3333333333334</ele><time>2026-04-12T10:45:00Z</time></trkpt><trkpt lat="42.4018043947366" lon="12.724377547943092"><ele>884.5</ele><time>2026-04-12T10:45:01Z</time></trkpt><trkpt lat="42.40171939119004" lon="12.724394965481514"><ele>884.6666666666667</ele><time>2026-04-12T10:45:02Z</time></trkpt><trkpt lat="42.40163689573132" lon="12.724420346734664"><ele>884.8333333333334</ele><time>2026-04-12T10:45:03Z</time></trkpt><trkpt lat="42.401572945847036" lon="12.72444657671501"><ele>885.0</ele><time>2026-04-12T10:45:04Z</time></trkpt><trkpt lat="42.401519303760274" lon="12.72449297953437"><ele>885.0</ele><time>2026-04-12T10:45:05Z</time></trkpt><trkpt lat="42.40146040626146" lon="12.724526808645042"><ele>885.0</ele><time>2026-04-12T10:45:06Z</time></trkpt><trkpt lat="42.40138759890762" lon="12.724538048370555"><ele>885.0</ele><time>2026-04-12T10:45:07Z</time></trkpt><trkpt lat="42.40130424214394" lon="12.724532004683144"><ele>885.0</ele><time>2026-04-12T10:45:08Z</time></trkpt><trkpt lat="42.40122195601546" lon="12.724499715712808"><ele>885.0</ele><time>2026-04-12T10:45:09Z</time></trkpt><trkpt lat="42.40114556079019" lon="12.724448526368757"><ele>885.0</ele><time>2026-04-12T10:45:10Z</time></trkpt><trkpt lat="42.40106761750723" lon="12.724384857381475"><ele>887.5</ele><time>2026-04-12T10:45:11Z</time></trkpt><trkpt lat="42.40098174675769" lon="12.724317196217116"><ele>890.0</ele><time>2026-04-12T10:45:12Z</time></trkpt><trkpt lat="42.40090049898501" lon="12.724248623505417"><ele>892.5</ele><time>2026-04-12T10:45:13Z</time></trkpt><trkpt lat="42.40082042196404" lon="12.724195075052952"><ele>895.0</ele><time>2026-04-12T10:45:14Z</time></trkpt><trkpt lat="42.40074898255662" lon="12.724162546237087"><ele>897.5</ele><time>2026-04-12T10:45:15Z</time></trkpt><trkpt lat="42.40067963005177" lon="12.724144981075304"><ele>900.0</ele><time>2026-04-12T10:45:16Z</time></trkpt><trkpt lat="42.400609841644815" lon="12.724155092763494"><ele>900.0</ele><time>2026-04-12T10:45:17Z</time></trkpt><trkpt lat="42.400535311034794" lon="12.724190277978167"><ele>900.0</ele><time>2026-04-12T10:45:18Z</time></trkpt><trkpt lat="42.40045498760317" lon="12.72424086049249"><ele>900.0</ele><time>2026-04-12T10:45:19Z</time></trkpt><trkpt lat="42.40037503725151" lon="12.724288685248572"><ele>900.0</ele><time>2026-04-12T10:45:20Z</time></trkpt><trkpt lat="42.40028566347084" lon="12.724319792906268"><ele>900.0</ele><time>2026-04-12T10:45:21Z</time></trkpt><trkpt lat="42.40020124483936" lon="12.724352363330455"><ele>900.0</ele><time>2026-04-12T10:45:22Z</time></trkpt><trkpt lat="42.400123167054375" lon="12.724389361152895"><ele>897.8333333333334</ele><time>2026-04-12T10:45:23Z</time></trkpt><trkpt lat="42.40004667577494" lon="12.724428473558653"><ele>895.6666666666667</ele><time>2026-04-12T10:45:24Z</time></trkpt><trkpt lat="42.399984249449766" lon="12.724479174702637"><ele>893.5</ele><time>2026-04-12T10:45:25Z</time></trkpt><trkpt lat="42.39992349144476" lon="12.724543983518894"><ele>891.3333333333334</ele><time>2026-04-12T10:45:26Z</time></trkpt><trkpt lat="42.399859961904454" lon="12.724589502582546"><ele>889.1666666666667</ele><time>2026-04-12T10:45:27Z</time></trkpt><trkpt lat="42.3997372913532" lon="12.724592930625407"><ele>887.0</ele><time>2026-04-12T10:45:29Z</time></trkpt><trkpt lat="42.39963827250719" lon="12.72457791574461"><ele>886.5000000000001</ele><time>2026-04-12T10:45:31Z</time></trkpt><trkpt lat="42.39953679065467" lon="12.724512581722957"><ele>886.0</ele><time>2026-04-12T10:45:33Z</time></trkpt><trkpt lat="42.39944532272239" lon="12.724416724013288"><ele>885.5</ele><time>2026-04-12T10:45:35Z</time></trkpt><trkpt lat="42.39940683427348" lon="12.724336189686904"><ele>885.0</ele><time>2026-04-12T10:45:36Z</time></trkpt><trkpt lat="42.39938400173373" lon="12.724237282323593"><ele>884.5000000000001</ele><time>2026-04-12T10:45:37Z</time></trkpt><trkpt lat="42.3993674085165" lon="12.724147293739522"><ele>884.0</ele><time>2026-04-12T10:45:38Z</time></trkpt><trkpt lat="42.399339182970934" lon="12.72407043132148"><ele>885.6</ele><time>2026-04-12T10:45:39Z</time></trkpt><trkpt lat="42.399302142357655" lon="12.72399312556889"><ele>887.2</ele><time>2026-04-12T10:45:40Z</time></trkpt><trkpt lat="42.39926495448689" lon="12.723916782752832"><ele>888.8000000000001</ele><time>2026-04-12T10:45:41Z</time></trkpt><trkpt lat="42.399202141640714" lon="12.723798774908138"><ele>890.4000000000001</ele><time>2026-04-12T10:45:43Z</time></trkpt><trkpt lat="42.39911673213728" lon="12.723722377899374"><ele>892.0</ele><time>2026-04-12T10:45:45Z</time></trkpt><trkpt lat="42.39900943442587" lon="12.723665205858076"><ele>891.9999999999999</ele><time>2026-04-12T10:45:47Z</time></trkpt><trkpt lat="42.39894921495596" lon="12.723639712278866"><ele>892.0</ele><time>2026-04-12T10:45:48Z</time></trkpt><trkpt lat="42.39888670185643" lon="12.723618099082314"><ele>892.0</ele><time>2026-04-12T10:45:49Z</time></trkpt><trkpt lat="42.39881670577669" lon="12.723589084852305"><ele>892.0</ele><time>2026-04-12T10:45:50Z</time></trkpt><trkpt lat="42.39868899532137" lon="12.723501270455248"><ele>891.9999999999999</ele><time>2026-04-12T10:45:52Z</time></trkpt><trkpt lat="42.39860876707427" lon="12.723443577581223"><ele>892.0</ele><time>2026-04-12T10:45:53.001Z</time></trkpt><trkpt lat="42.398538034313056" lon="12.723391855440166"><ele>892.9999999999999</ele><time>2026-04-12T10:45:54.001Z</time></trkpt><trkpt lat="42.39846686473875" lon="12.723338704488928"><ele>894.0</ele><time>2026-04-12T10:45:55.001Z</time></trkpt><trkpt lat="42.39839617273365" lon="12.723284945775243"><ele>895.0</ele><time>2026-04-12T10:45:56.001Z</time></trkpt><trkpt lat="42.398324623687955" lon="12.723215486946627"><ele>896.0</ele><time>2026-04-12T10:45:57.001Z</time></trkpt><trkpt lat="42.39824587378884" lon="12.723147272039396"><ele>896.9999999999999</ele><time>2026-04-12T10:45:58.001Z</time></trkpt><trkpt lat="42.39816683918196" lon="12.723091621469154"><ele>898.0</ele><time>2026-04-12T10:45:59.001Z</time></trkpt><trkpt lat="42.398088171892546" lon="12.723064098922062"><ele>897.9999999999999</ele><time>2026-04-12T10:46:00.001Z</time></trkpt><trkpt lat="42.398013466985915" lon="12.723063436239451"><ele>898.0</ele><time>2026-04-12T10:46:01.001Z</time></trkpt><trkpt lat="42.39792682049185" lon="12.723047257854788"><ele>898.0</ele><time>2026-04-12T10:46:02.001Z</time></trkpt><trkpt lat="42.397845451529385" lon="12.723005266049492"><ele>898.0</ele><time>2026-04-12T10:46:03.001Z</time></trkpt><trkpt lat="42.3977673453722" lon="12.722959585150962"><ele>897.9999999999999</ele><time>2026-04-12T10:46:04.001Z</time></trkpt><trkpt lat="42.397686413654945" lon="12.722930810503438"><ele>898.0</ele><time>2026-04-12T10:46:05.001Z</time></trkpt><trkpt lat="42.397598436766785" lon="12.722917121298691"><ele>898.4</ele><time>2026-04-12T10:46:06.001Z</time></trkpt><trkpt lat="42.39750797819536" lon="12.722928688191836"><ele>898.8</ele><time>2026-04-12T10:46:07.001Z</time></trkpt><trkpt lat="42.39740847985423" lon="12.722953697763892"><ele>899.2</ele><time>2026-04-12T10:46:08.001Z</time></trkpt><trkpt lat="42.39730939283797" lon="12.722954387334383"><ele>899.6</ele><time>2026-04-12T10:46:09.001Z</time></trkpt><trkpt lat="42.39721800333103" lon="12.722960815406399"><ele>900.0</ele><time>2026-04-12T10:46:10.001Z</time></trkpt><trkpt lat="42.39712753749098" lon="12.722972478186694"><ele>900.0</ele><time>2026-04-12T10:46:11.001Z</time></trkpt><trkpt lat="42.39703952664898" lon="12.72299252485908"><ele>900.0</ele><time>2026-04-12T10:46:12.001Z</time></trkpt><trkpt lat="42.396962685027084" lon="12.723020331142031"><ele>900.0</ele><time>2026-04-12T10:46:13.001Z</time></trkpt><trkpt lat="42.396879311206405" lon="12.723053125887725"><ele>900.0</ele><time>2026-04-12T10:46:14.001Z</time></trkpt><trkpt lat="42.39678993208848" lon="12.72307866372399"><ele>900.0</ele><time>2026-04-12T10:46:15.001Z</time></trkpt><trkpt lat="42.39670534355625" lon="12.723100766403832"><ele>900.0</ele><time>2026-04-12T10:46:16.001Z</time></trkpt><trkpt lat="42.39661978430555" lon="12.723124655577772"><ele>900.0000000000001</ele><time>2026-04-12T10:46:17.001Z</time></trkpt><trkpt lat="42.39654622260242" lon="12.723155993075967"><ele>900.0</ele><time>2026-04-12T10:46:18.001Z</time></trkpt><trkpt lat="42.39648459851165" lon="12.723188213757103"><ele>900.0000000000001</ele><time>2026-04-12T10:46:19.001Z</time></trkpt><trkpt lat="42.39642194307644" lon="12.72322243868837"><ele>900.0000000000001</ele><time>2026-04-12T10:46:20.001Z</time></trkpt><trkpt lat="42.396352165929336" lon="12.723247405833261"><ele>900.0</ele><time>2026-04-12T10:46:21.001Z</time></trkpt><trkpt lat="42.39627278431814" lon="12.723257235525068"><ele>900.0000000000001</ele><time>2026-04-12T10:46:22.001Z</time></trkpt><trkpt lat="42.396197821693114" lon="12.723245665146138"><ele>900.0000000000001</ele><time>2026-04-12T10:46:23.001Z</time></trkpt><trkpt lat="42.39612179218564" lon="12.72322886224647"><ele>900.0000000000001</ele><time>2026-04-12T10:46:24.001Z</time></trkpt><trkpt lat="42.39605061543346" lon="12.723199746585811"><ele>900.0</ele><time>2026-04-12T10:46:25.001Z</time></trkpt><trkpt lat="42.395990564594136" lon="12.72315442715709"><ele>900.0000000000001</ele><time>2026-04-12T10:46:26.001Z</time></trkpt><trkpt lat="42.39593478006819" lon="12.723092370906956"><ele>900.0000000000001</ele><time>2026-04-12T10:46:27.001Z</time></trkpt><trkpt lat="42.39588313184825" lon="12.723017829541684"><ele>900.0</ele><time>2026-04-12T10:46:28.001Z</time></trkpt><trkpt lat="42.39582733566785" lon="12.722952857369494"><ele>900.0000000000001</ele><time>2026-04-12T10:46:29.001Z</time></trkpt><trkpt lat="42.39577116215878" lon="12.722908154329938"><ele>900.0000000000001</ele><time>2026-04-12T10:46:30.001Z</time></trkpt><trkpt lat="42.39570608823219" lon="12.722875546546783"><ele>900.0</ele><time>2026-04-12T10:46:31.001Z</time></trkpt><trkpt lat="42.395630753526135" lon="12.722866657444484"><ele>900.0</ele><time>2026-04-12T10:46:32.001Z</time></trkpt><trkpt lat="42.3955576237521" lon="12.7228778592913"><ele>900.0</ele><time>2026-04-12T10:46:33.001Z</time></trkpt><trkpt lat="42.39547287071178" lon="12.722876691667024"><ele>900.0</ele><time>2026-04-12T10:46:34.001Z</time></trkpt><trkpt lat="42.39539660408341" lon="12.722854264027042"><ele>900.0</ele><time>2026-04-12T10:46:35.001Z</time></trkpt><trkpt lat="42.395327288384365" lon="12.722898013356868"><ele>900.0</ele><time>2026-04-12T10:46:36.001Z</time></trkpt><trkpt lat="42.395250777109965" lon="12.722938572952778"><ele>900.0</ele><time>2026-04-12T10:46:37.001Z</time></trkpt><trkpt lat="42.39517410321265" lon="12.722980857951434"><ele>900.0</ele><time>2026-04-12T10:46:38.001Z</time></trkpt><trkpt lat="42.3950550138327" lon="12.723046577913921"><ele>900.0</ele><time>2026-04-12T10:46:40.001Z</time></trkpt><trkpt lat="42.39498195124393" lon="12.722988659621869"><ele>900.0</ele><time>2026-04-12T10:46:43.001Z</time></trkpt><trkpt lat="42.39490278204229" lon="12.722936264454866"><ele>900.0</ele><time>2026-04-12T10:46:44.001Z</time></trkpt><trkpt lat="42.394844620482175" lon="12.722877905504172"><ele>900.0</ele><time>2026-04-12T10:46:45.001Z</time></trkpt><trkpt lat="42.39477349424993" lon="12.7227997585017"><ele>900.0</ele><time>2026-04-12T10:46:46.001Z</time></trkpt><trkpt lat="42.39470062932318" lon="12.722731147471997"><ele>900.0</ele><time>2026-04-12T10:46:47.001Z</time></trkpt><trkpt lat="42.39462806934794" lon="12.722686095158917"><ele>900.0</ele><time>2026-04-12T10:46:48.001Z</time></trkpt><trkpt lat="42.394552142503215" lon="12.722671451374275"><ele>900.0</ele><time>2026-04-12T10:46:49.001Z</time></trkpt><trkpt lat="42.39447488555409" lon="12.72268030846389"><ele>900.0</ele><time>2026-04-12T10:46:50.001Z</time></trkpt><trkpt lat="42.394362299043024" lon="12.72269177119763"><ele>900.5</ele><time>2026-04-12T10:46:51.001Z</time></trkpt><trkpt lat="42.39429243511368" lon="12.722707142533515"><ele>901.0</ele><time>2026-04-12T10:46:52.001Z</time></trkpt><trkpt lat="42.39421663569507" lon="12.722720540699138"><ele>901.5</ele><time>2026-04-12T10:46:53.001Z</time></trkpt><trkpt lat="42.39413958901163" lon="12.722723031007977"><ele>902.0</ele><time>2026-04-12T10:46:54.001Z</time></trkpt><trkpt lat="42.394071129072785" lon="12.722731740932133"><ele>902.5</ele><time>2026-04-12T10:46:55.001Z</time></trkpt><trkpt lat="42.39397451845944" lon="12.722720350497479"><ele>903.0</ele><time>2026-04-12T10:46:57.001Z</time></trkpt><trkpt lat="42.39388543466139" lon="12.72265269685638"><ele>905.0</ele><time>2026-04-12T10:46:59.001Z</time></trkpt><trkpt lat="42.39383431845908" lon="12.722595718002625"><ele>907.0</ele><time>2026-04-12T10:47:00.001Z</time></trkpt><trkpt lat="42.39379254400094" lon="12.722525171917747"><ele>909.0</ele><time>2026-04-12T10:47:01.001Z</time></trkpt><trkpt lat="42.39375256244771" lon="12.722453032623594"><ele>911.0</ele><time>2026-04-12T10:47:02Z</time></trkpt><trkpt lat="42.39368475919565" lon="12.72230856275726"><ele>913.0</ele><time>2026-04-12T10:47:04Z</time></trkpt><trkpt lat="42.393653979725975" lon="12.72222283798935"><ele>915.0</ele><time>2026-04-12T10:47:05Z</time></trkpt><trkpt lat="42.393613509711976" lon="12.722126723153574"><ele>915.0</ele><time>2026-04-12T10:47:06Z</time></trkpt><trkpt lat="42.39358017078661" lon="12.722018057526341"><ele>915.0</ele><time>2026-04-12T10:47:07Z</time></trkpt><trkpt lat="42.39355187692447" lon="12.721911571419026"><ele>915.0</ele><time>2026-04-12T10:47:08Z</time></trkpt><trkpt lat="42.39347800596896" lon="12.721772664506588"><ele>915.0</ele><time>2026-04-12T10:47:10Z</time></trkpt><trkpt lat="42.393388082653544" lon="12.721699295062281"><ele>915.0</ele><time>2026-04-12T10:47:12Z</time></trkpt><trkpt lat="42.393260505863864" lon="12.721715255929244"><ele>916.4</ele><time>2026-04-12T10:47:14Z</time></trkpt><trkpt lat="42.39318746270939" lon="12.721753215435049"><ele>917.8</ele><time>2026-04-12T10:47:15Z</time></trkpt><trkpt lat="42.39312303556339" lon="12.721764876358591"><ele>919.2</ele><time>2026-04-12T10:47:16Z</time></trkpt><trkpt lat="42.393022762430576" lon="12.721704293515135"><ele>920.6</ele><time>2026-04-12T10:47:18Z</time></trkpt><trkpt lat="42.392926444954796" lon="12.721603293678545"><ele>922.0</ele><time>2026-04-12T10:47:20Z</time></trkpt><trkpt lat="42.39280839681111" lon="12.72160855856142"><ele>922.0</ele><time>2026-04-12T10:47:22Z</time></trkpt><trkpt lat="42.39273500589476" lon="12.72163945926076"><ele>922.0000000000001</ele><time>2026-04-12T10:47:23Z</time></trkpt><trkpt lat="42.392661644104265" lon="12.721670964246767"><ele>922.0</ele><time>2026-04-12T10:47:24Z</time></trkpt><trkpt lat="42.392587142338755" lon="12.721685762300384"><ele>922.0</ele><time>2026-04-12T10:47:25Z</time></trkpt><trkpt lat="42.39252256430483" lon="12.721704702911943"><ele>922.0000000000001</ele><time>2026-04-12T10:47:26Z</time></trkpt><trkpt lat="42.39245793977774" lon="12.72171630102761"><ele>922.0</ele><time>2026-04-12T10:47:27Z</time></trkpt><trkpt lat="42.392384188606" lon="12.721726279382969"><ele>922.0</ele><time>2026-04-12T10:47:28Z</time></trkpt><trkpt lat="42.39226547910917" lon="12.721685099015344"><ele>921.9999999999999</ele><time>2026-04-12T10:47:30Z</time></trkpt><trkpt lat="42.39219317842209" lon="12.721647162400375"><ele>922.0</ele><time>2026-04-12T10:47:31Z</time></trkpt><trkpt lat="42.39212500310599" lon="12.721622320296778"><ele>922.0</ele><time>2026-04-12T10:47:32Z</time></trkpt><trkpt lat="42.392052380759274" lon="12.721590123302528"><ele>922.0</ele><time>2026-04-12T10:47:33Z</time></trkpt><trkpt lat="42.39198856687905" lon="12.721555075782987"><ele>921.9999999999999</ele><time>2026-04-12T10:47:34Z</time></trkpt><trkpt lat="42.391929287836916" lon="12.721516617160042"><ele>922.0</ele><time>2026-04-12T10:47:35Z</time></trkpt><trkpt lat="42.39182629647898" lon="12.721432754171511"><ele>921.6</ele><time>2026-04-12T10:47:37Z</time></trkpt><trkpt lat="42.39172736315214" lon="12.7213448229622"><ele>921.2</ele><time>2026-04-12T10:47:39Z</time></trkpt><trkpt lat="42.391633764073205" lon="12.721248328199318"><ele>920.8</ele><time>2026-04-12T10:47:41Z</time></trkpt><trkpt lat="42.39158027909948" lon="12.721177150844252"><ele>920.4</ele><time>2026-04-12T10:47:42Z</time></trkpt><trkpt lat="42.39146037295161" lon="12.721088332102639"><ele>920.0</ele><time>2026-04-12T10:47:44Z</time></trkpt><trkpt lat="42.39133088272147" lon="12.721032087139964"><ele>919.5000000000001</ele><time>2026-04-12T10:47:46Z</time></trkpt><trkpt lat="42.391259139373275" lon="12.7210131999646"><ele>919.0</ele><time>2026-04-12T10:47:47Z</time></trkpt><trkpt lat="42.391187065507395" lon="12.7209686239866"><ele>918.5</ele><time>2026-04-12T10:47:48Z</time></trkpt><trkpt lat="42.3911071190399" lon="12.720921143339716"><ele>918.0</ele><time>2026-04-12T10:47:49Z</time></trkpt><trkpt lat="42.39102132183036" lon="12.720877813091997"><ele>917.5000000000001</ele><time>2026-04-12T10:47:50Z</time></trkpt><trkpt lat="42.39093633269485" lon="12.720842663808096"><ele>917.0</ele><time>2026-04-12T10:47:51Z</time></trkpt><trkpt lat="42.390860297155754" lon="12.720818781702727"><ele>917.0000000000001</ele><time>2026-04-12T10:47:52Z</time></trkpt><trkpt lat="42.39078223685266" lon="12.7207894789649"><ele>917.0</ele><time>2026-04-12T10:47:53Z</time></trkpt><trkpt lat="42.39070248375287" lon="12.720769445444057"><ele>917.0</ele><time>2026-04-12T10:47:54Z</time></trkpt><trkpt lat="42.39063829758351" lon="12.72073826129325"><ele>917.0</ele><time>2026-04-12T10:47:55Z</time></trkpt><trkpt lat="42.390556774201485" lon="12.720705659182679"><ele>917.0000000000001</ele><time>2026-04-12T10:47:56Z</time></trkpt><trkpt lat="42.390462601895166" lon="12.720659853901662"><ele>917.0</ele><time>2026-04-12T10:47:57Z</time></trkpt><trkpt lat="42.390368408194966" lon="12.720617257464024"><ele>919.1666666666667</ele><time>2026-04-12T10:47:58Z</time></trkpt><trkpt lat="42.39027520307631" lon="12.720591972700843"><ele>921.3333333333334</ele><time>2026-04-12T10:47:59Z</time></trkpt><trkpt lat="42.39019453952501" lon="12.720560057900576"><ele>923.5</ele><time>2026-04-12T10:48:00Z</time></trkpt><trkpt lat="42.39011873375275" lon="12.720555831752298"><ele>925.6666666666667</ele><time>2026-04-12T10:48:01Z</time></trkpt><trkpt lat="42.390030312586276" lon="12.720565249856136"><ele>927.8333333333334</ele><time>2026-04-12T10:48:02Z</time></trkpt><trkpt lat="42.38993826227658" lon="12.720575880652984"><ele>930.0</ele><time>2026-04-12T10:48:03Z</time></trkpt><trkpt lat="42.38984257974905" lon="12.720588075402611"><ele>930.0</ele><time>2026-04-12T10:48:04Z</time></trkpt><trkpt lat="42.38976811409548" lon="12.720598578195064"><ele>930.0</ele><time>2026-04-12T10:48:05Z</time></trkpt><trkpt lat="42.38965663233826" lon="12.720672841987945"><ele>930.0</ele><time>2026-04-12T10:48:07Z</time></trkpt><trkpt lat="42.38960245796393" lon="12.720729700866086"><ele>930.0</ele><time>2026-04-12T10:48:08Z</time></trkpt><trkpt lat="42.38954426779599" lon="12.72078579946596"><ele>930.0</ele><time>2026-04-12T10:48:09.001Z</time></trkpt><trkpt lat="42.3894566431204" lon="12.720840793791462"><ele>930.0</ele><time>2026-04-12T10:48:10.001Z</time></trkpt><trkpt lat="42.389386530641445" lon="12.720862193993138"><ele>932.3333333333334</ele><time>2026-04-12T10:48:11.001Z</time></trkpt><trkpt lat="42.38930231663366" lon="12.720894713840615"><ele>934.6666666666667</ele><time>2026-04-12T10:48:12.001Z</time></trkpt><trkpt lat="42.38921235794407" lon="12.720932560803874"><ele>937.0</ele><time>2026-04-12T10:48:13.001Z</time></trkpt><trkpt lat="42.38912398067687" lon="12.72095461882614"><ele>939.3333333333334</ele><time>2026-04-12T10:48:14.001Z</time></trkpt><trkpt lat="42.38903971845047" lon="12.720953424741635"><ele>941.6666666666667</ele><time>2026-04-12T10:48:15.001Z</time></trkpt><trkpt lat="42.38897713368894" lon="12.720968077869747"><ele>944.0</ele><time>2026-04-12T10:48:16.001Z</time></trkpt><trkpt lat="42.38891562406398" lon="12.720991598866885"><ele>945.6666666666667</ele><time>2026-04-12T10:48:17.001Z</time></trkpt><trkpt lat="42.38884326084082" lon="12.721099346441328"><ele>947.3333333333334</ele><time>2026-04-12T10:48:19.001Z</time></trkpt><trkpt lat="42.388817663456216" lon="12.721188649289646"><ele>949.0</ele><time>2026-04-12T10:48:20.001Z</time></trkpt><trkpt lat="42.38878811940199" lon="12.721285417283353"><ele>950.6666666666667</ele><time>2026-04-12T10:48:21.001Z</time></trkpt><trkpt lat="42.388742275653044" lon="12.721366911319407"><ele>952.3333333333334</ele><time>2026-04-12T10:48:22.001Z</time></trkpt><trkpt lat="42.38867077475858" lon="12.721442491663344"><ele>954.0</ele><time>2026-04-12T10:48:23.001Z</time></trkpt><trkpt lat="42.38862339025914" lon="12.721511703420155"><ele>955.4000000000001</ele><time>2026-04-12T10:48:24.001Z</time></trkpt><trkpt lat="42.38855032905131" lon="12.721580758758897"><ele>956.8000000000001</ele><time>2026-04-12T10:48:25.001Z</time></trkpt><trkpt lat="42.38848185285236" lon="12.721651987796609"><ele>958.1999999999999</ele><time>2026-04-12T10:48:26.001Z</time></trkpt><trkpt lat="42.38840281173449" lon="12.721729598205446"><ele>959.5999999999999</ele><time>2026-04-12T10:48:27.001Z</time></trkpt><trkpt lat="42.38833725139348" lon="12.721817444059772"><ele>961.0</ele><time>2026-04-12T10:48:28.001Z</time></trkpt><trkpt lat="42.38826845262615" lon="12.721898273591073"><ele>962.3333333333333</ele><time>2026-04-12T10:48:29.001Z</time></trkpt><trkpt lat="42.38820622369026" lon="12.721973348099505"><ele>963.6666666666666</ele><time>2026-04-12T10:48:30.001Z</time></trkpt><trkpt lat="42.38815494795882" lon="12.722047934586758"><ele>965.0</ele><time>2026-04-12T10:48:31.001Z</time></trkpt><trkpt lat="42.38808497868515" lon="12.722107092618682"><ele>966.3333333333333</ele><time>2026-04-12T10:48:32.001Z</time></trkpt><trkpt lat="42.388057110194744" lon="12.722215806227796"><ele>967.6666666666666</ele><time>2026-04-12T10:48:33.001Z</time></trkpt><trkpt lat="42.3880153206259" lon="12.722301325356703"><ele>969.0</ele><time>2026-04-12T10:48:34.001Z</time></trkpt><trkpt lat="42.387971969795395" lon="12.722407471301883"><ele>971.8333333333334</ele><time>2026-04-12T10:48:35.001Z</time></trkpt><trkpt lat="42.38793388177728" lon="12.722518806710632"><ele>974.6666666666667</ele><time>2026-04-12T10:48:36.001Z</time></trkpt><trkpt lat="42.38790903483076" lon="12.722617131842982"><ele>977.5</ele><time>2026-04-12T10:48:37.001Z</time></trkpt><trkpt lat="42.38788674952957" lon="12.722733218426596"><ele>980.3333333333334</ele><time>2026-04-12T10:48:38.001Z</time></trkpt><trkpt lat="42.387874959927856" lon="12.722841496893613"><ele>983.1666666666667</ele><time>2026-04-12T10:48:39.001Z</time></trkpt><trkpt lat="42.387877464469895" lon="12.722954361084733"><ele>986.0</ele><time>2026-04-12T10:48:40.001Z</time></trkpt><trkpt lat="42.38787518466054" lon="12.723087927730347"><ele>986.5999999999999</ele><time>2026-04-12T10:48:41.001Z</time></trkpt><trkpt lat="42.38788179991091" lon="12.72321367174754"><ele>987.1999999999999</ele><time>2026-04-12T10:48:42.001Z</time></trkpt><trkpt lat="42.3878862830827" lon="12.723334379627586"><ele>987.8000000000001</ele><time>2026-04-12T10:48:43.001Z</time></trkpt><trkpt lat="42.38789980530982" lon="12.723436155902201"><ele>988.4000000000001</ele><time>2026-04-12T10:48:44.001Z</time></trkpt><trkpt lat="42.38795373185582" lon="12.72354609279193"><ele>989.0</ele><time>2026-04-12T10:48:46.001Z</time></trkpt><trkpt lat="42.38803812679497" lon="12.72362121104942"><ele>989.2</ele><time>2026-04-12T10:48:48.001Z</time></trkpt><trkpt lat="42.38812067931102" lon="12.72371425248408"><ele>989.4000000000001</ele><time>2026-04-12T10:48:50.001Z</time></trkpt><trkpt lat="42.38805446100469" lon="12.723807112685595"><ele>989.6</ele><time>2026-04-12T10:48:54.001Z</time></trkpt><trkpt lat="42.38795227978329" lon="12.723885208145667"><ele>989.8</ele><time>2026-04-12T10:48:56.001Z</time></trkpt><trkpt lat="42.3878459635492" lon="12.723980843823057"><ele>990.0</ele><time>2026-04-12T10:48:58.001Z</time></trkpt><trkpt lat="42.38778414595065" lon="12.724039415974994"><ele>990.0</ele><time>2026-04-12T10:48:59.001Z</time></trkpt><trkpt lat="42.38771380465783" lon="12.72411615909599"><ele>990.0</ele><time>2026-04-12T10:49:00.001Z</time></trkpt><trkpt lat="42.38765137802997" lon="12.724188294747144"><ele>990.0</ele><time>2026-04-12T10:49:01.001Z</time></trkpt><trkpt lat="42.387596990131364" lon="12.724272544924855"><ele>990.0</ele><time>2026-04-12T10:49:02.001Z</time></trkpt><trkpt lat="42.387544326808566" lon="12.724358964187388"><ele>990.0</ele><time>2026-04-12T10:49:03.001Z</time></trkpt><trkpt lat="42.38748682056689" lon="12.724452668332624"><ele>990.0</ele><time>2026-04-12T10:49:04.001Z</time></trkpt><trkpt lat="42.38744454145267" lon="12.72456378648782"><ele>989.8333333333334</ele><time>2026-04-12T10:49:05.001Z</time></trkpt><trkpt lat="42.387406786920394" lon="12.7246517473206"><ele>989.6666666666667</ele><time>2026-04-12T10:49:06.001Z</time></trkpt><trkpt lat="42.38735577624838" lon="12.724714988289625"><ele>989.5</ele><time>2026-04-12T10:49:07.001Z</time></trkpt><trkpt lat="42.38731717628449" lon="12.724794917623532"><ele>989.3333333333334</ele><time>2026-04-12T10:49:08Z</time></trkpt><trkpt lat="42.38727061256889" lon="12.724893490007059"><ele>989.1666666666667</ele><time>2026-04-12T10:49:09Z</time></trkpt><trkpt lat="42.38721619425146" lon="12.725000082329132"><ele>989.0</ele><time>2026-04-12T10:49:10Z</time></trkpt><trkpt lat="42.38715446595099" lon="12.725066864487749"><ele>990.8333333333334</ele><time>2026-04-12T10:49:11Z</time></trkpt><trkpt lat="42.38709509473361" lon="12.725149021610914"><ele>992.6666666666667</ele><time>2026-04-12T10:49:12Z</time></trkpt><trkpt lat="42.38703060753032" lon="12.725218327468163"><ele>994.5</ele><time>2026-04-12T10:49:13Z</time></trkpt><trkpt lat="42.38696768447827" lon="12.725291033821437"><ele>996.3333333333333</ele><time>2026-04-12T10:49:14Z</time></trkpt><trkpt lat="42.386925556994" lon="12.725359835421683"><ele>998.1666666666666</ele><time>2026-04-12T10:49:15Z</time></trkpt><trkpt lat="42.38687120847792" lon="12.725448123465917"><ele>1000.0</ele><time>2026-04-12T10:49:16Z</time></trkpt><trkpt lat="42.38682925637365" lon="12.725520593938915"><ele>1000.0</ele><time>2026-04-12T10:49:17Z</time></trkpt><trkpt lat="42.38680115487069" lon="12.725605123430887"><ele>1000.0</ele><time>2026-04-12T10:49:18Z</time></trkpt><trkpt lat="42.386800281143536" lon="12.725703193460626"><ele>1000.0</ele><time>2026-04-12T10:49:19Z</time></trkpt><trkpt lat="42.38679614393595" lon="12.725802871488897"><ele>1000.0</ele><time>2026-04-12T10:49:20Z</time></trkpt><trkpt lat="42.386783832908336" lon="12.72590094537869"><ele>1000.0</ele><time>2026-04-12T10:49:21Z</time></trkpt><trkpt lat="42.386758747756666" lon="12.726005391267522"><ele>1000.0</ele><time>2026-04-12T10:49:22Z</time></trkpt><trkpt lat="42.38672475882705" lon="12.72610372982652"><ele>1000.0</ele><time>2026-04-12T10:49:23Z</time></trkpt><trkpt lat="42.38668443199373" lon="12.726221678979684"><ele>999.6666666666666</ele><time>2026-04-12T10:49:24Z</time></trkpt><trkpt lat="42.386653761872736" lon="12.726348984487904"><ele>999.3333333333333</ele><time>2026-04-12T10:49:25Z</time></trkpt><trkpt lat="42.386632333266796" lon="12.726471840444876"><ele>999.0</ele><time>2026-04-12T10:49:26Z</time></trkpt><trkpt lat="42.38659716918034" lon="12.726579601587861"><ele>998.6666666666667</ele><time>2026-04-12T10:49:27Z</time></trkpt><trkpt lat="42.38656303724982" lon="12.726660484257811"><ele>998.3333333333334</ele><time>2026-04-12T10:49:28Z</time></trkpt><trkpt lat="42.38651861820373" lon="12.726749325137712"><ele>998.0</ele><time>2026-04-12T10:49:30Z</time></trkpt><trkpt lat="42.38652788732424" lon="12.726846940282229"><ele>998.0000000000001</ele><time>2026-04-12T10:51:06.001Z</time></trkpt><trkpt lat="42.38657022032479" lon="12.726768041581808"><ele>998.0</ele><time>2026-04-12T10:51:11.001Z</time></trkpt><trkpt lat="42.38652045325302" lon="12.726709759955064"><ele>998.0</ele><time>2026-04-12T10:51:21Z</time></trkpt><trkpt lat="42.38648082911056" lon="12.726559676595828"><ele>998.0</ele><time>2026-04-12T10:51:23Z</time></trkpt><trkpt lat="42.38646972556421" lon="12.726467913001002"><ele>998.0000000000001</ele><time>2026-04-12T10:51:24Z</time></trkpt><trkpt lat="42.386446850602105" lon="12.726368194611771"><ele>998.0</ele><time>2026-04-12T10:51:25Z</time></trkpt><trkpt lat="42.386423786346555" lon="12.726283408600217"><ele>998.0000000000001</ele><time>2026-04-12T10:51:26Z</time></trkpt><trkpt lat="42.3863995772997" lon="12.726195515411106"><ele>998.0</ele><time>2026-04-12T10:51:27Z</time></trkpt><trkpt lat="42.38637031075471" lon="12.726027210461025"><ele>998.0</ele><time>2026-04-12T10:51:29Z</time></trkpt><trkpt lat="42.386366998550194" lon="12.725921948092566"><ele>998.0</ele><time>2026-04-12T10:51:30Z</time></trkpt><trkpt lat="42.38636904533277" lon="12.72582169322078"><ele>998.0000000000001</ele><time>2026-04-12T10:51:31Z</time></trkpt><trkpt lat="42.38637892665788" lon="12.72571635826365"><ele>998.0</ele><time>2026-04-12T10:51:32Z</time></trkpt><trkpt lat="42.38638813060046" lon="12.725619183197038"><ele>998.3333333333334</ele><time>2026-04-12T10:51:33Z</time></trkpt><trkpt lat="42.3864010590561" lon="12.72552237010367"><ele>998.6666666666667</ele><time>2026-04-12T10:51:34Z</time></trkpt><trkpt lat="42.386413773881486" lon="12.72542157756292"><ele>999.0</ele><time>2026-04-12T10:51:35Z</time></trkpt><trkpt lat="42.38643207399557" lon="12.725269042982678"><ele>999.3333333333333</ele><time>2026-04-12T10:51:37Z</time></trkpt><trkpt lat="42.38640854863559" lon="12.72517133707368"><ele>999.6666666666666</ele><time>2026-04-12T10:51:39Z</time></trkpt><trkpt lat="42.386318239602986" lon="12.725110852396405"><ele>1000.0</ele><time>2026-04-12T10:51:41Z</time></trkpt><trkpt lat="42.38624212022545" lon="12.725049925256307"><ele>1003.0</ele><time>2026-04-12T10:51:43Z</time></trkpt><trkpt lat="42.38616905985705" lon="12.724950733670946"><ele>1006.0</ele><time>2026-04-12T10:51:45Z</time></trkpt><trkpt lat="42.38609142452543" lon="12.724883336481197"><ele>1009.0</ele><time>2026-04-12T10:51:47Z</time></trkpt><trkpt lat="42.386022804366114" lon="12.7247883516486"><ele>1012.0</ele><time>2026-04-12T10:51:49Z</time></trkpt><trkpt lat="42.3859495111823" lon="12.72470535272585"><ele>1015.0</ele><time>2026-04-12T10:51:51Z</time></trkpt><trkpt lat="42.38589215158456" lon="12.724656968070493"><ele>1015.0</ele><time>2026-04-12T10:51:52Z</time></trkpt><trkpt lat="42.38579366625914" lon="12.724611197317552"><ele>1015.0</ele><time>2026-04-12T10:51:54Z</time></trkpt><trkpt lat="42.385676697385385" lon="12.724596926299974"><ele>1015.0</ele><time>2026-04-12T10:51:56Z</time></trkpt><trkpt lat="42.3855768678736" lon="12.724601812359099"><ele>1015.0</ele><time>2026-04-12T10:51:58Z</time></trkpt><trkpt lat="42.38549224225561" lon="12.724596180969142"><ele>1015.0</ele><time>2026-04-12T10:52:00Z</time></trkpt><trkpt lat="42.3854346008737" lon="12.724548603547603"><ele>1014.0</ele><time>2026-04-12T10:52:02Z</time></trkpt><trkpt lat="42.38538850854589" lon="12.724456324030664"><ele>1013.0</ele><time>2026-04-12T10:52:04.001Z</time></trkpt><trkpt lat="42.38533841653969" lon="12.724317502566745"><ele>1012.0</ele><time>2026-04-12T10:52:06.001Z</time></trkpt><trkpt lat="42.385285151481625" lon="12.724181550001378"><ele>1011.0</ele><time>2026-04-12T10:52:08.001Z</time></trkpt><trkpt lat="42.38524283900841" lon="12.724025143709868"><ele>1010.0</ele><time>2026-04-12T10:52:10.001Z</time></trkpt><trkpt lat="42.385224359873924" lon="12.723927972781402"><ele>1015.2</ele><time>2026-04-12T10:52:11.001Z</time></trkpt><trkpt lat="42.38517786125566" lon="12.723792539852933"><ele>1020.4</ele><time>2026-04-12T10:52:13.001Z</time></trkpt><trkpt lat="42.385106959720716" lon="12.723688655685033"><ele>1025.6</ele><time>2026-04-12T10:52:15.001Z</time></trkpt><trkpt lat="42.38507060097245" lon="12.72361823517713"><ele>1030.8</ele><time>2026-04-12T10:52:16.001Z</time></trkpt><trkpt lat="42.38502512922246" lon="12.723486290320201"><ele>1036.0</ele><time>2026-04-12T10:52:18.001Z</time></trkpt><trkpt lat="42.38499664926761" lon="12.723366993739676"><ele>1036.6666666666665</ele><time>2026-04-12T10:52:20.001Z</time></trkpt><trkpt lat="42.38495819346107" lon="12.723251957479565"><ele>1037.3333333333333</ele><time>2026-04-12T10:52:22.001Z</time></trkpt><trkpt lat="42.38492720270519" lon="12.723164333928477"><ele>1038.0</ele><time>2026-04-12T10:52:24.001Z</time></trkpt><trkpt lat="42.3848700982241" lon="12.723091189248402"><ele>1038.6666666666667</ele><time>2026-04-12T10:52:26.001Z</time></trkpt><trkpt lat="42.384797580517386" lon="12.723034332306625"><ele>1039.3333333333335</ele><time>2026-04-12T10:52:28.001Z</time></trkpt><trkpt lat="42.38472170649768" lon="12.723036855237256"><ele>1040.0</ele><time>2026-04-12T10:52:30.001Z</time></trkpt><trkpt lat="42.384640218293264" lon="12.72300978937815"><ele>1034.8333333333335</ele><time>2026-04-12T10:52:32.001Z</time></trkpt><trkpt lat="42.384582155003656" lon="12.722969174664374"><ele>1029.6666666666667</ele><time>2026-04-12T10:52:34.001Z</time></trkpt><trkpt lat="42.384521695197286" lon="12.722895812795782"><ele>1024.5</ele><time>2026-04-12T10:52:36.001Z</time></trkpt><trkpt lat="42.384489873582176" lon="12.72279182380465"><ele>1019.3333333333333</ele><time>2026-04-12T10:52:38.001Z</time></trkpt><trkpt lat="42.38448783663642" lon="12.722695736181322"><ele>1014.1666666666666</ele><time>2026-04-12T10:52:40.001Z</time></trkpt><trkpt lat="42.38451612501533" lon="12.722611542421106"><ele>1009.0</ele><time>2026-04-12T10:52:43.001Z</time></trkpt><trkpt lat="42.384499008784566" lon="12.722504790878702"><ele>1008.2</ele><time>2026-04-12T10:52:44.001Z</time></trkpt><trkpt lat="42.38451359175928" lon="12.722350230566649"><ele>1007.4000000000001</ele><time>2026-04-12T10:52:46.001Z</time></trkpt><trkpt lat="42.38451731005651" lon="12.722235711099366"><ele>1006.6</ele><time>2026-04-12T10:52:48.001Z</time></trkpt><trkpt lat="42.38453589146101" lon="12.722143439529308"><ele>1005.8</ele><time>2026-04-12T10:52:50.001Z</time></trkpt><trkpt lat="42.38452626822311" lon="12.72201308662791"><ele>1005.0</ele><time>2026-04-12T10:52:52.001Z</time></trkpt><trkpt lat="42.38452450100544" lon="12.72189345060094"><ele>1004.2</ele><time>2026-04-12T10:52:54.001Z</time></trkpt><trkpt lat="42.38453877056965" lon="12.72176208795966"><ele>1003.4</ele><time>2026-04-12T10:52:56.001Z</time></trkpt><trkpt lat="42.384557143754705" lon="12.72163478611995"><ele>1002.5999999999999</ele><time>2026-04-12T10:52:58.001Z</time></trkpt><trkpt lat="42.38457432983817" lon="12.7214919349218"><ele>1001.8</ele><time>2026-04-12T10:53:00.001Z</time></trkpt><trkpt lat="42.38458718243921" lon="12.721384809659858"><ele>1001.0</ele><time>2026-04-12T10:53:02.001Z</time></trkpt><trkpt lat="42.38459590717896" lon="12.721255488911572"><ele>1001.0</ele><time>2026-04-12T10:53:04.001Z</time></trkpt><trkpt lat="42.384592529677846" lon="12.721138561768512"><ele>1000.9999999999999</ele><time>2026-04-12T10:53:06.001Z</time></trkpt><trkpt lat="42.38462394279565" lon="12.721034024033079"><ele>1000.9999999999999</ele><time>2026-04-12T10:53:07.001Z</time></trkpt><trkpt lat="42.3846474266094" lon="12.72089732288154"><ele>1001.0</ele><time>2026-04-12T10:53:09.001Z</time></trkpt><trkpt lat="42.3846175168327" lon="12.720790745343942"><ele>1001.0</ele><time>2026-04-12T10:53:11.001Z</time></trkpt><trkpt lat="42.38459066605261" lon="12.7206566331591"><ele>1000.5999999999999</ele><time>2026-04-12T10:53:13.001Z</time></trkpt><trkpt lat="42.38457276552546" lon="12.72050696658092"><ele>1000.1999999999999</ele><time>2026-04-12T10:53:15.001Z</time></trkpt><trkpt lat="42.384545542861446" lon="12.720370907200328"><ele>999.8000000000001</ele><time>2026-04-12T10:53:17.001Z</time></trkpt><trkpt lat="42.384523190406625" lon="12.720247048421934"><ele>999.4000000000001</ele><time>2026-04-12T10:53:19.001Z</time></trkpt><trkpt lat="42.38452991839364" lon="12.720159316809546"><ele>999.0</ele><time>2026-04-12T10:53:20Z</time></trkpt><trkpt lat="42.384520577651735" lon="12.720011365620413"><ele>1000.6</ele><time>2026-04-12T10:53:22Z</time></trkpt><trkpt lat="42.384518630884294" lon="12.719865886163012"><ele>1002.2</ele><time>2026-04-12T10:53:24Z</time></trkpt><trkpt lat="42.384520368446765" lon="12.719748037222319"><ele>1003.8000000000001</ele><time>2026-04-12T10:53:26Z</time></trkpt><trkpt lat="42.384437724842705" lon="12.719662247862697"><ele>1005.4000000000001</ele><time>2026-04-12T10:53:28Z</time></trkpt><trkpt lat="42.38432722984144" lon="12.719590268230103"><ele>1007.0</ele><time>2026-04-12T10:53:30Z</time></trkpt><trkpt lat="42.3842431244754" lon="12.719472883830493"><ele>1007.0000000000001</ele><time>2026-04-12T10:53:32Z</time></trkpt><trkpt lat="42.38414444912297" lon="12.719428670197898"><ele>1007.0</ele><time>2026-04-12T10:53:34Z</time></trkpt><trkpt lat="42.384060602827184" lon="12.719480013105281"><ele>1007.0</ele><time>2026-04-12T10:53:36Z</time></trkpt><trkpt lat="42.38400039944727" lon="12.719518655122041"><ele>1007.0</ele><time>2026-04-12T10:53:37Z</time></trkpt><trkpt lat="42.38393975743478" lon="12.719554441902087"><ele>1007.0000000000001</ele><time>2026-04-12T10:53:38Z</time></trkpt><trkpt lat="42.38386189788782" lon="12.719602865628902"><ele>1007.0</ele><time>2026-04-12T10:53:39Z</time></trkpt><trkpt lat="42.38379877640215" lon="12.719656218452107"><ele>1008.8333333333334</ele><time>2026-04-12T10:53:40Z</time></trkpt><trkpt lat="42.38373367932988" lon="12.719705887606212"><ele>1010.6666666666667</ele><time>2026-04-12T10:53:41Z</time></trkpt><trkpt lat="42.38367102915416" lon="12.71975173452312"><ele>1012.5</ele><time>2026-04-12T10:53:42Z</time></trkpt><trkpt lat="42.38360953644966" lon="12.719792688668829"><ele>1014.3333333333333</ele><time>2026-04-12T10:53:43Z</time></trkpt><trkpt lat="42.38354643994616" lon="12.719825978047737"><ele>1016.1666666666666</ele><time>2026-04-12T10:53:44Z</time></trkpt><trkpt lat="42.383420738075934" lon="12.71990506616198"><ele>1018.0</ele><time>2026-04-12T10:53:46Z</time></trkpt><trkpt lat="42.38335355337546" lon="12.719942102245763"><ele>1017.9999999999999</ele><time>2026-04-12T10:53:47Z</time></trkpt><trkpt lat="42.383277395731916" lon="12.719980022190944"><ele>1018.0</ele><time>2026-04-12T10:53:48Z</time></trkpt><trkpt lat="42.3832060599318" lon="12.720021360348529"><ele>1017.9999999999999</ele><time>2026-04-12T10:53:49Z</time></trkpt><trkpt lat="42.383140951035955" lon="12.720074469632765"><ele>1017.9999999999999</ele><time>2026-04-12T10:53:50Z</time></trkpt><trkpt lat="42.38308085068144" lon="12.720116938364782"><ele>1018.0</ele><time>2026-04-12T10:53:51Z</time></trkpt><trkpt lat="42.383023393084486" lon="12.720164806356905"><ele>1017.9999999999999</ele><time>2026-04-12T10:53:52Z</time></trkpt><trkpt lat="42.38296200589973" lon="12.720209342001741"><ele>1017.9999999999999</ele><time>2026-04-12T10:53:53Z</time></trkpt><trkpt lat="42.382898816335214" lon="12.720254869341941"><ele>1015.8</ele><time>2026-04-12T10:53:54Z</time></trkpt><trkpt lat="42.38278584453579" lon="12.720357472840341"><ele>1013.5999999999999</ele><time>2026-04-12T10:53:56Z</time></trkpt><trkpt lat="42.38273016778106" lon="12.720400471913269"><ele>1011.4000000000001</ele><time>2026-04-12T10:53:57Z</time></trkpt><trkpt lat="42.38261532525117" lon="12.720457726639337"><ele>1009.2</ele><time>2026-04-12T10:53:59Z</time></trkpt><trkpt lat="42.38255104891707" lon="12.720489293429312"><ele>1007.0</ele><time>2026-04-12T10:54:00Z</time></trkpt><trkpt lat="42.38247455447142" lon="12.720513986152945"><ele>1007.0000000000001</ele><time>2026-04-12T10:54:01Z</time></trkpt><trkpt lat="42.38240659638459" lon="12.720536176576868"><ele>1007.0</ele><time>2026-04-12T10:54:02Z</time></trkpt><trkpt lat="42.382345792361974" lon="12.720562442014744"><ele>1007.0</ele><time>2026-04-12T10:54:03Z</time></trkpt><trkpt lat="42.382247992957524" lon="12.720673696678695"><ele>1007.0</ele><time>2026-04-12T10:54:05Z</time></trkpt><trkpt lat="42.3821987368281" lon="12.720769777214567"><ele>1007.0000000000001</ele><time>2026-04-12T10:54:06Z</time></trkpt><trkpt lat="42.38216460135184" lon="12.720864996490974"><ele>1007.0</ele><time>2026-04-12T10:54:07Z</time></trkpt><trkpt lat="42.38214981818533" lon="12.720948358170663"><ele>1005.4000000000001</ele><time>2026-04-12T10:54:08Z</time></trkpt><trkpt lat="42.382111885174474" lon="12.721062377341172"><ele>1003.8000000000001</ele><time>2026-04-12T10:54:09Z</time></trkpt><trkpt lat="42.38207822275562" lon="12.721152373401342"><ele>1002.2</ele><time>2026-04-12T10:54:10Z</time></trkpt><trkpt lat="42.38201453574709" lon="12.72128400098519"><ele>1000.6</ele><time>2026-04-12T10:54:12Z</time></trkpt><trkpt lat="42.38194873742693" lon="12.721386300253846"><ele>999.0</ele><time>2026-04-12T10:54:14Z</time></trkpt><trkpt lat="42.381830484700906" lon="12.721376221642197"><ele>999.0</ele><time>2026-04-12T10:54:16Z</time></trkpt><trkpt lat="42.38174362034179" lon="12.721396773041993"><ele>999.0000000000001</ele><time>2026-04-12T10:54:17Z</time></trkpt><trkpt lat="42.381667854570736" lon="12.721416449998877"><ele>999.0000000000001</ele><time>2026-04-12T10:54:18Z</time></trkpt><trkpt lat="42.38152908713726" lon="12.721429261536958"><ele>999.0</ele><time>2026-04-12T10:54:20Z</time></trkpt><trkpt lat="42.38146146737023" lon="12.721447248039006"><ele>999.0</ele><time>2026-04-12T10:54:21Z</time></trkpt><trkpt lat="42.38137285900789" lon="12.721459393847205"><ele>1003.0</ele><time>2026-04-12T10:54:22.001Z</time></trkpt><trkpt lat="42.38126661926548" lon="12.721477412536174"><ele>1007.0000000000001</ele><time>2026-04-12T10:54:24.001Z</time></trkpt><trkpt lat="42.381127629250585" lon="12.721469172074858"><ele>1011.0000000000001</ele><time>2026-04-12T10:54:26.001Z</time></trkpt><trkpt lat="42.38105052627861" lon="12.72148685945353"><ele>1015.0</ele><time>2026-04-12T10:54:27.001Z</time></trkpt><trkpt lat="42.38097116472862" lon="12.721525919670935"><ele>1019.0</ele><time>2026-04-12T10:54:28.001Z</time></trkpt><trkpt lat="42.38087458768319" lon="12.721563874088762"><ele>1019.0000000000001</ele><time>2026-04-12T10:54:29.001Z</time></trkpt><trkpt lat="42.38080913178881" lon="12.721592147936228"><ele>1019.0</ele><time>2026-04-12T10:54:30.001Z</time></trkpt><trkpt lat="42.38073071660666" lon="12.721646078328021"><ele>1019.0</ele><time>2026-04-12T10:54:31.001Z</time></trkpt><trkpt lat="42.38065339022704" lon="12.721664635749187"><ele>1019.0</ele><time>2026-04-12T10:54:32.001Z</time></trkpt><trkpt lat="42.38057958048636" lon="12.721691954953322"><ele>1019.0000000000001</ele><time>2026-04-12T10:54:33.001Z</time></trkpt><trkpt lat="42.38050375402111" lon="12.721699239011901"><ele>1019.0</ele><time>2026-04-12T10:54:34.001Z</time></trkpt><trkpt lat="42.380426781354394" lon="12.721715942432335"><ele>1020.0000000000001</ele><time>2026-04-12T10:54:35.001Z</time></trkpt><trkpt lat="42.380353630835046" lon="12.721736905853204"><ele>1021.0</ele><time>2026-04-12T10:54:36.001Z</time></trkpt><trkpt lat="42.380273741650335" lon="12.721749376439371"><ele>1022.0</ele><time>2026-04-12T10:54:37.001Z</time></trkpt><trkpt lat="42.38018729128109" lon="12.721771407899691"><ele>1023.0</ele><time>2026-04-12T10:54:38.001Z</time></trkpt><trkpt lat="42.3801175927568" lon="12.721789466065784"><ele>1024.0</ele><time>2026-04-12T10:54:39.001Z</time></trkpt><trkpt lat="42.38004223035933" lon="12.721795580216213"><ele>1025.0</ele><time>2026-04-12T10:54:40.001Z</time></trkpt><trkpt lat="42.379971731702064" lon="12.721821573585986"><ele>1025.0</ele><time>2026-04-12T10:54:41.001Z</time></trkpt><trkpt lat="42.37985544226625" lon="12.72182547958051"><ele>1025.0</ele><time>2026-04-12T10:54:43.001Z</time></trkpt><trkpt lat="42.37978497203565" lon="12.721824444142685"><ele>1025.0</ele><time>2026-04-12T10:54:44.001Z</time></trkpt><trkpt lat="42.37971528805865" lon="12.721803839908272"><ele>1025.0</ele><time>2026-04-12T10:54:45.001Z</time></trkpt><trkpt lat="42.37965569012961" lon="12.721772578119612"><ele>1025.0</ele><time>2026-04-12T10:54:46.001Z</time></trkpt><trkpt lat="42.379535652337054" lon="12.721699204352065"><ele>1024.4</ele><time>2026-04-12T10:54:48.001Z</time></trkpt><trkpt lat="42.37946267119582" lon="12.721640608930171"><ele>1023.8</ele><time>2026-04-12T10:54:49.001Z</time></trkpt><trkpt lat="42.379383388485586" lon="12.72161227392683"><ele>1023.2</ele><time>2026-04-12T10:54:50.001Z</time></trkpt><trkpt lat="42.37927411942997" lon="12.721584174183358"><ele>1022.6</ele><time>2026-04-12T10:54:52.001Z</time></trkpt><trkpt lat="42.379208929290606" lon="12.721526881651723"><ele>1022.0</ele><time>2026-04-12T10:54:53.001Z</time></trkpt><trkpt lat="42.3791048453681" lon="12.721482552456603"><ele>1022.0</ele><time>2026-04-12T10:54:55.001Z</time></trkpt><trkpt lat="42.37903905917167" lon="12.721453154224987"><ele>1022.0</ele><time>2026-04-12T10:54:56.001Z</time></trkpt><trkpt lat="42.37894431811473" lon="12.721407092149311"><ele>1022.0</ele><time>2026-04-12T10:54:58.001Z</time></trkpt><trkpt lat="42.37884601418086" lon="12.721402111142424"><ele>1022.0</ele><time>2026-04-12T10:55:00.001Z</time></trkpt><trkpt lat="42.37875588432218" lon="12.721470953116578"><ele>1022.0</ele><time>2026-04-12T10:55:02.001Z</time></trkpt><trkpt lat="42.37868722322033" lon="12.721601427673615"><ele>1020.5000000000001</ele><time>2026-04-12T10:55:04.001Z</time></trkpt><trkpt lat="42.378648214257666" lon="12.721685796242715"><ele>1019.0</ele><time>2026-04-12T10:55:05.001Z</time></trkpt><trkpt lat="42.3786044332371" lon="12.72176498704476"><ele>1017.5</ele><time>2026-04-12T10:55:06.001Z</time></trkpt><trkpt lat="42.3785459184422" lon="12.72185767476638"><ele>1016.0</ele><time>2026-04-12T10:55:07.001Z</time></trkpt><trkpt lat="42.37847993724628" lon="12.721959924457785"><ele>1014.5000000000001</ele><time>2026-04-12T10:55:08.001Z</time></trkpt><trkpt lat="42.378425470559776" lon="12.722022958847107"><ele>1013.0</ele><time>2026-04-12T10:55:09.001Z</time></trkpt><trkpt lat="42.37835480543924" lon="12.72207512226586"><ele>1013.0</ele><time>2026-04-12T10:55:10.001Z</time></trkpt><trkpt lat="42.37827451214758" lon="12.722203730560468"><ele>1013.0</ele><time>2026-04-12T10:55:12.001Z</time></trkpt><trkpt lat="42.378204779614165" lon="12.722308534779456"><ele>1013.0</ele><time>2026-04-12T10:55:14.001Z</time></trkpt><trkpt lat="42.378100085116905" lon="12.722321117683757"><ele>1013.0</ele><time>2026-04-12T10:55:16.001Z</time></trkpt><trkpt lat="42.37802601717361" lon="12.722305001220967"><ele>1013.0</ele><time>2026-04-12T10:55:17.001Z</time></trkpt><trkpt lat="42.37794878409801" lon="12.722288118653776"><ele>1015.4</ele><time>2026-04-12T10:55:18.001Z</time></trkpt><trkpt lat="42.377873355828996" lon="12.722281074068192"><ele>1017.8</ele><time>2026-04-12T10:55:19.001Z</time></trkpt><trkpt lat="42.377751742955276" lon="12.722267556801867"><ele>1020.2</ele><time>2026-04-12T10:55:21.001Z</time></trkpt><trkpt lat="42.377687276344176" lon="12.722224587719806"><ele>1022.6</ele><time>2026-04-12T10:55:22.001Z</time></trkpt><trkpt lat="42.3775866841215" lon="12.722239369836114"><ele>1025.0</ele><time>2026-04-12T10:55:23.001Z</time></trkpt><trkpt lat="42.37750172339412" lon="12.722223759006257"><ele>1025.0</ele><time>2026-04-12T10:55:24.001Z</time></trkpt><trkpt lat="42.37741180708185" lon="12.722227544600464"><ele>1025.0</ele><time>2026-04-12T10:55:25.001Z</time></trkpt><trkpt lat="42.3773242676568" lon="12.722161602768772"><ele>1025.0</ele><time>2026-04-12T10:55:27Z</time></trkpt><trkpt lat="42.37722792113788" lon="12.722052640299125"><ele>1025.0</ele><time>2026-04-12T10:55:29Z</time></trkpt><trkpt lat="42.37710845246327" lon="12.721989721343817"><ele>1025.0</ele><time>2026-04-12T10:55:31Z</time></trkpt><trkpt lat="42.37704093454492" lon="12.721964374396359"><ele>1023.8</ele><time>2026-04-12T10:55:32Z</time></trkpt><trkpt lat="42.376936246428784" lon="12.721950437718881"><ele>1022.6</ele><time>2026-04-12T10:55:34Z</time></trkpt><trkpt lat="42.37685740890133" lon="12.721903358497045"><ele>1021.4000000000001</ele><time>2026-04-12T10:55:35Z</time></trkpt><trkpt lat="42.37672340694145" lon="12.721847060236298"><ele>1020.2</ele><time>2026-04-12T10:55:37Z</time></trkpt><trkpt lat="42.3766324115709" lon="12.721798194791061"><ele>1019.0</ele><time>2026-04-12T10:55:38Z</time></trkpt><trkpt lat="42.37654228533619" lon="12.721764333836067"><ele>1024.6000000000001</ele><time>2026-04-12T10:55:39Z</time></trkpt><trkpt lat="42.3764724736029" lon="12.721776945285077"><ele>1030.2</ele><time>2026-04-12T10:55:40Z</time></trkpt><trkpt lat="42.376403699020386" lon="12.721765669313303"><ele>1035.8000000000002</ele><time>2026-04-12T10:55:41Z</time></trkpt><trkpt lat="42.37630545674142" lon="12.721713111324593"><ele>1041.4</ele><time>2026-04-12T10:55:42Z</time></trkpt><trkpt lat="42.37619192373086" lon="12.721675460108138"><ele>1047.0</ele><time>2026-04-12T10:55:44Z</time></trkpt><trkpt lat="42.37605548456709" lon="12.721600479152789"><ele>1047.5</ele><time>2026-04-12T10:55:46Z</time></trkpt><trkpt lat="42.37598339823408" lon="12.721598665113847"><ele>1048.0</ele><time>2026-04-12T10:55:47Z</time></trkpt><trkpt lat="42.3759097964052" lon="12.721629536438563"><ele>1048.5</ele><time>2026-04-12T10:55:48Z</time></trkpt><trkpt lat="42.375847337120604" lon="12.72169071234836"><ele>1049.0</ele><time>2026-04-12T10:55:49Z</time></trkpt><trkpt lat="42.37578224554447" lon="12.721728131603415"><ele>1049.5</ele><time>2026-04-12T10:55:50Z</time></trkpt><trkpt lat="42.375661862675116" lon="12.721809140551636"><ele>1050.0</ele><time>2026-04-12T10:55:52Z</time></trkpt><trkpt lat="42.37558046401489" lon="12.72186452496745"><ele>1045.2</ele><time>2026-04-12T10:55:53Z</time></trkpt><trkpt lat="42.375508822234174" lon="12.721912970346283"><ele>1040.4</ele><time>2026-04-12T10:55:54Z</time></trkpt><trkpt lat="42.37541887833649" lon="12.721922934738576"><ele>1035.6</ele><time>2026-04-12T10:55:55Z</time></trkpt><trkpt lat="42.375281612404414" lon="12.721924771387739"><ele>1030.8</ele><time>2026-04-12T10:55:57Z</time></trkpt><trkpt lat="42.37520153222528" lon="12.721930786146876"><ele>1026.0</ele><time>2026-04-12T10:55:58Z</time></trkpt><trkpt lat="42.37512015218972" lon="12.721933748965101"><ele>1026.0</ele><time>2026-04-12T10:55:59Z</time></trkpt><trkpt lat="42.37505331562013" lon="12.721935442816525"><ele>1026.0</ele><time>2026-04-12T10:56:00Z</time></trkpt><trkpt lat="42.37491618288435" lon="12.721915200320067"><ele>1026.0</ele><time>2026-04-12T10:56:02Z</time></trkpt><trkpt lat="42.37483595969899" lon="12.72188567272215"><ele>1026.0</ele><time>2026-04-12T10:56:03Z</time></trkpt><trkpt lat="42.37475568870128" lon="12.721868638938998"><ele>1026.0</ele><time>2026-04-12T10:56:04Z</time></trkpt><trkpt lat="42.37465058503608" lon="12.721834250523608"><ele>1032.0</ele><time>2026-04-12T10:56:06Z</time></trkpt><trkpt lat="42.37453672222766" lon="12.721797363214222"><ele>1038.0</ele><time>2026-04-12T10:56:08Z</time></trkpt><trkpt lat="42.37446600428449" lon="12.721798475237065"><ele>1044.0</ele><time>2026-04-12T10:56:09Z</time></trkpt><trkpt lat="42.37439331758553" lon="12.721780120487237"><ele>1050.0</ele><time>2026-04-12T10:56:10Z</time></trkpt><trkpt lat="42.374323885158155" lon="12.721753677942704"><ele>1056.0</ele><time>2026-04-12T10:56:11Z</time></trkpt><trkpt lat="42.37420365936333" lon="12.721695123310727"><ele>1056.0</ele><time>2026-04-12T10:56:13Z</time></trkpt><trkpt lat="42.3741219012573" lon="12.721630899133448"><ele>1056.0</ele><time>2026-04-12T10:56:15Z</time></trkpt><trkpt lat="42.374058778844685" lon="12.721596759266522"><ele>1056.0</ele><time>2026-04-12T10:56:34.001Z</time></trkpt><trkpt lat="42.37399293549445" lon="12.72157735655988"><ele>1056.0</ele><time>2026-04-12T10:56:36.001Z</time></trkpt><trkpt lat="42.37389814632756" lon="12.721584895004419"><ele>1056.0</ele><time>2026-04-12T10:56:38.001Z</time></trkpt><trkpt lat="42.373784191983106" lon="12.721565022672346"><ele>1056.0</ele><time>2026-04-12T10:56:40.001Z</time></trkpt><trkpt lat="42.37368467446531" lon="12.721552867372145"><ele>1057.1666666666667</ele><time>2026-04-12T10:56:42.001Z</time></trkpt><trkpt lat="42.37361627902786" lon="12.721553696645916"><ele>1058.3333333333333</ele><time>2026-04-12T10:56:43.001Z</time></trkpt><trkpt lat="42.37347635184961" lon="12.721593193667553"><ele>1059.5</ele><time>2026-04-12T10:56:45.001Z</time></trkpt><trkpt lat="42.37338390512509" lon="12.721608675577173"><ele>1060.6666666666665</ele><time>2026-04-12T10:56:46.001Z</time></trkpt><trkpt lat="42.37331021943853" lon="12.721624987781295"><ele>1061.8333333333333</ele><time>2026-04-12T10:56:47.001Z</time></trkpt><trkpt lat="42.373244569462415" lon="12.721629387467724"><ele>1063.0</ele><time>2026-04-12T10:56:48.001Z</time></trkpt><trkpt lat="42.37312584838201" lon="12.721661004596415"><ele>1063.0</ele><time>2026-04-12T10:56:50.001Z</time></trkpt><trkpt lat="42.3730572936671" lon="12.721684290917699"><ele>1063.0</ele><time>2026-04-12T10:56:51.001Z</time></trkpt><trkpt lat="42.37298929276951" lon="12.721708094934401"><ele>1063.0</ele><time>2026-04-12T10:56:52.001Z</time></trkpt><trkpt lat="42.37288892603068" lon="12.721761377973971"><ele>1063.0</ele><time>2026-04-12T10:56:54.001Z</time></trkpt><trkpt lat="42.37282247315145" lon="12.721793546490206"><ele>1063.0</ele><time>2026-04-12T10:56:55.001Z</time></trkpt><trkpt lat="42.37274782791959" lon="12.721823436559452"><ele>1063.0</ele><time>2026-04-12T10:56:56.001Z</time></trkpt><trkpt lat="42.37267289162338" lon="12.721862243456249"><ele>1062.1666666666665</ele><time>2026-04-12T10:56:57.001Z</time></trkpt><trkpt lat="42.372612282473774" lon="12.72188892152122"><ele>1061.3333333333333</ele><time>2026-04-12T10:56:58.001Z</time></trkpt><trkpt lat="42.372503965676835" lon="12.72193991940944"><ele>1060.5</ele><time>2026-04-12T10:57:00.001Z</time></trkpt><trkpt lat="42.372436838345074" lon="12.721978741137805"><ele>1059.6666666666667</ele><time>2026-04-12T10:57:01.001Z</time></trkpt><trkpt lat="42.372359045325005" lon="12.722023525420097"><ele>1058.8333333333335</ele><time>2026-04-12T10:57:02.001Z</time></trkpt><trkpt lat="42.37228520362745" lon="12.722052857036632"><ele>1058.0</ele><time>2026-04-12T10:57:03.001Z</time></trkpt><trkpt lat="42.37221101093821" lon="12.722087254044451"><ele>1060.5</ele><time>2026-04-12T10:57:04.001Z</time></trkpt><trkpt lat="42.372132765587075" lon="12.722109149366737"><ele>1063.0</ele><time>2026-04-12T10:57:05.001Z</time></trkpt><trkpt lat="42.372058132412604" lon="12.722131722036568"><ele>1065.5</ele><time>2026-04-12T10:57:06.001Z</time></trkpt><trkpt lat="42.371991672021466" lon="12.722155902614372"><ele>1068.0</ele><time>2026-04-12T10:57:07.001Z</time></trkpt><trkpt lat="42.371926095271164" lon="12.722208107474968"><ele>1070.5</ele><time>2026-04-12T10:57:08.001Z</time></trkpt><trkpt lat="42.371874075508416" lon="12.722266149636756"><ele>1073.0</ele><time>2026-04-12T10:57:09.001Z</time></trkpt><trkpt lat="42.37177251351607" lon="12.722342611815584"><ele>1073.0</ele><time>2026-04-12T10:57:11.001Z</time></trkpt><trkpt lat="42.371706944536186" lon="12.72235902813695"><ele>1073.0</ele><time>2026-04-12T10:57:12.001Z</time></trkpt><trkpt lat="42.371633897231916" lon="12.72235883131262"><ele>1073.0</ele><time>2026-04-12T10:57:13.001Z</time></trkpt><trkpt lat="42.37155178234816" lon="12.722363321899918"><ele>1073.0</ele><time>2026-04-12T10:57:14.001Z</time></trkpt><trkpt lat="42.371464390678845" lon="12.722354703904017"><ele>1073.0</ele><time>2026-04-12T10:57:15.001Z</time></trkpt><trkpt lat="42.37139102948811" lon="12.722329306557613"><ele>1073.0</ele><time>2026-04-12T10:57:16.001Z</time></trkpt><trkpt lat="42.37131699961254" lon="12.72230816256805"><ele>1074.0</ele><time>2026-04-12T10:57:17.001Z</time></trkpt><trkpt lat="42.371246811301205" lon="12.722301101932642"><ele>1075.0</ele><time>2026-04-12T10:57:18.001Z</time></trkpt><trkpt lat="42.371171887174334" lon="12.722294644837602"><ele>1076.0</ele><time>2026-04-12T10:57:19.001Z</time></trkpt><trkpt lat="42.37109016662586" lon="12.722283168946117"><ele>1077.0</ele><time>2026-04-12T10:57:20.001Z</time></trkpt><trkpt lat="42.371009313009715" lon="12.722271269048765"><ele>1078.0</ele><time>2026-04-12T10:57:21.001Z</time></trkpt><trkpt lat="42.370938736233654" lon="12.722258542795885"><ele>1079.0</ele><time>2026-04-12T10:57:22.001Z</time></trkpt><trkpt lat="42.37085847112835" lon="12.722263382415111"><ele>1079.0</ele><time>2026-04-12T10:57:23.001Z</time></trkpt><trkpt lat="42.370768063236376" lon="12.72226629692684"><ele>1079.0</ele><time>2026-04-12T10:57:24.001Z</time></trkpt><trkpt lat="42.37067941662266" lon="12.722241079322304"><ele>1079.0</ele><time>2026-04-12T10:57:25.001Z</time></trkpt><trkpt lat="42.37060855874876" lon="12.722242273981726"><ele>1079.0</ele><time>2026-04-12T10:57:26.001Z</time></trkpt><trkpt lat="42.37047504151766" lon="12.722234195145699"><ele>1079.0</ele><time>2026-04-12T10:57:28.001Z</time></trkpt><trkpt lat="42.370411376092186" lon="12.72223852343631"><ele>1079.0</ele><time>2026-04-12T10:57:29.001Z</time></trkpt><trkpt lat="42.37034353631419" lon="12.722242979828664"><ele>1081.0</ele><time>2026-04-12T10:57:30.001Z</time></trkpt><trkpt lat="42.370259636057135" lon="12.72222659633679"><ele>1083.0</ele><time>2026-04-12T10:57:32Z</time></trkpt><trkpt lat="42.37017852270655" lon="12.722255627385529"><ele>1085.0</ele><time>2026-04-12T10:57:34Z</time></trkpt><trkpt lat="42.370068817671985" lon="12.722270069965699"><ele>1087.0</ele><time>2026-04-12T10:57:36Z</time></trkpt><trkpt lat="42.36995805481981" lon="12.722265115919997"><ele>1089.0</ele><time>2026-04-12T10:57:38Z</time></trkpt><trkpt lat="42.36982800966801" lon="12.722299185206474"><ele>1089.0</ele><time>2026-04-12T10:57:40Z</time></trkpt><trkpt lat="42.369763186773824" lon="12.72231293105445"><ele>1089.0</ele><time>2026-04-12T10:57:41Z</time></trkpt><trkpt lat="42.369647727508834" lon="12.722331781281778"><ele>1089.0</ele><time>2026-04-12T10:57:43Z</time></trkpt><trkpt lat="42.36956011060026" lon="12.722369786716964"><ele>1089.0</ele><time>2026-04-12T10:57:45Z</time></trkpt><trkpt lat="42.36948636955841" lon="12.722388606991242"><ele>1089.0</ele><time>2026-04-12T10:57:47Z</time></trkpt><trkpt lat="42.369430171101136" lon="12.72234784898184"><ele>1089.0</ele><time>2026-04-12T10:57:49Z</time></trkpt><trkpt lat="42.36937754470802" lon="12.722272163826341"><ele>1088.5</ele><time>2026-04-12T10:57:52Z</time></trkpt><trkpt lat="42.36929326147406" lon="12.722189142771247"><ele>1088.0</ele><time>2026-04-12T10:57:56Z</time></trkpt><trkpt lat="42.369247622519126" lon="12.722110267925139"><ele>1087.5</ele><time>2026-04-12T10:57:58Z</time></trkpt><trkpt lat="42.36918609618436" lon="12.722090650877927"><ele>1087.0</ele><time>2026-04-12T10:58:01Z</time></trkpt><trkpt lat="42.36911852756027" lon="12.722086938727886"><ele>1086.5</ele><time>2026-04-12T10:58:04Z</time></trkpt><trkpt lat="42.36903635592822" lon="12.722094419485586"><ele>1086.0</ele><time>2026-04-12T10:58:07Z</time></trkpt><trkpt lat="42.36894364065128" lon="12.722054372293272"><ele>1086.3999999999999</ele><time>2026-04-12T10:58:10Z</time></trkpt><trkpt lat="42.368849941338794" lon="12.721974377219748"><ele>1086.8</ele><time>2026-04-12T10:58:12Z</time></trkpt><trkpt lat="42.36875532542543" lon="12.721909620602565"><ele>1087.1999999999998</ele><time>2026-04-12T10:58:14Z</time></trkpt><trkpt lat="42.36864778127441" lon="12.721879412330436"><ele>1087.6</ele><time>2026-04-12T10:58:16Z</time></trkpt><trkpt lat="42.36854453916952" lon="12.721864286603696"><ele>1088.0</ele><time>2026-04-12T10:58:18Z</time></trkpt><trkpt lat="42.368468914192036" lon="12.721874718604"><ele>1088.0</ele><time>2026-04-12T10:58:20Z</time></trkpt><trkpt lat="42.36839582775937" lon="12.721853223658837"><ele>1088.0</ele><time>2026-04-12T10:58:22Z</time></trkpt><trkpt lat="42.36831912230801" lon="12.721796102628122"><ele>1088.0</ele><time>2026-04-12T10:58:24Z</time></trkpt><trkpt lat="42.36823351811801" lon="12.721720029701862"><ele>1088.0</ele><time>2026-04-12T10:58:26.001Z</time></trkpt><trkpt lat="42.36815869190071" lon="12.721651714647177"><ele>1088.0</ele><time>2026-04-12T10:58:28.001Z</time></trkpt><trkpt lat="42.36810000735598" lon="12.721584026310264"><ele>1088.0</ele><time>2026-04-12T10:58:30.001Z</time></trkpt><trkpt lat="42.36803301218642" lon="12.721473817569958"><ele>1086.5</ele><time>2026-04-12T10:58:32.001Z</time></trkpt><trkpt lat="42.36799815960045" lon="12.72138417788213"><ele>1085.0</ele><time>2026-04-12T10:58:33.001Z</time></trkpt><trkpt lat="42.367955306228836" lon="12.7213177538845"><ele>1083.5</ele><time>2026-04-12T10:58:34.001Z</time></trkpt><trkpt lat="42.36788724825974" lon="12.721246056150225"><ele>1082.0</ele><time>2026-04-12T10:58:36.001Z</time></trkpt><trkpt lat="42.367802564967306" lon="12.721150963766148"><ele>1080.5</ele><time>2026-04-12T10:58:38.001Z</time></trkpt><trkpt lat="42.36771992398395" lon="12.721061662492735"><ele>1079.0</ele><time>2026-04-12T10:58:40.001Z</time></trkpt><trkpt lat="42.36765976024313" lon="12.720992164978378"><ele>1079.0</ele><time>2026-04-12T10:58:42.001Z</time></trkpt><trkpt lat="42.36760344803373" lon="12.72093652625217"><ele>1079.0</ele><time>2026-04-12T10:58:44.001Z</time></trkpt><trkpt lat="42.36754403548957" lon="12.720854864256294"><ele>1079.0</ele><time>2026-04-12T10:58:46.001Z</time></trkpt><trkpt lat="42.36749260670332" lon="12.720772997678946"><ele>1079.0</ele><time>2026-04-12T10:58:48.001Z</time></trkpt><trkpt lat="42.367431956965866" lon="12.720674601292899"><ele>1079.0</ele><time>2026-04-12T10:58:51.001Z</time></trkpt><trkpt lat="42.36737868494587" lon="12.720591684572259"><ele>1079.0</ele><time>2026-04-12T10:58:53.001Z</time></trkpt><trkpt lat="42.367311358482894" lon="12.720506271582916"><ele>1079.0</ele><time>2026-04-12T10:58:55.001Z</time></trkpt><trkpt lat="42.36724062298349" lon="12.720397279098844"><ele>1079.0</ele><time>2026-04-12T10:58:57.001Z</time></trkpt><trkpt lat="42.3671719822509" lon="12.720240188951902"><ele>1079.0</ele><time>2026-04-12T10:58:59.001Z</time></trkpt><trkpt lat="42.36713403911915" lon="12.72015078129773"><ele>1079.0</ele><time>2026-04-12T10:59:00.001Z</time></trkpt><trkpt lat="42.36711176462349" lon="12.720065861429259"><ele>1079.0</ele><time>2026-04-12T10:59:01.001Z</time></trkpt><trkpt lat="42.367062028068545" lon="12.71994120698487"><ele>1074.0</ele><time>2026-04-12T10:59:03.001Z</time></trkpt><trkpt lat="42.36699567168761" lon="12.719848491828607"><ele>1069.0</ele><time>2026-04-12T10:59:05.001Z</time></trkpt><trkpt lat="42.366931713009926" lon="12.719734787609644"><ele>1064.0</ele><time>2026-04-12T10:59:07.001Z</time></trkpt><trkpt lat="42.36688097357743" lon="12.719631842222523"><ele>1059.0</ele><time>2026-04-12T10:59:09.001Z</time></trkpt><trkpt lat="42.36683112456699" lon="12.71952508193014"><ele>1054.0</ele><time>2026-04-12T10:59:11.001Z</time></trkpt><trkpt lat="42.36678221009124" lon="12.719409278139267"><ele>1056.8</ele><time>2026-04-12T10:59:13.001Z</time></trkpt><trkpt lat="42.36673730272093" lon="12.719315425188963"><ele>1059.6000000000001</ele><time>2026-04-12T10:59:15.001Z</time></trkpt><trkpt lat="42.36666898188248" lon="12.719220869933018"><ele>1062.4</ele><time>2026-04-12T10:59:17.001Z</time></trkpt><trkpt lat="42.36660357995757" lon="12.719116779412568"><ele>1065.2</ele><time>2026-04-12T10:59:19.001Z</time></trkpt><trkpt lat="42.36657796995252" lon="12.719023205600672"><ele>1068.0</ele><time>2026-04-12T10:59:20.001Z</time></trkpt><trkpt lat="42.36652022196931" lon="12.718892989908612"><ele>1068.0</ele><time>2026-04-12T10:59:22.001Z</time></trkpt><trkpt lat="42.366463435016996" lon="12.718779367410782"><ele>1068.0</ele><time>2026-04-12T10:59:24.001Z</time></trkpt><trkpt lat="42.3664350430348" lon="12.718702481185035"><ele>1068.0</ele><time>2026-04-12T10:59:25.001Z</time></trkpt><trkpt lat="42.366394477497124" lon="12.718571524996342"><ele>1068.0</ele><time>2026-04-12T10:59:27.001Z</time></trkpt><trkpt lat="42.36636451024376" lon="12.718457551043416"><ele>1068.0</ele><time>2026-04-12T10:59:29.001Z</time></trkpt><trkpt lat="42.36632500128085" lon="12.718322921573375"><ele>1064.6</ele><time>2026-04-12T10:59:31.001Z</time></trkpt><trkpt lat="42.3662827346409" lon="12.718195414504127"><ele>1061.1999999999998</ele><time>2026-04-12T10:59:33.001Z</time></trkpt><trkpt lat="42.36621721722124" lon="12.71806334101806"><ele>1057.8</ele><time>2026-04-12T10:59:35.001Z</time></trkpt><trkpt lat="42.366188773872224" lon="12.71792693203136"><ele>1054.3999999999999</ele><time>2026-04-12T10:59:37.001Z</time></trkpt><trkpt lat="42.36615738298969" lon="12.717786318366436"><ele>1051.0</ele><time>2026-04-12T10:59:39Z</time></trkpt><trkpt lat="42.36611948400021" lon="12.71764043052205"><ele>1051.0</ele><time>2026-04-12T10:59:41Z</time></trkpt><trkpt lat="42.36608701542784" lon="12.717527550462691"><ele>1051.0</ele><time>2026-04-12T10:59:43Z</time></trkpt><trkpt lat="42.36605009856321" lon="12.717398189890472"><ele>1051.0</ele><time>2026-04-12T10:59:45Z</time></trkpt><trkpt lat="42.36599544586861" lon="12.717293052610493"><ele>1051.0</ele><time>2026-04-12T10:59:47Z</time></trkpt><trkpt lat="42.36592588894036" lon="12.717196769270293"><ele>1051.0</ele><time>2026-04-12T10:59:49Z</time></trkpt><trkpt lat="42.365841627406304" lon="12.717129958247872"><ele>1051.0</ele><time>2026-04-12T10:59:51Z</time></trkpt><trkpt lat="42.365784131137325" lon="12.717080635228864"><ele>1051.0</ele><time>2026-04-12T10:59:53Z</time></trkpt><trkpt lat="42.36570830719842" lon="12.717021600254897"><ele>1051.0</ele><time>2026-04-12T10:59:56Z</time></trkpt><trkpt lat="42.365641850622545" lon="12.716946563234485"><ele>1051.0</ele><time>2026-04-12T10:59:58Z</time></trkpt><trkpt lat="42.365558602797634" lon="12.71684911462534"><ele>1051.0</ele><time>2026-04-12T11:00:00Z</time></trkpt><trkpt lat="42.365510228749486" lon="12.716764145790714"><ele>1051.0</ele><time>2026-04-12T11:00:02Z</time></trkpt><trkpt lat="42.36544475195543" lon="12.716680915385973"><ele>1048.1666666666665</ele><time>2026-04-12T11:00:04Z</time></trkpt><trkpt lat="42.36539647443474" lon="12.716608595889731"><ele>1045.3333333333333</ele><time>2026-04-12T11:00:06Z</time></trkpt><trkpt lat="42.365342853535495" lon="12.716474582031976"><ele>1042.5</ele><time>2026-04-12T11:00:09Z</time></trkpt><trkpt lat="42.36531868296641" lon="12.716388510601352"><ele>1039.6666666666667</ele><time>2026-04-12T11:00:11Z</time></trkpt><trkpt lat="42.365279911097836" lon="12.716301364413656"><ele>1036.8333333333335</ele><time>2026-04-12T11:00:13Z</time></trkpt><trkpt lat="42.36524451074449" lon="12.716225232172016"><ele>1034.0</ele><time>2026-04-12T11:00:15Z</time></trkpt><trkpt lat="42.36518720938295" lon="12.716147773752487"><ele>1036.4</ele><time>2026-04-12T11:00:18Z</time></trkpt><trkpt lat="42.365153734990386" lon="12.71604910603167"><ele>1038.8000000000002</ele><time>2026-04-12T11:00:20Z</time></trkpt><trkpt lat="42.365114356482" lon="12.715923741128304"><ele>1041.1999999999998</ele><time>2026-04-12T11:00:22Z</time></trkpt><trkpt lat="42.36508159400544" lon="12.715784607549915"><ele>1043.6</ele><time>2026-04-12T11:00:24Z</time></trkpt><trkpt lat="42.365045455943005" lon="12.715643933336983"><ele>1046.0</ele><time>2026-04-12T11:00:26Z</time></trkpt><trkpt lat="42.3650154054413" lon="12.715542698659556"><ele>1045.9999999999998</ele><time>2026-04-12T11:00:28Z</time></trkpt><trkpt lat="42.36499574864573" lon="12.715458062644561"><ele>1046.0</ele><time>2026-04-12T11:00:30Z</time></trkpt><trkpt lat="42.364984803393206" lon="12.715351971862304"><ele>1046.0</ele><time>2026-04-12T11:00:33.001Z</time></trkpt><trkpt lat="42.36495798795772" lon="12.71526778195803"><ele>1046.0</ele><time>2026-04-12T11:00:40.001Z</time></trkpt><trkpt lat="42.36491492699103" lon="12.715196579739498"><ele>1046.0</ele><time>2026-04-12T11:00:43.001Z</time></trkpt><trkpt lat="42.364887673347994" lon="12.715116508399445"><ele>1045.9999999999998</ele><time>2026-04-12T11:00:45.001Z</time></trkpt><trkpt lat="42.364856817324316" lon="12.715030072074432"><ele>1046.0</ele><time>2026-04-12T11:00:48.001Z</time></trkpt><trkpt lat="42.36483519535561" lon="12.714916573685704"><ele>1045.8571428571427</ele><time>2026-04-12T11:00:51.001Z</time></trkpt><trkpt lat="42.364830279126075" lon="12.714831250217168"><ele>1045.7142857142858</ele><time>2026-04-12T11:00:53.001Z</time></trkpt><trkpt lat="42.36481807416064" lon="12.714729242621946"><ele>1045.5714285714284</ele><time>2026-04-12T11:00:55.001Z</time></trkpt><trkpt lat="42.36480690591882" lon="12.714617901054893"><ele>1045.4285714285713</ele><time>2026-04-12T11:00:58.001Z</time></trkpt><trkpt lat="42.36478861171989" lon="12.714535537685572"><ele>1045.2857142857142</ele><time>2026-04-12T11:01:01.001Z</time></trkpt><trkpt lat="42.364792655495414" lon="12.714447849358274"><ele>1045.142857142857</ele><time>2026-04-12T11:01:12.001Z</time></trkpt><trkpt lat="42.36478275574565" lon="12.714348987526755"><ele>1045.0</ele><time>2026-04-12T11:01:16.001Z</time></trkpt><trkpt lat="42.364769696323975" lon="12.714242065654593"><ele>1045.0</ele><time>2026-04-12T11:01:19.001Z</time></trkpt><trkpt lat="42.36477292061562" lon="12.714151101957366"><ele>1045.0</ele><time>2026-04-12T11:01:22.001Z</time></trkpt><trkpt lat="42.36477510217016" lon="12.714036835324782"><ele>1045.0</ele><time>2026-04-12T11:01:25.001Z</time></trkpt><trkpt lat="42.36477545646849" lon="12.713914675638875"><ele>1045.0</ele><time>2026-04-12T11:01:27.001Z</time></trkpt><trkpt lat="42.36477699033056" lon="12.713773272409263"><ele>1045.0</ele><time>2026-04-12T11:01:29.001Z</time></trkpt><trkpt lat="42.36479088873524" lon="12.713627478487775"><ele>1043.4</ele><time>2026-04-12T11:01:31.001Z</time></trkpt><trkpt lat="42.36481594281816" lon="12.713477450571332"><ele>1041.8</ele><time>2026-04-12T11:01:33.001Z</time></trkpt><trkpt lat="42.36483590909656" lon="12.713351705874995"><ele>1040.2</ele><time>2026-04-12T11:01:35.001Z</time></trkpt><trkpt lat="42.364838475843" lon="12.713251865412829"><ele>1038.6</ele><time>2026-04-12T11:01:37.001Z</time></trkpt><trkpt lat="42.36483791272569" lon="12.713120841545367"><ele>1037.0</ele><time>2026-04-12T11:01:39.001Z</time></trkpt><trkpt lat="42.3648489314774" lon="12.71296531324417"><ele>1037.0</ele><time>2026-04-12T11:01:41.001Z</time></trkpt><trkpt lat="42.36486799037665" lon="12.712833024955396"><ele>1037.0</ele><time>2026-04-12T11:01:43.001Z</time></trkpt><trkpt lat="42.36486422151219" lon="12.712716062972477"><ele>1037.0</ele><time>2026-04-12T11:01:46Z</time></trkpt><trkpt lat="42.364878468872" lon="12.712624090431348"><ele>1037.0</ele><time>2026-04-12T11:01:48Z</time></trkpt><trkpt lat="42.36490468160075" lon="12.712478386766215"><ele>1037.0</ele><time>2026-04-12T11:01:50Z</time></trkpt><trkpt lat="42.364925165339244" lon="12.712324126365223"><ele>1036.3333333333335</ele><time>2026-04-12T11:01:52Z</time></trkpt><trkpt lat="42.36494838091281" lon="12.712226019149018"><ele>1035.6666666666667</ele><time>2026-04-12T11:01:54Z</time></trkpt><trkpt lat="42.36500279198555" lon="12.712145528009806"><ele>1035.0</ele><time>2026-04-12T11:02:39.001Z</time></trkpt><trkpt lat="42.36506579316668" lon="12.712051677340241"><ele>1034.3333333333333</ele><time>2026-04-12T11:02:41.001Z</time></trkpt><trkpt lat="42.365127748072894" lon="12.711968403338822"><ele>1033.6666666666665</ele><time>2026-04-12T11:02:43.001Z</time></trkpt><trkpt lat="42.365217143827785" lon="12.711888115811249"><ele>1033.0</ele><time>2026-04-12T11:02:45.001Z</time></trkpt><trkpt lat="42.36529128646229" lon="12.711817987178353"><ele>1033.4</ele><time>2026-04-12T11:02:47.001Z</time></trkpt><trkpt lat="42.36536261920615" lon="12.711794434316577"><ele>1033.8</ele><time>2026-04-12T11:02:49.001Z</time></trkpt><trkpt lat="42.36543837186326" lon="12.711823792958521"><ele>1034.2</ele><time>2026-04-12T11:02:51.001Z</time></trkpt><trkpt lat="42.36554314861364" lon="12.711845171336204"><ele>1034.6</ele><time>2026-04-12T11:02:53.001Z</time></trkpt><trkpt lat="42.36563517520924" lon="12.711845223077233"><ele>1035.0</ele><time>2026-04-12T11:02:55.001Z</time></trkpt><trkpt lat="42.36572507232876" lon="12.71175461905849"><ele>1035.0</ele><time>2026-04-12T11:02:57.001Z</time></trkpt><trkpt lat="42.365807713790716" lon="12.711634168401089"><ele>1035.0</ele><time>2026-04-12T11:02:59.001Z</time></trkpt><trkpt lat="42.36592615912951" lon="12.711536585523556"><ele>1035.0</ele><time>2026-04-12T11:03:01.001Z</time></trkpt><trkpt lat="42.365986168297255" lon="12.711501743481668"><ele>1035.0</ele><time>2026-04-12T11:03:02.001Z</time></trkpt><trkpt lat="42.36605680075921" lon="12.711366887260782"><ele>1035.0</ele><time>2026-04-12T11:03:04.001Z</time></trkpt><trkpt lat="42.36611314662602" lon="12.711307800298094"><ele>1035.0</ele><time>2026-04-12T11:03:05.001Z</time></trkpt><trkpt lat="42.366161831518134" lon="12.711246134028574"><ele>1035.0</ele><time>2026-04-12T11:03:06.001Z</time></trkpt><trkpt lat="42.366205118617245" lon="12.711167093999665"><ele>1035.0</ele><time>2026-04-12T11:03:07.001Z</time></trkpt><trkpt lat="42.36629032369608" lon="12.711074744046742"><ele>1035.0</ele><time>2026-04-12T11:03:09.001Z</time></trkpt><trkpt lat="42.36634715927247" lon="12.711019858371527"><ele>1035.0</ele><time>2026-04-12T11:03:10.001Z</time></trkpt><trkpt lat="42.366438961301824" lon="12.710933442955335"><ele>1035.0</ele><time>2026-04-12T11:03:12.001Z</time></trkpt><trkpt lat="42.366531760586135" lon="12.710839894977005"><ele>1035.2</ele><time>2026-04-12T11:03:14.001Z</time></trkpt><trkpt lat="42.366635639825326" lon="12.710782514000348"><ele>1035.4</ele><time>2026-04-12T11:03:16.001Z</time></trkpt><trkpt lat="42.36674436984533" lon="12.710772404623835"><ele>1035.6</ele><time>2026-04-12T11:03:18.001Z</time></trkpt><trkpt lat="42.36685177503009" lon="12.710841516835696"><ele>1035.8</ele><time>2026-04-12T11:03:20.001Z</time></trkpt><trkpt lat="42.36692999502704" lon="12.710876120269983"><ele>1036.0</ele><time>2026-04-12T11:03:21.001Z</time></trkpt><trkpt lat="42.36705415040293" lon="12.7108840214501"><ele>1036.0</ele><time>2026-04-12T11:03:23.001Z</time></trkpt><trkpt lat="42.36711946933554" lon="12.710850001377857"><ele>1036.0</ele><time>2026-04-12T11:03:24.001Z</time></trkpt><trkpt lat="42.36718797021496" lon="12.710818264745463"><ele>1036.0</ele><time>2026-04-12T11:03:25.001Z</time></trkpt><trkpt lat="42.367257265699706" lon="12.710777625795487"><ele>1036.0</ele><time>2026-04-12T11:03:26.001Z</time></trkpt><trkpt lat="42.36732140008102" lon="12.710739510896573"><ele>1036.0</ele><time>2026-04-12T11:03:27.001Z</time></trkpt><trkpt lat="42.36742252317675" lon="12.710695661306493"><ele>1036.0</ele><time>2026-04-12T11:03:29.001Z</time></trkpt><trkpt lat="42.36757144696577" lon="12.71070846579644"><ele>1035.8333333333333</ele><time>2026-04-12T11:03:31.001Z</time></trkpt><trkpt lat="42.367653948657285" lon="12.710698303197548"><ele>1035.6666666666665</ele><time>2026-04-12T11:03:32.001Z</time></trkpt><trkpt lat="42.36772376602818" lon="12.710689371684364"><ele>1035.5</ele><time>2026-04-12T11:03:33.001Z</time></trkpt><trkpt lat="42.36779137016762" lon="12.710681795891071"><ele>1035.3333333333333</ele><time>2026-04-12T11:03:34.001Z</time></trkpt><trkpt lat="42.36786770874853" lon="12.710668662722851"><ele>1035.1666666666667</ele><time>2026-04-12T11:03:35.001Z</time></trkpt><trkpt lat="42.36793597761155" lon="12.710660336620284"><ele>1035.0</ele><time>2026-04-12T11:03:36.001Z</time></trkpt><trkpt lat="42.36802766854797" lon="12.710648059336405"><ele>1035.0</ele><time>2026-04-12T11:03:38.001Z</time></trkpt><trkpt lat="42.3680895764153" lon="12.7107433406411"><ele>1035.0</ele><time>2026-04-12T11:03:41.001Z</time></trkpt><trkpt lat="42.368144798868535" lon="12.710868570487378"><ele>1035.0</ele><time>2026-04-12T11:03:43.001Z</time></trkpt><trkpt lat="42.36823853738257" lon="12.710971700912944"><ele>1035.0</ele><time>2026-04-12T11:03:45.001Z</time></trkpt><trkpt lat="42.36829553062734" lon="12.711016416043494"><ele>1035.0</ele><time>2026-04-12T11:03:46.001Z</time></trkpt><trkpt lat="42.36837836179498" lon="12.711089363314686"><ele>1043.0</ele><time>2026-04-12T11:03:48.001Z</time></trkpt><trkpt lat="42.36843076088607" lon="12.71116476634982"><ele>1051.0</ele><time>2026-04-12T11:03:49.001Z</time></trkpt><trkpt lat="42.36848792336683" lon="12.711213411207064"><ele>1059.0</ele><time>2026-04-12T11:03:50Z</time></trkpt><trkpt lat="42.36860853826476" lon="12.711269144277676"><ele>1067.0</ele><time>2026-04-12T11:03:52Z</time></trkpt><trkpt lat="42.36870726642151" lon="12.71132151077968"><ele>1075.0</ele><time>2026-04-12T11:03:54Z</time></trkpt><trkpt lat="42.36877126278734" lon="12.711367611336934"><ele>1075.0</ele><time>2026-04-12T11:03:55Z</time></trkpt><trkpt lat="42.36883008417903" lon="12.711404792968285"><ele>1075.0</ele><time>2026-04-12T11:03:56Z</time></trkpt><trkpt lat="42.36888886838911" lon="12.711442981430865"><ele>1075.0</ele><time>2026-04-12T11:03:57Z</time></trkpt><trkpt lat="42.369013644470584" lon="12.711514865346171"><ele>1075.0</ele><time>2026-04-12T11:03:59Z</time></trkpt><trkpt lat="42.36906977309225" lon="12.711554992009239"><ele>1075.0</ele><time>2026-04-12T11:04:00Z</time></trkpt><trkpt lat="42.36917503288945" lon="12.711587597605163"><ele>1075.0</ele><time>2026-04-12T11:04:02Z</time></trkpt><trkpt lat="42.3692682679591" lon="12.711650134001474"><ele>1071.6</ele><time>2026-04-12T11:04:04Z</time></trkpt><trkpt lat="42.36936978453566" lon="12.711717649155796"><ele>1068.2</ele><time>2026-04-12T11:04:06Z</time></trkpt><trkpt lat="42.369469037648734" lon="12.711775679023752"><ele>1064.8</ele><time>2026-04-12T11:04:08Z</time></trkpt><trkpt lat="42.36952781933558" lon="12.711813604963796"><ele>1061.4</ele><time>2026-04-12T11:04:09Z</time></trkpt><trkpt lat="42.36959319279124" lon="12.711847654121613"><ele>1058.0</ele><time>2026-04-12T11:04:10Z</time></trkpt><trkpt lat="42.36971216272576" lon="12.711907695555041"><ele>1058.0</ele><time>2026-04-12T11:04:12Z</time></trkpt><trkpt lat="42.36982905102532" lon="12.711938750929969"><ele>1058.0</ele><time>2026-04-12T11:04:14Z</time></trkpt><trkpt lat="42.36993831022281" lon="12.711971295754836"><ele>1058.0</ele><time>2026-04-12T11:04:16Z</time></trkpt><trkpt lat="42.370001181480845" lon="12.711989826143986"><ele>1058.0</ele><time>2026-04-12T11:04:17Z</time></trkpt><trkpt lat="42.37006617142321" lon="12.712002376430553"><ele>1058.0</ele><time>2026-04-12T11:04:18Z</time></trkpt><trkpt lat="42.37013479648165" lon="12.712028251270375"><ele>1058.0</ele><time>2026-04-12T11:04:19Z</time></trkpt><trkpt lat="42.37023330305863" lon="12.712074343508583"><ele>1058.0</ele><time>2026-04-12T11:04:21Z</time></trkpt><trkpt lat="42.37029674596164" lon="12.712123197890774"><ele>1058.0</ele><time>2026-04-12T11:04:23Z</time></trkpt><trkpt lat="42.37035958973219" lon="12.712176928579678"><ele>1058.0</ele><time>2026-04-12T11:04:25Z</time></trkpt><trkpt lat="42.370433494043304" lon="12.712204660917404"><ele>1058.0</ele><time>2026-04-12T11:04:27Z</time></trkpt><trkpt lat="42.37052210577322" lon="12.712169684711492"><ele>1058.0</ele><time>2026-04-12T11:04:30Z</time></trkpt><trkpt lat="42.37055214026703" lon="12.712067538569654"><ele>1058.0</ele><time>2026-04-12T11:04:32Z</time></trkpt><trkpt lat="42.37054943204182" lon="12.711948527027571"><ele>1055.6</ele><time>2026-04-12T11:04:34Z</time></trkpt><trkpt lat="42.37054555015058" lon="12.711803592538278"><ele>1053.1999999999998</ele><time>2026-04-12T11:04:36Z</time></trkpt><trkpt lat="42.37047327111455" lon="12.711669195023434"><ele>1050.8</ele><time>2026-04-12T11:04:38Z</time></trkpt><trkpt lat="42.37045766717433" lon="12.711577088559785"><ele>1048.3999999999999</ele><time>2026-04-12T11:04:39Z</time></trkpt><trkpt lat="42.37043694854466" lon="12.711429736124105"><ele>1046.0</ele><time>2026-04-12T11:04:41Z</time></trkpt><trkpt lat="42.370399020469556" lon="12.711360076470568"><ele>1041.2</ele><time>2026-04-12T11:04:43Z</time></trkpt><trkpt lat="42.3703605479028" lon="12.71120380239735"><ele>1036.3999999999999</ele><time>2026-04-12T11:04:45Z</time></trkpt><trkpt lat="42.370334461592996" lon="12.711064522692151"><ele>1031.6</ele><time>2026-04-12T11:04:47Z</time></trkpt><trkpt lat="42.37030733821894" lon="12.710953944624329"><ele>1026.8</ele><time>2026-04-12T11:04:49Z</time></trkpt><trkpt lat="42.37030338645703" lon="12.710817785165602"><ele>1022.0</ele><time>2026-04-12T11:04:51Z</time></trkpt><trkpt lat="42.37027989946445" lon="12.710708538534746"><ele>1018.4000000000001</ele><time>2026-04-12T11:04:53Z</time></trkpt><trkpt lat="42.37027123360432" lon="12.710584706904541"><ele>1014.8000000000001</ele><time>2026-04-12T11:04:55.001Z</time></trkpt><trkpt lat="42.370251069046624" lon="12.710460072663833"><ele>1011.2</ele><time>2026-04-12T11:04:57.001Z</time></trkpt><trkpt lat="42.370242014759384" lon="12.710373777873645"><ele>1007.6</ele><time>2026-04-12T11:04:58.001Z</time></trkpt><trkpt lat="42.37025843068414" lon="12.710200695802174"><ele>1004.0</ele><time>2026-04-12T11:05:00.001Z</time></trkpt><trkpt lat="42.37026965196664" lon="12.710098462154386"><ele>1001.8333333333334</ele><time>2026-04-12T11:05:01.001Z</time></trkpt><trkpt lat="42.37028909247753" lon="12.710013764305613"><ele>999.6666666666667</ele><time>2026-04-12T11:05:02.001Z</time></trkpt><trkpt lat="42.370300200710396" lon="12.709915465314326"><ele>997.5</ele><time>2026-04-12T11:05:03.001Z</time></trkpt><trkpt lat="42.37031131204873" lon="12.709820606749876"><ele>995.3333333333333</ele><time>2026-04-12T11:05:04.001Z</time></trkpt><trkpt lat="42.37032029010443" lon="12.709732283320797"><ele>993.1666666666666</ele><time>2026-04-12T11:05:05.001Z</time></trkpt><trkpt lat="42.370330980831035" lon="12.709551341278239"><ele>991.0</ele><time>2026-04-12T11:05:07.001Z</time></trkpt><trkpt lat="42.37033376027716" lon="12.709456192198623"><ele>988.6666666666666</ele><time>2026-04-12T11:05:08.001Z</time></trkpt><trkpt lat="42.37034100896779" lon="12.709292049620316"><ele>986.3333333333333</ele><time>2026-04-12T11:05:10.001Z</time></trkpt><trkpt lat="42.37034854509262" lon="12.70920026522837"><ele>984.0</ele><time>2026-04-12T11:05:11.001Z</time></trkpt><trkpt lat="42.37036268772156" lon="12.709098098747228"><ele>981.6666666666667</ele><time>2026-04-12T11:05:12.001Z</time></trkpt><trkpt lat="42.37037441286814" lon="12.708992994488847"><ele>979.3333333333334</ele><time>2026-04-12T11:05:13.001Z</time></trkpt><trkpt lat="42.370388288304795" lon="12.708895423595132"><ele>977.0</ele><time>2026-04-12T11:05:14.001Z</time></trkpt><trkpt lat="42.370391295166186" lon="12.708786600190434"><ele>977.0000000000001</ele><time>2026-04-12T11:05:15.001Z</time></trkpt><trkpt lat="42.37039790185561" lon="12.708696389558666"><ele>977.0</ele><time>2026-04-12T11:05:16.001Z</time></trkpt><trkpt lat="42.37042892835946" lon="12.70858318217072"><ele>977.0</ele><time>2026-04-12T11:05:17.001Z</time></trkpt><trkpt lat="42.37044965234179" lon="12.70840119365458"><ele>977.0</ele><time>2026-04-12T11:05:19.001Z</time></trkpt><trkpt lat="42.37046405112197" lon="12.708290085034715"><ele>977.0000000000001</ele><time>2026-04-12T11:05:20.001Z</time></trkpt><trkpt lat="42.3704630306231" lon="12.708198908381187"><ele>977.0</ele><time>2026-04-12T11:05:21.001Z</time></trkpt><trkpt lat="42.37047021479758" lon="12.70810904767437"><ele>976.4285714285716</ele><time>2026-04-12T11:05:22.001Z</time></trkpt><trkpt lat="42.37047813312957" lon="12.707997331225636"><ele>975.8571428571429</ele><time>2026-04-12T11:05:23.001Z</time></trkpt><trkpt lat="42.370484623903515" lon="12.707896297293399"><ele>975.2857142857143</ele><time>2026-04-12T11:05:24.001Z</time></trkpt><trkpt lat="42.37049058651188" lon="12.70779542963347"><ele>974.7142857142858</ele><time>2026-04-12T11:05:25.001Z</time></trkpt><trkpt lat="42.37049336925554" lon="12.707699565783672"><ele>974.1428571428571</ele><time>2026-04-12T11:05:26.001Z</time></trkpt><trkpt lat="42.37048901173553" lon="12.707607263044936"><ele>973.5714285714286</ele><time>2026-04-12T11:05:27.001Z</time></trkpt><trkpt lat="42.37048663272534" lon="12.707513333093388"><ele>973.0</ele><time>2026-04-12T11:05:28.001Z</time></trkpt><trkpt lat="42.370488068794806" lon="12.707425921818679"><ele>971.2</ele><time>2026-04-12T11:05:29.001Z</time></trkpt><trkpt lat="42.370480357607" lon="12.707331698066762"><ele>969.4</ele><time>2026-04-12T11:05:30.001Z</time></trkpt><trkpt lat="42.37047553658559" lon="12.707158502625695"><ele>967.6000000000001</ele><time>2026-04-12T11:05:32.001Z</time></trkpt><trkpt lat="42.37048318889902" lon="12.706995208513499"><ele>965.8000000000001</ele><time>2026-04-12T11:05:34.001Z</time></trkpt><trkpt lat="42.37048429102124" lon="12.706896687878794"><ele>964.0</ele><time>2026-04-12T11:05:35.001Z</time></trkpt><trkpt lat="42.370491247160324" lon="12.706787774326342"><ele>963.8333333333333</ele><time>2026-04-12T11:05:36.001Z</time></trkpt><trkpt lat="42.37050993333167" lon="12.706697251252244"><ele>963.6666666666666</ele><time>2026-04-12T11:05:37.001Z</time></trkpt><trkpt lat="42.37051783155051" lon="12.706606487891776"><ele>963.5</ele><time>2026-04-12T11:05:38.001Z</time></trkpt><trkpt lat="42.37052189824709" lon="12.706520426430584"><ele>963.3333333333333</ele><time>2026-04-12T11:05:39.001Z</time></trkpt><trkpt lat="42.37054648148482" lon="12.706353394395354"><ele>963.1666666666666</ele><time>2026-04-12T11:05:41.001Z</time></trkpt><trkpt lat="42.37059022536212" lon="12.706205556165354"><ele>963.0</ele><time>2026-04-12T11:05:43.001Z</time></trkpt><trkpt lat="42.370641839776944" lon="12.706054051009895"><ele>967.5999999999999</ele><time>2026-04-12T11:05:45.001Z</time></trkpt><trkpt lat="42.370715476553706" lon="12.705932820295939"><ele>972.1999999999999</ele><time>2026-04-12T11:05:47.001Z</time></trkpt><trkpt lat="42.3707616516632" lon="12.705869038642504"><ele>976.8</ele><time>2026-04-12T11:05:48.001Z</time></trkpt><trkpt lat="42.37081045125296" lon="12.705802381357955"><ele>981.4</ele><time>2026-04-12T11:05:49.001Z</time></trkpt><trkpt lat="42.3709044826404" lon="12.705671514323678"><ele>986.0</ele><time>2026-04-12T11:05:51.001Z</time></trkpt><trkpt lat="42.370955216131335" lon="12.705603787707398"><ele>986.0</ele><time>2026-04-12T11:05:52.001Z</time></trkpt><trkpt lat="42.371008163105714" lon="12.705538669975242"><ele>986.0</ele><time>2026-04-12T11:05:53.001Z</time></trkpt><trkpt lat="42.37105604640428" lon="12.705475817792255"><ele>986.0</ele><time>2026-04-12T11:05:54.001Z</time></trkpt><trkpt lat="42.37109660803504" lon="12.705402514000284"><ele>986.0</ele><time>2026-04-12T11:05:55.001Z</time></trkpt><trkpt lat="42.371135057378744" lon="12.705330115794988"><ele>986.0</ele><time>2026-04-12T11:05:55.999Z</time></trkpt><trkpt lat="42.37119745720067" lon="12.705241788880496"><ele>986.0</ele><time>2026-04-12T11:05:56.999Z</time></trkpt><trkpt lat="42.37124055602921" lon="12.705179137877495"><ele>986.0</ele><time>2026-04-12T11:05:57.999Z</time></trkpt><trkpt lat="42.37129770673502" lon="12.705114301951566"><ele>986.1666666666667</ele><time>2026-04-12T11:05:58.999Z</time></trkpt><trkpt lat="42.37138523126771" lon="12.705002969401665"><ele>986.3333333333334</ele><time>2026-04-12T11:06:00.999Z</time></trkpt><trkpt lat="42.37144259434354" lon="12.704932067554415"><ele>986.5</ele><time>2026-04-12T11:06:01.999Z</time></trkpt><trkpt lat="42.3714986370712" lon="12.704857516659828"><ele>986.6666666666667</ele><time>2026-04-12T11:06:02.999Z</time></trkpt><trkpt lat="42.371552293719304" lon="12.70478661552596"><ele>986.8333333333334</ele><time>2026-04-12T11:06:03.999Z</time></trkpt><trkpt lat="42.371604464827854" lon="12.704714535043706"><ele>987.0</ele><time>2026-04-12T11:06:04.999Z</time></trkpt><trkpt lat="42.37169798465308" lon="12.704592354370138"><ele>987.0</ele><time>2026-04-12T11:06:06.999Z</time></trkpt><trkpt lat="42.37175139280234" lon="12.704546716538552"><ele>987.0</ele><time>2026-04-12T11:06:07.999Z</time></trkpt><trkpt lat="42.37180933222351" lon="12.704512649505226"><ele>987.0</ele><time>2026-04-12T11:06:08.999Z</time></trkpt><trkpt lat="42.371864636223656" lon="12.704458267011242"><ele>987.0</ele><time>2026-04-12T11:06:10Z</time></trkpt><trkpt lat="42.371957404967226" lon="12.704406668617318"><ele>987.0</ele><time>2026-04-12T11:06:12Z</time></trkpt><trkpt lat="42.372063441596104" lon="12.704426414106544"><ele>987.0</ele><time>2026-04-12T11:06:14Z</time></trkpt><trkpt lat="42.372148787995364" lon="12.704439861848702"><ele>987.6</ele><time>2026-04-12T11:06:17Z</time></trkpt><trkpt lat="42.372195697476045" lon="12.704509617525682"><ele>988.2</ele><time>2026-04-12T11:06:28Z</time></trkpt><trkpt lat="42.37224527924496" lon="12.704621014674016"><ele>988.8</ele><time>2026-04-12T11:06:30Z</time></trkpt><trkpt lat="42.372298293017096" lon="12.704704391215559"><ele>989.4</ele><time>2026-04-12T11:06:32Z</time></trkpt><trkpt lat="42.37235666671713" lon="12.704810663545995"><ele>990.0</ele><time>2026-04-12T11:06:34Z</time></trkpt><trkpt lat="42.372443858149616" lon="12.704910214176657"><ele>990.0</ele><time>2026-04-12T11:06:36Z</time></trkpt><trkpt lat="42.37254815930113" lon="12.704964969243477"><ele>990.0</ele><time>2026-04-12T11:06:39Z</time></trkpt><trkpt lat="42.37264448707265" lon="12.704975686595166"><ele>990.0</ele><time>2026-04-12T11:06:41Z</time></trkpt><trkpt lat="42.372745240906184" lon="12.704981814043222"><ele>990.0</ele><time>2026-04-12T11:06:43Z</time></trkpt><trkpt lat="42.37284012428321" lon="12.704973634980126"><ele>990.0</ele><time>2026-04-12T11:06:45Z</time></trkpt><trkpt lat="42.37293321514265" lon="12.704948931445465"><ele>986.8</ele><time>2026-04-12T11:06:47Z</time></trkpt><trkpt lat="42.37303731401317" lon="12.704943877986457"><ele>983.6</ele><time>2026-04-12T11:06:49Z</time></trkpt><trkpt lat="42.373141680754436" lon="12.70495568137459"><ele>980.4000000000001</ele><time>2026-04-12T11:06:51Z</time></trkpt><trkpt lat="42.37324974946571" lon="12.704966357271937"><ele>977.2</ele><time>2026-04-12T11:06:53Z</time></trkpt><trkpt lat="42.37334230833702" lon="12.704950043078144"><ele>974.0</ele><time>2026-04-12T11:06:55Z</time></trkpt><trkpt lat="42.37343549235757" lon="12.704961096373864"><ele>974.0000000000001</ele><time>2026-04-12T11:06:57Z</time></trkpt><trkpt lat="42.37351558871306" lon="12.704988425143343"><ele>974.0</ele><time>2026-04-12T11:06:59Z</time></trkpt><trkpt lat="42.37360522175039" lon="12.705036675501226"><ele>974.0</ele><time>2026-04-12T11:07:01.001Z</time></trkpt><trkpt lat="42.37371083288045" lon="12.705093146336967"><ele>974.0</ele><time>2026-04-12T11:07:03.001Z</time></trkpt><trkpt lat="42.373772005173144" lon="12.705124569964674"><ele>974.0000000000001</ele><time>2026-04-12T11:07:04.001Z</time></trkpt><trkpt lat="42.37384126249258" lon="12.705174406498882"><ele>974.0</ele><time>2026-04-12T11:07:05.001Z</time></trkpt><trkpt lat="42.37389987336959" lon="12.705207570905015"><ele>974.8333333333334</ele><time>2026-04-12T11:07:06.001Z</time></trkpt><trkpt lat="42.373982645909386" lon="12.705233872292279"><ele>975.6666666666667</ele><time>2026-04-12T11:07:07.001Z</time></trkpt><trkpt lat="42.37405734538668" lon="12.705252790107231"><ele>976.5</ele><time>2026-04-12T11:07:08.001Z</time></trkpt><trkpt lat="42.374142051033154" lon="12.705275946100638"><ele>977.3333333333333</ele><time>2026-04-12T11:07:09.001Z</time></trkpt><trkpt lat="42.37422797061926" lon="12.705285870258216"><ele>978.1666666666666</ele><time>2026-04-12T11:07:10.001Z</time></trkpt><trkpt lat="42.37429370441474" lon="12.70529516865748"><ele>979.0</ele><time>2026-04-12T11:07:11.001Z</time></trkpt><trkpt lat="42.37436322233747" lon="12.705308546022799"><ele>979.0</ele><time>2026-04-12T11:07:12.001Z</time></trkpt><trkpt lat="42.37442431600219" lon="12.705330722607005"><ele>979.0000000000001</ele><time>2026-04-12T11:07:13.001Z</time></trkpt><trkpt lat="42.374512676266214" lon="12.705375384667978"><ele>979.0000000000001</ele><time>2026-04-12T11:07:15.001Z</time></trkpt><trkpt lat="42.37458936246956" lon="12.705437758413483"><ele>979.0</ele><time>2026-04-12T11:07:17.001Z</time></trkpt><trkpt lat="42.374679300967124" lon="12.705528900090837"><ele>979.0</ele><time>2026-04-12T11:07:19.001Z</time></trkpt><trkpt lat="42.37477504651845" lon="12.70557363735867"><ele>976.1666666666666</ele><time>2026-04-12T11:07:21.001Z</time></trkpt><trkpt lat="42.37489915345032" lon="12.705596810206174"><ele>973.3333333333333</ele><time>2026-04-12T11:07:23.001Z</time></trkpt><trkpt lat="42.37496547473035" lon="12.705608655593327"><ele>970.5</ele><time>2026-04-12T11:07:24.001Z</time></trkpt><trkpt lat="42.37502914552968" lon="12.705624498479127"><ele>967.6666666666667</ele><time>2026-04-12T11:07:25.001Z</time></trkpt><trkpt lat="42.375093507334114" lon="12.705644661755425"><ele>964.8333333333334</ele><time>2026-04-12T11:07:26.001Z</time></trkpt><trkpt lat="42.37521220000101" lon="12.705680140847576"><ele>962.0</ele><time>2026-04-12T11:07:28.001Z</time></trkpt><trkpt lat="42.375316588947996" lon="12.705728031415816"><ele>962.0000000000001</ele><time>2026-04-12T11:07:30.001Z</time></trkpt><trkpt lat="42.37540243556613" lon="12.705761084937944"><ele>962.0</ele><time>2026-04-12T11:07:32.001Z</time></trkpt><trkpt lat="42.3754621332144" lon="12.705812046184239"><ele>962.0</ele><time>2026-04-12T11:07:33.001Z</time></trkpt><trkpt lat="42.37555663824952" lon="12.705845222120749"><ele>962.0</ele><time>2026-04-12T11:07:35.001Z</time></trkpt><trkpt lat="42.37562795354458" lon="12.705844571419437"><ele>962.0000000000001</ele><time>2026-04-12T11:07:37.001Z</time></trkpt><trkpt lat="42.37564678168912" lon="12.705745594470033"><ele>962.0</ele><time>2026-04-12T11:07:40.001Z</time></trkpt><trkpt lat="42.37557877154888" lon="12.705694186150383"><ele>962.0000000000001</ele><time>2026-04-12T11:07:43.001Z</time></trkpt><trkpt lat="42.37549892519169" lon="12.705662913202216"><ele>962.0</ele><time>2026-04-12T11:07:45.001Z</time></trkpt><trkpt lat="42.3754342857581" lon="12.705576834122242"><ele>962.0</ele><time>2026-04-12T11:07:47.001Z</time></trkpt><trkpt lat="42.37546778276872" lon="12.705481580049106"><ele>962.0</ele><time>2026-04-12T11:07:50.001Z</time></trkpt><trkpt lat="42.37555978207631" lon="12.705531841619118"><ele>962.0000000000001</ele><time>2026-04-12T11:07:54.001Z</time></trkpt><trkpt lat="42.37563841250257" lon="12.705586677318367"><ele>962.0</ele><time>2026-04-12T11:07:56.001Z</time></trkpt><trkpt lat="42.37573532963226" lon="12.705604985201353"><ele>958.4000000000001</ele><time>2026-04-12T11:07:58.001Z</time></trkpt><trkpt lat="42.375832653430066" lon="12.705586644453119"><ele>954.8000000000001</ele><time>2026-04-12T11:08:00.001Z</time></trkpt><trkpt lat="42.37594019834767" lon="12.705587557104081"><ele>951.2</ele><time>2026-04-12T11:08:01.999Z</time></trkpt><trkpt lat="42.37607162229653" lon="12.70558363640599"><ele>947.6</ele><time>2026-04-12T11:08:03.999Z</time></trkpt><trkpt lat="42.37613674678341" lon="12.705585179448216"><ele>944.0</ele><time>2026-04-12T11:08:04.999Z</time></trkpt><trkpt lat="42.37621129797573" lon="12.705593389062807"><ele>944.0</ele><time>2026-04-12T11:08:05.999Z</time></trkpt><trkpt lat="42.376281594433394" lon="12.705596088586462"><ele>944.0</ele><time>2026-04-12T11:08:06.999Z</time></trkpt><trkpt lat="42.37634699921805" lon="12.705598810264952"><ele>944.0</ele><time>2026-04-12T11:08:07.999Z</time></trkpt><trkpt lat="42.37641565487484" lon="12.705587273323555"><ele>944.0</ele><time>2026-04-12T11:08:08.999Z</time></trkpt><trkpt lat="42.3764818973397" lon="12.705566743611817"><ele>944.0</ele><time>2026-04-12T11:08:09.999Z</time></trkpt><trkpt lat="42.37658849053808" lon="12.705540417393664"><ele>944.0</ele><time>2026-04-12T11:08:11.999Z</time></trkpt><trkpt lat="42.376652401652436" lon="12.705526184208146"><ele>944.0</ele><time>2026-04-12T11:08:12.999Z</time></trkpt><trkpt lat="42.37677107670827" lon="12.705497640735935"><ele>941.5000000000001</ele><time>2026-04-12T11:08:14.999Z</time></trkpt><trkpt lat="42.376838626045945" lon="12.705473284505999"><ele>939.0</ele><time>2026-04-12T11:08:16Z</time></trkpt><trkpt lat="42.37690102459355" lon="12.7054527424096"><ele>936.5</ele><time>2026-04-12T11:08:17Z</time></trkpt><trkpt lat="42.37700659835414" lon="12.70545274686958"><ele>934.0</ele><time>2026-04-12T11:08:19Z</time></trkpt><trkpt lat="42.37710344873995" lon="12.70545413478607"><ele>931.5000000000001</ele><time>2026-04-12T11:08:21Z</time></trkpt><trkpt lat="42.37719962051872" lon="12.705438932219785"><ele>929.0</ele><time>2026-04-12T11:08:23Z</time></trkpt><trkpt lat="42.37728706383487" lon="12.705430823237618"><ele>925.4000000000001</ele><time>2026-04-12T11:08:25Z</time></trkpt><trkpt lat="42.37739031346255" lon="12.70544813289392"><ele>921.8000000000001</ele><time>2026-04-12T11:08:27Z</time></trkpt><trkpt lat="42.377492490030086" lon="12.705416544335316"><ele>918.1999999999999</ele><time>2026-04-12T11:08:29Z</time></trkpt><trkpt lat="42.37758609130497" lon="12.7054056461462"><ele>914.5999999999999</ele><time>2026-04-12T11:08:31Z</time></trkpt><trkpt lat="42.377688046261795" lon="12.705409054758388"><ele>911.0</ele><time>2026-04-12T11:08:34Z</time></trkpt><trkpt lat="42.37767769660692" lon="12.705303433408739"><ele>905.3333333333334</ele><time>2026-04-12T11:08:37Z</time></trkpt><trkpt lat="42.37762395424975" lon="12.705228773375795"><ele>899.6666666666667</ele><time>2026-04-12T11:08:39Z</time></trkpt><trkpt lat="42.37755934291081" lon="12.705177690043927"><ele>894.0</ele><time>2026-04-12T11:08:41Z</time></trkpt><trkpt lat="42.37748298281154" lon="12.705128276678064"><ele>888.3333333333333</ele><time>2026-04-12T11:08:43Z</time></trkpt><trkpt lat="42.37738485926728" lon="12.705070929031168"><ele>882.6666666666666</ele><time>2026-04-12T11:08:45Z</time></trkpt><trkpt lat="42.37731405293325" lon="12.705028971618862"><ele>877.0</ele><time>2026-04-12T11:08:47Z</time></trkpt><trkpt lat="42.37723833914943" lon="12.70494765169577"><ele>880.3333333333333</ele><time>2026-04-12T11:08:48Z</time></trkpt><trkpt lat="42.37716147116098" lon="12.704893009343456"><ele>883.6666666666666</ele><time>2026-04-12T11:08:49Z</time></trkpt><trkpt lat="42.37708688558629" lon="12.704831722640458"><ele>887.0</ele><time>2026-04-12T11:08:50Z</time></trkpt><trkpt lat="42.37702351847621" lon="12.704794289535918"><ele>890.3333333333333</ele><time>2026-04-12T11:08:51Z</time></trkpt><trkpt lat="42.376947620206714" lon="12.70468293228347"><ele>893.6666666666666</ele><time>2026-04-12T11:08:53Z</time></trkpt><trkpt lat="42.37691455638776" lon="12.704596386227747"><ele>897.0</ele><time>2026-04-12T11:08:54Z</time></trkpt><trkpt lat="42.37685573478435" lon="12.704454019177057"><ele>893.2</ele><time>2026-04-12T11:08:56Z</time></trkpt><trkpt lat="42.37678091426657" lon="12.704368120944544"><ele>889.4000000000001</ele><time>2026-04-12T11:08:58Z</time></trkpt><trkpt lat="42.3766861813705" lon="12.70432741736012"><ele>885.5999999999999</ele><time>2026-04-12T11:09:00Z</time></trkpt><trkpt lat="42.37659831879135" lon="12.704280426314254"><ele>881.8</ele><time>2026-04-12T11:09:03.001Z</time></trkpt><trkpt lat="42.37657116291764" lon="12.704158014178935"><ele>878.0</ele><time>2026-04-12T11:09:05.001Z</time></trkpt><trkpt lat="42.37660925913875" lon="12.704086527779587"><ele>878.0000000000001</ele><time>2026-04-12T11:09:06.001Z</time></trkpt><trkpt lat="42.37663660053769" lon="12.704002418952381"><ele>878.0</ele><time>2026-04-12T11:09:07.001Z</time></trkpt><trkpt lat="42.376665962416276" lon="12.703906804687948"><ele>878.0</ele><time>2026-04-12T11:09:08.001Z</time></trkpt><trkpt lat="42.37671813729388" lon="12.703792435117448"><ele>878.0</ele><time>2026-04-12T11:09:09.001Z</time></trkpt><trkpt lat="42.37675301188472" lon="12.70369716299478"><ele>878.0000000000001</ele><time>2026-04-12T11:09:10.001Z</time></trkpt><trkpt lat="42.37676417914693" lon="12.703607852781357"><ele>878.0</ele><time>2026-04-12T11:09:11.001Z</time></trkpt><trkpt lat="42.37679581899008" lon="12.703520265882112"><ele>877.2857142857142</ele><time>2026-04-12T11:09:12.001Z</time></trkpt><trkpt lat="42.376837243395414" lon="12.703430329757557"><ele>876.5714285714286</ele><time>2026-04-12T11:09:13.001Z</time></trkpt><trkpt lat="42.376885783454824" lon="12.703346527821614"><ele>875.8571428571429</ele><time>2026-04-12T11:09:14.001Z</time></trkpt><trkpt lat="42.376927568011354" lon="12.703273547179291"><ele>875.1428571428571</ele><time>2026-04-12T11:09:15.001Z</time></trkpt><trkpt lat="42.37696676328949" lon="12.70317699068685"><ele>874.4285714285714</ele><time>2026-04-12T11:09:16.001Z</time></trkpt><trkpt lat="42.3769906249298" lon="12.703094002546251"><ele>873.7142857142857</ele><time>2026-04-12T11:09:17.001Z</time></trkpt><trkpt lat="42.37702411239536" lon="12.703014503889394"><ele>873.0</ele><time>2026-04-12T11:09:18.001Z</time></trkpt><trkpt lat="42.37704301501222" lon="12.702932426519652"><ele>872.9999999999999</ele><time>2026-04-12T11:09:19.001Z</time></trkpt><trkpt lat="42.37705233572935" lon="12.702840716375599"><ele>873.0</ele><time>2026-04-12T11:09:20.001Z</time></trkpt><trkpt lat="42.377062736385014" lon="12.702738397082872"><ele>873.0</ele><time>2026-04-12T11:09:21.001Z</time></trkpt><trkpt lat="42.377079287243156" lon="12.702644319963708"><ele>873.0</ele><time>2026-04-12T11:09:22.001Z</time></trkpt><trkpt lat="42.377107391683154" lon="12.702537867687942"><ele>873.0</ele><time>2026-04-12T11:09:23.001Z</time></trkpt><trkpt lat="42.377134734742505" lon="12.702427513898787"><ele>872.9999999999999</ele><time>2026-04-12T11:09:24.001Z</time></trkpt><trkpt lat="42.37715084893671" lon="12.702344553798646"><ele>873.0</ele><time>2026-04-12T11:09:25.001Z</time></trkpt><trkpt lat="42.37715904802949" lon="12.702238684056605"><ele>873.1428571428571</ele><time>2026-04-12T11:09:26.001Z</time></trkpt><trkpt lat="42.37716869273548" lon="12.702128804746293"><ele>873.2857142857142</ele><time>2026-04-12T11:09:27.001Z</time></trkpt><trkpt lat="42.37718654554668" lon="12.702032505387853"><ele>873.4285714285713</ele><time>2026-04-12T11:09:28.001Z</time></trkpt><trkpt lat="42.37721000434798" lon="12.701923361581859"><ele>873.5714285714286</ele><time>2026-04-12T11:09:29.001Z</time></trkpt><trkpt lat="42.37722810022931" lon="12.701836940973495"><ele>873.7142857142858</ele><time>2026-04-12T11:09:30.001Z</time></trkpt><trkpt lat="42.37725485841263" lon="12.701757075778817"><ele>873.8571428571428</ele><time>2026-04-12T11:09:31.001Z</time></trkpt><trkpt lat="42.37726985528832" lon="12.701670039091498"><ele>874.0</ele><time>2026-04-12T11:09:32.001Z</time></trkpt><trkpt lat="42.377243761011535" lon="12.70154173537177"><ele>873.4000000000001</ele><time>2026-04-12T11:09:34.001Z</time></trkpt><trkpt lat="42.377217025840274" lon="12.701409940239783"><ele>872.8000000000001</ele><time>2026-04-12T11:09:36.001Z</time></trkpt><trkpt lat="42.37717184626412" lon="12.701343053962198"><ele>872.1999999999999</ele><time>2026-04-12T11:09:37.001Z</time></trkpt><trkpt lat="42.377095701526635" lon="12.701204185680767"><ele>871.5999999999999</ele><time>2026-04-12T11:09:39.001Z</time></trkpt><trkpt lat="42.377028357582105" lon="12.701084741398839"><ele>871.0</ele><time>2026-04-12T11:09:41.001Z</time></trkpt><trkpt lat="42.37699673637334" lon="12.701005304908266"><ele>867.8333333333333</ele><time>2026-04-12T11:09:42.001Z</time></trkpt><trkpt lat="42.376958398370626" lon="12.700921375117966"><ele>864.6666666666666</ele><time>2026-04-12T11:09:43.001Z</time></trkpt><trkpt lat="42.37689234614093" lon="12.700791829617186"><ele>861.5</ele><time>2026-04-12T11:09:45.001Z</time></trkpt><trkpt lat="42.37685386685239" lon="12.700723177354387"><ele>858.3333333333333</ele><time>2026-04-12T11:09:46.001Z</time></trkpt><trkpt lat="42.37681965160289" lon="12.700641299313437"><ele>855.1666666666666</ele><time>2026-04-12T11:09:47.001Z</time></trkpt><trkpt lat="42.37676566848636" lon="12.700489112848995"><ele>852.0</ele><time>2026-04-12T11:09:49.001Z</time></trkpt><trkpt lat="42.3767369300055" lon="12.70040057483576"><ele>852.0</ele><time>2026-04-12T11:09:50.001Z</time></trkpt><trkpt lat="42.376734778679484" lon="12.700302672223048"><ele>852.0</ele><time>2026-04-12T11:09:51.001Z</time></trkpt><trkpt lat="42.376706180086536" lon="12.700202852876833"><ele>852.0</ele><time>2026-04-12T11:09:52.001Z</time></trkpt><trkpt lat="42.37668727159455" lon="12.700101551763332"><ele>852.0</ele><time>2026-04-12T11:09:53.001Z</time></trkpt><trkpt lat="42.37663725941811" lon="12.699990905534582"><ele>852.0</ele><time>2026-04-12T11:09:54.001Z</time></trkpt><trkpt lat="42.376620859179916" lon="12.699886425668367"><ele>852.0</ele><time>2026-04-12T11:09:55.001Z</time></trkpt><trkpt lat="42.37659966449301" lon="12.699794034317286"><ele>846.1666666666666</ele><time>2026-04-12T11:09:56.001Z</time></trkpt><trkpt lat="42.37658891910363" lon="12.699688445832289"><ele>840.3333333333333</ele><time>2026-04-12T11:09:57.001Z</time></trkpt><trkpt lat="42.3765535782745" lon="12.699595258869445"><ele>834.5</ele><time>2026-04-12T11:09:58.001Z</time></trkpt><trkpt lat="42.37650803498743" lon="12.699484223462337"><ele>828.6666666666666</ele><time>2026-04-12T11:09:59.001Z</time></trkpt><trkpt lat="42.37645447964714" lon="12.699383901540843"><ele>822.8333333333333</ele><time>2026-04-12T11:10:00.001Z</time></trkpt><trkpt lat="42.37640245396956" lon="12.699274478309016"><ele>817.0</ele><time>2026-04-12T11:10:01.001Z</time></trkpt><trkpt lat="42.37636912839126" lon="12.699186556194048"><ele>814.6</ele><time>2026-04-12T11:10:02.001Z</time></trkpt><trkpt lat="42.37633896750423" lon="12.69909251843927"><ele>812.2</ele><time>2026-04-12T11:10:03.001Z</time></trkpt><trkpt lat="42.37629407883563" lon="12.698965359087596"><ele>809.8</ele><time>2026-04-12T11:10:05.001Z</time></trkpt><trkpt lat="42.37627274201411" lon="12.698839581966412"><ele>807.4</ele><time>2026-04-12T11:10:07.002Z</time></trkpt><trkpt lat="42.37629076450384" lon="12.69873011822693"><ele>805.0</ele><time>2026-04-12T11:10:08.999Z</time></trkpt><trkpt lat="42.376298278424564" lon="12.698582147882744"><ele>805.0</ele><time>2026-04-12T11:10:10.999Z</time></trkpt><trkpt lat="42.376292723767406" lon="12.698446609341154"><ele>805.0</ele><time>2026-04-12T11:10:12.999Z</time></trkpt><trkpt lat="42.37621265737078" lon="12.698274632655547"><ele>805.0</ele><time>2026-04-12T11:10:14.999Z</time></trkpt><trkpt lat="42.37622237252746" lon="12.698161393378792"><ele>805.0</ele><time>2026-04-12T11:10:16Z</time></trkpt><trkpt lat="42.376208065967134" lon="12.697999404215118"><ele>804.9999999999999</ele><time>2026-04-12T11:10:18Z</time></trkpt><trkpt lat="42.37619640022855" lon="12.697880479135584"><ele>805.0</ele><time>2026-04-12T11:10:19Z</time></trkpt><trkpt lat="42.37615493669721" lon="12.697757775536983"><ele>805.0</ele><time>2026-04-12T11:10:20Z</time></trkpt><trkpt lat="42.37612104027945" lon="12.69766328366434"><ele>805.0</ele><time>2026-04-12T11:10:21Z</time></trkpt><trkpt lat="42.37608270906423" lon="12.697555140329127"><ele>804.9999999999999</ele><time>2026-04-12T11:10:22Z</time></trkpt><trkpt lat="42.376064798123544" lon="12.697445358358877"><ele>805.0</ele><time>2026-04-12T11:10:23Z</time></trkpt><trkpt lat="42.376055801857824" lon="12.697322671520752"><ele>801.8333333333333</ele><time>2026-04-12T11:10:24Z</time></trkpt><trkpt lat="42.37605624856228" lon="12.697214754543788"><ele>798.6666666666666</ele><time>2026-04-12T11:10:25Z</time></trkpt><trkpt lat="42.37604181188611" lon="12.697075927035035"><ele>795.5</ele><time>2026-04-12T11:10:27Z</time></trkpt><trkpt lat="42.376002664929" lon="12.696997690062853"><ele>792.3333333333333</ele><time>2026-04-12T11:10:28Z</time></trkpt><trkpt lat="42.37595190140756" lon="12.696920323315172"><ele>789.1666666666666</ele><time>2026-04-12T11:10:29Z</time></trkpt><trkpt lat="42.37589046035317" lon="12.69683558888991"><ele>786.0</ele><time>2026-04-12T11:10:30Z</time></trkpt><trkpt lat="42.37581550102505" lon="12.696774279351258"><ele>786.0</ele><time>2026-04-12T11:10:31Z</time></trkpt><trkpt lat="42.37574512372233" lon="12.69669763028831"><ele>786.0</ele><time>2026-04-12T11:10:32Z</time></trkpt><trkpt lat="42.37567470068298" lon="12.696616964625806"><ele>786.0</ele><time>2026-04-12T11:10:33Z</time></trkpt><trkpt lat="42.37560354932546" lon="12.696541378597587"><ele>786.0</ele><time>2026-04-12T11:10:34Z</time></trkpt><trkpt lat="42.375554473774315" lon="12.696477394951197"><ele>786.0</ele><time>2026-04-12T11:10:35Z</time></trkpt><trkpt lat="42.37548796283169" lon="12.69640169174196"><ele>786.0</ele><time>2026-04-12T11:10:36Z</time></trkpt><trkpt lat="42.37542435494038" lon="12.696325235158351"><ele>786.0</ele><time>2026-04-12T11:10:37Z</time></trkpt><trkpt lat="42.3753531166618" lon="12.696256153471174"><ele>786.0</ele><time>2026-04-12T11:10:38Z</time></trkpt><trkpt lat="42.37527641122386" lon="12.696190019428922"><ele>786.0</ele><time>2026-04-12T11:10:39Z</time></trkpt><trkpt lat="42.37519727232869" lon="12.696106086058963"><ele>786.0</ele><time>2026-04-12T11:10:40Z</time></trkpt><trkpt lat="42.37512788371472" lon="12.696028997406303"><ele>786.0</ele><time>2026-04-12T11:10:41Z</time></trkpt><trkpt lat="42.375076607715066" lon="12.695950935913128"><ele>786.0</ele><time>2026-04-12T11:10:42Z</time></trkpt><trkpt lat="42.375039243766956" lon="12.695849650829773"><ele>781.6666666666666</ele><time>2026-04-12T11:10:43Z</time></trkpt><trkpt lat="42.374999478369745" lon="12.695736688137789"><ele>777.3333333333334</ele><time>2026-04-12T11:10:44Z</time></trkpt><trkpt lat="42.37496726986539" lon="12.695630982130783"><ele>773.0</ele><time>2026-04-12T11:10:45Z</time></trkpt><trkpt lat="42.374935636887614" lon="12.695541164757373"><ele>768.6666666666667</ele><time>2026-04-12T11:10:46Z</time></trkpt><trkpt lat="42.37489591353296" lon="12.695470522371238"><ele>764.3333333333334</ele><time>2026-04-12T11:10:47Z</time></trkpt><trkpt lat="42.374817434960164" lon="12.695359817159469"><ele>760.0</ele><time>2026-04-12T11:10:49Z</time></trkpt><trkpt lat="42.37474136865537" lon="12.695287395800797"><ele>761.4</ele><time>2026-04-12T11:10:51Z</time></trkpt><trkpt lat="42.374633452645945" lon="12.695242409902892"><ele>762.8</ele><time>2026-04-12T11:10:53Z</time></trkpt><trkpt lat="42.374532521063294" lon="12.695255816068485"><ele>764.2</ele><time>2026-04-12T11:10:55Z</time></trkpt><trkpt lat="42.37440828804997" lon="12.695245585927628"><ele>765.6</ele><time>2026-04-12T11:10:57Z</time></trkpt><trkpt lat="42.374312294910226" lon="12.695253561567686"><ele>767.0</ele><time>2026-04-12T11:10:59Z</time></trkpt><trkpt lat="42.3742031941018" lon="12.69527934214728"><ele>767.0</ele><time>2026-04-12T11:11:01Z</time></trkpt><trkpt lat="42.37408648791817" lon="12.695289391187615"><ele>767.0</ele><time>2026-04-12T11:11:03.001Z</time></trkpt><trkpt lat="42.374016219796815" lon="12.695281478348784"><ele>767.0</ele><time>2026-04-12T11:11:04.001Z</time></trkpt><trkpt lat="42.37395111235173" lon="12.69526100510512"><ele>767.0</ele><time>2026-04-12T11:11:05.001Z</time></trkpt><trkpt lat="42.373883287781005" lon="12.695230593951718"><ele>767.0</ele><time>2026-04-12T11:11:06.001Z</time></trkpt><trkpt lat="42.37380566694566" lon="12.69518947390487"><ele>767.0</ele><time>2026-04-12T11:11:07.001Z</time></trkpt><trkpt lat="42.373730852212084" lon="12.69515511549308"><ele>762.0</ele><time>2026-04-12T11:11:08.001Z</time></trkpt><trkpt lat="42.373660757352916" lon="12.69511909324589"><ele>757.0</ele><time>2026-04-12T11:11:09.001Z</time></trkpt><trkpt lat="42.373593486098905" lon="12.695059406609488"><ele>752.0</ele><time>2026-04-12T11:11:10.001Z</time></trkpt><trkpt lat="42.373529402846216" lon="12.694992162005702"><ele>747.0</ele><time>2026-04-12T11:11:11.001Z</time></trkpt><trkpt lat="42.373453433238026" lon="12.694941295258072"><ele>742.0</ele><time>2026-04-12T11:11:12.001Z</time></trkpt><trkpt lat="42.37338055733641" lon="12.694895207173326"><ele>737.0</ele><time>2026-04-12T11:11:13.001Z</time></trkpt><trkpt lat="42.37330744802043" lon="12.694858098988952"><ele>737.0</ele><time>2026-04-12T11:11:14.001Z</time></trkpt><trkpt lat="42.37323785935633" lon="12.694845801548789"><ele>737.0</ele><time>2026-04-12T11:11:15.001Z</time></trkpt><trkpt lat="42.37315520636746" lon="12.694826823961744"><ele>737.0</ele><time>2026-04-12T11:11:16.001Z</time></trkpt><trkpt lat="42.37305614762622" lon="12.694829816263978"><ele>737.0</ele><time>2026-04-12T11:11:17.001Z</time></trkpt><trkpt lat="42.37293177900133" lon="12.694780630506322"><ele>737.0</ele><time>2026-04-12T11:11:19.001Z</time></trkpt><trkpt lat="42.372874663935754" lon="12.694740861907098"><ele>737.0</ele><time>2026-04-12T11:11:20.001Z</time></trkpt><trkpt lat="42.37279114843691" lon="12.694612890539252"><ele>736.0</ele><time>2026-04-12T11:11:22.001Z</time></trkpt><trkpt lat="42.372773746120686" lon="12.694511806728817"><ele>735.0</ele><time>2026-04-12T11:11:23.001Z</time></trkpt><trkpt lat="42.37276229504406" lon="12.694406935115367"><ele>734.0</ele><time>2026-04-12T11:11:24.001Z</time></trkpt><trkpt lat="42.37274972491399" lon="12.69430707906467"><ele>733.0</ele><time>2026-04-12T11:11:25.001Z</time></trkpt><trkpt lat="42.372680637463816" lon="12.69419799240525"><ele>732.0</ele><time>2026-04-12T11:11:27.001Z</time></trkpt><trkpt lat="42.37262440040023" lon="12.69415387263271"><ele>731.0</ele><time>2026-04-12T11:11:28.001Z</time></trkpt><trkpt lat="42.37256253101779" lon="12.694116796362087"><ele>731.0</ele><time>2026-04-12T11:11:29.001Z</time></trkpt><trkpt lat="42.37249845527995" lon="12.694084137903085"><ele>731.0</ele><time>2026-04-12T11:11:30.001Z</time></trkpt><trkpt lat="42.37239093764333" lon="12.694034193855963"><ele>731.0</ele><time>2026-04-12T11:11:32.001Z</time></trkpt><trkpt lat="42.372287334551885" lon="12.693968261050314"><ele>731.0</ele><time>2026-04-12T11:11:34.001Z</time></trkpt><trkpt lat="42.37220354211638" lon="12.693907640331739"><ele>731.0</ele><time>2026-04-12T11:11:38.001Z</time></trkpt><trkpt lat="42.37212678260315" lon="12.693850855010531"><ele>731.1666666666666</ele><time>2026-04-12T11:11:40.001Z</time></trkpt><trkpt lat="42.372056256969834" lon="12.693769729117463"><ele>731.3333333333333</ele><time>2026-04-12T11:11:43.001Z</time></trkpt><trkpt lat="42.37199451228786" lon="12.693724300577063"><ele>731.5</ele><time>2026-04-12T11:11:45.001Z</time></trkpt><trkpt lat="42.37190910927205" lon="12.693645298938545"><ele>731.6666666666666</ele><time>2026-04-12T11:11:47.001Z</time></trkpt><trkpt lat="42.37185778217831" lon="12.693595476361885"><ele>731.8333333333334</ele><time>2026-04-12T11:11:48.001Z</time></trkpt><trkpt lat="42.37180899637553" lon="12.693538720675802"><ele>732.0</ele><time>2026-04-12T11:11:49.001Z</time></trkpt><trkpt lat="42.37173448397838" lon="12.693451205979084"><ele>732.0</ele><time>2026-04-12T11:11:51.001Z</time></trkpt><trkpt lat="42.37165086282455" lon="12.693290983918319"><ele>732.0</ele><time>2026-04-12T11:11:54.001Z</time></trkpt><trkpt lat="42.37159285174373" lon="12.693213239340567"><ele>732.0</ele><time>2026-04-12T11:11:55.001Z</time></trkpt><trkpt lat="42.37153543080177" lon="12.693154639043174"><ele>732.0</ele><time>2026-04-12T11:11:56.001Z</time></trkpt><trkpt lat="42.37143507937195" lon="12.693055198558241"><ele>732.0</ele><time>2026-04-12T11:11:58.001Z</time></trkpt><trkpt lat="42.37136596796561" lon="12.69301660939712"><ele>732.1666666666666</ele><time>2026-04-12T11:11:59.001Z</time></trkpt><trkpt lat="42.37129163619792" lon="12.692992913901659"><ele>732.3333333333334</ele><time>2026-04-12T11:12:00.001Z</time></trkpt><trkpt lat="42.37122559851802" lon="12.69295290662313"><ele>732.5</ele><time>2026-04-12T11:12:01.001Z</time></trkpt><trkpt lat="42.37111496384064" lon="12.692905243712646"><ele>732.6666666666667</ele><time>2026-04-12T11:12:03.002Z</time></trkpt><trkpt lat="42.371054007868466" lon="12.692882587621133"><ele>732.8333333333334</ele><time>2026-04-12T11:12:04.002Z</time></trkpt><trkpt lat="42.370986236523734" lon="12.692838544988822"><ele>733.0</ele><time>2026-04-12T11:12:05.002Z</time></trkpt><trkpt lat="42.37091864786261" lon="12.692834438801766"><ele>733.0</ele><time>2026-04-12T11:12:06.002Z</time></trkpt><trkpt lat="42.37085564406507" lon="12.692811187528038"><ele>733.0</ele><time>2026-04-12T11:12:07.002Z</time></trkpt><trkpt lat="42.37072238610784" lon="12.692805845392268"><ele>733.0</ele><time>2026-04-12T11:12:09.002Z</time></trkpt><trkpt lat="42.37065893124285" lon="12.692815511838335"><ele>733.0</ele><time>2026-04-12T11:12:10.002Z</time></trkpt><trkpt lat="42.37055817705207" lon="12.692849574574748"><ele>733.0</ele><time>2026-04-12T11:12:12.002Z</time></trkpt><trkpt lat="42.37047083745426" lon="12.692934946896525"><ele>732.3333333333334</ele><time>2026-04-12T11:12:14Z</time></trkpt><trkpt lat="42.3704048439459" lon="12.692922883756829"><ele>731.6666666666667</ele><time>2026-04-12T11:12:17Z</time></trkpt><trkpt lat="42.37043478703397" lon="12.692793816565903"><ele>731.0</ele><time>2026-04-12T11:12:19Z</time></trkpt><trkpt lat="42.37047574997336" lon="12.692713907096978"><ele>730.3333333333334</ele><time>2026-04-12T11:12:20Z</time></trkpt><trkpt lat="42.37051684542253" lon="12.692618139786065"><ele>729.6666666666666</ele><time>2026-04-12T11:12:21Z</time></trkpt><trkpt lat="42.37054941334398" lon="12.692512065261507"><ele>729.0</ele><time>2026-04-12T11:12:22Z</time></trkpt><trkpt lat="42.370577372418744" lon="12.692406176153973"><ele>726.6666666666666</ele><time>2026-04-12T11:12:23Z</time></trkpt><trkpt lat="42.370608086191325" lon="12.692307590341622"><ele>724.3333333333334</ele><time>2026-04-12T11:12:24Z</time></trkpt><trkpt lat="42.37063095959829" lon="12.692217921372944"><ele>722.0</ele><time>2026-04-12T11:12:25Z</time></trkpt><trkpt lat="42.37065012550567" lon="12.69212814672926"><ele>719.6666666666667</ele><time>2026-04-12T11:12:26Z</time></trkpt><trkpt lat="42.37067754955973" lon="12.692048411088242"><ele>717.3333333333334</ele><time>2026-04-12T11:12:27Z</time></trkpt><trkpt lat="42.370711731366704" lon="12.691971224396925"><ele>715.0</ele><time>2026-04-12T11:12:28Z</time></trkpt><trkpt lat="42.37079220731864" lon="12.691869900014096"><ele>712.0</ele><time>2026-04-12T11:12:30Z</time></trkpt><trkpt lat="42.37087148425842" lon="12.691754367512697"><ele>709.0</ele><time>2026-04-12T11:12:32Z</time></trkpt><trkpt lat="42.37093645734069" lon="12.691649746023492"><ele>706.0</ele><time>2026-04-12T11:12:34Z</time></trkpt><trkpt lat="42.37099723076426" lon="12.691548998895934"><ele>703.0</ele><time>2026-04-12T11:12:36Z</time></trkpt><trkpt lat="42.37094514320034" lon="12.691431350184907"><ele>700.0</ele><time>2026-04-12T11:12:40Z</time></trkpt><trkpt lat="42.370881752721324" lon="12.691444089546804"><ele>700.0</ele><time>2026-04-12T11:12:41Z</time></trkpt><trkpt lat="42.37075259135902" lon="12.691491231199203"><ele>700.0</ele><time>2026-04-12T11:12:43Z</time></trkpt><trkpt lat="42.370689457370474" lon="12.691511222810178"><ele>700.0</ele><time>2026-04-12T11:12:44Z</time></trkpt><trkpt lat="42.37060525280524" lon="12.691533081514034"><ele>700.0</ele><time>2026-04-12T11:12:46Z</time></trkpt><trkpt lat="42.3705494303334" lon="12.691463910916866"><ele>700.0</ele><time>2026-04-12T11:12:49Z</time></trkpt><trkpt lat="42.37061323410574" lon="12.691369108168812"><ele>700.0</ele><time>2026-04-12T11:12:52Z</time></trkpt><trkpt lat="42.370665839700834" lon="12.691318189896002"><ele>700.0</ele><time>2026-04-12T11:12:53Z</time></trkpt><trkpt lat="42.370720292564535" lon="12.691242717512734"><ele>700.0</ele><time>2026-04-12T11:12:54Z</time></trkpt><trkpt lat="42.370778068698726" lon="12.691185463767837"><ele>700.0</ele><time>2026-04-12T11:12:55Z</time></trkpt><trkpt lat="42.37085063639061" lon="12.69113745877178"><ele>700.0</ele><time>2026-04-12T11:12:56.001Z</time></trkpt><trkpt lat="42.370912504631846" lon="12.691082081812494"><ele>700.0</ele><time>2026-04-12T11:12:57.001Z</time></trkpt><trkpt lat="42.370946807247336" lon="12.690995555718077"><ele>700.0</ele><time>2026-04-12T11:12:58.001Z</time></trkpt><trkpt lat="42.3710037024622" lon="12.690931791133739"><ele>697.4285714285714</ele><time>2026-04-12T11:12:59.001Z</time></trkpt><trkpt lat="42.371063584879906" lon="12.690889173243175"><ele>694.8571428571429</ele><time>2026-04-12T11:13:00.001Z</time></trkpt><trkpt lat="42.37112196574073" lon="12.690844157058269"><ele>692.2857142857142</ele><time>2026-04-12T11:13:01.001Z</time></trkpt><trkpt lat="42.37118232904365" lon="12.69079660628701"><ele>689.7142857142858</ele><time>2026-04-12T11:13:02.001Z</time></trkpt><trkpt lat="42.37125313675563" lon="12.690766092910424"><ele>687.1428571428571</ele><time>2026-04-12T11:13:03.001Z</time></trkpt><trkpt lat="42.37131400245308" lon="12.690743864040405"><ele>684.5714285714286</ele><time>2026-04-12T11:13:04.001Z</time></trkpt><trkpt lat="42.37138602252582" lon="12.69071817695403"><ele>682.0</ele><time>2026-04-12T11:13:05.001Z</time></trkpt><trkpt lat="42.371471830057295" lon="12.690695899187814"><ele>682.0</ele><time>2026-04-12T11:13:06.001Z</time></trkpt><trkpt lat="42.371552856448865" lon="12.690647717539866"><ele>682.0</ele><time>2026-04-12T11:13:07.001Z</time></trkpt><trkpt lat="42.371627934200454" lon="12.690633824743403"><ele>682.0</ele><time>2026-04-12T11:13:08.001Z</time></trkpt><trkpt lat="42.37169624129646" lon="12.690608550151284"><ele>682.0</ele><time>2026-04-12T11:13:09.001Z</time></trkpt><trkpt lat="42.371769856288154" lon="12.690595031390675"><ele>682.0</ele><time>2026-04-12T11:13:10.001Z</time></trkpt><trkpt lat="42.37183343747018" lon="12.690572110089601"><ele>682.0</ele><time>2026-04-12T11:13:11.001Z</time></trkpt><trkpt lat="42.371901639891355" lon="12.690535319503308"><ele>682.0</ele><time>2026-04-12T11:13:12.001Z</time></trkpt><trkpt lat="42.37201900197172" lon="12.690498846037006"><ele>682.0</ele><time>2026-04-12T11:13:14.001Z</time></trkpt><trkpt lat="42.37208474914296" lon="12.6904800129471"><ele>682.0</ele><time>2026-04-12T11:13:15.001Z</time></trkpt><trkpt lat="42.37215796982074" lon="12.69045786465698"><ele>682.0</ele><time>2026-04-12T11:13:16.001Z</time></trkpt><trkpt lat="42.37226118546003" lon="12.69039412988663"><ele>682.0</ele><time>2026-04-12T11:13:18.001Z</time></trkpt><trkpt lat="42.37234089212646" lon="12.690368745191948"><ele>682.0</ele><time>2026-04-12T11:13:19.001Z</time></trkpt><trkpt lat="42.37241574684229" lon="12.690337128556795"><ele>682.0</ele><time>2026-04-12T11:13:20.001Z</time></trkpt><trkpt lat="42.37248697173071" lon="12.690290300651045"><ele>677.8333333333334</ele><time>2026-04-12T11:13:21.001Z</time></trkpt><trkpt lat="42.37256538290572" lon="12.69025382517881"><ele>673.6666666666667</ele><time>2026-04-12T11:13:22.001Z</time></trkpt><trkpt lat="42.37264435290941" lon="12.690229984171728"><ele>669.5</ele><time>2026-04-12T11:13:23.001Z</time></trkpt><trkpt lat="42.372729403371466" lon="12.690204182798508"><ele>665.3333333333334</ele><time>2026-04-12T11:13:24.001Z</time></trkpt><trkpt lat="42.37279605537839" lon="12.690178075863392"><ele>661.1666666666666</ele><time>2026-04-12T11:13:25.001Z</time></trkpt><trkpt lat="42.37285767382418" lon="12.690158322672906"><ele>657.0</ele><time>2026-04-12T11:13:26.001Z</time></trkpt><trkpt lat="42.37292334383806" lon="12.690142246051169"><ele>654.5</ele><time>2026-04-12T11:13:27.001Z</time></trkpt><trkpt lat="42.37305161833399" lon="12.690146931444344"><ele>652.0</ele><time>2026-04-12T11:13:29.001Z</time></trkpt><trkpt lat="42.373124500724025" lon="12.690152430673328"><ele>649.5</ele><time>2026-04-12T11:13:30.001Z</time></trkpt><trkpt lat="42.373193216217835" lon="12.690142750336843"><ele>647.0</ele><time>2026-04-12T11:13:31.001Z</time></trkpt><trkpt lat="42.373252535898494" lon="12.690096226010228"><ele>644.5</ele><time>2026-04-12T11:13:32.001Z</time></trkpt><trkpt lat="42.373276925132906" lon="12.689958647129458"><ele>642.0</ele><time>2026-04-12T11:13:33.001Z</time></trkpt><trkpt lat="42.37328994748211" lon="12.689844461239648"><ele>642.0</ele><time>2026-04-12T11:13:34.001Z</time></trkpt><trkpt lat="42.37329008646425" lon="12.68974711813245"><ele>642.0</ele><time>2026-04-12T11:13:35.001Z</time></trkpt><trkpt lat="42.37332292900886" lon="12.68965384840975"><ele>642.0</ele><time>2026-04-12T11:13:36.001Z</time></trkpt><trkpt lat="42.37332271525744" lon="12.689560681817708"><ele>642.0</ele><time>2026-04-12T11:13:37.001Z</time></trkpt><trkpt lat="42.37335522335982" lon="12.689408359957874"><ele>642.0</ele><time>2026-04-12T11:13:39.001Z</time></trkpt><trkpt lat="42.37335253374037" lon="12.68922853199571"><ele>639.8333333333334</ele><time>2026-04-12T11:13:41.001Z</time></trkpt><trkpt lat="42.3733351935107" lon="12.689094229423368"><ele>637.6666666666666</ele><time>2026-04-12T11:13:43.001Z</time></trkpt><trkpt lat="42.3733176366545" lon="12.68896466923941"><ele>635.5</ele><time>2026-04-12T11:13:45.001Z</time></trkpt><trkpt lat="42.37336595646446" lon="12.688871089384916"><ele>633.3333333333333</ele><time>2026-04-12T11:13:51.001Z</time></trkpt><trkpt lat="42.37343258954555" lon="12.688852182086785"><ele>631.1666666666666</ele><time>2026-04-12T11:13:53.001Z</time></trkpt><trkpt lat="42.37348983175391" lon="12.688909851875449"><ele>629.0</ele><time>2026-04-12T11:13:55.002Z</time></trkpt><trkpt lat="42.3735822450159" lon="12.68899023497343"><ele>629.0</ele><time>2026-04-12T11:13:57.002Z</time></trkpt><trkpt lat="42.373622483968916" lon="12.68905972983239"><ele>629.0</ele><time>2026-04-12T11:13:58.002Z</time></trkpt><trkpt lat="42.3737012479194" lon="12.689218528625876"><ele>629.0</ele><time>2026-04-12T11:14:00.002Z</time></trkpt><trkpt lat="42.3737590600027" lon="12.689380804555059"><ele>629.0</ele><time>2026-04-12T11:14:02.002Z</time></trkpt><trkpt lat="42.37379982221751" lon="12.68949070372197"><ele>629.0</ele><time>2026-04-12T11:14:03.002Z</time></trkpt><trkpt lat="42.37383697028147" lon="12.689588653746398"><ele>627.3333333333333</ele><time>2026-04-12T11:14:04.002Z</time></trkpt><trkpt lat="42.37386621749718" lon="12.689680104825923"><ele>625.6666666666666</ele><time>2026-04-12T11:14:05.002Z</time></trkpt><trkpt lat="42.373899224103766" lon="12.68977543672942"><ele>624.0</ele><time>2026-04-12T11:14:06.002Z</time></trkpt><trkpt lat="42.37393171496654" lon="12.689871049466264"><ele>622.3333333333334</ele><time>2026-04-12T11:14:07.002Z</time></trkpt><trkpt lat="42.37396097580912" lon="12.689967042379436"><ele>620.6666666666667</ele><time>2026-04-12T11:14:08.002Z</time></trkpt><trkpt lat="42.374002365027216" lon="12.690075189701284"><ele>619.0</ele><time>2026-04-12T11:14:09.002Z</time></trkpt><trkpt lat="42.37403680055608" lon="12.690155719420238"><ele>620.1666666666667</ele><time>2026-04-12T11:14:10.002Z</time></trkpt><trkpt lat="42.37406594982823" lon="12.690259318005067"><ele>621.3333333333334</ele><time>2026-04-12T11:14:11.002Z</time></trkpt><trkpt lat="42.374104703671875" lon="12.690355107600992"><ele>622.5</ele><time>2026-04-12T11:14:12.002Z</time></trkpt><trkpt lat="42.37413875345531" lon="12.690433715066916"><ele>623.6666666666666</ele><time>2026-04-12T11:14:13.002Z</time></trkpt><trkpt lat="42.374181879688614" lon="12.690516406350586"><ele>624.8333333333333</ele><time>2026-04-12T11:14:14.002Z</time></trkpt><trkpt lat="42.37425693370437" lon="12.690601713804837"><ele>626.0</ele><time>2026-04-12T11:14:16.002Z</time></trkpt><trkpt lat="42.37432136615149" lon="12.690601248601057"><ele>626.0</ele><time>2026-04-12T11:14:17.002Z</time></trkpt><trkpt lat="42.374394517482244" lon="12.6905019368041"><ele>626.0</ele><time>2026-04-12T11:14:18.002Z</time></trkpt><trkpt lat="42.374416733508404" lon="12.690400882526477"><ele>626.0</ele><time>2026-04-12T11:14:19.002Z</time></trkpt><trkpt lat="42.37445838773903" lon="12.690328519696429"><ele>626.0</ele><time>2026-04-12T11:14:20Z</time></trkpt><trkpt lat="42.37449019184205" lon="12.690210784561303"><ele>626.0</ele><time>2026-04-12T11:14:28Z</time></trkpt><trkpt lat="42.374503186101556" lon="12.690051228685524"><ele>625.0</ele><time>2026-04-12T11:14:30Z</time></trkpt><trkpt lat="42.37449492837044" lon="12.689965248033369"><ele>624.0</ele><time>2026-04-12T11:14:31Z</time></trkpt><trkpt lat="42.37451086422412" lon="12.689875022930561"><ele>623.0</ele><time>2026-04-12T11:14:32Z</time></trkpt><trkpt lat="42.37453613240714" lon="12.689773333060877"><ele>622.0</ele><time>2026-04-12T11:14:33Z</time></trkpt><trkpt lat="42.37455527939798" lon="12.689672136100205"><ele>621.0</ele><time>2026-04-12T11:14:34Z</time></trkpt><trkpt lat="42.374584861822214" lon="12.689573658072602"><ele>620.0</ele><time>2026-04-12T11:14:35Z</time></trkpt><trkpt lat="42.37460715324" lon="12.68946711409272"><ele>619.0</ele><time>2026-04-12T11:14:36Z</time></trkpt><trkpt lat="42.374629377191056" lon="12.689369907198895"><ele>618.0</ele><time>2026-04-12T11:14:37Z</time></trkpt><trkpt lat="42.37465298473883" lon="12.6892569285043"><ele>617.0</ele><time>2026-04-12T11:14:38Z</time></trkpt><trkpt lat="42.37467513936174" lon="12.689142301997506"><ele>616.0</ele><time>2026-04-12T11:14:39Z</time></trkpt><trkpt lat="42.37469548697322" lon="12.689027871265901"><ele>615.0</ele><time>2026-04-12T11:14:40Z</time></trkpt><trkpt lat="42.37471776156189" lon="12.688906731092263"><ele>614.0</ele><time>2026-04-12T11:14:41Z</time></trkpt><trkpt lat="42.37474900256319" lon="12.6887868105323"><ele>613.0</ele><time>2026-04-12T11:14:42Z</time></trkpt><trkpt lat="42.3747809058829" lon="12.688683538371137"><ele>609.8333333333334</ele><time>2026-04-12T11:14:43Z</time></trkpt><trkpt lat="42.374826193777295" lon="12.688588071472807"><ele>606.6666666666667</ele><time>2026-04-12T11:14:44Z</time></trkpt><trkpt lat="42.37488836414101" lon="12.688521204481034"><ele>603.5</ele><time>2026-04-12T11:14:45Z</time></trkpt><trkpt lat="42.37493718252412" lon="12.688417436283702"><ele>600.3333333333334</ele><time>2026-04-12T11:14:46Z</time></trkpt><trkpt lat="42.37497079493245" lon="12.68831340206048"><ele>597.1666666666666</ele><time>2026-04-12T11:14:47Z</time></trkpt><trkpt lat="42.37500530136062" lon="12.688224764946233"><ele>594.0</ele><time>2026-04-12T11:14:48Z</time></trkpt><trkpt lat="42.37504102513322" lon="12.688133000997553"><ele>594.0</ele><time>2026-04-12T11:14:49Z</time></trkpt><trkpt lat="42.375088218162865" lon="12.688039660899442"><ele>594.0</ele><time>2026-04-12T11:14:50Z</time></trkpt><trkpt lat="42.37512581253952" lon="12.6879552706342"><ele>594.0</ele><time>2026-04-12T11:14:51Z</time></trkpt><trkpt lat="42.37521590911284" lon="12.687824571007894"><ele>594.0</ele><time>2026-04-12T11:14:53Z</time></trkpt><trkpt lat="42.375255530477084" lon="12.687718085010639"><ele>594.0</ele><time>2026-04-12T11:14:54Z</time></trkpt><trkpt lat="42.37529389786795" lon="12.687611670378637"><ele>590.1666666666666</ele><time>2026-04-12T11:14:55Z</time></trkpt><trkpt lat="42.3753296916006" lon="12.687509894182332"><ele>586.3333333333334</ele><time>2026-04-12T11:14:56.001Z</time></trkpt><trkpt lat="42.375376505815844" lon="12.68741419243449"><ele>582.5</ele><time>2026-04-12T11:14:57.001Z</time></trkpt><trkpt lat="42.375419664268414" lon="12.687317181418758"><ele>578.6666666666667</ele><time>2026-04-12T11:14:58.001Z</time></trkpt><trkpt lat="42.375452833196725" lon="12.687203908339422"><ele>574.8333333333334</ele><time>2026-04-12T11:14:59.001Z</time></trkpt><trkpt lat="42.375470213942656" lon="12.68708821834431"><ele>571.0</ele><time>2026-04-12T11:15:00.001Z</time></trkpt><trkpt lat="42.37548273258754" lon="12.68698311496381"><ele>572.1666666666667</ele><time>2026-04-12T11:15:01.001Z</time></trkpt><trkpt lat="42.37550381005948" lon="12.68689108293895"><ele>573.3333333333334</ele><time>2026-04-12T11:15:02.001Z</time></trkpt><trkpt lat="42.375515208503714" lon="12.686797066238782"><ele>574.5</ele><time>2026-04-12T11:15:03.001Z</time></trkpt><trkpt lat="42.37551220838276" lon="12.68669507275796"><ele>575.6666666666666</ele><time>2026-04-12T11:15:04.001Z</time></trkpt><trkpt lat="42.37557251516922" lon="12.686557793000274"><ele>576.8333333333333</ele><time>2026-04-12T11:15:06.001Z</time></trkpt><trkpt lat="42.37560931448461" lon="12.686481380051644"><ele>578.0</ele><time>2026-04-12T11:15:07.001Z</time></trkpt><trkpt lat="42.375655252476506" lon="12.686415517768504"><ele>578.0</ele><time>2026-04-12T11:15:08.001Z</time></trkpt><trkpt lat="42.37570939187748" lon="12.686359737432008"><ele>578.0</ele><time>2026-04-12T11:15:09.001Z</time></trkpt><trkpt lat="42.37580268789588" lon="12.6862927054792"><ele>578.0</ele><time>2026-04-12T11:15:11.001Z</time></trkpt><trkpt lat="42.37590811299456" lon="12.68629023795119"><ele>578.0</ele><time>2026-04-12T11:15:13.001Z</time></trkpt><trkpt lat="42.37596787795585" lon="12.686352035805056"><ele>578.0</ele><time>2026-04-12T11:15:15.001Z</time></trkpt><trkpt lat="42.37608329791897" lon="12.686428880254242"><ele>578.0</ele><time>2026-04-12T11:15:17.001Z</time></trkpt><trkpt lat="42.37617137397626" lon="12.686545028416173"><ele>578.0</ele><time>2026-04-12T11:15:19.001Z</time></trkpt><trkpt lat="42.37624512701308" lon="12.686646376298627"><ele>578.0</ele><time>2026-04-12T11:15:21.001Z</time></trkpt><trkpt lat="42.37630253882106" lon="12.68670004198893"><ele>578.0</ele><time>2026-04-12T11:15:22.001Z</time></trkpt><trkpt lat="42.37638679529829" lon="12.686817916873366"><ele>578.0</ele><time>2026-04-12T11:15:24.001Z</time></trkpt><trkpt lat="42.37644864583239" lon="12.686902008356327"><ele>574.1999999999999</ele><time>2026-04-12T11:15:26.001Z</time></trkpt><trkpt lat="42.376551990229586" lon="12.686883192413411"><ele>570.4</ele><time>2026-04-12T11:15:28.001Z</time></trkpt><trkpt lat="42.37659185591861" lon="12.686777324974429"><ele>566.5999999999999</ele><time>2026-04-12T11:15:29.001Z</time></trkpt><trkpt lat="42.37654880787252" lon="12.686630055655304"><ele>562.8</ele><time>2026-04-12T11:15:30.001Z</time></trkpt><trkpt lat="42.3765684090835" lon="12.686527264864772"><ele>559.0</ele><time>2026-04-12T11:15:32.001Z</time></trkpt><trkpt lat="42.37659422253365" lon="12.686401617159976"><ele>559.0</ele><time>2026-04-12T11:15:34.001Z</time></trkpt><trkpt lat="42.37662559125309" lon="12.686287290980694"><ele>559.0</ele><time>2026-04-12T11:15:36.001Z</time></trkpt><trkpt lat="42.37666666270769" lon="12.686202062213146"><ele>559.0</ele><time>2026-04-12T11:15:38.001Z</time></trkpt><trkpt lat="42.37673449375992" lon="12.686161012452496"><ele>559.0</ele><time>2026-04-12T11:15:40.001Z</time></trkpt><trkpt lat="42.37685016527335" lon="12.68614375035761"><ele>559.0</ele><time>2026-04-12T11:15:42.001Z</time></trkpt><trkpt lat="42.376968640720776" lon="12.686155145339098"><ele>559.0</ele><time>2026-04-12T11:15:44.001Z</time></trkpt><trkpt lat="42.37707182655479" lon="12.686149257739961"><ele>559.0</ele><time>2026-04-12T11:15:45.001Z</time></trkpt><trkpt lat="42.37716997068095" lon="12.686096150739795"><ele>559.0</ele><time>2026-04-12T11:15:47.001Z</time></trkpt><trkpt lat="42.37722025905112" lon="12.68602121495885"><ele>559.0</ele><time>2026-04-12T11:15:48.001Z</time></trkpt><trkpt lat="42.377207806047224" lon="12.685920755918527"><ele>559.0</ele><time>2026-04-12T11:15:49.001Z</time></trkpt><trkpt lat="42.37725211882986" lon="12.68578550239135"><ele>555.5</ele><time>2026-04-12T11:15:51.001Z</time></trkpt><trkpt lat="42.377301326305584" lon="12.685685613689369"><ele>552.0</ele><time>2026-04-12T11:15:53.001Z</time></trkpt><trkpt lat="42.37735075457638" lon="12.685594876898852"><ele>548.5</ele><time>2026-04-12T11:15:55.001Z</time></trkpt><trkpt lat="42.377423529916186" lon="12.685598048904147"><ele>545.0</ele><time>2026-04-12T11:15:57.001Z</time></trkpt><trkpt lat="42.37749062237494" lon="12.685628290330243"><ele>541.5</ele><time>2026-04-12T11:15:59.002Z</time></trkpt><trkpt lat="42.37758891297343" lon="12.685704840912955"><ele>538.0</ele><time>2026-04-12T11:16:01.002Z</time></trkpt><trkpt lat="42.37765894114927" lon="12.685740602081772"><ele>538.0</ele><time>2026-04-12T11:16:02.002Z</time></trkpt><trkpt lat="42.37771936847118" lon="12.685795287116294"><ele>538.0</ele><time>2026-04-12T11:16:03.002Z</time></trkpt><trkpt lat="42.377800739957216" lon="12.685807921063871"><ele>538.0</ele><time>2026-04-12T11:16:04.002Z</time></trkpt><trkpt lat="42.37788138179649" lon="12.685805718172544"><ele>538.0</ele><time>2026-04-12T11:16:05.002Z</time></trkpt><trkpt lat="42.37795867159038" lon="12.685795580238493"><ele>538.0</ele><time>2026-04-12T11:16:06.002Z</time></trkpt><trkpt lat="42.37802416216977" lon="12.685783182727693"><ele>538.0</ele><time>2026-04-12T11:16:07.002Z</time></trkpt><trkpt lat="42.37808975562687" lon="12.685749928105635"><ele>538.0</ele><time>2026-04-12T11:16:08.002Z</time></trkpt><trkpt lat="42.378157229589284" lon="12.685734627161777"><ele>537.0</ele><time>2026-04-12T11:16:09.002Z</time></trkpt><trkpt lat="42.378227927712054" lon="12.685703866355889"><ele>536.0</ele><time>2026-04-12T11:16:10.002Z</time></trkpt><trkpt lat="42.37834243904341" lon="12.685622968495107"><ele>535.0</ele><time>2026-04-12T11:16:12.002Z</time></trkpt><trkpt lat="42.378411923902114" lon="12.685579532111309"><ele>534.0</ele><time>2026-04-12T11:16:13.002Z</time></trkpt><trkpt lat="42.37847691214274" lon="12.685518702884542"><ele>533.0</ele><time>2026-04-12T11:16:14.002Z</time></trkpt><trkpt lat="42.378550426838146" lon="12.685435484155684"><ele>533.0</ele><time>2026-04-12T11:16:15.002Z</time></trkpt><trkpt lat="42.378608393671634" lon="12.685354179623099"><ele>533.0</ele><time>2026-04-12T11:16:16.002Z</time></trkpt><trkpt lat="42.37866042488186" lon="12.68527532686403"><ele>533.0</ele><time>2026-04-12T11:16:17.002Z</time></trkpt><trkpt lat="42.378715665901765" lon="12.68519456081401"><ele>533.0</ele><time>2026-04-12T11:16:18.002Z</time></trkpt><trkpt lat="42.378772833444984" lon="12.685120439635464"><ele>533.0</ele><time>2026-04-12T11:16:19.002Z</time></trkpt><trkpt lat="42.37883334277215" lon="12.685031984549331"><ele>533.0</ele><time>2026-04-12T11:16:20.002Z</time></trkpt><trkpt lat="42.3788975482743" lon="12.68499266027769"><ele>532.3333333333333</ele><time>2026-04-12T11:16:21.002Z</time></trkpt><trkpt lat="42.378975511015945" lon="12.684922108739741"><ele>531.6666666666666</ele><time>2026-04-12T11:16:22.002Z</time></trkpt><trkpt lat="42.379050825880014" lon="12.684857118441018"><ele>531.0</ele><time>2026-04-12T11:16:23.002Z</time></trkpt><trkpt lat="42.37911885050504" lon="12.684806987805215"><ele>530.3333333333334</ele><time>2026-04-12T11:16:24.002Z</time></trkpt><trkpt lat="42.37920196987935" lon="12.684774720190974"><ele>529.6666666666667</ele><time>2026-04-12T11:16:25.002Z</time></trkpt><trkpt lat="42.37927843785092" lon="12.68475880731213"><ele>529.0</ele><time>2026-04-12T11:16:26Z</time></trkpt><trkpt lat="42.37936563456941" lon="12.684736386534006"><ele>529.0</ele><time>2026-04-12T11:16:27Z</time></trkpt><trkpt lat="42.379450679162375" lon="12.68471492440735"><ele>529.0</ele><time>2026-04-12T11:16:28Z</time></trkpt><trkpt lat="42.37954009693578" lon="12.68473528122702"><ele>529.0</ele><time>2026-04-12T11:16:29Z</time></trkpt><trkpt lat="42.37960392769595" lon="12.684745263454115"><ele>529.0</ele><time>2026-04-12T11:16:30Z</time></trkpt><trkpt lat="42.37968876624848" lon="12.684759482234329"><ele>529.0</ele><time>2026-04-12T11:16:31Z</time></trkpt><trkpt lat="42.3797626756895" lon="12.684769846991482"><ele>529.0</ele><time>2026-04-12T11:16:32Z</time></trkpt><trkpt lat="42.379838764707806" lon="12.684792297066924"><ele>528.0</ele><time>2026-04-12T11:16:33Z</time></trkpt><trkpt lat="42.379961321522416" lon="12.684803090659736"><ele>527.0</ele><time>2026-04-12T11:16:35Z</time></trkpt><trkpt lat="42.380032550176104" lon="12.6848159422692"><ele>526.0</ele><time>2026-04-12T11:16:36Z</time></trkpt><trkpt lat="42.38009667560565" lon="12.684800834516055"><ele>525.0</ele><time>2026-04-12T11:16:37Z</time></trkpt><trkpt lat="42.38017236319692" lon="12.68481793046451"><ele>524.0</ele><time>2026-04-12T11:16:38Z</time></trkpt><trkpt lat="42.380244132611004" lon="12.68485428350274"><ele>523.0</ele><time>2026-04-12T11:16:39Z</time></trkpt><trkpt lat="42.380349092782225" lon="12.684862884085284"><ele>523.0</ele><time>2026-04-12T11:16:41Z</time></trkpt><trkpt lat="42.380402658485636" lon="12.684757540667137"><ele>523.0</ele><time>2026-04-12T11:16:45Z</time></trkpt><trkpt lat="42.380386276874404" lon="12.684602356429869"><ele>523.0</ele><time>2026-04-12T11:16:47Z</time></trkpt><trkpt lat="42.38036638746442" lon="12.684497913126947"><ele>523.0</ele><time>2026-04-12T11:16:48Z</time></trkpt><trkpt lat="42.38035085081754" lon="12.68439406556197"><ele>523.0</ele><time>2026-04-12T11:16:49Z</time></trkpt><trkpt lat="42.3803375001688" lon="12.68429365244407"><ele>523.0</ele><time>2026-04-12T11:16:50Z</time></trkpt><trkpt lat="42.380371850677896" lon="12.684125048542592"><ele>522.5</ele><time>2026-04-12T11:16:52Z</time></trkpt><trkpt lat="42.380443634907444" lon="12.684044864299334"><ele>522.0</ele><time>2026-04-12T11:16:54Z</time></trkpt><trkpt lat="42.38050508212806" lon="12.683941001677447"><ele>521.5</ele><time>2026-04-12T11:16:58Z</time></trkpt><trkpt lat="42.380575457110595" lon="12.68395627857122"><ele>521.0</ele><time>2026-04-12T11:16:59Z</time></trkpt><trkpt lat="42.380652700399224" lon="12.683942069577194"><ele>520.5</ele><time>2026-04-12T11:17:00Z</time></trkpt><trkpt lat="42.38072917800708" lon="12.68392120356222"><ele>520.0</ele><time>2026-04-12T11:17:01.001Z</time></trkpt><trkpt lat="42.38083361076942" lon="12.683892990886777"><ele>520.0</ele><time>2026-04-12T11:17:02.001Z</time></trkpt><trkpt lat="42.380937863566885" lon="12.683866241186607"><ele>520.0</ele><time>2026-04-12T11:17:03.001Z</time></trkpt><trkpt lat="42.38106467486078" lon="12.683835450743649"><ele>520.0</ele><time>2026-04-12T11:17:04.001Z</time></trkpt><trkpt lat="42.38118485999095" lon="12.68379980756378"><ele>520.0</ele><time>2026-04-12T11:17:05.001Z</time></trkpt><trkpt lat="42.38130463362811" lon="12.68376294564118"><ele>520.0</ele><time>2026-04-12T11:17:06.001Z</time></trkpt><trkpt lat="42.381402821901226" lon="12.683735911126496"><ele>520.0</ele><time>2026-04-12T11:17:07.001Z</time></trkpt><trkpt lat="42.381510316097064" lon="12.683705022006679"><ele>520.0</ele><time>2026-04-12T11:17:08.001Z</time></trkpt><trkpt lat="42.38160660546535" lon="12.683670479589194"><ele>520.0</ele><time>2026-04-12T11:17:09.001Z</time></trkpt><trkpt lat="42.38168295468713" lon="12.683642094055601"><ele>520.0</ele><time>2026-04-12T11:17:10.001Z</time></trkpt><trkpt lat="42.38175168361558" lon="12.68361906690134"><ele>520.0</ele><time>2026-04-12T11:17:11.001Z</time></trkpt><trkpt lat="42.38181733608386" lon="12.683611516257296"><ele>520.0</ele><time>2026-04-12T11:17:12.001Z</time></trkpt><trkpt lat="42.381886252082104" lon="12.683609328754205"><ele>520.0</ele><time>2026-04-12T11:17:13.001Z</time></trkpt><trkpt lat="42.38195562099877" lon="12.68360385770608"><ele>520.0</ele><time>2026-04-12T11:17:14.001Z</time></trkpt><trkpt lat="42.38204443110937" lon="12.683601840688825"><ele>520.0</ele><time>2026-04-12T11:17:15.001Z</time></trkpt><trkpt lat="42.38211408488762" lon="12.683608671509104"><ele>520.0</ele><time>2026-04-12T11:17:16.001Z</time></trkpt><trkpt lat="42.38222026895603" lon="12.683641814726085"><ele>521.0</ele><time>2026-04-12T11:17:18.001Z</time></trkpt><trkpt lat="42.382335586494655" lon="12.683686033159502"><ele>522.0</ele><time>2026-04-12T11:17:20.001Z</time></trkpt><trkpt lat="42.382402593525015" lon="12.683714552738406"><ele>523.0</ele><time>2026-04-12T11:17:21.001Z</time></trkpt><trkpt lat="42.38247428919668" lon="12.683735525682225"><ele>524.0</ele><time>2026-04-12T11:17:22.001Z</time></trkpt><trkpt lat="42.382545685258215" lon="12.683742469994554"><ele>525.0</ele><time>2026-04-12T11:17:23.001Z</time></trkpt><trkpt lat="42.38261136317846" lon="12.68373279496756"><ele>526.0</ele><time>2026-04-12T11:17:24.001Z</time></trkpt><trkpt lat="42.382714766132864" lon="12.683689878248583"><ele>526.0</ele><time>2026-04-12T11:17:26.001Z</time></trkpt><trkpt lat="42.38280302547921" lon="12.683616580251451"><ele>526.0</ele><time>2026-04-12T11:17:28.001Z</time></trkpt><trkpt lat="42.382867020883765" lon="12.683605438421756"><ele>526.0</ele><time>2026-04-12T11:17:29.001Z</time></trkpt><trkpt lat="42.382934484570406" lon="12.683624155400476"><ele>526.0</ele><time>2026-04-12T11:17:30.001Z</time></trkpt><trkpt lat="42.383005903243514" lon="12.68367146673522"><ele>526.0</ele><time>2026-04-12T11:17:32.001Z</time></trkpt><trkpt lat="42.38306559939403" lon="12.68370051912014"><ele>535.0</ele><time>2026-04-12T11:17:36.001Z</time></trkpt></trkseg></trk></gpx>